<?xml version="1.0" encoding="UTF-8" standalone="no" ?>
<gpx xmlns="http://www.topografix.com/GPX/1/1" xmlns:xsi="http://www.w3.org/2001/XMLSchema-instance" xsi:schemaLocation="http://www.topografix.com/GPX/1/1 http://www.topografix.com/GPX/1/1/gpx.xsd" version="1.1" creator="VisuGPX - https://www.visugpx.com">
  <metadata>
    <name>Auzet Col du Fanget </name>
  </metadata>
  <trk>
    <name><![CDATA[Auzet Col du Fanget _1]]></name>
    <trkseg>
      <trkpt lat="44.32707" lon="6.3281">
        <ele>1507.4</ele>
        <time>2024-02-25T09:16:20Z</time>
      </trkpt>
      <trkpt lat="44.32707" lon="6.3281">
        <ele>1508</ele>
        <time>2024-02-25T09:16:21Z</time>
      </trkpt>
      <trkpt lat="44.32706" lon="6.3281">
        <ele>1508.4</ele>
        <time>2024-02-25T09:16:22Z</time>
      </trkpt>
      <trkpt lat="44.32702" lon="6.3281">
        <ele>1508.8</ele>
        <time>2024-02-25T09:16:25Z</time>
      </trkpt>
      <trkpt lat="44.32701" lon="6.3281">
        <ele>1508.8</ele>
        <time>2024-02-25T09:16:26Z</time>
      </trkpt>
      <trkpt lat="44.32698" lon="6.3281">
        <ele>1509</ele>
        <time>2024-02-25T09:16:28Z</time>
      </trkpt>
      <trkpt lat="44.32697" lon="6.32809">
        <ele>1509</ele>
        <time>2024-02-25T09:16:29Z</time>
      </trkpt>
      <trkpt lat="44.32696" lon="6.32809">
        <ele>1509</ele>
        <time>2024-02-25T09:16:30Z</time>
      </trkpt>
      <trkpt lat="44.32695" lon="6.32808">
        <ele>1509.2</ele>
        <time>2024-02-25T09:16:31Z</time>
      </trkpt>
      <trkpt lat="44.32693" lon="6.32807">
        <ele>1509.4</ele>
        <time>2024-02-25T09:16:33Z</time>
      </trkpt>
      <trkpt lat="44.32692" lon="6.32806">
        <ele>1509.6</ele>
        <time>2024-02-25T09:16:35Z</time>
      </trkpt>
      <trkpt lat="44.32691" lon="6.32806">
        <ele>1509.8</ele>
        <time>2024-02-25T09:16:39Z</time>
      </trkpt>
      <trkpt lat="44.32686" lon="6.32802">
        <ele>1508.8</ele>
        <time>2024-02-25T09:16:45Z</time>
      </trkpt>
      <trkpt lat="44.32675" lon="6.32796">
        <ele>1508.8</ele>
        <time>2024-02-25T09:16:55Z</time>
      </trkpt>
      <trkpt lat="44.32664" lon="6.3279">
        <ele>1508.6</ele>
        <time>2024-02-25T09:17:05Z</time>
      </trkpt>
      <trkpt lat="44.32654" lon="6.32785">
        <ele>1508.4</ele>
        <time>2024-02-25T09:17:15Z</time>
      </trkpt>
      <trkpt lat="44.32649" lon="6.32782">
        <ele>1507.6</ele>
        <time>2024-02-25T09:17:21Z</time>
      </trkpt>
      <trkpt lat="44.32644" lon="6.32782">
        <ele>1507.8</ele>
        <time>2024-02-25T09:17:25Z</time>
      </trkpt>
      <trkpt lat="44.32641" lon="6.32781">
        <ele>1507.8</ele>
        <time>2024-02-25T09:17:28Z</time>
      </trkpt>
      <trkpt lat="44.32632" lon="6.3278">
        <ele>1507.8</ele>
        <time>2024-02-25T09:17:35Z</time>
      </trkpt>
      <trkpt lat="44.32626" lon="6.3278">
        <ele>1507.8</ele>
        <time>2024-02-25T09:17:41Z</time>
      </trkpt>
      <trkpt lat="44.32624" lon="6.3278">
        <ele>1507.8</ele>
        <time>2024-02-25T09:17:43Z</time>
      </trkpt>
      <trkpt lat="44.32621" lon="6.32779">
        <ele>1507.8</ele>
        <time>2024-02-25T09:17:45Z</time>
      </trkpt>
      <trkpt lat="44.32608" lon="6.32778">
        <ele>1507.6</ele>
        <time>2024-02-25T09:17:54Z</time>
      </trkpt>
      <trkpt lat="44.32607" lon="6.32778">
        <ele>1507.6</ele>
        <time>2024-02-25T09:17:55Z</time>
      </trkpt>
      <trkpt lat="44.32594" lon="6.32783">
        <ele>1508.2</ele>
        <time>2024-02-25T09:18:05Z</time>
      </trkpt>
      <trkpt lat="44.32582" lon="6.32788">
        <ele>1508.4</ele>
        <time>2024-02-25T09:18:14Z</time>
      </trkpt>
      <trkpt lat="44.3258" lon="6.32788">
        <ele>1508.4</ele>
        <time>2024-02-25T09:18:15Z</time>
      </trkpt>
      <trkpt lat="44.3257" lon="6.32795">
        <ele>1508.4</ele>
        <time>2024-02-25T09:18:24Z</time>
      </trkpt>
      <trkpt lat="44.32569" lon="6.32795">
        <ele>1508.4</ele>
        <time>2024-02-25T09:18:25Z</time>
      </trkpt>
      <trkpt lat="44.32565" lon="6.32796">
        <ele>1508.2</ele>
        <time>2024-02-25T09:18:28Z</time>
      </trkpt>
      <trkpt lat="44.32557" lon="6.328">
        <ele>1508.2</ele>
        <time>2024-02-25T09:18:35Z</time>
      </trkpt>
      <trkpt lat="44.32554" lon="6.32801">
        <ele>1508</ele>
        <time>2024-02-25T09:18:38Z</time>
      </trkpt>
      <trkpt lat="44.32545" lon="6.32801">
        <ele>1507.8</ele>
        <time>2024-02-25T09:18:45Z</time>
      </trkpt>
      <trkpt lat="44.32531" lon="6.32806">
        <ele>1507.8</ele>
        <time>2024-02-25T09:18:55Z</time>
      </trkpt>
      <trkpt lat="44.32524" lon="6.32804">
        <ele>1508</ele>
        <time>2024-02-25T09:19:00Z</time>
      </trkpt>
      <trkpt lat="44.32517" lon="6.32802">
        <ele>1508</ele>
        <time>2024-02-25T09:19:05Z</time>
      </trkpt>
      <trkpt lat="44.32514" lon="6.32798">
        <ele>1508.2</ele>
        <time>2024-02-25T09:19:08Z</time>
      </trkpt>
      <trkpt lat="44.32515" lon="6.32786">
        <ele>1509.2</ele>
        <time>2024-02-25T09:19:15Z</time>
      </trkpt>
      <trkpt lat="44.32517" lon="6.32781">
        <ele>1509.4</ele>
        <time>2024-02-25T09:19:19Z</time>
      </trkpt>
      <trkpt lat="44.3252" lon="6.32776">
        <ele>1510.4</ele>
        <time>2024-02-25T09:19:25Z</time>
      </trkpt>
      <trkpt lat="44.32526" lon="6.32772">
        <ele>1511.4</ele>
        <time>2024-02-25T09:19:33Z</time>
      </trkpt>
      <trkpt lat="44.32526" lon="6.32771">
        <ele>1511.6</ele>
        <time>2024-02-25T09:19:34Z</time>
      </trkpt>
      <trkpt lat="44.32527" lon="6.3277">
        <ele>1511.6</ele>
        <time>2024-02-25T09:19:35Z</time>
      </trkpt>
      <trkpt lat="44.32529" lon="6.32768">
        <ele>1512.2</ele>
        <time>2024-02-25T09:19:39Z</time>
      </trkpt>
      <trkpt lat="44.3253" lon="6.32768">
        <ele>1512.4</ele>
        <time>2024-02-25T09:19:40Z</time>
      </trkpt>
      <trkpt lat="44.32531" lon="6.32766">
        <ele>1512.6</ele>
        <time>2024-02-25T09:19:42Z</time>
      </trkpt>
      <trkpt lat="44.32534" lon="6.32764">
        <ele>1512.8</ele>
        <time>2024-02-25T09:19:45Z</time>
      </trkpt>
      <trkpt lat="44.32537" lon="6.32761">
        <ele>1513.4</ele>
        <time>2024-02-25T09:19:50Z</time>
      </trkpt>
      <trkpt lat="44.32538" lon="6.3276">
        <ele>1513.6</ele>
        <time>2024-02-25T09:19:52Z</time>
      </trkpt>
      <trkpt lat="44.3254" lon="6.32759">
        <ele>1513.8</ele>
        <time>2024-02-25T09:19:54Z</time>
      </trkpt>
      <trkpt lat="44.32545" lon="6.32758">
        <ele>1514.4</ele>
        <time>2024-02-25T09:19:58Z</time>
      </trkpt>
      <trkpt lat="44.32547" lon="6.32757">
        <ele>1514.8</ele>
        <time>2024-02-25T09:20:00Z</time>
      </trkpt>
      <trkpt lat="44.32553" lon="6.32753">
        <ele>1515.4</ele>
        <time>2024-02-25T09:20:05Z</time>
      </trkpt>
      <trkpt lat="44.32554" lon="6.32753">
        <ele>1515.4</ele>
        <time>2024-02-25T09:20:06Z</time>
      </trkpt>
      <trkpt lat="44.32557" lon="6.32749">
        <ele>1515.8</ele>
        <time>2024-02-25T09:20:11Z</time>
      </trkpt>
      <trkpt lat="44.32557" lon="6.32745">
        <ele>1516</ele>
        <time>2024-02-25T09:20:15Z</time>
      </trkpt>
      <trkpt lat="44.32557" lon="6.32747">
        <ele>1516</ele>
        <time>2024-02-25T09:20:19Z</time>
      </trkpt>
      <trkpt lat="44.32559" lon="6.32747">
        <ele>1516.2</ele>
        <time>2024-02-25T09:20:25Z</time>
      </trkpt>
      <trkpt lat="44.32565" lon="6.32747">
        <ele>1516.6</ele>
        <time>2024-02-25T09:20:35Z</time>
      </trkpt>
      <trkpt lat="44.32567" lon="6.32745">
        <ele>1516.8</ele>
        <time>2024-02-25T09:20:40Z</time>
      </trkpt>
      <trkpt lat="44.32568" lon="6.32744">
        <ele>1517</ele>
        <time>2024-02-25T09:20:42Z</time>
      </trkpt>
      <trkpt lat="44.32568" lon="6.32743">
        <ele>1517</ele>
        <time>2024-02-25T09:20:43Z</time>
      </trkpt>
      <trkpt lat="44.32569" lon="6.32741">
        <ele>1517</ele>
        <time>2024-02-25T09:20:45Z</time>
      </trkpt>
      <trkpt lat="44.3257" lon="6.32733">
        <ele>1517.6</ele>
        <time>2024-02-25T09:20:51Z</time>
      </trkpt>
      <trkpt lat="44.3257" lon="6.32732">
        <ele>1517.8</ele>
        <time>2024-02-25T09:20:52Z</time>
      </trkpt>
      <trkpt lat="44.3257" lon="6.3273">
        <ele>1517.8</ele>
        <time>2024-02-25T09:20:54Z</time>
      </trkpt>
      <trkpt lat="44.32571" lon="6.32729">
        <ele>1518</ele>
        <time>2024-02-25T09:20:55Z</time>
      </trkpt>
      <trkpt lat="44.32571" lon="6.32726">
        <ele>1518.2</ele>
        <time>2024-02-25T09:20:59Z</time>
      </trkpt>
      <trkpt lat="44.32571" lon="6.32724">
        <ele>1518.4</ele>
        <time>2024-02-25T09:21:00Z</time>
      </trkpt>
      <trkpt lat="44.32571" lon="6.32724">
        <ele>1518.6</ele>
        <time>2024-02-25T09:21:01Z</time>
      </trkpt>
      <trkpt lat="44.32571" lon="6.32724">
        <ele>1518.8</ele>
        <time>2024-02-25T09:21:02Z</time>
      </trkpt>
      <trkpt lat="44.32571" lon="6.32722">
        <ele>1519</ele>
        <time>2024-02-25T09:21:04Z</time>
      </trkpt>
      <trkpt lat="44.32571" lon="6.32721">
        <ele>1519</ele>
        <time>2024-02-25T09:21:05Z</time>
      </trkpt>
      <trkpt lat="44.32572" lon="6.32721">
        <ele>1519.2</ele>
        <time>2024-02-25T09:21:15Z</time>
      </trkpt>
      <trkpt lat="44.32571" lon="6.3272">
        <ele>1519</ele>
        <time>2024-02-25T09:21:25Z</time>
      </trkpt>
      <trkpt lat="44.32567" lon="6.32715">
        <ele>1519.6</ele>
        <time>2024-02-25T09:21:35Z</time>
      </trkpt>
      <trkpt lat="44.32564" lon="6.32711">
        <ele>1520</ele>
        <time>2024-02-25T09:21:40Z</time>
      </trkpt>
      <trkpt lat="44.32565" lon="6.32711">
        <ele>1520.6</ele>
        <time>2024-02-25T09:21:45Z</time>
      </trkpt>
      <trkpt lat="44.32564" lon="6.32708">
        <ele>1520.2</ele>
        <time>2024-02-25T09:21:54Z</time>
      </trkpt>
      <trkpt lat="44.3256" lon="6.32697">
        <ele>1520.6</ele>
        <time>2024-02-25T09:22:05Z</time>
      </trkpt>
      <trkpt lat="44.3256" lon="6.32695">
        <ele>1520.8</ele>
        <time>2024-02-25T09:22:07Z</time>
      </trkpt>
      <trkpt lat="44.32558" lon="6.32691">
        <ele>1521</ele>
        <time>2024-02-25T09:22:11Z</time>
      </trkpt>
      <trkpt lat="44.32556" lon="6.32686">
        <ele>1521.4</ele>
        <time>2024-02-25T09:22:15Z</time>
      </trkpt>
      <trkpt lat="44.32556" lon="6.32685">
        <ele>1521.6</ele>
        <time>2024-02-25T09:22:16Z</time>
      </trkpt>
      <trkpt lat="44.32554" lon="6.32681">
        <ele>1522.2</ele>
        <time>2024-02-25T09:22:20Z</time>
      </trkpt>
      <trkpt lat="44.32553" lon="6.32679">
        <ele>1522.4</ele>
        <time>2024-02-25T09:22:22Z</time>
      </trkpt>
      <trkpt lat="44.32553" lon="6.32677">
        <ele>1522.8</ele>
        <time>2024-02-25T09:22:24Z</time>
      </trkpt>
      <trkpt lat="44.32552" lon="6.32676">
        <ele>1523</ele>
        <time>2024-02-25T09:22:25Z</time>
      </trkpt>
      <trkpt lat="44.32552" lon="6.32675">
        <ele>1523.2</ele>
        <time>2024-02-25T09:22:26Z</time>
      </trkpt>
      <trkpt lat="44.32549" lon="6.32673">
        <ele>1523.4</ele>
        <time>2024-02-25T09:22:30Z</time>
      </trkpt>
      <trkpt lat="44.32545" lon="6.32671">
        <ele>1523.6</ele>
        <time>2024-02-25T09:22:35Z</time>
      </trkpt>
      <trkpt lat="44.32541" lon="6.3267">
        <ele>1524.2</ele>
        <time>2024-02-25T09:22:40Z</time>
      </trkpt>
      <trkpt lat="44.3254" lon="6.3267">
        <ele>1524.4</ele>
        <time>2024-02-25T09:22:41Z</time>
      </trkpt>
      <trkpt lat="44.32539" lon="6.3267">
        <ele>1524.8</ele>
        <time>2024-02-25T09:22:43Z</time>
      </trkpt>
      <trkpt lat="44.32537" lon="6.3267">
        <ele>1525</ele>
        <time>2024-02-25T09:22:45Z</time>
      </trkpt>
      <trkpt lat="44.32536" lon="6.32669">
        <ele>1525.2</ele>
        <time>2024-02-25T09:22:47Z</time>
      </trkpt>
      <trkpt lat="44.32534" lon="6.32666">
        <ele>1525.4</ele>
        <time>2024-02-25T09:22:50Z</time>
      </trkpt>
      <trkpt lat="44.3253" lon="6.32662">
        <ele>1525.6</ele>
        <time>2024-02-25T09:22:55Z</time>
      </trkpt>
      <trkpt lat="44.3253" lon="6.32661">
        <ele>1525.8</ele>
        <time>2024-02-25T09:22:56Z</time>
      </trkpt>
      <trkpt lat="44.32528" lon="6.32658">
        <ele>1526.2</ele>
        <time>2024-02-25T09:22:59Z</time>
      </trkpt>
      <trkpt lat="44.32527" lon="6.32655">
        <ele>1526.4</ele>
        <time>2024-02-25T09:23:01Z</time>
      </trkpt>
      <trkpt lat="44.32525" lon="6.32649">
        <ele>1526.8</ele>
        <time>2024-02-25T09:23:05Z</time>
      </trkpt>
      <trkpt lat="44.32525" lon="6.32641">
        <ele>1527.4</ele>
        <time>2024-02-25T09:23:10Z</time>
      </trkpt>
      <trkpt lat="44.32525" lon="6.32639">
        <ele>1527.4</ele>
        <time>2024-02-25T09:23:11Z</time>
      </trkpt>
      <trkpt lat="44.32527" lon="6.32635">
        <ele>1528</ele>
        <time>2024-02-25T09:23:15Z</time>
      </trkpt>
      <trkpt lat="44.32527" lon="6.32633">
        <ele>1528.4</ele>
        <time>2024-02-25T09:23:17Z</time>
      </trkpt>
      <trkpt lat="44.32527" lon="6.32632">
        <ele>1528.6</ele>
        <time>2024-02-25T09:23:18Z</time>
      </trkpt>
      <trkpt lat="44.32529" lon="6.32626">
        <ele>1529</ele>
        <time>2024-02-25T09:23:23Z</time>
      </trkpt>
      <trkpt lat="44.3253" lon="6.32624">
        <ele>1529</ele>
        <time>2024-02-25T09:23:25Z</time>
      </trkpt>
      <trkpt lat="44.32532" lon="6.32621">
        <ele>1529.4</ele>
        <time>2024-02-25T09:23:28Z</time>
      </trkpt>
      <trkpt lat="44.32533" lon="6.3262">
        <ele>1529.6</ele>
        <time>2024-02-25T09:23:29Z</time>
      </trkpt>
      <trkpt lat="44.32533" lon="6.32619">
        <ele>1529.8</ele>
        <time>2024-02-25T09:23:30Z</time>
      </trkpt>
      <trkpt lat="44.32535" lon="6.32617">
        <ele>1530</ele>
        <time>2024-02-25T09:23:32Z</time>
      </trkpt>
      <trkpt lat="44.32537" lon="6.32614">
        <ele>1530.4</ele>
        <time>2024-02-25T09:23:35Z</time>
      </trkpt>
      <trkpt lat="44.32537" lon="6.32613">
        <ele>1530.4</ele>
        <time>2024-02-25T09:23:36Z</time>
      </trkpt>
      <trkpt lat="44.32538" lon="6.32611">
        <ele>1530.6</ele>
        <time>2024-02-25T09:23:38Z</time>
      </trkpt>
      <trkpt lat="44.3254" lon="6.32606">
        <ele>1531</ele>
        <time>2024-02-25T09:23:42Z</time>
      </trkpt>
      <trkpt lat="44.3254" lon="6.32605">
        <ele>1531.2</ele>
        <time>2024-02-25T09:23:43Z</time>
      </trkpt>
      <trkpt lat="44.32541" lon="6.32604">
        <ele>1531.2</ele>
        <time>2024-02-25T09:23:44Z</time>
      </trkpt>
      <trkpt lat="44.32541" lon="6.32603">
        <ele>1531.4</ele>
        <time>2024-02-25T09:23:45Z</time>
      </trkpt>
      <trkpt lat="44.32541" lon="6.32601">
        <ele>1531.4</ele>
        <time>2024-02-25T09:23:47Z</time>
      </trkpt>
      <trkpt lat="44.32542" lon="6.32596">
        <ele>1531.8</ele>
        <time>2024-02-25T09:23:52Z</time>
      </trkpt>
      <trkpt lat="44.32543" lon="6.32594">
        <ele>1531.8</ele>
        <time>2024-02-25T09:23:54Z</time>
      </trkpt>
      <trkpt lat="44.32544" lon="6.32594">
        <ele>1531.8</ele>
        <time>2024-02-25T09:23:55Z</time>
      </trkpt>
      <trkpt lat="44.32544" lon="6.32593">
        <ele>1532</ele>
        <time>2024-02-25T09:23:56Z</time>
      </trkpt>
      <trkpt lat="44.32544" lon="6.32592">
        <ele>1532</ele>
        <time>2024-02-25T09:23:57Z</time>
      </trkpt>
      <trkpt lat="44.32544" lon="6.32588">
        <ele>1532.2</ele>
        <time>2024-02-25T09:24:00Z</time>
      </trkpt>
      <trkpt lat="44.32545" lon="6.32587">
        <ele>1532.4</ele>
        <time>2024-02-25T09:24:01Z</time>
      </trkpt>
      <trkpt lat="44.32545" lon="6.32586">
        <ele>1532.6</ele>
        <time>2024-02-25T09:24:02Z</time>
      </trkpt>
      <trkpt lat="44.32545" lon="6.32582">
        <ele>1532.8</ele>
        <time>2024-02-25T09:24:05Z</time>
      </trkpt>
      <trkpt lat="44.32545" lon="6.3258">
        <ele>1532.8</ele>
        <time>2024-02-25T09:24:07Z</time>
      </trkpt>
      <trkpt lat="44.32545" lon="6.32571">
        <ele>1533.6</ele>
        <time>2024-02-25T09:24:15Z</time>
      </trkpt>
      <trkpt lat="44.32546" lon="6.3257">
        <ele>1533.6</ele>
        <time>2024-02-25T09:24:16Z</time>
      </trkpt>
      <trkpt lat="44.32546" lon="6.32567">
        <ele>1533.6</ele>
        <time>2024-02-25T09:24:18Z</time>
      </trkpt>
      <trkpt lat="44.32545" lon="6.32561">
        <ele>1533.8</ele>
        <time>2024-02-25T09:24:23Z</time>
      </trkpt>
      <trkpt lat="44.32545" lon="6.32558">
        <ele>1534.2</ele>
        <time>2024-02-25T09:24:25Z</time>
      </trkpt>
      <trkpt lat="44.32544" lon="6.32556">
        <ele>1534.4</ele>
        <time>2024-02-25T09:24:27Z</time>
      </trkpt>
      <trkpt lat="44.32544" lon="6.32551">
        <ele>1534.6</ele>
        <time>2024-02-25T09:24:32Z</time>
      </trkpt>
      <trkpt lat="44.32543" lon="6.32547">
        <ele>1535</ele>
        <time>2024-02-25T09:24:35Z</time>
      </trkpt>
      <trkpt lat="44.32543" lon="6.32534">
        <ele>1535.6</ele>
        <time>2024-02-25T09:24:45Z</time>
      </trkpt>
      <trkpt lat="44.32542" lon="6.32526">
        <ele>1536.6</ele>
        <time>2024-02-25T09:24:51Z</time>
      </trkpt>
      <trkpt lat="44.32542" lon="6.32525">
        <ele>1536.6</ele>
        <time>2024-02-25T09:24:52Z</time>
      </trkpt>
      <trkpt lat="44.32542" lon="6.32522">
        <ele>1536.8</ele>
        <time>2024-02-25T09:24:54Z</time>
      </trkpt>
      <trkpt lat="44.32542" lon="6.32521">
        <ele>1537</ele>
        <time>2024-02-25T09:24:55Z</time>
      </trkpt>
      <trkpt lat="44.32543" lon="6.32515">
        <ele>1537.4</ele>
        <time>2024-02-25T09:25:00Z</time>
      </trkpt>
      <trkpt lat="44.32544" lon="6.32514">
        <ele>1537.6</ele>
        <time>2024-02-25T09:25:01Z</time>
      </trkpt>
      <trkpt lat="44.32544" lon="6.32512">
        <ele>1537.8</ele>
        <time>2024-02-25T09:25:02Z</time>
      </trkpt>
      <trkpt lat="44.32546" lon="6.32509">
        <ele>1538</ele>
        <time>2024-02-25T09:25:05Z</time>
      </trkpt>
      <trkpt lat="44.32549" lon="6.32502">
        <ele>1538.8</ele>
        <time>2024-02-25T09:25:11Z</time>
      </trkpt>
      <trkpt lat="44.32552" lon="6.32499">
        <ele>1539.4</ele>
        <time>2024-02-25T09:25:15Z</time>
      </trkpt>
      <trkpt lat="44.32553" lon="6.32496">
        <ele>1539.8</ele>
        <time>2024-02-25T09:25:17Z</time>
      </trkpt>
      <trkpt lat="44.32554" lon="6.32496">
        <ele>1539.8</ele>
        <time>2024-02-25T09:25:18Z</time>
      </trkpt>
      <trkpt lat="44.32556" lon="6.32494">
        <ele>1540</ele>
        <time>2024-02-25T09:25:20Z</time>
      </trkpt>
      <trkpt lat="44.32556" lon="6.32493">
        <ele>1540.2</ele>
        <time>2024-02-25T09:25:21Z</time>
      </trkpt>
      <trkpt lat="44.32558" lon="6.32491">
        <ele>1540.2</ele>
        <time>2024-02-25T09:25:23Z</time>
      </trkpt>
      <trkpt lat="44.32559" lon="6.32489">
        <ele>1540.4</ele>
        <time>2024-02-25T09:25:25Z</time>
      </trkpt>
      <trkpt lat="44.32561" lon="6.32488">
        <ele>1540.8</ele>
        <time>2024-02-25T09:25:27Z</time>
      </trkpt>
      <trkpt lat="44.32563" lon="6.32485">
        <ele>1541</ele>
        <time>2024-02-25T09:25:29Z</time>
      </trkpt>
      <trkpt lat="44.32563" lon="6.32485">
        <ele>1541</ele>
        <time>2024-02-25T09:25:30Z</time>
      </trkpt>
      <trkpt lat="44.32564" lon="6.32484">
        <ele>1541</ele>
        <time>2024-02-25T09:25:31Z</time>
      </trkpt>
      <trkpt lat="44.32566" lon="6.32481">
        <ele>1541.2</ele>
        <time>2024-02-25T09:25:34Z</time>
      </trkpt>
      <trkpt lat="44.32567" lon="6.3248">
        <ele>1541.4</ele>
        <time>2024-02-25T09:25:35Z</time>
      </trkpt>
      <trkpt lat="44.32568" lon="6.32479">
        <ele>1541.4</ele>
        <time>2024-02-25T09:25:36Z</time>
      </trkpt>
      <trkpt lat="44.32572" lon="6.32472">
        <ele>1542</ele>
        <time>2024-02-25T09:25:43Z</time>
      </trkpt>
      <trkpt lat="44.32573" lon="6.3247">
        <ele>1542.2</ele>
        <time>2024-02-25T09:25:45Z</time>
      </trkpt>
      <trkpt lat="44.32578" lon="6.32459">
        <ele>1542.6</ele>
        <time>2024-02-25T09:25:55Z</time>
      </trkpt>
      <trkpt lat="44.32581" lon="6.32453">
        <ele>1543</ele>
        <time>2024-02-25T09:26:00Z</time>
      </trkpt>
      <trkpt lat="44.32583" lon="6.32449">
        <ele>1543.4</ele>
        <time>2024-02-25T09:26:04Z</time>
      </trkpt>
      <trkpt lat="44.32584" lon="6.32446">
        <ele>1543.8</ele>
        <time>2024-02-25T09:26:06Z</time>
      </trkpt>
      <trkpt lat="44.32586" lon="6.32443">
        <ele>1544.2</ele>
        <time>2024-02-25T09:26:09Z</time>
      </trkpt>
      <trkpt lat="44.32587" lon="6.32441">
        <ele>1544.4</ele>
        <time>2024-02-25T09:26:11Z</time>
      </trkpt>
      <trkpt lat="44.3259" lon="6.32436">
        <ele>1545</ele>
        <time>2024-02-25T09:26:16Z</time>
      </trkpt>
      <trkpt lat="44.32592" lon="6.32434">
        <ele>1545.2</ele>
        <time>2024-02-25T09:26:18Z</time>
      </trkpt>
      <trkpt lat="44.32592" lon="6.32432">
        <ele>1545.2</ele>
        <time>2024-02-25T09:26:19Z</time>
      </trkpt>
      <trkpt lat="44.32594" lon="6.32429">
        <ele>1545.4</ele>
        <time>2024-02-25T09:26:22Z</time>
      </trkpt>
      <trkpt lat="44.32595" lon="6.32426">
        <ele>1545.6</ele>
        <time>2024-02-25T09:26:24Z</time>
      </trkpt>
      <trkpt lat="44.32596" lon="6.32424">
        <ele>1545.6</ele>
        <time>2024-02-25T09:26:25Z</time>
      </trkpt>
      <trkpt lat="44.32596" lon="6.32423">
        <ele>1545.6</ele>
        <time>2024-02-25T09:26:26Z</time>
      </trkpt>
      <trkpt lat="44.32598" lon="6.32418">
        <ele>1546</ele>
        <time>2024-02-25T09:26:30Z</time>
      </trkpt>
      <trkpt lat="44.32599" lon="6.32415">
        <ele>1546.2</ele>
        <time>2024-02-25T09:26:32Z</time>
      </trkpt>
      <trkpt lat="44.326" lon="6.32414">
        <ele>1546.4</ele>
        <time>2024-02-25T09:26:33Z</time>
      </trkpt>
      <trkpt lat="44.32601" lon="6.3241">
        <ele>1546.8</ele>
        <time>2024-02-25T09:26:36Z</time>
      </trkpt>
      <trkpt lat="44.32603" lon="6.32405">
        <ele>1547.4</ele>
        <time>2024-02-25T09:26:40Z</time>
      </trkpt>
      <trkpt lat="44.32603" lon="6.32403">
        <ele>1547.4</ele>
        <time>2024-02-25T09:26:41Z</time>
      </trkpt>
      <trkpt lat="44.32604" lon="6.32402">
        <ele>1547.6</ele>
        <time>2024-02-25T09:26:42Z</time>
      </trkpt>
      <trkpt lat="44.32604" lon="6.32401">
        <ele>1547.8</ele>
        <time>2024-02-25T09:26:43Z</time>
      </trkpt>
      <trkpt lat="44.32605" lon="6.32398">
        <ele>1547.8</ele>
        <time>2024-02-25T09:26:45Z</time>
      </trkpt>
      <trkpt lat="44.32606" lon="6.32397">
        <ele>1548</ele>
        <time>2024-02-25T09:26:46Z</time>
      </trkpt>
      <trkpt lat="44.32606" lon="6.32396">
        <ele>1548</ele>
        <time>2024-02-25T09:26:47Z</time>
      </trkpt>
      <trkpt lat="44.32608" lon="6.32393">
        <ele>1548.4</ele>
        <time>2024-02-25T09:26:50Z</time>
      </trkpt>
      <trkpt lat="44.32609" lon="6.32392">
        <ele>1548.6</ele>
        <time>2024-02-25T09:26:51Z</time>
      </trkpt>
      <trkpt lat="44.32611" lon="6.32389">
        <ele>1548.8</ele>
        <time>2024-02-25T09:26:54Z</time>
      </trkpt>
      <trkpt lat="44.32612" lon="6.32387">
        <ele>1548.8</ele>
        <time>2024-02-25T09:26:56Z</time>
      </trkpt>
      <trkpt lat="44.32612" lon="6.32386">
        <ele>1549</ele>
        <time>2024-02-25T09:26:57Z</time>
      </trkpt>
      <trkpt lat="44.32615" lon="6.32377">
        <ele>1549.6</ele>
        <time>2024-02-25T09:27:05Z</time>
      </trkpt>
      <trkpt lat="44.32616" lon="6.32376">
        <ele>1549.6</ele>
        <time>2024-02-25T09:27:06Z</time>
      </trkpt>
      <trkpt lat="44.32619" lon="6.32367">
        <ele>1550.6</ele>
        <time>2024-02-25T09:27:15Z</time>
      </trkpt>
      <trkpt lat="44.3262" lon="6.32365">
        <ele>1550.6</ele>
        <time>2024-02-25T09:27:16Z</time>
      </trkpt>
      <trkpt lat="44.32622" lon="6.32353">
        <ele>1551.2</ele>
        <time>2024-02-25T09:27:25Z</time>
      </trkpt>
      <trkpt lat="44.32622" lon="6.32352">
        <ele>1551.2</ele>
        <time>2024-02-25T09:27:26Z</time>
      </trkpt>
      <trkpt lat="44.32623" lon="6.32345">
        <ele>1551.6</ele>
        <time>2024-02-25T09:27:31Z</time>
      </trkpt>
      <trkpt lat="44.32623" lon="6.32344">
        <ele>1551.8</ele>
        <time>2024-02-25T09:27:32Z</time>
      </trkpt>
      <trkpt lat="44.32623" lon="6.3234">
        <ele>1552</ele>
        <time>2024-02-25T09:27:35Z</time>
      </trkpt>
      <trkpt lat="44.32623" lon="6.32338">
        <ele>1552.2</ele>
        <time>2024-02-25T09:27:36Z</time>
      </trkpt>
      <trkpt lat="44.32624" lon="6.32335">
        <ele>1552.2</ele>
        <time>2024-02-25T09:27:38Z</time>
      </trkpt>
      <trkpt lat="44.32624" lon="6.32334">
        <ele>1552.2</ele>
        <time>2024-02-25T09:27:39Z</time>
      </trkpt>
      <trkpt lat="44.32624" lon="6.32332">
        <ele>1552.2</ele>
        <time>2024-02-25T09:27:40Z</time>
      </trkpt>
      <trkpt lat="44.32624" lon="6.32331">
        <ele>1552</ele>
        <time>2024-02-25T09:27:41Z</time>
      </trkpt>
      <trkpt lat="44.32624" lon="6.32329">
        <ele>1552</ele>
        <time>2024-02-25T09:27:42Z</time>
      </trkpt>
      <trkpt lat="44.32624" lon="6.32326">
        <ele>1552.2</ele>
        <time>2024-02-25T09:27:44Z</time>
      </trkpt>
      <trkpt lat="44.32624" lon="6.32324">
        <ele>1552</ele>
        <time>2024-02-25T09:27:46Z</time>
      </trkpt>
      <trkpt lat="44.32626" lon="6.3231">
        <ele>1552.6</ele>
        <time>2024-02-25T09:27:56Z</time>
      </trkpt>
      <trkpt lat="44.32626" lon="6.32305">
        <ele>1552.8</ele>
        <time>2024-02-25T09:28:00Z</time>
      </trkpt>
      <trkpt lat="44.32626" lon="6.32297">
        <ele>1553</ele>
        <time>2024-02-25T09:28:06Z</time>
      </trkpt>
      <trkpt lat="44.32626" lon="6.32288">
        <ele>1553.8</ele>
        <time>2024-02-25T09:28:13Z</time>
      </trkpt>
      <trkpt lat="44.32626" lon="6.32283">
        <ele>1553.8</ele>
        <time>2024-02-25T09:28:16Z</time>
      </trkpt>
      <trkpt lat="44.32627" lon="6.32275">
        <ele>1553.8</ele>
        <time>2024-02-25T09:28:22Z</time>
      </trkpt>
      <trkpt lat="44.32628" lon="6.32272">
        <ele>1554</ele>
        <time>2024-02-25T09:28:26Z</time>
      </trkpt>
      <trkpt lat="44.32631" lon="6.32263">
        <ele>1554</ele>
        <time>2024-02-25T09:28:33Z</time>
      </trkpt>
      <trkpt lat="44.32633" lon="6.32259">
        <ele>1554.2</ele>
        <time>2024-02-25T09:28:36Z</time>
      </trkpt>
      <trkpt lat="44.3264" lon="6.32245">
        <ele>1554.4</ele>
        <time>2024-02-25T09:28:46Z</time>
      </trkpt>
      <trkpt lat="44.32648" lon="6.32234">
        <ele>1554.6</ele>
        <time>2024-02-25T09:28:56Z</time>
      </trkpt>
      <trkpt lat="44.32652" lon="6.32228">
        <ele>1554.8</ele>
        <time>2024-02-25T09:29:02Z</time>
      </trkpt>
      <trkpt lat="44.32655" lon="6.32224">
        <ele>1555.2</ele>
        <time>2024-02-25T09:29:06Z</time>
      </trkpt>
      <trkpt lat="44.32664" lon="6.32214">
        <ele>1555.6</ele>
        <time>2024-02-25T09:29:16Z</time>
      </trkpt>
      <trkpt lat="44.32666" lon="6.32211">
        <ele>1555.6</ele>
        <time>2024-02-25T09:29:19Z</time>
      </trkpt>
      <trkpt lat="44.3267" lon="6.32202">
        <ele>1555.8</ele>
        <time>2024-02-25T09:29:26Z</time>
      </trkpt>
      <trkpt lat="44.32671" lon="6.32199">
        <ele>1556</ele>
        <time>2024-02-25T09:29:28Z</time>
      </trkpt>
      <trkpt lat="44.32677" lon="6.32191">
        <ele>1556.4</ele>
        <time>2024-02-25T09:29:36Z</time>
      </trkpt>
      <trkpt lat="44.32683" lon="6.3218">
        <ele>1557</ele>
        <time>2024-02-25T09:29:46Z</time>
      </trkpt>
      <trkpt lat="44.32685" lon="6.32178">
        <ele>1557</ele>
        <time>2024-02-25T09:29:49Z</time>
      </trkpt>
      <trkpt lat="44.3269" lon="6.32171">
        <ele>1557.2</ele>
        <time>2024-02-25T09:29:56Z</time>
      </trkpt>
      <trkpt lat="44.32694" lon="6.32164">
        <ele>1557.4</ele>
        <time>2024-02-25T09:30:02Z</time>
      </trkpt>
      <trkpt lat="44.32697" lon="6.32159">
        <ele>1557.8</ele>
        <time>2024-02-25T09:30:06Z</time>
      </trkpt>
      <trkpt lat="44.32701" lon="6.32155">
        <ele>1558</ele>
        <time>2024-02-25T09:30:12Z</time>
      </trkpt>
      <trkpt lat="44.32704" lon="6.32152">
        <ele>1558.2</ele>
        <time>2024-02-25T09:30:16Z</time>
      </trkpt>
      <trkpt lat="44.32712" lon="6.32145">
        <ele>1558.4</ele>
        <time>2024-02-25T09:30:25Z</time>
      </trkpt>
      <trkpt lat="44.32712" lon="6.32144">
        <ele>1558.6</ele>
        <time>2024-02-25T09:30:26Z</time>
      </trkpt>
      <trkpt lat="44.32717" lon="6.32137">
        <ele>1559</ele>
        <time>2024-02-25T09:30:33Z</time>
      </trkpt>
      <trkpt lat="44.32719" lon="6.32135">
        <ele>1559.2</ele>
        <time>2024-02-25T09:30:36Z</time>
      </trkpt>
      <trkpt lat="44.32722" lon="6.32134">
        <ele>1559.2</ele>
        <time>2024-02-25T09:30:39Z</time>
      </trkpt>
      <trkpt lat="44.32727" lon="6.32128">
        <ele>1559.4</ele>
        <time>2024-02-25T09:30:46Z</time>
      </trkpt>
      <trkpt lat="44.3273" lon="6.32124">
        <ele>1559.8</ele>
        <time>2024-02-25T09:30:50Z</time>
      </trkpt>
      <trkpt lat="44.32732" lon="6.32122">
        <ele>1560</ele>
        <time>2024-02-25T09:30:52Z</time>
      </trkpt>
      <trkpt lat="44.32733" lon="6.32121">
        <ele>1560</ele>
        <time>2024-02-25T09:30:54Z</time>
      </trkpt>
      <trkpt lat="44.32734" lon="6.3212">
        <ele>1560</ele>
        <time>2024-02-25T09:30:56Z</time>
      </trkpt>
      <trkpt lat="44.32736" lon="6.32116">
        <ele>1560.2</ele>
        <time>2024-02-25T09:30:59Z</time>
      </trkpt>
      <trkpt lat="44.32741" lon="6.32112">
        <ele>1560.6</ele>
        <time>2024-02-25T09:31:06Z</time>
      </trkpt>
      <trkpt lat="44.32747" lon="6.32104">
        <ele>1560.8</ele>
        <time>2024-02-25T09:31:13Z</time>
      </trkpt>
      <trkpt lat="44.3275" lon="6.32102">
        <ele>1561</ele>
        <time>2024-02-25T09:31:16Z</time>
      </trkpt>
      <trkpt lat="44.32758" lon="6.32096">
        <ele>1561.4</ele>
        <time>2024-02-25T09:31:26Z</time>
      </trkpt>
      <trkpt lat="44.32759" lon="6.32095">
        <ele>1561.4</ele>
        <time>2024-02-25T09:31:28Z</time>
      </trkpt>
      <trkpt lat="44.3276" lon="6.32094">
        <ele>1561.6</ele>
        <time>2024-02-25T09:31:30Z</time>
      </trkpt>
      <trkpt lat="44.3276" lon="6.32092">
        <ele>1561.6</ele>
        <time>2024-02-25T09:31:32Z</time>
      </trkpt>
      <trkpt lat="44.3276" lon="6.32093">
        <ele>1561.6</ele>
        <time>2024-02-25T09:31:36Z</time>
      </trkpt>
      <trkpt lat="44.32759" lon="6.32094">
        <ele>1561.6</ele>
        <time>2024-02-25T09:31:37Z</time>
      </trkpt>
      <trkpt lat="44.32759" lon="6.32094">
        <ele>1561.6</ele>
        <time>2024-02-25T09:31:43Z</time>
      </trkpt>
      <trkpt lat="44.32759" lon="6.32094">
        <ele>1561.6</ele>
        <time>2024-02-25T09:31:44Z</time>
      </trkpt>
      <trkpt lat="44.3276" lon="6.32094">
        <ele>1561.4</ele>
        <time>2024-02-25T09:31:45Z</time>
      </trkpt>
      <trkpt lat="44.3276" lon="6.32093">
        <ele>1561.4</ele>
        <time>2024-02-25T09:31:46Z</time>
      </trkpt>
      <trkpt lat="44.32761" lon="6.32093">
        <ele>1561.4</ele>
        <time>2024-02-25T09:31:48Z</time>
      </trkpt>
      <trkpt lat="44.32761" lon="6.32091">
        <ele>1561.6</ele>
        <time>2024-02-25T09:31:56Z</time>
      </trkpt>
      <trkpt lat="44.32766" lon="6.32087">
        <ele>1561.8</ele>
        <time>2024-02-25T09:32:01Z</time>
      </trkpt>
      <trkpt lat="44.32767" lon="6.32083">
        <ele>1561.8</ele>
        <time>2024-02-25T09:32:03Z</time>
      </trkpt>
      <trkpt lat="44.32768" lon="6.3208">
        <ele>1562</ele>
        <time>2024-02-25T09:32:06Z</time>
      </trkpt>
      <trkpt lat="44.32768" lon="6.32072">
        <ele>1561.8</ele>
        <time>2024-02-25T09:32:16Z</time>
      </trkpt>
      <trkpt lat="44.32773" lon="6.32068">
        <ele>1561.8</ele>
        <time>2024-02-25T09:32:22Z</time>
      </trkpt>
      <trkpt lat="44.32776" lon="6.32066">
        <ele>1562</ele>
        <time>2024-02-25T09:32:26Z</time>
      </trkpt>
      <trkpt lat="44.32777" lon="6.32065">
        <ele>1562</ele>
        <time>2024-02-25T09:32:27Z</time>
      </trkpt>
      <trkpt lat="44.32779" lon="6.32062">
        <ele>1562</ele>
        <time>2024-02-25T09:32:30Z</time>
      </trkpt>
      <trkpt lat="44.32781" lon="6.32059">
        <ele>1562.2</ele>
        <time>2024-02-25T09:32:32Z</time>
      </trkpt>
      <trkpt lat="44.32784" lon="6.32055">
        <ele>1562.4</ele>
        <time>2024-02-25T09:32:36Z</time>
      </trkpt>
      <trkpt lat="44.32786" lon="6.32051">
        <ele>1562.6</ele>
        <time>2024-02-25T09:32:38Z</time>
      </trkpt>
      <trkpt lat="44.32789" lon="6.32048">
        <ele>1562.6</ele>
        <time>2024-02-25T09:32:42Z</time>
      </trkpt>
      <trkpt lat="44.3279" lon="6.32046">
        <ele>1562.8</ele>
        <time>2024-02-25T09:32:44Z</time>
      </trkpt>
      <trkpt lat="44.32792" lon="6.32045">
        <ele>1562.8</ele>
        <time>2024-02-25T09:32:45Z</time>
      </trkpt>
      <trkpt lat="44.32793" lon="6.32044">
        <ele>1562.8</ele>
        <time>2024-02-25T09:32:46Z</time>
      </trkpt>
      <trkpt lat="44.32794" lon="6.32043">
        <ele>1562.8</ele>
        <time>2024-02-25T09:32:47Z</time>
      </trkpt>
      <trkpt lat="44.32796" lon="6.32038">
        <ele>1562.8</ele>
        <time>2024-02-25T09:32:50Z</time>
      </trkpt>
      <trkpt lat="44.32798" lon="6.32035">
        <ele>1563</ele>
        <time>2024-02-25T09:32:53Z</time>
      </trkpt>
      <trkpt lat="44.32801" lon="6.32031">
        <ele>1563.2</ele>
        <time>2024-02-25T09:32:56Z</time>
      </trkpt>
      <trkpt lat="44.32802" lon="6.3203">
        <ele>1563.2</ele>
        <time>2024-02-25T09:32:57Z</time>
      </trkpt>
      <trkpt lat="44.32803" lon="6.32024">
        <ele>1563.4</ele>
        <time>2024-02-25T09:33:01Z</time>
      </trkpt>
      <trkpt lat="44.32804" lon="6.32021">
        <ele>1563.4</ele>
        <time>2024-02-25T09:33:03Z</time>
      </trkpt>
      <trkpt lat="44.32806" lon="6.32016">
        <ele>1563.4</ele>
        <time>2024-02-25T09:33:06Z</time>
      </trkpt>
      <trkpt lat="44.32806" lon="6.32013">
        <ele>1563.6</ele>
        <time>2024-02-25T09:33:08Z</time>
      </trkpt>
      <trkpt lat="44.32804" lon="6.32009">
        <ele>1563.6</ele>
        <time>2024-02-25T09:33:12Z</time>
      </trkpt>
      <trkpt lat="44.32801" lon="6.32006">
        <ele>1563.8</ele>
        <time>2024-02-25T09:33:14Z</time>
      </trkpt>
      <trkpt lat="44.32801" lon="6.32005">
        <ele>1564</ele>
        <time>2024-02-25T09:33:16Z</time>
      </trkpt>
      <trkpt lat="44.32799" lon="6.32004">
        <ele>1564.2</ele>
        <time>2024-02-25T09:33:19Z</time>
      </trkpt>
      <trkpt lat="44.32792" lon="6.32001">
        <ele>1564.4</ele>
        <time>2024-02-25T09:33:26Z</time>
      </trkpt>
      <trkpt lat="44.3279" lon="6.32">
        <ele>1564.4</ele>
        <time>2024-02-25T09:33:29Z</time>
      </trkpt>
      <trkpt lat="44.32787" lon="6.32001">
        <ele>1564.4</ele>
        <time>2024-02-25T09:33:32Z</time>
      </trkpt>
      <trkpt lat="44.32784" lon="6.32001">
        <ele>1564.6</ele>
        <time>2024-02-25T09:33:36Z</time>
      </trkpt>
      <trkpt lat="44.32772" lon="6.31998">
        <ele>1565.2</ele>
        <time>2024-02-25T09:33:45Z</time>
      </trkpt>
      <trkpt lat="44.32771" lon="6.31998">
        <ele>1565.2</ele>
        <time>2024-02-25T09:33:46Z</time>
      </trkpt>
      <trkpt lat="44.3277" lon="6.31998">
        <ele>1565.2</ele>
        <time>2024-02-25T09:33:47Z</time>
      </trkpt>
      <trkpt lat="44.32764" lon="6.31996">
        <ele>1565.2</ele>
        <time>2024-02-25T09:33:51Z</time>
      </trkpt>
      <trkpt lat="44.3276" lon="6.31996">
        <ele>1565.4</ele>
        <time>2024-02-25T09:33:54Z</time>
      </trkpt>
      <trkpt lat="44.32758" lon="6.31995">
        <ele>1565.4</ele>
        <time>2024-02-25T09:33:56Z</time>
      </trkpt>
      <trkpt lat="44.32751" lon="6.31995">
        <ele>1565.4</ele>
        <time>2024-02-25T09:34:02Z</time>
      </trkpt>
      <trkpt lat="44.32746" lon="6.31993">
        <ele>1565.4</ele>
        <time>2024-02-25T09:34:06Z</time>
      </trkpt>
      <trkpt lat="44.32743" lon="6.31993">
        <ele>1565.6</ele>
        <time>2024-02-25T09:34:08Z</time>
      </trkpt>
      <trkpt lat="44.32734" lon="6.3199">
        <ele>1565.4</ele>
        <time>2024-02-25T09:34:15Z</time>
      </trkpt>
      <trkpt lat="44.32733" lon="6.31989">
        <ele>1565.4</ele>
        <time>2024-02-25T09:34:16Z</time>
      </trkpt>
      <trkpt lat="44.32728" lon="6.31984">
        <ele>1564.8</ele>
        <time>2024-02-25T09:34:21Z</time>
      </trkpt>
      <trkpt lat="44.32725" lon="6.31982">
        <ele>1564.4</ele>
        <time>2024-02-25T09:34:24Z</time>
      </trkpt>
      <trkpt lat="44.32722" lon="6.31979">
        <ele>1564.4</ele>
        <time>2024-02-25T09:34:26Z</time>
      </trkpt>
      <trkpt lat="44.32721" lon="6.31978">
        <ele>1564.2</ele>
        <time>2024-02-25T09:34:27Z</time>
      </trkpt>
      <trkpt lat="44.32717" lon="6.31974">
        <ele>1564</ele>
        <time>2024-02-25T09:34:31Z</time>
      </trkpt>
      <trkpt lat="44.32715" lon="6.31969">
        <ele>1564.4</ele>
        <time>2024-02-25T09:34:34Z</time>
      </trkpt>
      <trkpt lat="44.32713" lon="6.31966">
        <ele>1564.6</ele>
        <time>2024-02-25T09:34:36Z</time>
      </trkpt>
      <trkpt lat="44.32712" lon="6.31962">
        <ele>1564.6</ele>
        <time>2024-02-25T09:34:38Z</time>
      </trkpt>
      <trkpt lat="44.32712" lon="6.3196">
        <ele>1564.8</ele>
        <time>2024-02-25T09:34:40Z</time>
      </trkpt>
      <trkpt lat="44.32711" lon="6.31953">
        <ele>1565.2</ele>
        <time>2024-02-25T09:34:45Z</time>
      </trkpt>
      <trkpt lat="44.32712" lon="6.31952">
        <ele>1565.4</ele>
        <time>2024-02-25T09:34:46Z</time>
      </trkpt>
      <trkpt lat="44.32712" lon="6.3195">
        <ele>1565.4</ele>
        <time>2024-02-25T09:34:47Z</time>
      </trkpt>
      <trkpt lat="44.32716" lon="6.31944">
        <ele>1566.2</ele>
        <time>2024-02-25T09:34:52Z</time>
      </trkpt>
      <trkpt lat="44.32718" lon="6.31941">
        <ele>1566.4</ele>
        <time>2024-02-25T09:34:54Z</time>
      </trkpt>
      <trkpt lat="44.3272" lon="6.3194">
        <ele>1566.6</ele>
        <time>2024-02-25T09:34:56Z</time>
      </trkpt>
      <trkpt lat="44.32721" lon="6.31937">
        <ele>1566.8</ele>
        <time>2024-02-25T09:34:58Z</time>
      </trkpt>
      <trkpt lat="44.32728" lon="6.31929">
        <ele>1567.4</ele>
        <time>2024-02-25T09:35:06Z</time>
      </trkpt>
      <trkpt lat="44.3273" lon="6.31927">
        <ele>1567.8</ele>
        <time>2024-02-25T09:35:08Z</time>
      </trkpt>
      <trkpt lat="44.32733" lon="6.31922">
        <ele>1568.4</ele>
        <time>2024-02-25T09:35:13Z</time>
      </trkpt>
      <trkpt lat="44.32734" lon="6.31919">
        <ele>1568.8</ele>
        <time>2024-02-25T09:35:16Z</time>
      </trkpt>
      <trkpt lat="44.32737" lon="6.31914">
        <ele>1569.4</ele>
        <time>2024-02-25T09:35:21Z</time>
      </trkpt>
      <trkpt lat="44.32738" lon="6.31913">
        <ele>1569.6</ele>
        <time>2024-02-25T09:35:23Z</time>
      </trkpt>
      <trkpt lat="44.32741" lon="6.31911">
        <ele>1569.8</ele>
        <time>2024-02-25T09:35:26Z</time>
      </trkpt>
      <trkpt lat="44.3275" lon="6.31903">
        <ele>1570.4</ele>
        <time>2024-02-25T09:35:36Z</time>
      </trkpt>
      <trkpt lat="44.32751" lon="6.31903">
        <ele>1570.6</ele>
        <time>2024-02-25T09:35:37Z</time>
      </trkpt>
      <trkpt lat="44.32756" lon="6.31898">
        <ele>1571.4</ele>
        <time>2024-02-25T09:35:44Z</time>
      </trkpt>
      <trkpt lat="44.32758" lon="6.31896">
        <ele>1571.6</ele>
        <time>2024-02-25T09:35:46Z</time>
      </trkpt>
      <trkpt lat="44.32759" lon="6.31895">
        <ele>1571.6</ele>
        <time>2024-02-25T09:35:47Z</time>
      </trkpt>
      <trkpt lat="44.32762" lon="6.31893">
        <ele>1571.8</ele>
        <time>2024-02-25T09:35:51Z</time>
      </trkpt>
      <trkpt lat="44.32765" lon="6.31888">
        <ele>1572.4</ele>
        <time>2024-02-25T09:35:57Z</time>
      </trkpt>
      <trkpt lat="44.32767" lon="6.31887">
        <ele>1572.4</ele>
        <time>2024-02-25T09:36:00Z</time>
      </trkpt>
      <trkpt lat="44.32771" lon="6.31884">
        <ele>1572.6</ele>
        <time>2024-02-25T09:36:04Z</time>
      </trkpt>
      <trkpt lat="44.32772" lon="6.31883">
        <ele>1572.8</ele>
        <time>2024-02-25T09:36:05Z</time>
      </trkpt>
      <trkpt lat="44.32775" lon="6.3188">
        <ele>1573</ele>
        <time>2024-02-25T09:36:08Z</time>
      </trkpt>
      <trkpt lat="44.32776" lon="6.3188">
        <ele>1573</ele>
        <time>2024-02-25T09:36:09Z</time>
      </trkpt>
      <trkpt lat="44.3278" lon="6.31877">
        <ele>1573.8</ele>
        <time>2024-02-25T09:36:14Z</time>
      </trkpt>
      <trkpt lat="44.32781" lon="6.31876">
        <ele>1574</ele>
        <time>2024-02-25T09:36:16Z</time>
      </trkpt>
      <trkpt lat="44.32783" lon="6.31873">
        <ele>1574.2</ele>
        <time>2024-02-25T09:36:18Z</time>
      </trkpt>
      <trkpt lat="44.32787" lon="6.31869">
        <ele>1574.8</ele>
        <time>2024-02-25T09:36:23Z</time>
      </trkpt>
      <trkpt lat="44.32788" lon="6.31868">
        <ele>1574.8</ele>
        <time>2024-02-25T09:36:24Z</time>
      </trkpt>
      <trkpt lat="44.32791" lon="6.31866">
        <ele>1575</ele>
        <time>2024-02-25T09:36:27Z</time>
      </trkpt>
      <trkpt lat="44.32792" lon="6.31865">
        <ele>1575</ele>
        <time>2024-02-25T09:36:28Z</time>
      </trkpt>
      <trkpt lat="44.32793" lon="6.31864">
        <ele>1575</ele>
        <time>2024-02-25T09:36:29Z</time>
      </trkpt>
      <trkpt lat="44.32794" lon="6.31862">
        <ele>1575.4</ele>
        <time>2024-02-25T09:36:31Z</time>
      </trkpt>
      <trkpt lat="44.32796" lon="6.3186">
        <ele>1575.4</ele>
        <time>2024-02-25T09:36:33Z</time>
      </trkpt>
      <trkpt lat="44.32798" lon="6.31858">
        <ele>1575.8</ele>
        <time>2024-02-25T09:36:35Z</time>
      </trkpt>
      <trkpt lat="44.328" lon="6.31855">
        <ele>1576</ele>
        <time>2024-02-25T09:36:38Z</time>
      </trkpt>
      <trkpt lat="44.32801" lon="6.31854">
        <ele>1576</ele>
        <time>2024-02-25T09:36:39Z</time>
      </trkpt>
      <trkpt lat="44.32803" lon="6.31852">
        <ele>1576.2</ele>
        <time>2024-02-25T09:36:43Z</time>
      </trkpt>
      <trkpt lat="44.32807" lon="6.31848">
        <ele>1576.2</ele>
        <time>2024-02-25T09:36:47Z</time>
      </trkpt>
      <trkpt lat="44.32807" lon="6.31847">
        <ele>1576.4</ele>
        <time>2024-02-25T09:36:48Z</time>
      </trkpt>
      <trkpt lat="44.32808" lon="6.31847">
        <ele>1576.4</ele>
        <time>2024-02-25T09:36:49Z</time>
      </trkpt>
      <trkpt lat="44.3281" lon="6.31843">
        <ele>1576.6</ele>
        <time>2024-02-25T09:36:53Z</time>
      </trkpt>
      <trkpt lat="44.32812" lon="6.31838">
        <ele>1576.8</ele>
        <time>2024-02-25T09:36:56Z</time>
      </trkpt>
      <trkpt lat="44.32813" lon="6.31837">
        <ele>1576.8</ele>
        <time>2024-02-25T09:36:57Z</time>
      </trkpt>
      <trkpt lat="44.32813" lon="6.31835">
        <ele>1577</ele>
        <time>2024-02-25T09:36:58Z</time>
      </trkpt>
      <trkpt lat="44.32814" lon="6.31829">
        <ele>1577.2</ele>
        <time>2024-02-25T09:37:02Z</time>
      </trkpt>
      <trkpt lat="44.32814" lon="6.31827">
        <ele>1577.4</ele>
        <time>2024-02-25T09:37:04Z</time>
      </trkpt>
      <trkpt lat="44.32816" lon="6.31822">
        <ele>1577.8</ele>
        <time>2024-02-25T09:37:08Z</time>
      </trkpt>
      <trkpt lat="44.32816" lon="6.3182">
        <ele>1578</ele>
        <time>2024-02-25T09:37:09Z</time>
      </trkpt>
      <trkpt lat="44.32817" lon="6.31816">
        <ele>1578.2</ele>
        <time>2024-02-25T09:37:12Z</time>
      </trkpt>
      <trkpt lat="44.32819" lon="6.31813">
        <ele>1578.4</ele>
        <time>2024-02-25T09:37:15Z</time>
      </trkpt>
      <trkpt lat="44.32819" lon="6.3181">
        <ele>1578.4</ele>
        <time>2024-02-25T09:37:17Z</time>
      </trkpt>
      <trkpt lat="44.3282" lon="6.31809">
        <ele>1578.6</ele>
        <time>2024-02-25T09:37:18Z</time>
      </trkpt>
      <trkpt lat="44.32822" lon="6.31804">
        <ele>1579</ele>
        <time>2024-02-25T09:37:22Z</time>
      </trkpt>
      <trkpt lat="44.32822" lon="6.31803">
        <ele>1579.2</ele>
        <time>2024-02-25T09:37:23Z</time>
      </trkpt>
      <trkpt lat="44.32824" lon="6.31798">
        <ele>1579.6</ele>
        <time>2024-02-25T09:37:28Z</time>
      </trkpt>
      <trkpt lat="44.32824" lon="6.31797">
        <ele>1579.8</ele>
        <time>2024-02-25T09:37:30Z</time>
      </trkpt>
      <trkpt lat="44.32823" lon="6.31794">
        <ele>1580</ele>
        <time>2024-02-25T09:37:32Z</time>
      </trkpt>
      <trkpt lat="44.32823" lon="6.31793">
        <ele>1580</ele>
        <time>2024-02-25T09:37:33Z</time>
      </trkpt>
      <trkpt lat="44.32823" lon="6.31791">
        <ele>1580.2</ele>
        <time>2024-02-25T09:37:34Z</time>
      </trkpt>
      <trkpt lat="44.32824" lon="6.31787">
        <ele>1580.6</ele>
        <time>2024-02-25T09:37:38Z</time>
      </trkpt>
      <trkpt lat="44.32825" lon="6.31786">
        <ele>1580.8</ele>
        <time>2024-02-25T09:37:39Z</time>
      </trkpt>
      <trkpt lat="44.32826" lon="6.3178">
        <ele>1581</ele>
        <time>2024-02-25T09:37:45Z</time>
      </trkpt>
      <trkpt lat="44.32827" lon="6.31776">
        <ele>1581.4</ele>
        <time>2024-02-25T09:37:48Z</time>
      </trkpt>
      <trkpt lat="44.32828" lon="6.31771">
        <ele>1582</ele>
        <time>2024-02-25T09:37:53Z</time>
      </trkpt>
      <trkpt lat="44.32827" lon="6.31764">
        <ele>1582.4</ele>
        <time>2024-02-25T09:37:58Z</time>
      </trkpt>
      <trkpt lat="44.32827" lon="6.31762">
        <ele>1582.4</ele>
        <time>2024-02-25T09:37:59Z</time>
      </trkpt>
      <trkpt lat="44.32828" lon="6.31757">
        <ele>1582.6</ele>
        <time>2024-02-25T09:38:02Z</time>
      </trkpt>
      <trkpt lat="44.32828" lon="6.31754">
        <ele>1582.8</ele>
        <time>2024-02-25T09:38:04Z</time>
      </trkpt>
      <trkpt lat="44.32828" lon="6.31751">
        <ele>1583.2</ele>
        <time>2024-02-25T09:38:06Z</time>
      </trkpt>
      <trkpt lat="44.32828" lon="6.31749">
        <ele>1583.4</ele>
        <time>2024-02-25T09:38:07Z</time>
      </trkpt>
      <trkpt lat="44.32828" lon="6.31748">
        <ele>1583.4</ele>
        <time>2024-02-25T09:38:08Z</time>
      </trkpt>
      <trkpt lat="44.32827" lon="6.31742">
        <ele>1584.2</ele>
        <time>2024-02-25T09:38:13Z</time>
      </trkpt>
      <trkpt lat="44.32825" lon="6.31738">
        <ele>1584.6</ele>
        <time>2024-02-25T09:38:18Z</time>
      </trkpt>
      <trkpt lat="44.32825" lon="6.31736">
        <ele>1584.8</ele>
        <time>2024-02-25T09:38:20Z</time>
      </trkpt>
      <trkpt lat="44.32825" lon="6.31732">
        <ele>1585</ele>
        <time>2024-02-25T09:38:22Z</time>
      </trkpt>
      <trkpt lat="44.32824" lon="6.31728">
        <ele>1585.2</ele>
        <time>2024-02-25T09:38:25Z</time>
      </trkpt>
      <trkpt lat="44.32824" lon="6.31727">
        <ele>1585.4</ele>
        <time>2024-02-25T09:38:26Z</time>
      </trkpt>
      <trkpt lat="44.32823" lon="6.31726">
        <ele>1585.4</ele>
        <time>2024-02-25T09:38:27Z</time>
      </trkpt>
      <trkpt lat="44.32823" lon="6.31725">
        <ele>1585.4</ele>
        <time>2024-02-25T09:38:28Z</time>
      </trkpt>
      <trkpt lat="44.32823" lon="6.31721">
        <ele>1586.2</ele>
        <time>2024-02-25T09:38:32Z</time>
      </trkpt>
      <trkpt lat="44.32823" lon="6.31719">
        <ele>1586.4</ele>
        <time>2024-02-25T09:38:34Z</time>
      </trkpt>
      <trkpt lat="44.32826" lon="6.31713">
        <ele>1587</ele>
        <time>2024-02-25T09:38:38Z</time>
      </trkpt>
      <trkpt lat="44.32825" lon="6.31711">
        <ele>1587.2</ele>
        <time>2024-02-25T09:38:40Z</time>
      </trkpt>
      <trkpt lat="44.32825" lon="6.31708">
        <ele>1587.4</ele>
        <time>2024-02-25T09:38:42Z</time>
      </trkpt>
      <trkpt lat="44.32824" lon="6.31702">
        <ele>1588.2</ele>
        <time>2024-02-25T09:38:48Z</time>
      </trkpt>
      <trkpt lat="44.32823" lon="6.31699">
        <ele>1588.6</ele>
        <time>2024-02-25T09:38:51Z</time>
      </trkpt>
      <trkpt lat="44.32822" lon="6.31692">
        <ele>1589.2</ele>
        <time>2024-02-25T09:38:58Z</time>
      </trkpt>
      <trkpt lat="44.32822" lon="6.31687">
        <ele>1589.6</ele>
        <time>2024-02-25T09:39:02Z</time>
      </trkpt>
      <trkpt lat="44.32821" lon="6.31682">
        <ele>1590.4</ele>
        <time>2024-02-25T09:39:08Z</time>
      </trkpt>
      <trkpt lat="44.32821" lon="6.31679">
        <ele>1590.6</ele>
        <time>2024-02-25T09:39:10Z</time>
      </trkpt>
      <trkpt lat="44.32821" lon="6.31673">
        <ele>1591.8</ele>
        <time>2024-02-25T09:39:17Z</time>
      </trkpt>
      <trkpt lat="44.32821" lon="6.31671">
        <ele>1592</ele>
        <time>2024-02-25T09:39:18Z</time>
      </trkpt>
      <trkpt lat="44.32821" lon="6.31664">
        <ele>1593</ele>
        <time>2024-02-25T09:39:24Z</time>
      </trkpt>
      <trkpt lat="44.32822" lon="6.31661">
        <ele>1593.4</ele>
        <time>2024-02-25T09:39:28Z</time>
      </trkpt>
      <trkpt lat="44.32822" lon="6.31652">
        <ele>1594</ele>
        <time>2024-02-25T09:39:36Z</time>
      </trkpt>
      <trkpt lat="44.32821" lon="6.3165">
        <ele>1594.2</ele>
        <time>2024-02-25T09:39:38Z</time>
      </trkpt>
      <trkpt lat="44.32821" lon="6.31645">
        <ele>1594.8</ele>
        <time>2024-02-25T09:39:42Z</time>
      </trkpt>
      <trkpt lat="44.32819" lon="6.31643">
        <ele>1595.2</ele>
        <time>2024-02-25T09:39:44Z</time>
      </trkpt>
      <trkpt lat="44.32819" lon="6.31643">
        <ele>1595.4</ele>
        <time>2024-02-25T09:39:46Z</time>
      </trkpt>
      <trkpt lat="44.32818" lon="6.31642">
        <ele>1595.6</ele>
        <time>2024-02-25T09:39:48Z</time>
      </trkpt>
      <trkpt lat="44.32812" lon="6.31642">
        <ele>1596</ele>
        <time>2024-02-25T09:39:58Z</time>
      </trkpt>
      <trkpt lat="44.3281" lon="6.31642">
        <ele>1596.2</ele>
        <time>2024-02-25T09:40:01Z</time>
      </trkpt>
      <trkpt lat="44.32813" lon="6.31639">
        <ele>1596.8</ele>
        <time>2024-02-25T09:40:08Z</time>
      </trkpt>
      <trkpt lat="44.32815" lon="6.31637">
        <ele>1596.2</ele>
        <time>2024-02-25T09:40:17Z</time>
      </trkpt>
      <trkpt lat="44.32815" lon="6.31637">
        <ele>1596.2</ele>
        <time>2024-02-25T09:40:18Z</time>
      </trkpt>
      <trkpt lat="44.32813" lon="6.31635">
        <ele>1596</ele>
        <time>2024-02-25T09:40:26Z</time>
      </trkpt>
      <trkpt lat="44.32813" lon="6.31635">
        <ele>1596.2</ele>
        <time>2024-02-25T09:40:28Z</time>
      </trkpt>
      <trkpt lat="44.32811" lon="6.3164">
        <ele>1597.2</ele>
        <time>2024-02-25T09:40:35Z</time>
      </trkpt>
      <trkpt lat="44.32809" lon="6.31643">
        <ele>1597.4</ele>
        <time>2024-02-25T09:40:38Z</time>
      </trkpt>
      <trkpt lat="44.32811" lon="6.3165">
        <ele>1598.2</ele>
        <time>2024-02-25T09:40:44Z</time>
      </trkpt>
      <trkpt lat="44.32811" lon="6.31651">
        <ele>1598.2</ele>
        <time>2024-02-25T09:40:45Z</time>
      </trkpt>
      <trkpt lat="44.32812" lon="6.31655">
        <ele>1598.4</ele>
        <time>2024-02-25T09:40:48Z</time>
      </trkpt>
      <trkpt lat="44.32812" lon="6.31656">
        <ele>1598.6</ele>
        <time>2024-02-25T09:40:49Z</time>
      </trkpt>
      <trkpt lat="44.3281" lon="6.31666">
        <ele>1599</ele>
        <time>2024-02-25T09:40:58Z</time>
      </trkpt>
      <trkpt lat="44.3281" lon="6.31667">
        <ele>1599.2</ele>
        <time>2024-02-25T09:40:59Z</time>
      </trkpt>
      <trkpt lat="44.3281" lon="6.31668">
        <ele>1599.2</ele>
        <time>2024-02-25T09:41:00Z</time>
      </trkpt>
      <trkpt lat="44.32808" lon="6.3167">
        <ele>1599.4</ele>
        <time>2024-02-25T09:41:02Z</time>
      </trkpt>
      <trkpt lat="44.32807" lon="6.3167">
        <ele>1599.6</ele>
        <time>2024-02-25T09:41:03Z</time>
      </trkpt>
      <trkpt lat="44.32807" lon="6.31671">
        <ele>1599.8</ele>
        <time>2024-02-25T09:41:04Z</time>
      </trkpt>
      <trkpt lat="44.32803" lon="6.31674">
        <ele>1600.2</ele>
        <time>2024-02-25T09:41:08Z</time>
      </trkpt>
      <trkpt lat="44.32803" lon="6.31676">
        <ele>1600.4</ele>
        <time>2024-02-25T09:41:10Z</time>
      </trkpt>
      <trkpt lat="44.32802" lon="6.31676">
        <ele>1600.4</ele>
        <time>2024-02-25T09:41:11Z</time>
      </trkpt>
      <trkpt lat="44.32801" lon="6.31678">
        <ele>1600.6</ele>
        <time>2024-02-25T09:41:13Z</time>
      </trkpt>
      <trkpt lat="44.32799" lon="6.31684">
        <ele>1601</ele>
        <time>2024-02-25T09:41:18Z</time>
      </trkpt>
      <trkpt lat="44.32796" lon="6.31692">
        <ele>1601.2</ele>
        <time>2024-02-25T09:41:24Z</time>
      </trkpt>
      <trkpt lat="44.32795" lon="6.31694">
        <ele>1601.4</ele>
        <time>2024-02-25T09:41:26Z</time>
      </trkpt>
      <trkpt lat="44.32794" lon="6.31697">
        <ele>1601.6</ele>
        <time>2024-02-25T09:41:28Z</time>
      </trkpt>
      <trkpt lat="44.32793" lon="6.317">
        <ele>1601.8</ele>
        <time>2024-02-25T09:41:31Z</time>
      </trkpt>
      <trkpt lat="44.32791" lon="6.31703">
        <ele>1601.8</ele>
        <time>2024-02-25T09:41:34Z</time>
      </trkpt>
      <trkpt lat="44.32789" lon="6.31707">
        <ele>1601.8</ele>
        <time>2024-02-25T09:41:37Z</time>
      </trkpt>
      <trkpt lat="44.32789" lon="6.31709">
        <ele>1601.8</ele>
        <time>2024-02-25T09:41:38Z</time>
      </trkpt>
      <trkpt lat="44.32783" lon="6.31718">
        <ele>1602</ele>
        <time>2024-02-25T09:41:45Z</time>
      </trkpt>
      <trkpt lat="44.32781" lon="6.31721">
        <ele>1602.2</ele>
        <time>2024-02-25T09:41:48Z</time>
      </trkpt>
      <trkpt lat="44.32781" lon="6.31723">
        <ele>1602.4</ele>
        <time>2024-02-25T09:41:49Z</time>
      </trkpt>
      <trkpt lat="44.32779" lon="6.31727">
        <ele>1602.6</ele>
        <time>2024-02-25T09:41:54Z</time>
      </trkpt>
      <trkpt lat="44.32777" lon="6.31728">
        <ele>1602.6</ele>
        <time>2024-02-25T09:41:56Z</time>
      </trkpt>
      <trkpt lat="44.32776" lon="6.3173">
        <ele>1602.6</ele>
        <time>2024-02-25T09:41:58Z</time>
      </trkpt>
      <trkpt lat="44.32775" lon="6.31731">
        <ele>1602.8</ele>
        <time>2024-02-25T09:42:00Z</time>
      </trkpt>
      <trkpt lat="44.32773" lon="6.31733">
        <ele>1602.8</ele>
        <time>2024-02-25T09:42:02Z</time>
      </trkpt>
      <trkpt lat="44.32768" lon="6.31736">
        <ele>1603.4</ele>
        <time>2024-02-25T09:42:07Z</time>
      </trkpt>
      <trkpt lat="44.32767" lon="6.31737">
        <ele>1603.4</ele>
        <time>2024-02-25T09:42:08Z</time>
      </trkpt>
      <trkpt lat="44.32765" lon="6.31738">
        <ele>1603.6</ele>
        <time>2024-02-25T09:42:10Z</time>
      </trkpt>
      <trkpt lat="44.32762" lon="6.31739">
        <ele>1603.6</ele>
        <time>2024-02-25T09:42:12Z</time>
      </trkpt>
      <trkpt lat="44.32756" lon="6.31744">
        <ele>1604</ele>
        <time>2024-02-25T09:42:18Z</time>
      </trkpt>
      <trkpt lat="44.32755" lon="6.31744">
        <ele>1604.2</ele>
        <time>2024-02-25T09:42:19Z</time>
      </trkpt>
      <trkpt lat="44.32753" lon="6.31746">
        <ele>1604.4</ele>
        <time>2024-02-25T09:42:21Z</time>
      </trkpt>
      <trkpt lat="44.32752" lon="6.31747">
        <ele>1604.4</ele>
        <time>2024-02-25T09:42:22Z</time>
      </trkpt>
      <trkpt lat="44.3275" lon="6.31748">
        <ele>1604.8</ele>
        <time>2024-02-25T09:42:25Z</time>
      </trkpt>
      <trkpt lat="44.32749" lon="6.31749">
        <ele>1605</ele>
        <time>2024-02-25T09:42:28Z</time>
      </trkpt>
      <trkpt lat="44.32747" lon="6.31751">
        <ele>1605.2</ele>
        <time>2024-02-25T09:42:30Z</time>
      </trkpt>
      <trkpt lat="44.32746" lon="6.31752">
        <ele>1605.4</ele>
        <time>2024-02-25T09:42:32Z</time>
      </trkpt>
      <trkpt lat="44.32745" lon="6.31753">
        <ele>1605.6</ele>
        <time>2024-02-25T09:42:33Z</time>
      </trkpt>
      <trkpt lat="44.32744" lon="6.31754">
        <ele>1605.6</ele>
        <time>2024-02-25T09:42:34Z</time>
      </trkpt>
      <trkpt lat="44.32739" lon="6.31756">
        <ele>1605.8</ele>
        <time>2024-02-25T09:42:38Z</time>
      </trkpt>
      <trkpt lat="44.32735" lon="6.31762">
        <ele>1606</ele>
        <time>2024-02-25T09:42:43Z</time>
      </trkpt>
      <trkpt lat="44.32734" lon="6.31763">
        <ele>1606.2</ele>
        <time>2024-02-25T09:42:46Z</time>
      </trkpt>
      <trkpt lat="44.32732" lon="6.31765">
        <ele>1606.4</ele>
        <time>2024-02-25T09:42:48Z</time>
      </trkpt>
      <trkpt lat="44.32732" lon="6.31767">
        <ele>1606.6</ele>
        <time>2024-02-25T09:42:49Z</time>
      </trkpt>
      <trkpt lat="44.32731" lon="6.31767">
        <ele>1606.6</ele>
        <time>2024-02-25T09:42:50Z</time>
      </trkpt>
      <trkpt lat="44.32729" lon="6.31768">
        <ele>1606.6</ele>
        <time>2024-02-25T09:42:52Z</time>
      </trkpt>
      <trkpt lat="44.32725" lon="6.31769">
        <ele>1607</ele>
        <time>2024-02-25T09:42:55Z</time>
      </trkpt>
      <trkpt lat="44.32722" lon="6.3177">
        <ele>1607</ele>
        <time>2024-02-25T09:42:57Z</time>
      </trkpt>
      <trkpt lat="44.32721" lon="6.3177">
        <ele>1607.2</ele>
        <time>2024-02-25T09:42:58Z</time>
      </trkpt>
      <trkpt lat="44.32719" lon="6.31771">
        <ele>1607.4</ele>
        <time>2024-02-25T09:43:01Z</time>
      </trkpt>
      <trkpt lat="44.32718" lon="6.31771">
        <ele>1607.6</ele>
        <time>2024-02-25T09:43:02Z</time>
      </trkpt>
      <trkpt lat="44.32713" lon="6.31771">
        <ele>1607.8</ele>
        <time>2024-02-25T09:43:05Z</time>
      </trkpt>
      <trkpt lat="44.32709" lon="6.31773">
        <ele>1608</ele>
        <time>2024-02-25T09:43:08Z</time>
      </trkpt>
      <trkpt lat="44.32708" lon="6.31773">
        <ele>1607.8</ele>
        <time>2024-02-25T09:43:09Z</time>
      </trkpt>
      <trkpt lat="44.32706" lon="6.31774">
        <ele>1607.8</ele>
        <time>2024-02-25T09:43:11Z</time>
      </trkpt>
      <trkpt lat="44.32704" lon="6.31774">
        <ele>1608</ele>
        <time>2024-02-25T09:43:13Z</time>
      </trkpt>
      <trkpt lat="44.32702" lon="6.31775">
        <ele>1608.2</ele>
        <time>2024-02-25T09:43:15Z</time>
      </trkpt>
      <trkpt lat="44.327" lon="6.31777">
        <ele>1608.6</ele>
        <time>2024-02-25T09:43:17Z</time>
      </trkpt>
      <trkpt lat="44.327" lon="6.31778">
        <ele>1608.6</ele>
        <time>2024-02-25T09:43:18Z</time>
      </trkpt>
      <trkpt lat="44.32699" lon="6.31778">
        <ele>1608.6</ele>
        <time>2024-02-25T09:43:19Z</time>
      </trkpt>
      <trkpt lat="44.32691" lon="6.31784">
        <ele>1609.2</ele>
        <time>2024-02-25T09:43:28Z</time>
      </trkpt>
      <trkpt lat="44.32689" lon="6.31785">
        <ele>1609.4</ele>
        <time>2024-02-25T09:43:31Z</time>
      </trkpt>
      <trkpt lat="44.32683" lon="6.31787">
        <ele>1609.6</ele>
        <time>2024-02-25T09:43:36Z</time>
      </trkpt>
      <trkpt lat="44.32681" lon="6.31788">
        <ele>1609.6</ele>
        <time>2024-02-25T09:43:37Z</time>
      </trkpt>
      <trkpt lat="44.3268" lon="6.31788">
        <ele>1609.6</ele>
        <time>2024-02-25T09:43:38Z</time>
      </trkpt>
      <trkpt lat="44.32679" lon="6.31788">
        <ele>1609.8</ele>
        <time>2024-02-25T09:43:39Z</time>
      </trkpt>
      <trkpt lat="44.32672" lon="6.3179">
        <ele>1610.4</ele>
        <time>2024-02-25T09:43:44Z</time>
      </trkpt>
      <trkpt lat="44.32669" lon="6.3179">
        <ele>1610.6</ele>
        <time>2024-02-25T09:43:46Z</time>
      </trkpt>
      <trkpt lat="44.32667" lon="6.31791">
        <ele>1610.8</ele>
        <time>2024-02-25T09:43:48Z</time>
      </trkpt>
      <trkpt lat="44.32657" lon="6.31794">
        <ele>1611.2</ele>
        <time>2024-02-25T09:43:58Z</time>
      </trkpt>
      <trkpt lat="44.32655" lon="6.31796">
        <ele>1611.4</ele>
        <time>2024-02-25T09:44:00Z</time>
      </trkpt>
      <trkpt lat="44.32649" lon="6.31796">
        <ele>1611.6</ele>
        <time>2024-02-25T09:44:05Z</time>
      </trkpt>
      <trkpt lat="44.32647" lon="6.31797">
        <ele>1611.6</ele>
        <time>2024-02-25T09:44:06Z</time>
      </trkpt>
      <trkpt lat="44.32645" lon="6.31797">
        <ele>1611.8</ele>
        <time>2024-02-25T09:44:08Z</time>
      </trkpt>
      <trkpt lat="44.32644" lon="6.31797">
        <ele>1611.8</ele>
        <time>2024-02-25T09:44:09Z</time>
      </trkpt>
      <trkpt lat="44.32634" lon="6.31799">
        <ele>1612.4</ele>
        <time>2024-02-25T09:44:18Z</time>
      </trkpt>
      <trkpt lat="44.32633" lon="6.318">
        <ele>1612.4</ele>
        <time>2024-02-25T09:44:19Z</time>
      </trkpt>
      <trkpt lat="44.32632" lon="6.31801">
        <ele>1612.4</ele>
        <time>2024-02-25T09:44:20Z</time>
      </trkpt>
      <trkpt lat="44.32631" lon="6.31802">
        <ele>1612.6</ele>
        <time>2024-02-25T09:44:22Z</time>
      </trkpt>
      <trkpt lat="44.3263" lon="6.31803">
        <ele>1612.6</ele>
        <time>2024-02-25T09:44:23Z</time>
      </trkpt>
      <trkpt lat="44.32628" lon="6.31806">
        <ele>1613</ele>
        <time>2024-02-25T09:44:26Z</time>
      </trkpt>
      <trkpt lat="44.32627" lon="6.31807">
        <ele>1613</ele>
        <time>2024-02-25T09:44:28Z</time>
      </trkpt>
      <trkpt lat="44.32626" lon="6.31808">
        <ele>1613.2</ele>
        <time>2024-02-25T09:44:29Z</time>
      </trkpt>
      <trkpt lat="44.32624" lon="6.3181">
        <ele>1613.2</ele>
        <time>2024-02-25T09:44:31Z</time>
      </trkpt>
      <trkpt lat="44.32619" lon="6.31811">
        <ele>1613.6</ele>
        <time>2024-02-25T09:44:35Z</time>
      </trkpt>
      <trkpt lat="44.32618" lon="6.31811">
        <ele>1613.8</ele>
        <time>2024-02-25T09:44:36Z</time>
      </trkpt>
      <trkpt lat="44.32616" lon="6.31813">
        <ele>1613.8</ele>
        <time>2024-02-25T09:44:38Z</time>
      </trkpt>
      <trkpt lat="44.32616" lon="6.31813">
        <ele>1614</ele>
        <time>2024-02-25T09:44:39Z</time>
      </trkpt>
      <trkpt lat="44.3261" lon="6.31815">
        <ele>1614.8</ele>
        <time>2024-02-25T09:44:45Z</time>
      </trkpt>
      <trkpt lat="44.32605" lon="6.31817">
        <ele>1615.4</ele>
        <time>2024-02-25T09:44:49Z</time>
      </trkpt>
      <trkpt lat="44.32599" lon="6.31818">
        <ele>1615.8</ele>
        <time>2024-02-25T09:44:54Z</time>
      </trkpt>
      <trkpt lat="44.32596" lon="6.31819">
        <ele>1616</ele>
        <time>2024-02-25T09:44:57Z</time>
      </trkpt>
      <trkpt lat="44.32594" lon="6.31818">
        <ele>1616</ele>
        <time>2024-02-25T09:44:59Z</time>
      </trkpt>
      <trkpt lat="44.32593" lon="6.31819">
        <ele>1616</ele>
        <time>2024-02-25T09:45:00Z</time>
      </trkpt>
      <trkpt lat="44.32591" lon="6.31819">
        <ele>1616</ele>
        <time>2024-02-25T09:45:02Z</time>
      </trkpt>
      <trkpt lat="44.32588" lon="6.3182">
        <ele>1616</ele>
        <time>2024-02-25T09:45:05Z</time>
      </trkpt>
      <trkpt lat="44.32583" lon="6.31822">
        <ele>1616.4</ele>
        <time>2024-02-25T09:45:09Z</time>
      </trkpt>
      <trkpt lat="44.32577" lon="6.31825">
        <ele>1617</ele>
        <time>2024-02-25T09:45:16Z</time>
      </trkpt>
      <trkpt lat="44.32574" lon="6.31826">
        <ele>1617</ele>
        <time>2024-02-25T09:45:19Z</time>
      </trkpt>
      <trkpt lat="44.32564" lon="6.31828">
        <ele>1617.8</ele>
        <time>2024-02-25T09:45:29Z</time>
      </trkpt>
      <trkpt lat="44.32562" lon="6.31828">
        <ele>1618</ele>
        <time>2024-02-25T09:45:31Z</time>
      </trkpt>
      <trkpt lat="44.32553" lon="6.31826">
        <ele>1618.6</ele>
        <time>2024-02-25T09:45:39Z</time>
      </trkpt>
      <trkpt lat="44.3255" lon="6.31825">
        <ele>1619</ele>
        <time>2024-02-25T09:45:42Z</time>
      </trkpt>
      <trkpt lat="44.32548" lon="6.31824">
        <ele>1619</ele>
        <time>2024-02-25T09:45:43Z</time>
      </trkpt>
      <trkpt lat="44.32543" lon="6.31823">
        <ele>1619.2</ele>
        <time>2024-02-25T09:45:47Z</time>
      </trkpt>
      <trkpt lat="44.32541" lon="6.31823">
        <ele>1619.4</ele>
        <time>2024-02-25T09:45:49Z</time>
      </trkpt>
      <trkpt lat="44.32535" lon="6.31822">
        <ele>1619.6</ele>
        <time>2024-02-25T09:45:54Z</time>
      </trkpt>
      <trkpt lat="44.32529" lon="6.31821">
        <ele>1620</ele>
        <time>2024-02-25T09:45:59Z</time>
      </trkpt>
      <trkpt lat="44.32526" lon="6.3182">
        <ele>1620</ele>
        <time>2024-02-25T09:46:01Z</time>
      </trkpt>
      <trkpt lat="44.32519" lon="6.31817">
        <ele>1620.2</ele>
        <time>2024-02-25T09:46:07Z</time>
      </trkpt>
      <trkpt lat="44.32517" lon="6.31816">
        <ele>1620.2</ele>
        <time>2024-02-25T09:46:09Z</time>
      </trkpt>
      <trkpt lat="44.32516" lon="6.31815">
        <ele>1620.2</ele>
        <time>2024-02-25T09:46:10Z</time>
      </trkpt>
      <trkpt lat="44.32507" lon="6.31813">
        <ele>1620.2</ele>
        <time>2024-02-25T09:46:19Z</time>
      </trkpt>
      <trkpt lat="44.32497" lon="6.31817">
        <ele>1620.6</ele>
        <time>2024-02-25T09:46:29Z</time>
      </trkpt>
      <trkpt lat="44.32491" lon="6.3182">
        <ele>1621</ele>
        <time>2024-02-25T09:46:36Z</time>
      </trkpt>
      <trkpt lat="44.32488" lon="6.31821">
        <ele>1621.4</ele>
        <time>2024-02-25T09:46:39Z</time>
      </trkpt>
      <trkpt lat="44.32487" lon="6.31822">
        <ele>1621.6</ele>
        <time>2024-02-25T09:46:41Z</time>
      </trkpt>
      <trkpt lat="44.32484" lon="6.31823">
        <ele>1622.2</ele>
        <time>2024-02-25T09:46:44Z</time>
      </trkpt>
      <trkpt lat="44.3248" lon="6.31824">
        <ele>1622.6</ele>
        <time>2024-02-25T09:46:49Z</time>
      </trkpt>
      <trkpt lat="44.32478" lon="6.31825">
        <ele>1623.2</ele>
        <time>2024-02-25T09:46:53Z</time>
      </trkpt>
      <trkpt lat="44.32473" lon="6.31829">
        <ele>1624</ele>
        <time>2024-02-25T09:46:59Z</time>
      </trkpt>
      <trkpt lat="44.32472" lon="6.31829">
        <ele>1624.2</ele>
        <time>2024-02-25T09:47:00Z</time>
      </trkpt>
      <trkpt lat="44.32472" lon="6.3183">
        <ele>1624.2</ele>
        <time>2024-02-25T09:47:01Z</time>
      </trkpt>
      <trkpt lat="44.32464" lon="6.31832">
        <ele>1625</ele>
        <time>2024-02-25T09:47:09Z</time>
      </trkpt>
      <trkpt lat="44.32461" lon="6.31833">
        <ele>1625.4</ele>
        <time>2024-02-25T09:47:12Z</time>
      </trkpt>
      <trkpt lat="44.32458" lon="6.31834">
        <ele>1625.8</ele>
        <time>2024-02-25T09:47:16Z</time>
      </trkpt>
      <trkpt lat="44.32454" lon="6.31834">
        <ele>1626.2</ele>
        <time>2024-02-25T09:47:19Z</time>
      </trkpt>
      <trkpt lat="44.32453" lon="6.31833">
        <ele>1626.4</ele>
        <time>2024-02-25T09:47:21Z</time>
      </trkpt>
      <trkpt lat="44.32449" lon="6.31833">
        <ele>1626.8</ele>
        <time>2024-02-25T09:47:25Z</time>
      </trkpt>
      <trkpt lat="44.32446" lon="6.31834">
        <ele>1627.4</ele>
        <time>2024-02-25T09:47:29Z</time>
      </trkpt>
      <trkpt lat="44.32445" lon="6.31834">
        <ele>1627.4</ele>
        <time>2024-02-25T09:47:30Z</time>
      </trkpt>
      <trkpt lat="44.32438" lon="6.31835">
        <ele>1628.4</ele>
        <time>2024-02-25T09:47:38Z</time>
      </trkpt>
      <trkpt lat="44.32437" lon="6.31835">
        <ele>1628.6</ele>
        <time>2024-02-25T09:47:39Z</time>
      </trkpt>
      <trkpt lat="44.32433" lon="6.31836">
        <ele>1629.2</ele>
        <time>2024-02-25T09:47:43Z</time>
      </trkpt>
      <trkpt lat="44.3243" lon="6.31835">
        <ele>1629.6</ele>
        <time>2024-02-25T09:47:47Z</time>
      </trkpt>
      <trkpt lat="44.3243" lon="6.31835">
        <ele>1629.6</ele>
        <time>2024-02-25T09:47:48Z</time>
      </trkpt>
      <trkpt lat="44.32429" lon="6.31834">
        <ele>1629.8</ele>
        <time>2024-02-25T09:47:49Z</time>
      </trkpt>
      <trkpt lat="44.32424" lon="6.31833">
        <ele>1630.6</ele>
        <time>2024-02-25T09:47:54Z</time>
      </trkpt>
      <trkpt lat="44.32423" lon="6.31832">
        <ele>1630.8</ele>
        <time>2024-02-25T09:47:55Z</time>
      </trkpt>
      <trkpt lat="44.32419" lon="6.3183">
        <ele>1631.2</ele>
        <time>2024-02-25T09:47:59Z</time>
      </trkpt>
      <trkpt lat="44.32417" lon="6.31827">
        <ele>1631.6</ele>
        <time>2024-02-25T09:48:02Z</time>
      </trkpt>
      <trkpt lat="44.3241" lon="6.31822">
        <ele>1632.6</ele>
        <time>2024-02-25T09:48:09Z</time>
      </trkpt>
      <trkpt lat="44.32409" lon="6.31816">
        <ele>1632.6</ele>
        <time>2024-02-25T09:48:13Z</time>
      </trkpt>
      <trkpt lat="44.32408" lon="6.31812">
        <ele>1633.2</ele>
        <time>2024-02-25T09:48:16Z</time>
      </trkpt>
      <trkpt lat="44.32408" lon="6.31808">
        <ele>1633.4</ele>
        <time>2024-02-25T09:48:19Z</time>
      </trkpt>
      <trkpt lat="44.32408" lon="6.31805">
        <ele>1633.8</ele>
        <time>2024-02-25T09:48:21Z</time>
      </trkpt>
      <trkpt lat="44.32408" lon="6.31802">
        <ele>1634.2</ele>
        <time>2024-02-25T09:48:23Z</time>
      </trkpt>
      <trkpt lat="44.3241" lon="6.31797">
        <ele>1634.8</ele>
        <time>2024-02-25T09:48:27Z</time>
      </trkpt>
      <trkpt lat="44.32411" lon="6.31795">
        <ele>1635</ele>
        <time>2024-02-25T09:48:29Z</time>
      </trkpt>
      <trkpt lat="44.32412" lon="6.31793">
        <ele>1635.4</ele>
        <time>2024-02-25T09:48:31Z</time>
      </trkpt>
      <trkpt lat="44.32412" lon="6.31791">
        <ele>1635.6</ele>
        <time>2024-02-25T09:48:33Z</time>
      </trkpt>
      <trkpt lat="44.32413" lon="6.31788">
        <ele>1636</ele>
        <time>2024-02-25T09:48:35Z</time>
      </trkpt>
      <trkpt lat="44.32414" lon="6.31784">
        <ele>1636.4</ele>
        <time>2024-02-25T09:48:39Z</time>
      </trkpt>
      <trkpt lat="44.32416" lon="6.31778">
        <ele>1637</ele>
        <time>2024-02-25T09:48:44Z</time>
      </trkpt>
      <trkpt lat="44.32416" lon="6.31777">
        <ele>1637</ele>
        <time>2024-02-25T09:48:45Z</time>
      </trkpt>
      <trkpt lat="44.32418" lon="6.31773">
        <ele>1637.2</ele>
        <time>2024-02-25T09:48:48Z</time>
      </trkpt>
      <trkpt lat="44.32419" lon="6.31772">
        <ele>1637.2</ele>
        <time>2024-02-25T09:48:49Z</time>
      </trkpt>
      <trkpt lat="44.3242" lon="6.3177">
        <ele>1637.4</ele>
        <time>2024-02-25T09:48:51Z</time>
      </trkpt>
      <trkpt lat="44.32421" lon="6.31767">
        <ele>1637.8</ele>
        <time>2024-02-25T09:48:53Z</time>
      </trkpt>
      <trkpt lat="44.32422" lon="6.31766">
        <ele>1638.2</ele>
        <time>2024-02-25T09:48:54Z</time>
      </trkpt>
      <trkpt lat="44.32423" lon="6.31763">
        <ele>1638.6</ele>
        <time>2024-02-25T09:48:57Z</time>
      </trkpt>
      <trkpt lat="44.32424" lon="6.3176">
        <ele>1638.8</ele>
        <time>2024-02-25T09:48:59Z</time>
      </trkpt>
      <trkpt lat="44.32426" lon="6.31756">
        <ele>1638.8</ele>
        <time>2024-02-25T09:49:03Z</time>
      </trkpt>
      <trkpt lat="44.32428" lon="6.31753">
        <ele>1639.2</ele>
        <time>2024-02-25T09:49:06Z</time>
      </trkpt>
      <trkpt lat="44.32429" lon="6.31751">
        <ele>1639.6</ele>
        <time>2024-02-25T09:49:08Z</time>
      </trkpt>
      <trkpt lat="44.32429" lon="6.31751">
        <ele>1639.8</ele>
        <time>2024-02-25T09:49:09Z</time>
      </trkpt>
      <trkpt lat="44.3243" lon="6.31749">
        <ele>1640</ele>
        <time>2024-02-25T09:49:11Z</time>
      </trkpt>
      <trkpt lat="44.3243" lon="6.31748">
        <ele>1640.2</ele>
        <time>2024-02-25T09:49:12Z</time>
      </trkpt>
      <trkpt lat="44.32431" lon="6.31744">
        <ele>1640.4</ele>
        <time>2024-02-25T09:49:15Z</time>
      </trkpt>
      <trkpt lat="44.32432" lon="6.31739">
        <ele>1640.6</ele>
        <time>2024-02-25T09:49:18Z</time>
      </trkpt>
      <trkpt lat="44.32432" lon="6.31738">
        <ele>1640.8</ele>
        <time>2024-02-25T09:49:19Z</time>
      </trkpt>
      <trkpt lat="44.32434" lon="6.31733">
        <ele>1641.4</ele>
        <time>2024-02-25T09:49:23Z</time>
      </trkpt>
      <trkpt lat="44.32434" lon="6.31731">
        <ele>1641.4</ele>
        <time>2024-02-25T09:49:24Z</time>
      </trkpt>
      <trkpt lat="44.32436" lon="6.31725">
        <ele>1642</ele>
        <time>2024-02-25T09:49:29Z</time>
      </trkpt>
      <trkpt lat="44.32436" lon="6.31723">
        <ele>1642.4</ele>
        <time>2024-02-25T09:49:31Z</time>
      </trkpt>
      <trkpt lat="44.32436" lon="6.31721">
        <ele>1642.6</ele>
        <time>2024-02-25T09:49:33Z</time>
      </trkpt>
      <trkpt lat="44.32437" lon="6.31718">
        <ele>1643</ele>
        <time>2024-02-25T09:49:35Z</time>
      </trkpt>
      <trkpt lat="44.32437" lon="6.31715">
        <ele>1643.4</ele>
        <time>2024-02-25T09:49:38Z</time>
      </trkpt>
      <trkpt lat="44.32437" lon="6.31714">
        <ele>1643.6</ele>
        <time>2024-02-25T09:49:39Z</time>
      </trkpt>
      <trkpt lat="44.32439" lon="6.31708">
        <ele>1644.6</ele>
        <time>2024-02-25T09:49:43Z</time>
      </trkpt>
      <trkpt lat="44.3244" lon="6.31704">
        <ele>1644.8</ele>
        <time>2024-02-25T09:49:47Z</time>
      </trkpt>
      <trkpt lat="44.32441" lon="6.31701">
        <ele>1645</ele>
        <time>2024-02-25T09:49:49Z</time>
      </trkpt>
      <trkpt lat="44.32442" lon="6.31697">
        <ele>1645.6</ele>
        <time>2024-02-25T09:49:53Z</time>
      </trkpt>
      <trkpt lat="44.32443" lon="6.31694">
        <ele>1646</ele>
        <time>2024-02-25T09:49:55Z</time>
      </trkpt>
      <trkpt lat="44.32444" lon="6.31692">
        <ele>1646.4</ele>
        <time>2024-02-25T09:49:57Z</time>
      </trkpt>
      <trkpt lat="44.32445" lon="6.3169">
        <ele>1646.6</ele>
        <time>2024-02-25T09:49:59Z</time>
      </trkpt>
      <trkpt lat="44.32445" lon="6.31689">
        <ele>1646.6</ele>
        <time>2024-02-25T09:50:00Z</time>
      </trkpt>
      <trkpt lat="44.32446" lon="6.31684">
        <ele>1647</ele>
        <time>2024-02-25T09:50:04Z</time>
      </trkpt>
      <trkpt lat="44.32446" lon="6.31681">
        <ele>1647.6</ele>
        <time>2024-02-25T09:50:07Z</time>
      </trkpt>
      <trkpt lat="44.32447" lon="6.31678">
        <ele>1647.8</ele>
        <time>2024-02-25T09:50:09Z</time>
      </trkpt>
      <trkpt lat="44.32447" lon="6.31676">
        <ele>1648.2</ele>
        <time>2024-02-25T09:50:11Z</time>
      </trkpt>
      <trkpt lat="44.32447" lon="6.31671">
        <ele>1648.8</ele>
        <time>2024-02-25T09:50:15Z</time>
      </trkpt>
      <trkpt lat="44.32447" lon="6.31667">
        <ele>1649.4</ele>
        <time>2024-02-25T09:50:19Z</time>
      </trkpt>
      <trkpt lat="44.32447" lon="6.31659">
        <ele>1650</ele>
        <time>2024-02-25T09:50:25Z</time>
      </trkpt>
      <trkpt lat="44.32446" lon="6.31654">
        <ele>1650.4</ele>
        <time>2024-02-25T09:50:29Z</time>
      </trkpt>
      <trkpt lat="44.32445" lon="6.31646">
        <ele>1651</ele>
        <time>2024-02-25T09:50:36Z</time>
      </trkpt>
      <trkpt lat="44.32445" lon="6.31645">
        <ele>1651.2</ele>
        <time>2024-02-25T09:50:37Z</time>
      </trkpt>
      <trkpt lat="44.32444" lon="6.31644">
        <ele>1651.2</ele>
        <time>2024-02-25T09:50:38Z</time>
      </trkpt>
      <trkpt lat="44.32444" lon="6.31643">
        <ele>1651.4</ele>
        <time>2024-02-25T09:50:39Z</time>
      </trkpt>
      <trkpt lat="44.32443" lon="6.31641">
        <ele>1651.6</ele>
        <time>2024-02-25T09:50:41Z</time>
      </trkpt>
      <trkpt lat="44.32441" lon="6.31639">
        <ele>1651.8</ele>
        <time>2024-02-25T09:50:44Z</time>
      </trkpt>
      <trkpt lat="44.3244" lon="6.31637">
        <ele>1652</ele>
        <time>2024-02-25T09:50:46Z</time>
      </trkpt>
      <trkpt lat="44.3244" lon="6.31635">
        <ele>1652</ele>
        <time>2024-02-25T09:50:48Z</time>
      </trkpt>
      <trkpt lat="44.3244" lon="6.31634">
        <ele>1652.2</ele>
        <time>2024-02-25T09:50:49Z</time>
      </trkpt>
      <trkpt lat="44.3244" lon="6.31633">
        <ele>1652.6</ele>
        <time>2024-02-25T09:50:51Z</time>
      </trkpt>
      <trkpt lat="44.32439" lon="6.31631">
        <ele>1652.8</ele>
        <time>2024-02-25T09:50:53Z</time>
      </trkpt>
      <trkpt lat="44.32439" lon="6.3163">
        <ele>1653</ele>
        <time>2024-02-25T09:50:54Z</time>
      </trkpt>
      <trkpt lat="44.32439" lon="6.31629">
        <ele>1653.2</ele>
        <time>2024-02-25T09:50:55Z</time>
      </trkpt>
      <trkpt lat="44.32436" lon="6.31625">
        <ele>1653.8</ele>
        <time>2024-02-25T09:50:59Z</time>
      </trkpt>
      <trkpt lat="44.32432" lon="6.31621">
        <ele>1654.2</ele>
        <time>2024-02-25T09:51:04Z</time>
      </trkpt>
      <trkpt lat="44.32429" lon="6.31618">
        <ele>1654.6</ele>
        <time>2024-02-25T09:51:09Z</time>
      </trkpt>
      <trkpt lat="44.32427" lon="6.31615">
        <ele>1655.2</ele>
        <time>2024-02-25T09:51:13Z</time>
      </trkpt>
      <trkpt lat="44.32425" lon="6.31613">
        <ele>1655.2</ele>
        <time>2024-02-25T09:51:15Z</time>
      </trkpt>
      <trkpt lat="44.32425" lon="6.31613">
        <ele>1655.4</ele>
        <time>2024-02-25T09:51:16Z</time>
      </trkpt>
      <trkpt lat="44.32423" lon="6.3161">
        <ele>1656</ele>
        <time>2024-02-25T09:51:19Z</time>
      </trkpt>
      <trkpt lat="44.32422" lon="6.31608">
        <ele>1656.2</ele>
        <time>2024-02-25T09:51:21Z</time>
      </trkpt>
      <trkpt lat="44.32421" lon="6.31607">
        <ele>1656.4</ele>
        <time>2024-02-25T09:51:22Z</time>
      </trkpt>
      <trkpt lat="44.32421" lon="6.31606">
        <ele>1656.4</ele>
        <time>2024-02-25T09:51:23Z</time>
      </trkpt>
      <trkpt lat="44.3242" lon="6.31602">
        <ele>1656.6</ele>
        <time>2024-02-25T09:51:26Z</time>
      </trkpt>
      <trkpt lat="44.32419" lon="6.31599">
        <ele>1656.8</ele>
        <time>2024-02-25T09:51:29Z</time>
      </trkpt>
      <trkpt lat="44.32417" lon="6.31592">
        <ele>1657.4</ele>
        <time>2024-02-25T09:51:35Z</time>
      </trkpt>
      <trkpt lat="44.32417" lon="6.31591">
        <ele>1657.4</ele>
        <time>2024-02-25T09:51:36Z</time>
      </trkpt>
      <trkpt lat="44.32417" lon="6.31587">
        <ele>1657.8</ele>
        <time>2024-02-25T09:51:39Z</time>
      </trkpt>
      <trkpt lat="44.32417" lon="6.31584">
        <ele>1658</ele>
        <time>2024-02-25T09:51:42Z</time>
      </trkpt>
      <trkpt lat="44.32418" lon="6.31579">
        <ele>1658.6</ele>
        <time>2024-02-25T09:51:46Z</time>
      </trkpt>
      <trkpt lat="44.3242" lon="6.31576">
        <ele>1658.8</ele>
        <time>2024-02-25T09:51:49Z</time>
      </trkpt>
      <trkpt lat="44.32426" lon="6.31567">
        <ele>1659.6</ele>
        <time>2024-02-25T09:51:59Z</time>
      </trkpt>
      <trkpt lat="44.3243" lon="6.31561">
        <ele>1660.8</ele>
        <time>2024-02-25T09:52:05Z</time>
      </trkpt>
      <trkpt lat="44.32431" lon="6.3156">
        <ele>1661</ele>
        <time>2024-02-25T09:52:06Z</time>
      </trkpt>
      <trkpt lat="44.32434" lon="6.31556">
        <ele>1661.6</ele>
        <time>2024-02-25T09:52:10Z</time>
      </trkpt>
      <trkpt lat="44.32434" lon="6.31554">
        <ele>1661.8</ele>
        <time>2024-02-25T09:52:11Z</time>
      </trkpt>
      <trkpt lat="44.32435" lon="6.31553">
        <ele>1662</ele>
        <time>2024-02-25T09:52:12Z</time>
      </trkpt>
      <trkpt lat="44.32436" lon="6.31551">
        <ele>1662.6</ele>
        <time>2024-02-25T09:52:15Z</time>
      </trkpt>
      <trkpt lat="44.32437" lon="6.3155">
        <ele>1663</ele>
        <time>2024-02-25T09:52:17Z</time>
      </trkpt>
      <trkpt lat="44.32438" lon="6.31549">
        <ele>1663.2</ele>
        <time>2024-02-25T09:52:18Z</time>
      </trkpt>
      <trkpt lat="44.3244" lon="6.31547">
        <ele>1663.6</ele>
        <time>2024-02-25T09:52:20Z</time>
      </trkpt>
      <trkpt lat="44.32441" lon="6.31546">
        <ele>1664</ele>
        <time>2024-02-25T09:52:22Z</time>
      </trkpt>
      <trkpt lat="44.32443" lon="6.31543">
        <ele>1664.4</ele>
        <time>2024-02-25T09:52:25Z</time>
      </trkpt>
      <trkpt lat="44.32447" lon="6.31539">
        <ele>1664.8</ele>
        <time>2024-02-25T09:52:30Z</time>
      </trkpt>
      <trkpt lat="44.32449" lon="6.31537">
        <ele>1665</ele>
        <time>2024-02-25T09:52:32Z</time>
      </trkpt>
      <trkpt lat="44.32454" lon="6.31529">
        <ele>1665.6</ele>
        <time>2024-02-25T09:52:39Z</time>
      </trkpt>
      <trkpt lat="44.32454" lon="6.31528">
        <ele>1665.8</ele>
        <time>2024-02-25T09:52:40Z</time>
      </trkpt>
      <trkpt lat="44.32455" lon="6.31527">
        <ele>1666</ele>
        <time>2024-02-25T09:52:42Z</time>
      </trkpt>
      <trkpt lat="44.32457" lon="6.31522">
        <ele>1666.4</ele>
        <time>2024-02-25T09:52:46Z</time>
      </trkpt>
      <trkpt lat="44.32459" lon="6.31518">
        <ele>1666.6</ele>
        <time>2024-02-25T09:52:50Z</time>
      </trkpt>
      <trkpt lat="44.32461" lon="6.31515">
        <ele>1666.6</ele>
        <time>2024-02-25T09:52:53Z</time>
      </trkpt>
      <trkpt lat="44.32462" lon="6.31512">
        <ele>1666.8</ele>
        <time>2024-02-25T09:52:55Z</time>
      </trkpt>
      <trkpt lat="44.32464" lon="6.31507">
        <ele>1667</ele>
        <time>2024-02-25T09:52:59Z</time>
      </trkpt>
      <trkpt lat="44.32464" lon="6.31506">
        <ele>1667</ele>
        <time>2024-02-25T09:53:00Z</time>
      </trkpt>
      <trkpt lat="44.32465" lon="6.31505">
        <ele>1667.2</ele>
        <time>2024-02-25T09:53:01Z</time>
      </trkpt>
      <trkpt lat="44.32467" lon="6.31493">
        <ele>1667.4</ele>
        <time>2024-02-25T09:53:10Z</time>
      </trkpt>
      <trkpt lat="44.32466" lon="6.31491">
        <ele>1667.6</ele>
        <time>2024-02-25T09:53:12Z</time>
      </trkpt>
      <trkpt lat="44.32465" lon="6.31489">
        <ele>1667.8</ele>
        <time>2024-02-25T09:53:14Z</time>
      </trkpt>
      <trkpt lat="44.32465" lon="6.31484">
        <ele>1668</ele>
        <time>2024-02-25T09:53:17Z</time>
      </trkpt>
      <trkpt lat="44.32466" lon="6.31479">
        <ele>1668</ele>
        <time>2024-02-25T09:53:20Z</time>
      </trkpt>
      <trkpt lat="44.32467" lon="6.31474">
        <ele>1668.2</ele>
        <time>2024-02-25T09:53:24Z</time>
      </trkpt>
      <trkpt lat="44.32468" lon="6.31465">
        <ele>1668.8</ele>
        <time>2024-02-25T09:53:30Z</time>
      </trkpt>
      <trkpt lat="44.3247" lon="6.31455">
        <ele>1669.2</ele>
        <time>2024-02-25T09:53:37Z</time>
      </trkpt>
      <trkpt lat="44.32471" lon="6.31452">
        <ele>1669.4</ele>
        <time>2024-02-25T09:53:40Z</time>
      </trkpt>
      <trkpt lat="44.32474" lon="6.31442">
        <ele>1670</ele>
        <time>2024-02-25T09:53:48Z</time>
      </trkpt>
      <trkpt lat="44.32475" lon="6.31439">
        <ele>1670</ele>
        <time>2024-02-25T09:53:50Z</time>
      </trkpt>
      <trkpt lat="44.32478" lon="6.31432">
        <ele>1670.4</ele>
        <time>2024-02-25T09:53:56Z</time>
      </trkpt>
      <trkpt lat="44.32479" lon="6.31429">
        <ele>1671</ele>
        <time>2024-02-25T09:53:59Z</time>
      </trkpt>
      <trkpt lat="44.3248" lon="6.31428">
        <ele>1671</ele>
        <time>2024-02-25T09:54:00Z</time>
      </trkpt>
      <trkpt lat="44.3248" lon="6.31428">
        <ele>1671.2</ele>
        <time>2024-02-25T09:54:01Z</time>
      </trkpt>
      <trkpt lat="44.32481" lon="6.31426">
        <ele>1671.4</ele>
        <time>2024-02-25T09:54:03Z</time>
      </trkpt>
      <trkpt lat="44.32482" lon="6.31425">
        <ele>1671.4</ele>
        <time>2024-02-25T09:54:04Z</time>
      </trkpt>
      <trkpt lat="44.32486" lon="6.31419">
        <ele>1671.8</ele>
        <time>2024-02-25T09:54:10Z</time>
      </trkpt>
      <trkpt lat="44.32488" lon="6.31415">
        <ele>1671.6</ele>
        <time>2024-02-25T09:54:14Z</time>
      </trkpt>
      <trkpt lat="44.32492" lon="6.31409">
        <ele>1672</ele>
        <time>2024-02-25T09:54:20Z</time>
      </trkpt>
      <trkpt lat="44.32499" lon="6.31399">
        <ele>1672.2</ele>
        <time>2024-02-25T09:54:30Z</time>
      </trkpt>
      <trkpt lat="44.325" lon="6.31397">
        <ele>1672.4</ele>
        <time>2024-02-25T09:54:32Z</time>
      </trkpt>
      <trkpt lat="44.32504" lon="6.3139">
        <ele>1672.6</ele>
        <time>2024-02-25T09:54:38Z</time>
      </trkpt>
      <trkpt lat="44.32505" lon="6.31388">
        <ele>1672.8</ele>
        <time>2024-02-25T09:54:40Z</time>
      </trkpt>
      <trkpt lat="44.32506" lon="6.31387">
        <ele>1672.8</ele>
        <time>2024-02-25T09:54:42Z</time>
      </trkpt>
      <trkpt lat="44.3251" lon="6.31381">
        <ele>1673</ele>
        <time>2024-02-25T09:54:47Z</time>
      </trkpt>
      <trkpt lat="44.32511" lon="6.31379">
        <ele>1673.2</ele>
        <time>2024-02-25T09:54:50Z</time>
      </trkpt>
      <trkpt lat="44.32512" lon="6.31376">
        <ele>1673.4</ele>
        <time>2024-02-25T09:54:52Z</time>
      </trkpt>
      <trkpt lat="44.32513" lon="6.31375">
        <ele>1673.4</ele>
        <time>2024-02-25T09:54:53Z</time>
      </trkpt>
      <trkpt lat="44.32516" lon="6.31372">
        <ele>1673.8</ele>
        <time>2024-02-25T09:54:57Z</time>
      </trkpt>
      <trkpt lat="44.32518" lon="6.31373">
        <ele>1673.8</ele>
        <time>2024-02-25T09:54:59Z</time>
      </trkpt>
      <trkpt lat="44.32519" lon="6.31372">
        <ele>1673.8</ele>
        <time>2024-02-25T09:55:00Z</time>
      </trkpt>
      <trkpt lat="44.3252" lon="6.31372">
        <ele>1673.8</ele>
        <time>2024-02-25T09:55:01Z</time>
      </trkpt>
      <trkpt lat="44.32523" lon="6.31369">
        <ele>1674</ele>
        <time>2024-02-25T09:55:05Z</time>
      </trkpt>
      <trkpt lat="44.32525" lon="6.31365">
        <ele>1674.4</ele>
        <time>2024-02-25T09:55:09Z</time>
      </trkpt>
      <trkpt lat="44.32526" lon="6.31365">
        <ele>1674.6</ele>
        <time>2024-02-25T09:55:10Z</time>
      </trkpt>
      <trkpt lat="44.32526" lon="6.31364">
        <ele>1674.8</ele>
        <time>2024-02-25T09:55:11Z</time>
      </trkpt>
      <trkpt lat="44.3253" lon="6.31359">
        <ele>1675.6</ele>
        <time>2024-02-25T09:55:17Z</time>
      </trkpt>
      <trkpt lat="44.32531" lon="6.31358">
        <ele>1675.6</ele>
        <time>2024-02-25T09:55:18Z</time>
      </trkpt>
      <trkpt lat="44.32532" lon="6.31357">
        <ele>1675.6</ele>
        <time>2024-02-25T09:55:20Z</time>
      </trkpt>
      <trkpt lat="44.32534" lon="6.31354">
        <ele>1676</ele>
        <time>2024-02-25T09:55:22Z</time>
      </trkpt>
      <trkpt lat="44.32535" lon="6.3135">
        <ele>1676.4</ele>
        <time>2024-02-25T09:55:25Z</time>
      </trkpt>
      <trkpt lat="44.32536" lon="6.3135">
        <ele>1676.4</ele>
        <time>2024-02-25T09:55:26Z</time>
      </trkpt>
      <trkpt lat="44.32536" lon="6.31349">
        <ele>1676.6</ele>
        <time>2024-02-25T09:55:27Z</time>
      </trkpt>
      <trkpt lat="44.32537" lon="6.31347">
        <ele>1676.6</ele>
        <time>2024-02-25T09:55:28Z</time>
      </trkpt>
      <trkpt lat="44.32537" lon="6.31346">
        <ele>1676.6</ele>
        <time>2024-02-25T09:55:29Z</time>
      </trkpt>
      <trkpt lat="44.32538" lon="6.31345">
        <ele>1676.6</ele>
        <time>2024-02-25T09:55:30Z</time>
      </trkpt>
      <trkpt lat="44.32539" lon="6.31343">
        <ele>1676.8</ele>
        <time>2024-02-25T09:55:32Z</time>
      </trkpt>
      <trkpt lat="44.3254" lon="6.31342">
        <ele>1677</ele>
        <time>2024-02-25T09:55:34Z</time>
      </trkpt>
      <trkpt lat="44.32541" lon="6.31339">
        <ele>1677.2</ele>
        <time>2024-02-25T09:55:37Z</time>
      </trkpt>
      <trkpt lat="44.32542" lon="6.31336">
        <ele>1677.4</ele>
        <time>2024-02-25T09:55:40Z</time>
      </trkpt>
      <trkpt lat="44.32542" lon="6.31334">
        <ele>1677.6</ele>
        <time>2024-02-25T09:55:42Z</time>
      </trkpt>
      <trkpt lat="44.32543" lon="6.31332">
        <ele>1677.6</ele>
        <time>2024-02-25T09:55:43Z</time>
      </trkpt>
      <trkpt lat="44.32543" lon="6.31331">
        <ele>1677.6</ele>
        <time>2024-02-25T09:55:44Z</time>
      </trkpt>
      <trkpt lat="44.32544" lon="6.31327">
        <ele>1677.8</ele>
        <time>2024-02-25T09:55:46Z</time>
      </trkpt>
      <trkpt lat="44.32544" lon="6.31324">
        <ele>1678</ele>
        <time>2024-02-25T09:55:48Z</time>
      </trkpt>
      <trkpt lat="44.32544" lon="6.3132">
        <ele>1678.2</ele>
        <time>2024-02-25T09:55:50Z</time>
      </trkpt>
      <trkpt lat="44.32546" lon="6.31311">
        <ele>1678.6</ele>
        <time>2024-02-25T09:55:56Z</time>
      </trkpt>
      <trkpt lat="44.32546" lon="6.31309">
        <ele>1678.6</ele>
        <time>2024-02-25T09:55:57Z</time>
      </trkpt>
      <trkpt lat="44.32547" lon="6.31307">
        <ele>1678.8</ele>
        <time>2024-02-25T09:55:59Z</time>
      </trkpt>
      <trkpt lat="44.32547" lon="6.31306">
        <ele>1678.8</ele>
        <time>2024-02-25T09:56:00Z</time>
      </trkpt>
      <trkpt lat="44.32548" lon="6.31301">
        <ele>1679</ele>
        <time>2024-02-25T09:56:04Z</time>
      </trkpt>
      <trkpt lat="44.32549" lon="6.31299">
        <ele>1679</ele>
        <time>2024-02-25T09:56:05Z</time>
      </trkpt>
      <trkpt lat="44.32549" lon="6.31298">
        <ele>1679</ele>
        <time>2024-02-25T09:56:06Z</time>
      </trkpt>
      <trkpt lat="44.32549" lon="6.31297">
        <ele>1679.2</ele>
        <time>2024-02-25T09:56:07Z</time>
      </trkpt>
      <trkpt lat="44.3255" lon="6.31296">
        <ele>1679.4</ele>
        <time>2024-02-25T09:56:08Z</time>
      </trkpt>
      <trkpt lat="44.3255" lon="6.31293">
        <ele>1679.6</ele>
        <time>2024-02-25T09:56:10Z</time>
      </trkpt>
      <trkpt lat="44.32551" lon="6.31293">
        <ele>1679.6</ele>
        <time>2024-02-25T09:56:11Z</time>
      </trkpt>
      <trkpt lat="44.32551" lon="6.31292">
        <ele>1679.8</ele>
        <time>2024-02-25T09:56:12Z</time>
      </trkpt>
      <trkpt lat="44.32552" lon="6.31287">
        <ele>1680.2</ele>
        <time>2024-02-25T09:56:16Z</time>
      </trkpt>
      <trkpt lat="44.32552" lon="6.31284">
        <ele>1680.2</ele>
        <time>2024-02-25T09:56:18Z</time>
      </trkpt>
      <trkpt lat="44.32553" lon="6.31279">
        <ele>1680.6</ele>
        <time>2024-02-25T09:56:21Z</time>
      </trkpt>
      <trkpt lat="44.32554" lon="6.31275">
        <ele>1680.8</ele>
        <time>2024-02-25T09:56:25Z</time>
      </trkpt>
      <trkpt lat="44.32554" lon="6.31274">
        <ele>1680.8</ele>
        <time>2024-02-25T09:56:26Z</time>
      </trkpt>
      <trkpt lat="44.32555" lon="6.3127">
        <ele>1681.2</ele>
        <time>2024-02-25T09:56:29Z</time>
      </trkpt>
      <trkpt lat="44.32555" lon="6.31269">
        <ele>1681.4</ele>
        <time>2024-02-25T09:56:30Z</time>
      </trkpt>
      <trkpt lat="44.32555" lon="6.31267">
        <ele>1681.6</ele>
        <time>2024-02-25T09:56:31Z</time>
      </trkpt>
      <trkpt lat="44.32555" lon="6.31265">
        <ele>1681.8</ele>
        <time>2024-02-25T09:56:32Z</time>
      </trkpt>
      <trkpt lat="44.32555" lon="6.31262">
        <ele>1682</ele>
        <time>2024-02-25T09:56:34Z</time>
      </trkpt>
      <trkpt lat="44.32555" lon="6.31258">
        <ele>1682.2</ele>
        <time>2024-02-25T09:56:37Z</time>
      </trkpt>
      <trkpt lat="44.32554" lon="6.31256">
        <ele>1682.4</ele>
        <time>2024-02-25T09:56:39Z</time>
      </trkpt>
      <trkpt lat="44.32554" lon="6.31253">
        <ele>1682.4</ele>
        <time>2024-02-25T09:56:41Z</time>
      </trkpt>
      <trkpt lat="44.32555" lon="6.31249">
        <ele>1682.6</ele>
        <time>2024-02-25T09:56:43Z</time>
      </trkpt>
      <trkpt lat="44.32555" lon="6.31245">
        <ele>1683</ele>
        <time>2024-02-25T09:56:46Z</time>
      </trkpt>
      <trkpt lat="44.32557" lon="6.31239">
        <ele>1683.8</ele>
        <time>2024-02-25T09:56:51Z</time>
      </trkpt>
      <trkpt lat="44.32559" lon="6.31235">
        <ele>1684</ele>
        <time>2024-02-25T09:56:55Z</time>
      </trkpt>
      <trkpt lat="44.3256" lon="6.31234">
        <ele>1684.2</ele>
        <time>2024-02-25T09:56:56Z</time>
      </trkpt>
      <trkpt lat="44.32561" lon="6.31231">
        <ele>1684.4</ele>
        <time>2024-02-25T09:56:58Z</time>
      </trkpt>
      <trkpt lat="44.32563" lon="6.3123">
        <ele>1684.6</ele>
        <time>2024-02-25T09:57:00Z</time>
      </trkpt>
      <trkpt lat="44.32563" lon="6.31229">
        <ele>1684.6</ele>
        <time>2024-02-25T09:57:01Z</time>
      </trkpt>
      <trkpt lat="44.32564" lon="6.31227">
        <ele>1684.6</ele>
        <time>2024-02-25T09:57:02Z</time>
      </trkpt>
      <trkpt lat="44.32566" lon="6.31224">
        <ele>1685</ele>
        <time>2024-02-25T09:57:06Z</time>
      </trkpt>
      <trkpt lat="44.32566" lon="6.31223">
        <ele>1685.2</ele>
        <time>2024-02-25T09:57:07Z</time>
      </trkpt>
      <trkpt lat="44.32569" lon="6.31219">
        <ele>1685.8</ele>
        <time>2024-02-25T09:57:11Z</time>
      </trkpt>
      <trkpt lat="44.32572" lon="6.31214">
        <ele>1686.2</ele>
        <time>2024-02-25T09:57:15Z</time>
      </trkpt>
      <trkpt lat="44.32574" lon="6.31209">
        <ele>1686.8</ele>
        <time>2024-02-25T09:57:19Z</time>
      </trkpt>
      <trkpt lat="44.32575" lon="6.31207">
        <ele>1687</ele>
        <time>2024-02-25T09:57:21Z</time>
      </trkpt>
      <trkpt lat="44.32575" lon="6.31205">
        <ele>1687.4</ele>
        <time>2024-02-25T09:57:23Z</time>
      </trkpt>
      <trkpt lat="44.32577" lon="6.31199">
        <ele>1688</ele>
        <time>2024-02-25T09:57:28Z</time>
      </trkpt>
      <trkpt lat="44.32577" lon="6.31196">
        <ele>1688.2</ele>
        <time>2024-02-25T09:57:31Z</time>
      </trkpt>
      <trkpt lat="44.32578" lon="6.31194">
        <ele>1688.4</ele>
        <time>2024-02-25T09:57:33Z</time>
      </trkpt>
      <trkpt lat="44.3258" lon="6.31188">
        <ele>1689.2</ele>
        <time>2024-02-25T09:57:38Z</time>
      </trkpt>
      <trkpt lat="44.3258" lon="6.31186">
        <ele>1689.2</ele>
        <time>2024-02-25T09:57:40Z</time>
      </trkpt>
      <trkpt lat="44.3258" lon="6.31185">
        <ele>1689.4</ele>
        <time>2024-02-25T09:57:41Z</time>
      </trkpt>
      <trkpt lat="44.3258" lon="6.31184">
        <ele>1689.6</ele>
        <time>2024-02-25T09:57:42Z</time>
      </trkpt>
      <trkpt lat="44.32582" lon="6.31177">
        <ele>1690.2</ele>
        <time>2024-02-25T09:57:47Z</time>
      </trkpt>
      <trkpt lat="44.32583" lon="6.31176">
        <ele>1690.6</ele>
        <time>2024-02-25T09:57:49Z</time>
      </trkpt>
      <trkpt lat="44.32584" lon="6.31174">
        <ele>1690.8</ele>
        <time>2024-02-25T09:57:51Z</time>
      </trkpt>
      <trkpt lat="44.32587" lon="6.31172">
        <ele>1690.8</ele>
        <time>2024-02-25T09:57:53Z</time>
      </trkpt>
      <trkpt lat="44.32589" lon="6.3117">
        <ele>1691.2</ele>
        <time>2024-02-25T09:57:56Z</time>
      </trkpt>
      <trkpt lat="44.3259" lon="6.31168">
        <ele>1691.6</ele>
        <time>2024-02-25T09:57:59Z</time>
      </trkpt>
      <trkpt lat="44.3259" lon="6.31164">
        <ele>1691.8</ele>
        <time>2024-02-25T09:58:01Z</time>
      </trkpt>
      <trkpt lat="44.3259" lon="6.31163">
        <ele>1692</ele>
        <time>2024-02-25T09:58:02Z</time>
      </trkpt>
      <trkpt lat="44.3259" lon="6.3116">
        <ele>1692.2</ele>
        <time>2024-02-25T09:58:05Z</time>
      </trkpt>
      <trkpt lat="44.32589" lon="6.31159">
        <ele>1692.4</ele>
        <time>2024-02-25T09:58:07Z</time>
      </trkpt>
      <trkpt lat="44.32587" lon="6.31158">
        <ele>1692.6</ele>
        <time>2024-02-25T09:58:09Z</time>
      </trkpt>
      <trkpt lat="44.32585" lon="6.31158">
        <ele>1693.2</ele>
        <time>2024-02-25T09:58:11Z</time>
      </trkpt>
      <trkpt lat="44.32583" lon="6.31158">
        <ele>1693.2</ele>
        <time>2024-02-25T09:58:13Z</time>
      </trkpt>
      <trkpt lat="44.32579" lon="6.31165">
        <ele>1693.6</ele>
        <time>2024-02-25T09:58:20Z</time>
      </trkpt>
      <trkpt lat="44.32578" lon="6.31166">
        <ele>1693.8</ele>
        <time>2024-02-25T09:58:21Z</time>
      </trkpt>
      <trkpt lat="44.32573" lon="6.31175">
        <ele>1694.6</ele>
        <time>2024-02-25T09:58:29Z</time>
      </trkpt>
      <trkpt lat="44.32572" lon="6.31175">
        <ele>1694.6</ele>
        <time>2024-02-25T09:58:30Z</time>
      </trkpt>
      <trkpt lat="44.32571" lon="6.31176">
        <ele>1694.8</ele>
        <time>2024-02-25T09:58:31Z</time>
      </trkpt>
      <trkpt lat="44.3257" lon="6.31178">
        <ele>1695</ele>
        <time>2024-02-25T09:58:33Z</time>
      </trkpt>
      <trkpt lat="44.32567" lon="6.3118">
        <ele>1695.2</ele>
        <time>2024-02-25T09:58:37Z</time>
      </trkpt>
      <trkpt lat="44.32564" lon="6.31182">
        <ele>1695.6</ele>
        <time>2024-02-25T09:58:41Z</time>
      </trkpt>
      <trkpt lat="44.32561" lon="6.31183">
        <ele>1695.8</ele>
        <time>2024-02-25T09:58:44Z</time>
      </trkpt>
      <trkpt lat="44.32559" lon="6.31183">
        <ele>1695.8</ele>
        <time>2024-02-25T09:58:46Z</time>
      </trkpt>
      <trkpt lat="44.32559" lon="6.31184">
        <ele>1696</ele>
        <time>2024-02-25T09:58:47Z</time>
      </trkpt>
      <trkpt lat="44.32556" lon="6.31187">
        <ele>1696.2</ele>
        <time>2024-02-25T09:58:50Z</time>
      </trkpt>
      <trkpt lat="44.32555" lon="6.31188">
        <ele>1696.4</ele>
        <time>2024-02-25T09:58:51Z</time>
      </trkpt>
      <trkpt lat="44.32552" lon="6.3119">
        <ele>1696.6</ele>
        <time>2024-02-25T09:58:54Z</time>
      </trkpt>
      <trkpt lat="44.32544" lon="6.31193">
        <ele>1696.8</ele>
        <time>2024-02-25T09:59:01Z</time>
      </trkpt>
      <trkpt lat="44.32543" lon="6.31194">
        <ele>1697</ele>
        <time>2024-02-25T09:59:03Z</time>
      </trkpt>
      <trkpt lat="44.32535" lon="6.31198">
        <ele>1697.8</ele>
        <time>2024-02-25T09:59:11Z</time>
      </trkpt>
      <trkpt lat="44.32531" lon="6.31198">
        <ele>1698</ele>
        <time>2024-02-25T09:59:14Z</time>
      </trkpt>
      <trkpt lat="44.32526" lon="6.31197">
        <ele>1698.4</ele>
        <time>2024-02-25T09:59:18Z</time>
      </trkpt>
      <trkpt lat="44.32524" lon="6.31194">
        <ele>1699</ele>
        <time>2024-02-25T09:59:21Z</time>
      </trkpt>
      <trkpt lat="44.32524" lon="6.31194">
        <ele>1699.2</ele>
        <time>2024-02-25T09:59:22Z</time>
      </trkpt>
      <trkpt lat="44.32526" lon="6.31187">
        <ele>1700</ele>
        <time>2024-02-25T09:59:27Z</time>
      </trkpt>
      <trkpt lat="44.32527" lon="6.31185">
        <ele>1700.2</ele>
        <time>2024-02-25T09:59:28Z</time>
      </trkpt>
      <trkpt lat="44.32528" lon="6.31184">
        <ele>1700.4</ele>
        <time>2024-02-25T09:59:30Z</time>
      </trkpt>
      <trkpt lat="44.32528" lon="6.31183">
        <ele>1700.6</ele>
        <time>2024-02-25T09:59:31Z</time>
      </trkpt>
      <trkpt lat="44.32529" lon="6.31183">
        <ele>1700.8</ele>
        <time>2024-02-25T09:59:32Z</time>
      </trkpt>
      <trkpt lat="44.3253" lon="6.3118">
        <ele>1701</ele>
        <time>2024-02-25T09:59:35Z</time>
      </trkpt>
      <trkpt lat="44.32531" lon="6.31179">
        <ele>1701.2</ele>
        <time>2024-02-25T09:59:36Z</time>
      </trkpt>
      <trkpt lat="44.32536" lon="6.31178">
        <ele>1702</ele>
        <time>2024-02-25T09:59:41Z</time>
      </trkpt>
      <trkpt lat="44.32537" lon="6.31178">
        <ele>1702.4</ele>
        <time>2024-02-25T09:59:42Z</time>
      </trkpt>
      <trkpt lat="44.32538" lon="6.31177">
        <ele>1702.6</ele>
        <time>2024-02-25T09:59:43Z</time>
      </trkpt>
      <trkpt lat="44.32539" lon="6.31174">
        <ele>1702.8</ele>
        <time>2024-02-25T09:59:45Z</time>
      </trkpt>
      <trkpt lat="44.32543" lon="6.3117">
        <ele>1703</ele>
        <time>2024-02-25T09:59:49Z</time>
      </trkpt>
      <trkpt lat="44.32543" lon="6.31167">
        <ele>1703.4</ele>
        <time>2024-02-25T09:59:51Z</time>
      </trkpt>
      <trkpt lat="44.32544" lon="6.31165">
        <ele>1703.6</ele>
        <time>2024-02-25T09:59:52Z</time>
      </trkpt>
      <trkpt lat="44.32546" lon="6.31159">
        <ele>1703.8</ele>
        <time>2024-02-25T09:59:55Z</time>
      </trkpt>
      <trkpt lat="44.32551" lon="6.31154">
        <ele>1704.4</ele>
        <time>2024-02-25T10:00:01Z</time>
      </trkpt>
      <trkpt lat="44.32552" lon="6.31152">
        <ele>1704.6</ele>
        <time>2024-02-25T10:00:02Z</time>
      </trkpt>
      <trkpt lat="44.32556" lon="6.31148">
        <ele>1704.6</ele>
        <time>2024-02-25T10:00:06Z</time>
      </trkpt>
      <trkpt lat="44.32561" lon="6.31143">
        <ele>1705.4</ele>
        <time>2024-02-25T10:00:12Z</time>
      </trkpt>
      <trkpt lat="44.32562" lon="6.31142">
        <ele>1705.4</ele>
        <time>2024-02-25T10:00:13Z</time>
      </trkpt>
      <trkpt lat="44.32563" lon="6.31141">
        <ele>1705.6</ele>
        <time>2024-02-25T10:00:14Z</time>
      </trkpt>
      <trkpt lat="44.32565" lon="6.31139">
        <ele>1705.6</ele>
        <time>2024-02-25T10:00:16Z</time>
      </trkpt>
      <trkpt lat="44.32566" lon="6.31137">
        <ele>1705.8</ele>
        <time>2024-02-25T10:00:18Z</time>
      </trkpt>
      <trkpt lat="44.32569" lon="6.31133">
        <ele>1706</ele>
        <time>2024-02-25T10:00:22Z</time>
      </trkpt>
      <trkpt lat="44.32569" lon="6.31133">
        <ele>1706</ele>
        <time>2024-02-25T10:00:23Z</time>
      </trkpt>
      <trkpt lat="44.3257" lon="6.3113">
        <ele>1706.2</ele>
        <time>2024-02-25T10:00:25Z</time>
      </trkpt>
      <trkpt lat="44.32572" lon="6.31128">
        <ele>1706.2</ele>
        <time>2024-02-25T10:00:28Z</time>
      </trkpt>
      <trkpt lat="44.32574" lon="6.31124">
        <ele>1706.6</ele>
        <time>2024-02-25T10:00:31Z</time>
      </trkpt>
      <trkpt lat="44.32575" lon="6.31123">
        <ele>1706.8</ele>
        <time>2024-02-25T10:00:32Z</time>
      </trkpt>
      <trkpt lat="44.32582" lon="6.31114">
        <ele>1707.6</ele>
        <time>2024-02-25T10:00:42Z</time>
      </trkpt>
      <trkpt lat="44.32583" lon="6.31111">
        <ele>1707.6</ele>
        <time>2024-02-25T10:00:45Z</time>
      </trkpt>
      <trkpt lat="44.32585" lon="6.3111">
        <ele>1707.4</ele>
        <time>2024-02-25T10:00:48Z</time>
      </trkpt>
      <trkpt lat="44.32588" lon="6.31108">
        <ele>1707.4</ele>
        <time>2024-02-25T10:00:52Z</time>
      </trkpt>
      <trkpt lat="44.3259" lon="6.31109">
        <ele>1707.4</ele>
        <time>2024-02-25T10:01:02Z</time>
      </trkpt>
      <trkpt lat="44.32592" lon="6.31107">
        <ele>1707</ele>
        <time>2024-02-25T10:01:12Z</time>
      </trkpt>
      <trkpt lat="44.32593" lon="6.31103">
        <ele>1707.6</ele>
        <time>2024-02-25T10:01:20Z</time>
      </trkpt>
      <trkpt lat="44.32593" lon="6.31103">
        <ele>1707.6</ele>
        <time>2024-02-25T10:01:22Z</time>
      </trkpt>
      <trkpt lat="44.32594" lon="6.31103">
        <ele>1707.4</ele>
        <time>2024-02-25T10:01:26Z</time>
      </trkpt>
      <trkpt lat="44.32593" lon="6.31103">
        <ele>1707.4</ele>
        <time>2024-02-25T10:01:32Z</time>
      </trkpt>
      <trkpt lat="44.32593" lon="6.31104">
        <ele>1707.4</ele>
        <time>2024-02-25T10:01:37Z</time>
      </trkpt>
      <trkpt lat="44.32592" lon="6.31107">
        <ele>1707.4</ele>
        <time>2024-02-25T10:01:41Z</time>
      </trkpt>
      <trkpt lat="44.32592" lon="6.31107">
        <ele>1707.4</ele>
        <time>2024-02-25T10:01:42Z</time>
      </trkpt>
      <trkpt lat="44.32592" lon="6.31108">
        <ele>1707.4</ele>
        <time>2024-02-25T10:01:43Z</time>
      </trkpt>
      <trkpt lat="44.32592" lon="6.31108">
        <ele>1707.4</ele>
        <time>2024-02-25T10:01:47Z</time>
      </trkpt>
      <trkpt lat="44.32591" lon="6.31108">
        <ele>1707.4</ele>
        <time>2024-02-25T10:01:49Z</time>
      </trkpt>
      <trkpt lat="44.32591" lon="6.31108">
        <ele>1707.4</ele>
        <time>2024-02-25T10:01:52Z</time>
      </trkpt>
      <trkpt lat="44.32593" lon="6.31107">
        <ele>1707</ele>
        <time>2024-02-25T10:01:59Z</time>
      </trkpt>
      <trkpt lat="44.32594" lon="6.31106">
        <ele>1707</ele>
        <time>2024-02-25T10:02:01Z</time>
      </trkpt>
      <trkpt lat="44.32595" lon="6.31107">
        <ele>1707.4</ele>
        <time>2024-02-25T10:02:06Z</time>
      </trkpt>
      <trkpt lat="44.32595" lon="6.31107">
        <ele>1707.4</ele>
        <time>2024-02-25T10:02:07Z</time>
      </trkpt>
      <trkpt lat="44.32595" lon="6.31107">
        <ele>1707.2</ele>
        <time>2024-02-25T10:02:12Z</time>
      </trkpt>
      <trkpt lat="44.32594" lon="6.31105">
        <ele>1707.2</ele>
        <time>2024-02-25T10:02:22Z</time>
      </trkpt>
      <trkpt lat="44.32594" lon="6.31104">
        <ele>1707.2</ele>
        <time>2024-02-25T10:02:27Z</time>
      </trkpt>
      <trkpt lat="44.32594" lon="6.31104">
        <ele>1707.2</ele>
        <time>2024-02-25T10:02:28Z</time>
      </trkpt>
      <trkpt lat="44.32595" lon="6.31102">
        <ele>1707.6</ele>
        <time>2024-02-25T10:02:32Z</time>
      </trkpt>
      <trkpt lat="44.32595" lon="6.31102">
        <ele>1707.8</ele>
        <time>2024-02-25T10:02:35Z</time>
      </trkpt>
      <trkpt lat="44.32595" lon="6.31102">
        <ele>1707.8</ele>
        <time>2024-02-25T10:02:37Z</time>
      </trkpt>
      <trkpt lat="44.32595" lon="6.31102">
        <ele>1708</ele>
        <time>2024-02-25T10:02:38Z</time>
      </trkpt>
      <trkpt lat="44.32594" lon="6.311">
        <ele>1708.2</ele>
        <time>2024-02-25T10:02:39Z</time>
      </trkpt>
      <trkpt lat="44.32595" lon="6.311">
        <ele>1708.4</ele>
        <time>2024-02-25T10:02:42Z</time>
      </trkpt>
      <trkpt lat="44.32597" lon="6.31098">
        <ele>1708.2</ele>
        <time>2024-02-25T10:02:47Z</time>
      </trkpt>
      <trkpt lat="44.32598" lon="6.31096">
        <ele>1708.2</ele>
        <time>2024-02-25T10:02:49Z</time>
      </trkpt>
      <trkpt lat="44.32599" lon="6.31095">
        <ele>1708.2</ele>
        <time>2024-02-25T10:02:50Z</time>
      </trkpt>
      <trkpt lat="44.326" lon="6.31094">
        <ele>1708.6</ele>
        <time>2024-02-25T10:02:52Z</time>
      </trkpt>
      <trkpt lat="44.32601" lon="6.31093">
        <ele>1708.8</ele>
        <time>2024-02-25T10:02:54Z</time>
      </trkpt>
      <trkpt lat="44.32601" lon="6.31092">
        <ele>1708.8</ele>
        <time>2024-02-25T10:02:55Z</time>
      </trkpt>
      <trkpt lat="44.32602" lon="6.31087">
        <ele>1709.4</ele>
        <time>2024-02-25T10:02:59Z</time>
      </trkpt>
      <trkpt lat="44.32602" lon="6.31085">
        <ele>1709.6</ele>
        <time>2024-02-25T10:03:00Z</time>
      </trkpt>
      <trkpt lat="44.32603" lon="6.31084">
        <ele>1709.6</ele>
        <time>2024-02-25T10:03:01Z</time>
      </trkpt>
      <trkpt lat="44.32603" lon="6.31083">
        <ele>1709.6</ele>
        <time>2024-02-25T10:03:02Z</time>
      </trkpt>
      <trkpt lat="44.32604" lon="6.31081">
        <ele>1709.8</ele>
        <time>2024-02-25T10:03:03Z</time>
      </trkpt>
      <trkpt lat="44.32604" lon="6.3108">
        <ele>1710</ele>
        <time>2024-02-25T10:03:04Z</time>
      </trkpt>
      <trkpt lat="44.32605" lon="6.31079">
        <ele>1710.4</ele>
        <time>2024-02-25T10:03:06Z</time>
      </trkpt>
      <trkpt lat="44.32607" lon="6.31079">
        <ele>1710.4</ele>
        <time>2024-02-25T10:03:07Z</time>
      </trkpt>
      <trkpt lat="44.32608" lon="6.31079">
        <ele>1710.6</ele>
        <time>2024-02-25T10:03:08Z</time>
      </trkpt>
      <trkpt lat="44.32611" lon="6.31075">
        <ele>1710.8</ele>
        <time>2024-02-25T10:03:12Z</time>
      </trkpt>
      <trkpt lat="44.32612" lon="6.31074">
        <ele>1710.8</ele>
        <time>2024-02-25T10:03:13Z</time>
      </trkpt>
      <trkpt lat="44.32613" lon="6.31072">
        <ele>1710.8</ele>
        <time>2024-02-25T10:03:15Z</time>
      </trkpt>
      <trkpt lat="44.32614" lon="6.31072">
        <ele>1711</ele>
        <time>2024-02-25T10:03:16Z</time>
      </trkpt>
      <trkpt lat="44.32619" lon="6.31066">
        <ele>1711.6</ele>
        <time>2024-02-25T10:03:22Z</time>
      </trkpt>
      <trkpt lat="44.3262" lon="6.31064">
        <ele>1711.8</ele>
        <time>2024-02-25T10:03:24Z</time>
      </trkpt>
      <trkpt lat="44.32621" lon="6.31062">
        <ele>1712</ele>
        <time>2024-02-25T10:03:26Z</time>
      </trkpt>
      <trkpt lat="44.32622" lon="6.31058">
        <ele>1712.4</ele>
        <time>2024-02-25T10:03:31Z</time>
      </trkpt>
      <trkpt lat="44.32622" lon="6.31057">
        <ele>1712.4</ele>
        <time>2024-02-25T10:03:32Z</time>
      </trkpt>
      <trkpt lat="44.32624" lon="6.3105">
        <ele>1713</ele>
        <time>2024-02-25T10:03:39Z</time>
      </trkpt>
      <trkpt lat="44.32624" lon="6.3105">
        <ele>1713</ele>
        <time>2024-02-25T10:03:40Z</time>
      </trkpt>
      <trkpt lat="44.32625" lon="6.31048">
        <ele>1713.2</ele>
        <time>2024-02-25T10:03:42Z</time>
      </trkpt>
      <trkpt lat="44.32625" lon="6.31047">
        <ele>1713.2</ele>
        <time>2024-02-25T10:03:43Z</time>
      </trkpt>
      <trkpt lat="44.32627" lon="6.31042">
        <ele>1713.6</ele>
        <time>2024-02-25T10:03:47Z</time>
      </trkpt>
      <trkpt lat="44.32628" lon="6.31035">
        <ele>1714</ele>
        <time>2024-02-25T10:03:52Z</time>
      </trkpt>
      <trkpt lat="44.32628" lon="6.31034">
        <ele>1714</ele>
        <time>2024-02-25T10:03:53Z</time>
      </trkpt>
      <trkpt lat="44.3263" lon="6.31024">
        <ele>1714.8</ele>
        <time>2024-02-25T10:04:02Z</time>
      </trkpt>
      <trkpt lat="44.3263" lon="6.31021">
        <ele>1715</ele>
        <time>2024-02-25T10:04:05Z</time>
      </trkpt>
      <trkpt lat="44.3263" lon="6.31019">
        <ele>1715</ele>
        <time>2024-02-25T10:04:07Z</time>
      </trkpt>
      <trkpt lat="44.32632" lon="6.31014">
        <ele>1715.4</ele>
        <time>2024-02-25T10:04:11Z</time>
      </trkpt>
      <trkpt lat="44.32632" lon="6.31013">
        <ele>1715.6</ele>
        <time>2024-02-25T10:04:12Z</time>
      </trkpt>
      <trkpt lat="44.32633" lon="6.3101">
        <ele>1716.2</ele>
        <time>2024-02-25T10:04:14Z</time>
      </trkpt>
      <trkpt lat="44.32634" lon="6.31008">
        <ele>1716.4</ele>
        <time>2024-02-25T10:04:16Z</time>
      </trkpt>
      <trkpt lat="44.32635" lon="6.31004">
        <ele>1716.4</ele>
        <time>2024-02-25T10:04:20Z</time>
      </trkpt>
      <trkpt lat="44.32636" lon="6.31002">
        <ele>1716.4</ele>
        <time>2024-02-25T10:04:22Z</time>
      </trkpt>
      <trkpt lat="44.32638" lon="6.30998">
        <ele>1716.6</ele>
        <time>2024-02-25T10:04:26Z</time>
      </trkpt>
      <trkpt lat="44.3264" lon="6.30993">
        <ele>1717</ele>
        <time>2024-02-25T10:04:31Z</time>
      </trkpt>
      <trkpt lat="44.3264" lon="6.30992">
        <ele>1717.2</ele>
        <time>2024-02-25T10:04:32Z</time>
      </trkpt>
      <trkpt lat="44.32642" lon="6.30989">
        <ele>1717.4</ele>
        <time>2024-02-25T10:04:35Z</time>
      </trkpt>
      <trkpt lat="44.32645" lon="6.30979">
        <ele>1718</ele>
        <time>2024-02-25T10:04:43Z</time>
      </trkpt>
      <trkpt lat="44.32645" lon="6.30978">
        <ele>1718</ele>
        <time>2024-02-25T10:04:44Z</time>
      </trkpt>
      <trkpt lat="44.32646" lon="6.30976">
        <ele>1718.2</ele>
        <time>2024-02-25T10:04:46Z</time>
      </trkpt>
      <trkpt lat="44.32649" lon="6.30967">
        <ele>1718.6</ele>
        <time>2024-02-25T10:04:53Z</time>
      </trkpt>
      <trkpt lat="44.3265" lon="6.30961">
        <ele>1718.6</ele>
        <time>2024-02-25T10:04:58Z</time>
      </trkpt>
      <trkpt lat="44.32652" lon="6.30957">
        <ele>1718.8</ele>
        <time>2024-02-25T10:05:01Z</time>
      </trkpt>
      <trkpt lat="44.32652" lon="6.30955">
        <ele>1718.8</ele>
        <time>2024-02-25T10:05:03Z</time>
      </trkpt>
      <trkpt lat="44.32653" lon="6.3095">
        <ele>1719</ele>
        <time>2024-02-25T10:05:06Z</time>
      </trkpt>
      <trkpt lat="44.32653" lon="6.30947">
        <ele>1719</ele>
        <time>2024-02-25T10:05:08Z</time>
      </trkpt>
      <trkpt lat="44.32654" lon="6.30941">
        <ele>1719</ele>
        <time>2024-02-25T10:05:12Z</time>
      </trkpt>
      <trkpt lat="44.32655" lon="6.3094">
        <ele>1718.8</ele>
        <time>2024-02-25T10:05:13Z</time>
      </trkpt>
      <trkpt lat="44.32655" lon="6.30935">
        <ele>1718.8</ele>
        <time>2024-02-25T10:05:17Z</time>
      </trkpt>
      <trkpt lat="44.32654" lon="6.3093">
        <ele>1719.4</ele>
        <time>2024-02-25T10:05:21Z</time>
      </trkpt>
      <trkpt lat="44.32654" lon="6.30928">
        <ele>1719.6</ele>
        <time>2024-02-25T10:05:23Z</time>
      </trkpt>
      <trkpt lat="44.32653" lon="6.30926">
        <ele>1719.8</ele>
        <time>2024-02-25T10:05:26Z</time>
      </trkpt>
      <trkpt lat="44.32653" lon="6.30926">
        <ele>1720.2</ele>
        <time>2024-02-25T10:05:33Z</time>
      </trkpt>
      <trkpt lat="44.32657" lon="6.30925">
        <ele>1719.8</ele>
        <time>2024-02-25T10:05:40Z</time>
      </trkpt>
      <trkpt lat="44.3266" lon="6.30923">
        <ele>1719.6</ele>
        <time>2024-02-25T10:05:43Z</time>
      </trkpt>
      <trkpt lat="44.32661" lon="6.30921">
        <ele>1719.2</ele>
        <time>2024-02-25T10:05:45Z</time>
      </trkpt>
      <trkpt lat="44.32665" lon="6.30911">
        <ele>1719</ele>
        <time>2024-02-25T10:05:53Z</time>
      </trkpt>
      <trkpt lat="44.32671" lon="6.30901">
        <ele>1718.6</ele>
        <time>2024-02-25T10:06:03Z</time>
      </trkpt>
      <trkpt lat="44.32673" lon="6.30897">
        <ele>1718.4</ele>
        <time>2024-02-25T10:06:07Z</time>
      </trkpt>
      <trkpt lat="44.32674" lon="6.30895">
        <ele>1718.4</ele>
        <time>2024-02-25T10:06:08Z</time>
      </trkpt>
      <trkpt lat="44.32676" lon="6.30892">
        <ele>1718</ele>
        <time>2024-02-25T10:06:11Z</time>
      </trkpt>
      <trkpt lat="44.32677" lon="6.3089">
        <ele>1718</ele>
        <time>2024-02-25T10:06:13Z</time>
      </trkpt>
      <trkpt lat="44.3268" lon="6.30887">
        <ele>1718</ele>
        <time>2024-02-25T10:06:15Z</time>
      </trkpt>
      <trkpt lat="44.32682" lon="6.30884">
        <ele>1718</ele>
        <time>2024-02-25T10:06:18Z</time>
      </trkpt>
      <trkpt lat="44.32684" lon="6.30881">
        <ele>1718</ele>
        <time>2024-02-25T10:06:20Z</time>
      </trkpt>
      <trkpt lat="44.32687" lon="6.30878">
        <ele>1717.6</ele>
        <time>2024-02-25T10:06:23Z</time>
      </trkpt>
      <trkpt lat="44.32689" lon="6.30874">
        <ele>1717.4</ele>
        <time>2024-02-25T10:06:27Z</time>
      </trkpt>
      <trkpt lat="44.32694" lon="6.30868">
        <ele>1716.8</ele>
        <time>2024-02-25T10:06:33Z</time>
      </trkpt>
      <trkpt lat="44.32705" lon="6.30861">
        <ele>1716.4</ele>
        <time>2024-02-25T10:06:43Z</time>
      </trkpt>
      <trkpt lat="44.32707" lon="6.30859">
        <ele>1716.2</ele>
        <time>2024-02-25T10:06:45Z</time>
      </trkpt>
      <trkpt lat="44.32715" lon="6.30853">
        <ele>1716</ele>
        <time>2024-02-25T10:06:53Z</time>
      </trkpt>
      <trkpt lat="44.32716" lon="6.30853">
        <ele>1716</ele>
        <time>2024-02-25T10:06:54Z</time>
      </trkpt>
      <trkpt lat="44.32726" lon="6.30848">
        <ele>1715.8</ele>
        <time>2024-02-25T10:07:03Z</time>
      </trkpt>
      <trkpt lat="44.32727" lon="6.30847">
        <ele>1715.8</ele>
        <time>2024-02-25T10:07:04Z</time>
      </trkpt>
      <trkpt lat="44.32733" lon="6.30842">
        <ele>1716</ele>
        <time>2024-02-25T10:07:12Z</time>
      </trkpt>
      <trkpt lat="44.32734" lon="6.30841">
        <ele>1716</ele>
        <time>2024-02-25T10:07:13Z</time>
      </trkpt>
      <trkpt lat="44.32736" lon="6.30841">
        <ele>1716.2</ele>
        <time>2024-02-25T10:07:15Z</time>
      </trkpt>
      <trkpt lat="44.32737" lon="6.30839">
        <ele>1716.2</ele>
        <time>2024-02-25T10:07:17Z</time>
      </trkpt>
      <trkpt lat="44.32741" lon="6.30834">
        <ele>1716.6</ele>
        <time>2024-02-25T10:07:22Z</time>
      </trkpt>
      <trkpt lat="44.32741" lon="6.30833">
        <ele>1716.6</ele>
        <time>2024-02-25T10:07:23Z</time>
      </trkpt>
      <trkpt lat="44.32749" lon="6.30825">
        <ele>1716.8</ele>
        <time>2024-02-25T10:07:33Z</time>
      </trkpt>
      <trkpt lat="44.32752" lon="6.30822">
        <ele>1717</ele>
        <time>2024-02-25T10:07:37Z</time>
      </trkpt>
      <trkpt lat="44.32755" lon="6.30817">
        <ele>1717.2</ele>
        <time>2024-02-25T10:07:41Z</time>
      </trkpt>
      <trkpt lat="44.32756" lon="6.30816">
        <ele>1717.6</ele>
        <time>2024-02-25T10:07:43Z</time>
      </trkpt>
      <trkpt lat="44.32756" lon="6.30815">
        <ele>1717.8</ele>
        <time>2024-02-25T10:07:44Z</time>
      </trkpt>
      <trkpt lat="44.32759" lon="6.30813">
        <ele>1718</ele>
        <time>2024-02-25T10:07:47Z</time>
      </trkpt>
      <trkpt lat="44.32763" lon="6.30807">
        <ele>1718</ele>
        <time>2024-02-25T10:07:53Z</time>
      </trkpt>
      <trkpt lat="44.32763" lon="6.30806">
        <ele>1718</ele>
        <time>2024-02-25T10:07:54Z</time>
      </trkpt>
      <trkpt lat="44.32765" lon="6.30804">
        <ele>1718.4</ele>
        <time>2024-02-25T10:07:56Z</time>
      </trkpt>
      <trkpt lat="44.32766" lon="6.30803">
        <ele>1718.4</ele>
        <time>2024-02-25T10:07:58Z</time>
      </trkpt>
      <trkpt lat="44.32767" lon="6.30799">
        <ele>1718.8</ele>
        <time>2024-02-25T10:08:01Z</time>
      </trkpt>
      <trkpt lat="44.32768" lon="6.30795">
        <ele>1719.2</ele>
        <time>2024-02-25T10:08:03Z</time>
      </trkpt>
      <trkpt lat="44.32769" lon="6.30793">
        <ele>1719.4</ele>
        <time>2024-02-25T10:08:05Z</time>
      </trkpt>
      <trkpt lat="44.3277" lon="6.30785">
        <ele>1720</ele>
        <time>2024-02-25T10:08:10Z</time>
      </trkpt>
      <trkpt lat="44.32771" lon="6.3078">
        <ele>1720.2</ele>
        <time>2024-02-25T10:08:13Z</time>
      </trkpt>
      <trkpt lat="44.32771" lon="6.30775">
        <ele>1720.4</ele>
        <time>2024-02-25T10:08:16Z</time>
      </trkpt>
      <trkpt lat="44.32772" lon="6.30766">
        <ele>1721.2</ele>
        <time>2024-02-25T10:08:22Z</time>
      </trkpt>
      <trkpt lat="44.32772" lon="6.30764">
        <ele>1721.2</ele>
        <time>2024-02-25T10:08:23Z</time>
      </trkpt>
      <trkpt lat="44.32774" lon="6.30759">
        <ele>1721.2</ele>
        <time>2024-02-25T10:08:27Z</time>
      </trkpt>
      <trkpt lat="44.32776" lon="6.30752">
        <ele>1721.4</ele>
        <time>2024-02-25T10:08:32Z</time>
      </trkpt>
      <trkpt lat="44.32776" lon="6.30751">
        <ele>1721.4</ele>
        <time>2024-02-25T10:08:33Z</time>
      </trkpt>
      <trkpt lat="44.32777" lon="6.30747">
        <ele>1722</ele>
        <time>2024-02-25T10:08:36Z</time>
      </trkpt>
      <trkpt lat="44.32778" lon="6.30745">
        <ele>1722.2</ele>
        <time>2024-02-25T10:08:38Z</time>
      </trkpt>
      <trkpt lat="44.3278" lon="6.30738">
        <ele>1722.4</ele>
        <time>2024-02-25T10:08:43Z</time>
      </trkpt>
      <trkpt lat="44.32781" lon="6.30737">
        <ele>1722.6</ele>
        <time>2024-02-25T10:08:44Z</time>
      </trkpt>
      <trkpt lat="44.32786" lon="6.30727">
        <ele>1723.6</ele>
        <time>2024-02-25T10:08:53Z</time>
      </trkpt>
      <trkpt lat="44.32793" lon="6.30716">
        <ele>1724.2</ele>
        <time>2024-02-25T10:09:03Z</time>
      </trkpt>
      <trkpt lat="44.32796" lon="6.30712">
        <ele>1724.6</ele>
        <time>2024-02-25T10:09:08Z</time>
      </trkpt>
      <trkpt lat="44.32798" lon="6.30711">
        <ele>1724.8</ele>
        <time>2024-02-25T10:09:11Z</time>
      </trkpt>
      <trkpt lat="44.328" lon="6.30708">
        <ele>1724.8</ele>
        <time>2024-02-25T10:09:13Z</time>
      </trkpt>
      <trkpt lat="44.32807" lon="6.30701">
        <ele>1725.4</ele>
        <time>2024-02-25T10:09:21Z</time>
      </trkpt>
      <trkpt lat="44.32808" lon="6.30699">
        <ele>1725.6</ele>
        <time>2024-02-25T10:09:23Z</time>
      </trkpt>
      <trkpt lat="44.3281" lon="6.30699">
        <ele>1725.6</ele>
        <time>2024-02-25T10:09:25Z</time>
      </trkpt>
      <trkpt lat="44.32813" lon="6.30697">
        <ele>1725.8</ele>
        <time>2024-02-25T10:09:28Z</time>
      </trkpt>
      <trkpt lat="44.32814" lon="6.30697">
        <ele>1725.6</ele>
        <time>2024-02-25T10:09:30Z</time>
      </trkpt>
      <trkpt lat="44.32817" lon="6.30695">
        <ele>1725.8</ele>
        <time>2024-02-25T10:09:33Z</time>
      </trkpt>
      <trkpt lat="44.32818" lon="6.30694">
        <ele>1725.8</ele>
        <time>2024-02-25T10:09:35Z</time>
      </trkpt>
      <trkpt lat="44.32819" lon="6.30692">
        <ele>1726.2</ele>
        <time>2024-02-25T10:09:43Z</time>
      </trkpt>
      <trkpt lat="44.32819" lon="6.30698">
        <ele>1726.2</ele>
        <time>2024-02-25T10:09:51Z</time>
      </trkpt>
      <trkpt lat="44.32819" lon="6.30699">
        <ele>1726.2</ele>
        <time>2024-02-25T10:09:53Z</time>
      </trkpt>
      <trkpt lat="44.32822" lon="6.30705">
        <ele>1726.8</ele>
        <time>2024-02-25T10:09:59Z</time>
      </trkpt>
      <trkpt lat="44.32823" lon="6.30706">
        <ele>1727.2</ele>
        <time>2024-02-25T10:10:00Z</time>
      </trkpt>
      <trkpt lat="44.32823" lon="6.30709">
        <ele>1728</ele>
        <time>2024-02-25T10:10:02Z</time>
      </trkpt>
      <trkpt lat="44.32824" lon="6.30712">
        <ele>1728.2</ele>
        <time>2024-02-25T10:10:05Z</time>
      </trkpt>
      <trkpt lat="44.32823" lon="6.30717">
        <ele>1728.4</ele>
        <time>2024-02-25T10:10:10Z</time>
      </trkpt>
      <trkpt lat="44.32823" lon="6.30721">
        <ele>1728.4</ele>
        <time>2024-02-25T10:10:13Z</time>
      </trkpt>
      <trkpt lat="44.32823" lon="6.30722">
        <ele>1728.6</ele>
        <time>2024-02-25T10:10:14Z</time>
      </trkpt>
      <trkpt lat="44.32821" lon="6.30727">
        <ele>1729.2</ele>
        <time>2024-02-25T10:10:18Z</time>
      </trkpt>
      <trkpt lat="44.3282" lon="6.30727">
        <ele>1729.6</ele>
        <time>2024-02-25T10:10:20Z</time>
      </trkpt>
      <trkpt lat="44.3282" lon="6.30727">
        <ele>1729.6</ele>
        <time>2024-02-25T10:10:22Z</time>
      </trkpt>
      <trkpt lat="44.3282" lon="6.30727">
        <ele>1729.6</ele>
        <time>2024-02-25T10:10:23Z</time>
      </trkpt>
      <trkpt lat="44.3282" lon="6.3073">
        <ele>1728.8</ele>
        <time>2024-02-25T10:10:33Z</time>
      </trkpt>
      <trkpt lat="44.3282" lon="6.3073">
        <ele>1728.6</ele>
        <time>2024-02-25T10:10:43Z</time>
      </trkpt>
      <trkpt lat="44.3282" lon="6.3073">
        <ele>1728.8</ele>
        <time>2024-02-25T10:10:53Z</time>
      </trkpt>
      <trkpt lat="44.3282" lon="6.3073">
        <ele>1728.8</ele>
        <time>2024-02-25T10:11:03Z</time>
      </trkpt>
      <trkpt lat="44.3282" lon="6.3073">
        <ele>1728.8</ele>
        <time>2024-02-25T10:11:06Z</time>
      </trkpt>
      <trkpt lat="44.3282" lon="6.3073">
        <ele>1728.8</ele>
        <time>2024-02-25T10:11:07Z</time>
      </trkpt>
      <trkpt lat="44.3282" lon="6.3073">
        <ele>1728.8</ele>
        <time>2024-02-25T10:11:08Z</time>
      </trkpt>
      <trkpt lat="44.3282" lon="6.3073">
        <ele>1728.8</ele>
        <time>2024-02-25T10:11:12Z</time>
      </trkpt>
      <trkpt lat="44.3282" lon="6.3073">
        <ele>1729</ele>
        <time>2024-02-25T10:11:13Z</time>
      </trkpt>
      <trkpt lat="44.3282" lon="6.3073">
        <ele>1729</ele>
        <time>2024-02-25T10:11:17Z</time>
      </trkpt>
      <trkpt lat="44.3282" lon="6.3073">
        <ele>1729.2</ele>
        <time>2024-02-25T10:11:23Z</time>
      </trkpt>
      <trkpt lat="44.3282" lon="6.3073">
        <ele>1729.2</ele>
        <time>2024-02-25T10:11:33Z</time>
      </trkpt>
      <trkpt lat="44.3282" lon="6.3073">
        <ele>1729.2</ele>
        <time>2024-02-25T10:11:43Z</time>
      </trkpt>
      <trkpt lat="44.3282" lon="6.3073">
        <ele>1729.2</ele>
        <time>2024-02-25T10:11:53Z</time>
      </trkpt>
      <trkpt lat="44.3282" lon="6.3073">
        <ele>1729.2</ele>
        <time>2024-02-25T10:12:03Z</time>
      </trkpt>
      <trkpt lat="44.3282" lon="6.3073">
        <ele>1729.2</ele>
        <time>2024-02-25T10:12:13Z</time>
      </trkpt>
      <trkpt lat="44.32819" lon="6.30728">
        <ele>1729.2</ele>
        <time>2024-02-25T10:12:23Z</time>
      </trkpt>
      <trkpt lat="44.32822" lon="6.30718">
        <ele>1729</ele>
        <time>2024-02-25T10:12:32Z</time>
      </trkpt>
      <trkpt lat="44.32823" lon="6.30717">
        <ele>1729.2</ele>
        <time>2024-02-25T10:12:33Z</time>
      </trkpt>
      <trkpt lat="44.32824" lon="6.30717">
        <ele>1729.6</ele>
        <time>2024-02-25T10:12:35Z</time>
      </trkpt>
      <trkpt lat="44.32826" lon="6.30717">
        <ele>1729.6</ele>
        <time>2024-02-25T10:12:40Z</time>
      </trkpt>
      <trkpt lat="44.32826" lon="6.30717">
        <ele>1729.6</ele>
        <time>2024-02-25T10:12:43Z</time>
      </trkpt>
      <trkpt lat="44.32826" lon="6.30717">
        <ele>1729.8</ele>
        <time>2024-02-25T10:12:45Z</time>
      </trkpt>
      <trkpt lat="44.32826" lon="6.30716">
        <ele>1730.2</ele>
        <time>2024-02-25T10:12:50Z</time>
      </trkpt>
      <trkpt lat="44.32826" lon="6.30716">
        <ele>1730.2</ele>
        <time>2024-02-25T10:12:51Z</time>
      </trkpt>
      <trkpt lat="44.32826" lon="6.30716">
        <ele>1730.2</ele>
        <time>2024-02-25T10:12:53Z</time>
      </trkpt>
      <trkpt lat="44.32827" lon="6.30715">
        <ele>1729.8</ele>
        <time>2024-02-25T10:12:57Z</time>
      </trkpt>
      <trkpt lat="44.32827" lon="6.30714">
        <ele>1729.8</ele>
        <time>2024-02-25T10:13:00Z</time>
      </trkpt>
      <trkpt lat="44.32827" lon="6.30714">
        <ele>1729.8</ele>
        <time>2024-02-25T10:13:03Z</time>
      </trkpt>
      <trkpt lat="44.32827" lon="6.30714">
        <ele>1730</ele>
        <time>2024-02-25T10:13:06Z</time>
      </trkpt>
      <trkpt lat="44.32827" lon="6.30714">
        <ele>1730</ele>
        <time>2024-02-25T10:13:08Z</time>
      </trkpt>
      <trkpt lat="44.32827" lon="6.30714">
        <ele>1729.8</ele>
        <time>2024-02-25T10:13:13Z</time>
      </trkpt>
      <trkpt lat="44.32827" lon="6.30714">
        <ele>1729.6</ele>
        <time>2024-02-25T10:13:23Z</time>
      </trkpt>
      <trkpt lat="44.32826" lon="6.30714">
        <ele>1729</ele>
        <time>2024-02-25T10:13:28Z</time>
      </trkpt>
      <trkpt lat="44.32826" lon="6.30714">
        <ele>1728</ele>
        <time>2024-02-25T10:13:31Z</time>
      </trkpt>
      <trkpt lat="44.32826" lon="6.30714">
        <ele>1728</ele>
        <time>2024-02-25T10:13:33Z</time>
      </trkpt>
      <trkpt lat="44.32823" lon="6.30706">
        <ele>1728.2</ele>
        <time>2024-02-25T10:13:42Z</time>
      </trkpt>
      <trkpt lat="44.32823" lon="6.30705">
        <ele>1728.2</ele>
        <time>2024-02-25T10:13:43Z</time>
      </trkpt>
      <trkpt lat="44.32824" lon="6.30705">
        <ele>1728</ele>
        <time>2024-02-25T10:13:44Z</time>
      </trkpt>
      <trkpt lat="44.32824" lon="6.30704">
        <ele>1728</ele>
        <time>2024-02-25T10:13:46Z</time>
      </trkpt>
      <trkpt lat="44.32823" lon="6.30704">
        <ele>1728</ele>
        <time>2024-02-25T10:13:47Z</time>
      </trkpt>
      <trkpt lat="44.32823" lon="6.30704">
        <ele>1728</ele>
        <time>2024-02-25T10:13:48Z</time>
      </trkpt>
      <trkpt lat="44.32823" lon="6.30704">
        <ele>1727.8</ele>
        <time>2024-02-25T10:13:52Z</time>
      </trkpt>
      <trkpt lat="44.32823" lon="6.30704">
        <ele>1727.8</ele>
        <time>2024-02-25T10:13:53Z</time>
      </trkpt>
      <trkpt lat="44.32823" lon="6.30704">
        <ele>1727.8</ele>
        <time>2024-02-25T10:13:56Z</time>
      </trkpt>
      <trkpt lat="44.32823" lon="6.30704">
        <ele>1728</ele>
        <time>2024-02-25T10:13:59Z</time>
      </trkpt>
      <trkpt lat="44.32823" lon="6.30704">
        <ele>1728</ele>
        <time>2024-02-25T10:14:00Z</time>
      </trkpt>
      <trkpt lat="44.32823" lon="6.30704">
        <ele>1728</ele>
        <time>2024-02-25T10:14:01Z</time>
      </trkpt>
      <trkpt lat="44.32823" lon="6.30704">
        <ele>1728.2</ele>
        <time>2024-02-25T10:14:03Z</time>
      </trkpt>
      <trkpt lat="44.32823" lon="6.30703">
        <ele>1728.4</ele>
        <time>2024-02-25T10:14:07Z</time>
      </trkpt>
      <trkpt lat="44.32823" lon="6.30703">
        <ele>1728.4</ele>
        <time>2024-02-25T10:14:08Z</time>
      </trkpt>
      <trkpt lat="44.32823" lon="6.30703">
        <ele>1728.4</ele>
        <time>2024-02-25T10:14:13Z</time>
      </trkpt>
      <trkpt lat="44.32823" lon="6.30703">
        <ele>1728.6</ele>
        <time>2024-02-25T10:14:16Z</time>
      </trkpt>
      <trkpt lat="44.32823" lon="6.30703">
        <ele>1728.6</ele>
        <time>2024-02-25T10:14:18Z</time>
      </trkpt>
      <trkpt lat="44.32823" lon="6.30703">
        <ele>1728.6</ele>
        <time>2024-02-25T10:14:19Z</time>
      </trkpt>
      <trkpt lat="44.32823" lon="6.30703">
        <ele>1728.6</ele>
        <time>2024-02-25T10:14:20Z</time>
      </trkpt>
      <trkpt lat="44.32823" lon="6.30703">
        <ele>1728.4</ele>
        <time>2024-02-25T10:14:23Z</time>
      </trkpt>
      <trkpt lat="44.32823" lon="6.30704">
        <ele>1728.2</ele>
        <time>2024-02-25T10:14:28Z</time>
      </trkpt>
      <trkpt lat="44.32823" lon="6.30704">
        <ele>1728.4</ele>
        <time>2024-02-25T10:14:29Z</time>
      </trkpt>
      <trkpt lat="44.32823" lon="6.30704">
        <ele>1728.4</ele>
        <time>2024-02-25T10:14:30Z</time>
      </trkpt>
      <trkpt lat="44.32823" lon="6.30704">
        <ele>1728.4</ele>
        <time>2024-02-25T10:14:33Z</time>
      </trkpt>
      <trkpt lat="44.32823" lon="6.30703">
        <ele>1728.2</ele>
        <time>2024-02-25T10:14:43Z</time>
      </trkpt>
      <trkpt lat="44.3282" lon="6.30701">
        <ele>1727.8</ele>
        <time>2024-02-25T10:14:53Z</time>
      </trkpt>
      <trkpt lat="44.3282" lon="6.30701">
        <ele>1727.8</ele>
        <time>2024-02-25T10:14:54Z</time>
      </trkpt>
      <trkpt lat="44.3282" lon="6.30701">
        <ele>1727.8</ele>
        <time>2024-02-25T10:14:55Z</time>
      </trkpt>
      <trkpt lat="44.3282" lon="6.307">
        <ele>1727.8</ele>
        <time>2024-02-25T10:14:56Z</time>
      </trkpt>
      <trkpt lat="44.3282" lon="6.307">
        <ele>1727.8</ele>
        <time>2024-02-25T10:14:57Z</time>
      </trkpt>
      <trkpt lat="44.3282" lon="6.307">
        <ele>1727.8</ele>
        <time>2024-02-25T10:15:00Z</time>
      </trkpt>
      <trkpt lat="44.3282" lon="6.307">
        <ele>1727.8</ele>
        <time>2024-02-25T10:15:02Z</time>
      </trkpt>
      <trkpt lat="44.3282" lon="6.307">
        <ele>1727.8</ele>
        <time>2024-02-25T10:15:03Z</time>
      </trkpt>
      <trkpt lat="44.3282" lon="6.307">
        <ele>1727.8</ele>
        <time>2024-02-25T10:15:13Z</time>
      </trkpt>
      <trkpt lat="44.3282" lon="6.307">
        <ele>1727.8</ele>
        <time>2024-02-25T10:15:19Z</time>
      </trkpt>
      <trkpt lat="44.3282" lon="6.307">
        <ele>1727.8</ele>
        <time>2024-02-25T10:15:20Z</time>
      </trkpt>
      <trkpt lat="44.3282" lon="6.307">
        <ele>1727.8</ele>
        <time>2024-02-25T10:15:21Z</time>
      </trkpt>
      <trkpt lat="44.3282" lon="6.307">
        <ele>1727.8</ele>
        <time>2024-02-25T10:15:22Z</time>
      </trkpt>
      <trkpt lat="44.3282" lon="6.307">
        <ele>1727.8</ele>
        <time>2024-02-25T10:15:23Z</time>
      </trkpt>
      <trkpt lat="44.3282" lon="6.307">
        <ele>1727.8</ele>
        <time>2024-02-25T10:15:25Z</time>
      </trkpt>
      <trkpt lat="44.3282" lon="6.307">
        <ele>1727.8</ele>
        <time>2024-02-25T10:15:27Z</time>
      </trkpt>
      <trkpt lat="44.3282" lon="6.307">
        <ele>1727.8</ele>
        <time>2024-02-25T10:15:29Z</time>
      </trkpt>
      <trkpt lat="44.3282" lon="6.307">
        <ele>1727.8</ele>
        <time>2024-02-25T10:15:33Z</time>
      </trkpt>
      <trkpt lat="44.3282" lon="6.307">
        <ele>1727.8</ele>
        <time>2024-02-25T10:15:43Z</time>
      </trkpt>
      <trkpt lat="44.32819" lon="6.30697">
        <ele>1727.8</ele>
        <time>2024-02-25T10:15:53Z</time>
      </trkpt>
      <trkpt lat="44.32819" lon="6.30695">
        <ele>1727.8</ele>
        <time>2024-02-25T10:15:55Z</time>
      </trkpt>
      <trkpt lat="44.3282" lon="6.30693">
        <ele>1727.8</ele>
        <time>2024-02-25T10:15:59Z</time>
      </trkpt>
      <trkpt lat="44.3282" lon="6.30694">
        <ele>1727.8</ele>
        <time>2024-02-25T10:16:01Z</time>
      </trkpt>
      <trkpt lat="44.32821" lon="6.30694">
        <ele>1727.8</ele>
        <time>2024-02-25T10:16:02Z</time>
      </trkpt>
      <trkpt lat="44.32821" lon="6.30694">
        <ele>1727.8</ele>
        <time>2024-02-25T10:16:03Z</time>
      </trkpt>
      <trkpt lat="44.32822" lon="6.30694">
        <ele>1727.8</ele>
        <time>2024-02-25T10:16:04Z</time>
      </trkpt>
      <trkpt lat="44.32823" lon="6.30694">
        <ele>1727.8</ele>
        <time>2024-02-25T10:16:05Z</time>
      </trkpt>
      <trkpt lat="44.32823" lon="6.30694">
        <ele>1727.8</ele>
        <time>2024-02-25T10:16:06Z</time>
      </trkpt>
      <trkpt lat="44.32824" lon="6.30693">
        <ele>1727.8</ele>
        <time>2024-02-25T10:16:07Z</time>
      </trkpt>
      <trkpt lat="44.32827" lon="6.30692">
        <ele>1727.6</ele>
        <time>2024-02-25T10:16:11Z</time>
      </trkpt>
      <trkpt lat="44.32828" lon="6.30691">
        <ele>1727.6</ele>
        <time>2024-02-25T10:16:12Z</time>
      </trkpt>
      <trkpt lat="44.3283" lon="6.30689">
        <ele>1727.2</ele>
        <time>2024-02-25T10:16:14Z</time>
      </trkpt>
      <trkpt lat="44.32832" lon="6.30686">
        <ele>1727</ele>
        <time>2024-02-25T10:16:18Z</time>
      </trkpt>
      <trkpt lat="44.32833" lon="6.30686">
        <ele>1727</ele>
        <time>2024-02-25T10:16:19Z</time>
      </trkpt>
      <trkpt lat="44.32834" lon="6.30685">
        <ele>1726.8</ele>
        <time>2024-02-25T10:16:20Z</time>
      </trkpt>
      <trkpt lat="44.32835" lon="6.30685">
        <ele>1726.4</ele>
        <time>2024-02-25T10:16:22Z</time>
      </trkpt>
      <trkpt lat="44.32835" lon="6.30684">
        <ele>1726.4</ele>
        <time>2024-02-25T10:16:24Z</time>
      </trkpt>
      <trkpt lat="44.32835" lon="6.30682">
        <ele>1727</ele>
        <time>2024-02-25T10:16:30Z</time>
      </trkpt>
      <trkpt lat="44.32834" lon="6.30681">
        <ele>1726.8</ele>
        <time>2024-02-25T10:16:34Z</time>
      </trkpt>
      <trkpt lat="44.32835" lon="6.30681">
        <ele>1727</ele>
        <time>2024-02-25T10:16:44Z</time>
      </trkpt>
      <trkpt lat="44.32841" lon="6.30677">
        <ele>1726.6</ele>
        <time>2024-02-25T10:16:51Z</time>
      </trkpt>
      <trkpt lat="44.32843" lon="6.30675">
        <ele>1726.6</ele>
        <time>2024-02-25T10:16:54Z</time>
      </trkpt>
      <trkpt lat="44.32846" lon="6.30673">
        <ele>1726.6</ele>
        <time>2024-02-25T10:16:58Z</time>
      </trkpt>
      <trkpt lat="44.3285" lon="6.3067">
        <ele>1726.6</ele>
        <time>2024-02-25T10:17:03Z</time>
      </trkpt>
      <trkpt lat="44.32851" lon="6.30669">
        <ele>1726.6</ele>
        <time>2024-02-25T10:17:04Z</time>
      </trkpt>
      <trkpt lat="44.32853" lon="6.30668">
        <ele>1726.6</ele>
        <time>2024-02-25T10:17:06Z</time>
      </trkpt>
      <trkpt lat="44.32854" lon="6.30666">
        <ele>1726.6</ele>
        <time>2024-02-25T10:17:08Z</time>
      </trkpt>
      <trkpt lat="44.32855" lon="6.30666">
        <ele>1726.8</ele>
        <time>2024-02-25T10:17:09Z</time>
      </trkpt>
      <trkpt lat="44.3286" lon="6.30661">
        <ele>1726.6</ele>
        <time>2024-02-25T10:17:14Z</time>
      </trkpt>
      <trkpt lat="44.32861" lon="6.3066">
        <ele>1726.6</ele>
        <time>2024-02-25T10:17:15Z</time>
      </trkpt>
      <trkpt lat="44.32862" lon="6.30657">
        <ele>1726.4</ele>
        <time>2024-02-25T10:17:17Z</time>
      </trkpt>
      <trkpt lat="44.32863" lon="6.30655">
        <ele>1726.4</ele>
        <time>2024-02-25T10:17:18Z</time>
      </trkpt>
      <trkpt lat="44.32865" lon="6.30653">
        <ele>1726.6</ele>
        <time>2024-02-25T10:17:21Z</time>
      </trkpt>
      <trkpt lat="44.32868" lon="6.30651">
        <ele>1726.6</ele>
        <time>2024-02-25T10:17:23Z</time>
      </trkpt>
      <trkpt lat="44.32869" lon="6.3065">
        <ele>1726.6</ele>
        <time>2024-02-25T10:17:24Z</time>
      </trkpt>
      <trkpt lat="44.32874" lon="6.30642">
        <ele>1726.2</ele>
        <time>2024-02-25T10:17:32Z</time>
      </trkpt>
      <trkpt lat="44.32876" lon="6.30641">
        <ele>1726.2</ele>
        <time>2024-02-25T10:17:34Z</time>
      </trkpt>
      <trkpt lat="44.32878" lon="6.30638">
        <ele>1726.2</ele>
        <time>2024-02-25T10:17:36Z</time>
      </trkpt>
      <trkpt lat="44.3288" lon="6.30636">
        <ele>1726</ele>
        <time>2024-02-25T10:17:39Z</time>
      </trkpt>
      <trkpt lat="44.32881" lon="6.30635">
        <ele>1725.8</ele>
        <time>2024-02-25T10:17:40Z</time>
      </trkpt>
      <trkpt lat="44.32884" lon="6.3063">
        <ele>1725.6</ele>
        <time>2024-02-25T10:17:44Z</time>
      </trkpt>
      <trkpt lat="44.32889" lon="6.30623">
        <ele>1725.8</ele>
        <time>2024-02-25T10:17:51Z</time>
      </trkpt>
      <trkpt lat="44.32892" lon="6.30621">
        <ele>1726</ele>
        <time>2024-02-25T10:17:54Z</time>
      </trkpt>
      <trkpt lat="44.32892" lon="6.3062">
        <ele>1726</ele>
        <time>2024-02-25T10:17:55Z</time>
      </trkpt>
      <trkpt lat="44.32893" lon="6.30616">
        <ele>1725.6</ele>
        <time>2024-02-25T10:18:04Z</time>
      </trkpt>
      <trkpt lat="44.32894" lon="6.30614">
        <ele>1725.6</ele>
        <time>2024-02-25T10:18:06Z</time>
      </trkpt>
      <trkpt lat="44.32901" lon="6.30607">
        <ele>1726.2</ele>
        <time>2024-02-25T10:18:14Z</time>
      </trkpt>
      <trkpt lat="44.32908" lon="6.30598">
        <ele>1725</ele>
        <time>2024-02-25T10:18:24Z</time>
      </trkpt>
      <trkpt lat="44.32916" lon="6.30588">
        <ele>1725.4</ele>
        <time>2024-02-25T10:18:34Z</time>
      </trkpt>
      <trkpt lat="44.32918" lon="6.30587">
        <ele>1725.4</ele>
        <time>2024-02-25T10:18:36Z</time>
      </trkpt>
      <trkpt lat="44.32925" lon="6.30578">
        <ele>1725.6</ele>
        <time>2024-02-25T10:18:44Z</time>
      </trkpt>
      <trkpt lat="44.32934" lon="6.30568">
        <ele>1725.6</ele>
        <time>2024-02-25T10:18:54Z</time>
      </trkpt>
      <trkpt lat="44.32937" lon="6.30565">
        <ele>1725.4</ele>
        <time>2024-02-25T10:18:57Z</time>
      </trkpt>
      <trkpt lat="44.3294" lon="6.30563">
        <ele>1725.4</ele>
        <time>2024-02-25T10:19:00Z</time>
      </trkpt>
      <trkpt lat="44.32943" lon="6.30557">
        <ele>1725.4</ele>
        <time>2024-02-25T10:19:04Z</time>
      </trkpt>
      <trkpt lat="44.32953" lon="6.30549">
        <ele>1725.8</ele>
        <time>2024-02-25T10:19:14Z</time>
      </trkpt>
      <trkpt lat="44.32955" lon="6.30545">
        <ele>1726</ele>
        <time>2024-02-25T10:19:17Z</time>
      </trkpt>
      <trkpt lat="44.32958" lon="6.30543">
        <ele>1725.8</ele>
        <time>2024-02-25T10:19:19Z</time>
      </trkpt>
      <trkpt lat="44.32963" lon="6.3054">
        <ele>1725.4</ele>
        <time>2024-02-25T10:19:24Z</time>
      </trkpt>
      <trkpt lat="44.32968" lon="6.30537">
        <ele>1725.4</ele>
        <time>2024-02-25T10:19:29Z</time>
      </trkpt>
      <trkpt lat="44.32971" lon="6.30535">
        <ele>1725.6</ele>
        <time>2024-02-25T10:19:32Z</time>
      </trkpt>
      <trkpt lat="44.32974" lon="6.30534">
        <ele>1725.4</ele>
        <time>2024-02-25T10:19:34Z</time>
      </trkpt>
      <trkpt lat="44.32975" lon="6.30534">
        <ele>1725.4</ele>
        <time>2024-02-25T10:19:35Z</time>
      </trkpt>
      <trkpt lat="44.32978" lon="6.3053">
        <ele>1725.6</ele>
        <time>2024-02-25T10:19:39Z</time>
      </trkpt>
      <trkpt lat="44.32984" lon="6.30528">
        <ele>1725.4</ele>
        <time>2024-02-25T10:19:44Z</time>
      </trkpt>
      <trkpt lat="44.32993" lon="6.3052">
        <ele>1725</ele>
        <time>2024-02-25T10:19:53Z</time>
      </trkpt>
      <trkpt lat="44.32994" lon="6.3052">
        <ele>1725</ele>
        <time>2024-02-25T10:19:54Z</time>
      </trkpt>
      <trkpt lat="44.32995" lon="6.3052">
        <ele>1725.2</ele>
        <time>2024-02-25T10:19:55Z</time>
      </trkpt>
      <trkpt lat="44.33002" lon="6.30514">
        <ele>1725.2</ele>
        <time>2024-02-25T10:20:02Z</time>
      </trkpt>
      <trkpt lat="44.33003" lon="6.30512">
        <ele>1725</ele>
        <time>2024-02-25T10:20:04Z</time>
      </trkpt>
      <trkpt lat="44.33012" lon="6.30501">
        <ele>1724.8</ele>
        <time>2024-02-25T10:20:14Z</time>
      </trkpt>
      <trkpt lat="44.33022" lon="6.30492">
        <ele>1724.4</ele>
        <time>2024-02-25T10:20:24Z</time>
      </trkpt>
      <trkpt lat="44.33023" lon="6.30489">
        <ele>1724.4</ele>
        <time>2024-02-25T10:20:26Z</time>
      </trkpt>
      <trkpt lat="44.33029" lon="6.3048">
        <ele>1724.6</ele>
        <time>2024-02-25T10:20:34Z</time>
      </trkpt>
      <trkpt lat="44.33031" lon="6.30478">
        <ele>1724.2</ele>
        <time>2024-02-25T10:20:36Z</time>
      </trkpt>
      <trkpt lat="44.33033" lon="6.30477">
        <ele>1724</ele>
        <time>2024-02-25T10:20:38Z</time>
      </trkpt>
      <trkpt lat="44.33039" lon="6.3047">
        <ele>1723.4</ele>
        <time>2024-02-25T10:20:44Z</time>
      </trkpt>
      <trkpt lat="44.33048" lon="6.3046">
        <ele>1723</ele>
        <time>2024-02-25T10:20:54Z</time>
      </trkpt>
      <trkpt lat="44.33049" lon="6.3046">
        <ele>1722.8</ele>
        <time>2024-02-25T10:20:55Z</time>
      </trkpt>
      <trkpt lat="44.33056" lon="6.3045">
        <ele>1722.4</ele>
        <time>2024-02-25T10:21:04Z</time>
      </trkpt>
      <trkpt lat="44.33064" lon="6.30442">
        <ele>1721.8</ele>
        <time>2024-02-25T10:21:13Z</time>
      </trkpt>
      <trkpt lat="44.33065" lon="6.30441">
        <ele>1721.8</ele>
        <time>2024-02-25T10:21:14Z</time>
      </trkpt>
      <trkpt lat="44.33072" lon="6.30428">
        <ele>1721.2</ele>
        <time>2024-02-25T10:21:24Z</time>
      </trkpt>
      <trkpt lat="44.33075" lon="6.30425">
        <ele>1721</ele>
        <time>2024-02-25T10:21:28Z</time>
      </trkpt>
      <trkpt lat="44.33077" lon="6.30423">
        <ele>1721</ele>
        <time>2024-02-25T10:21:31Z</time>
      </trkpt>
      <trkpt lat="44.33079" lon="6.30419">
        <ele>1721</ele>
        <time>2024-02-25T10:21:34Z</time>
      </trkpt>
      <trkpt lat="44.33078" lon="6.30413">
        <ele>1720.6</ele>
        <time>2024-02-25T10:21:37Z</time>
      </trkpt>
      <trkpt lat="44.33077" lon="6.30402">
        <ele>1720</ele>
        <time>2024-02-25T10:21:44Z</time>
      </trkpt>
      <trkpt lat="44.33077" lon="6.30399">
        <ele>1720.2</ele>
        <time>2024-02-25T10:21:46Z</time>
      </trkpt>
      <trkpt lat="44.33077" lon="6.30398">
        <ele>1719.8</ele>
        <time>2024-02-25T10:21:47Z</time>
      </trkpt>
      <trkpt lat="44.33078" lon="6.30396">
        <ele>1719.4</ele>
        <time>2024-02-25T10:21:48Z</time>
      </trkpt>
      <trkpt lat="44.33077" lon="6.30395">
        <ele>1719.2</ele>
        <time>2024-02-25T10:21:49Z</time>
      </trkpt>
      <trkpt lat="44.33076" lon="6.30394">
        <ele>1718.6</ele>
        <time>2024-02-25T10:21:54Z</time>
      </trkpt>
      <trkpt lat="44.33076" lon="6.30391">
        <ele>1718.8</ele>
        <time>2024-02-25T10:22:04Z</time>
      </trkpt>
      <trkpt lat="44.33075" lon="6.30389">
        <ele>1718.6</ele>
        <time>2024-02-25T10:22:06Z</time>
      </trkpt>
      <trkpt lat="44.33074" lon="6.30388">
        <ele>1718.4</ele>
        <time>2024-02-25T10:22:07Z</time>
      </trkpt>
      <trkpt lat="44.3307" lon="6.30375">
        <ele>1718.6</ele>
        <time>2024-02-25T10:22:15Z</time>
      </trkpt>
      <trkpt lat="44.33069" lon="6.30374">
        <ele>1718.6</ele>
        <time>2024-02-25T10:22:16Z</time>
      </trkpt>
      <trkpt lat="44.33064" lon="6.3036">
        <ele>1717.4</ele>
        <time>2024-02-25T10:22:25Z</time>
      </trkpt>
      <trkpt lat="44.33063" lon="6.30359">
        <ele>1717.2</ele>
        <time>2024-02-25T10:22:26Z</time>
      </trkpt>
      <trkpt lat="44.33061" lon="6.30357">
        <ele>1716</ele>
        <time>2024-02-25T10:22:28Z</time>
      </trkpt>
      <trkpt lat="44.33056" lon="6.30348">
        <ele>1715</ele>
        <time>2024-02-25T10:22:35Z</time>
      </trkpt>
      <trkpt lat="44.33049" lon="6.30339">
        <ele>1714</ele>
        <time>2024-02-25T10:22:43Z</time>
      </trkpt>
      <trkpt lat="44.33047" lon="6.30337">
        <ele>1713.6</ele>
        <time>2024-02-25T10:22:45Z</time>
      </trkpt>
      <trkpt lat="44.33045" lon="6.30334">
        <ele>1713</ele>
        <time>2024-02-25T10:22:47Z</time>
      </trkpt>
      <trkpt lat="44.3304" lon="6.30324">
        <ele>1712.2</ele>
        <time>2024-02-25T10:22:55Z</time>
      </trkpt>
      <trkpt lat="44.33039" lon="6.30322">
        <ele>1711.8</ele>
        <time>2024-02-25T10:22:57Z</time>
      </trkpt>
      <trkpt lat="44.33036" lon="6.30309">
        <ele>1711.4</ele>
        <time>2024-02-25T10:23:05Z</time>
      </trkpt>
      <trkpt lat="44.33036" lon="6.30306">
        <ele>1710.6</ele>
        <time>2024-02-25T10:23:08Z</time>
      </trkpt>
      <trkpt lat="44.33034" lon="6.30297">
        <ele>1710.4</ele>
        <time>2024-02-25T10:23:14Z</time>
      </trkpt>
      <trkpt lat="44.33033" lon="6.30296">
        <ele>1710.4</ele>
        <time>2024-02-25T10:23:15Z</time>
      </trkpt>
      <trkpt lat="44.33023" lon="6.30288">
        <ele>1711.2</ele>
        <time>2024-02-25T10:23:25Z</time>
      </trkpt>
      <trkpt lat="44.33014" lon="6.30288">
        <ele>1711.6</ele>
        <time>2024-02-25T10:23:33Z</time>
      </trkpt>
      <trkpt lat="44.33012" lon="6.30288">
        <ele>1712</ele>
        <time>2024-02-25T10:23:35Z</time>
      </trkpt>
      <trkpt lat="44.33003" lon="6.30289">
        <ele>1712.8</ele>
        <time>2024-02-25T10:23:43Z</time>
      </trkpt>
      <trkpt lat="44.33001" lon="6.30289">
        <ele>1713</ele>
        <time>2024-02-25T10:23:45Z</time>
      </trkpt>
      <trkpt lat="44.3299" lon="6.30289">
        <ele>1713.6</ele>
        <time>2024-02-25T10:23:55Z</time>
      </trkpt>
      <trkpt lat="44.32987" lon="6.30289">
        <ele>1713.8</ele>
        <time>2024-02-25T10:23:58Z</time>
      </trkpt>
      <trkpt lat="44.32979" lon="6.30288">
        <ele>1714</ele>
        <time>2024-02-25T10:24:05Z</time>
      </trkpt>
      <trkpt lat="44.32978" lon="6.30288">
        <ele>1713.8</ele>
        <time>2024-02-25T10:24:06Z</time>
      </trkpt>
      <trkpt lat="44.32968" lon="6.30287">
        <ele>1713.6</ele>
        <time>2024-02-25T10:24:16Z</time>
      </trkpt>
      <trkpt lat="44.32957" lon="6.30287">
        <ele>1714</ele>
        <time>2024-02-25T10:24:26Z</time>
      </trkpt>
      <trkpt lat="44.32946" lon="6.30287">
        <ele>1714.4</ele>
        <time>2024-02-25T10:24:36Z</time>
      </trkpt>
      <trkpt lat="44.32938" lon="6.30287">
        <ele>1714.8</ele>
        <time>2024-02-25T10:24:44Z</time>
      </trkpt>
      <trkpt lat="44.32937" lon="6.30287">
        <ele>1714.8</ele>
        <time>2024-02-25T10:24:46Z</time>
      </trkpt>
      <trkpt lat="44.32934" lon="6.30287">
        <ele>1715</ele>
        <time>2024-02-25T10:24:49Z</time>
      </trkpt>
      <trkpt lat="44.3293" lon="6.30286">
        <ele>1714.8</ele>
        <time>2024-02-25T10:24:53Z</time>
      </trkpt>
      <trkpt lat="44.32927" lon="6.30286">
        <ele>1714.6</ele>
        <time>2024-02-25T10:24:56Z</time>
      </trkpt>
      <trkpt lat="44.32917" lon="6.30281">
        <ele>1714.6</ele>
        <time>2024-02-25T10:25:06Z</time>
      </trkpt>
      <trkpt lat="44.32906" lon="6.30277">
        <ele>1715</ele>
        <time>2024-02-25T10:25:16Z</time>
      </trkpt>
      <trkpt lat="44.32897" lon="6.30274">
        <ele>1715.4</ele>
        <time>2024-02-25T10:25:25Z</time>
      </trkpt>
      <trkpt lat="44.32896" lon="6.30274">
        <ele>1715.6</ele>
        <time>2024-02-25T10:25:26Z</time>
      </trkpt>
      <trkpt lat="44.32893" lon="6.30268">
        <ele>1715.4</ele>
        <time>2024-02-25T10:25:31Z</time>
      </trkpt>
      <trkpt lat="44.32891" lon="6.30266">
        <ele>1715.2</ele>
        <time>2024-02-25T10:25:33Z</time>
      </trkpt>
      <trkpt lat="44.32888" lon="6.30263">
        <ele>1715.4</ele>
        <time>2024-02-25T10:25:36Z</time>
      </trkpt>
      <trkpt lat="44.32882" lon="6.30257">
        <ele>1716</ele>
        <time>2024-02-25T10:25:43Z</time>
      </trkpt>
      <trkpt lat="44.3288" lon="6.30255">
        <ele>1716.2</ele>
        <time>2024-02-25T10:25:45Z</time>
      </trkpt>
      <trkpt lat="44.32879" lon="6.30254">
        <ele>1716.2</ele>
        <time>2024-02-25T10:25:46Z</time>
      </trkpt>
      <trkpt lat="44.32876" lon="6.30251">
        <ele>1716.2</ele>
        <time>2024-02-25T10:25:50Z</time>
      </trkpt>
      <trkpt lat="44.32872" lon="6.30248">
        <ele>1716.6</ele>
        <time>2024-02-25T10:25:54Z</time>
      </trkpt>
      <trkpt lat="44.3287" lon="6.30247">
        <ele>1716.8</ele>
        <time>2024-02-25T10:25:56Z</time>
      </trkpt>
      <trkpt lat="44.32867" lon="6.30245">
        <ele>1717</ele>
        <time>2024-02-25T10:25:59Z</time>
      </trkpt>
      <trkpt lat="44.32866" lon="6.30244">
        <ele>1717</ele>
        <time>2024-02-25T10:26:01Z</time>
      </trkpt>
      <trkpt lat="44.32865" lon="6.30243">
        <ele>1717</ele>
        <time>2024-02-25T10:26:03Z</time>
      </trkpt>
      <trkpt lat="44.32864" lon="6.30242">
        <ele>1717</ele>
        <time>2024-02-25T10:26:05Z</time>
      </trkpt>
      <trkpt lat="44.32862" lon="6.30241">
        <ele>1716.4</ele>
        <time>2024-02-25T10:26:08Z</time>
      </trkpt>
      <trkpt lat="44.32863" lon="6.30242">
        <ele>1716.2</ele>
        <time>2024-02-25T10:26:16Z</time>
      </trkpt>
      <trkpt lat="44.32863" lon="6.30241">
        <ele>1716.2</ele>
        <time>2024-02-25T10:26:26Z</time>
      </trkpt>
      <trkpt lat="44.32863" lon="6.30241">
        <ele>1716.2</ele>
        <time>2024-02-25T10:26:30Z</time>
      </trkpt>
      <trkpt lat="44.32863" lon="6.30241">
        <ele>1716.2</ele>
        <time>2024-02-25T10:26:31Z</time>
      </trkpt>
      <trkpt lat="44.32863" lon="6.30242">
        <ele>1716.2</ele>
        <time>2024-02-25T10:26:33Z</time>
      </trkpt>
      <trkpt lat="44.32861" lon="6.30243">
        <ele>1716.2</ele>
        <time>2024-02-25T10:26:36Z</time>
      </trkpt>
      <trkpt lat="44.32859" lon="6.30247">
        <ele>1716.2</ele>
        <time>2024-02-25T10:26:41Z</time>
      </trkpt>
      <trkpt lat="44.32858" lon="6.30248">
        <ele>1716</ele>
        <time>2024-02-25T10:26:43Z</time>
      </trkpt>
      <trkpt lat="44.32856" lon="6.30251">
        <ele>1716</ele>
        <time>2024-02-25T10:26:46Z</time>
      </trkpt>
      <trkpt lat="44.32855" lon="6.30251">
        <ele>1715.6</ele>
        <time>2024-02-25T10:26:54Z</time>
      </trkpt>
      <trkpt lat="44.32855" lon="6.30251">
        <ele>1715.8</ele>
        <time>2024-02-25T10:26:56Z</time>
      </trkpt>
      <trkpt lat="44.32855" lon="6.30251">
        <ele>1715.6</ele>
        <time>2024-02-25T10:27:06Z</time>
      </trkpt>
      <trkpt lat="44.32855" lon="6.30251">
        <ele>1715.6</ele>
        <time>2024-02-25T10:27:09Z</time>
      </trkpt>
      <trkpt lat="44.32855" lon="6.30251">
        <ele>1715.6</ele>
        <time>2024-02-25T10:27:14Z</time>
      </trkpt>
      <trkpt lat="44.32855" lon="6.30251">
        <ele>1715.8</ele>
        <time>2024-02-25T10:27:16Z</time>
      </trkpt>
      <trkpt lat="44.32855" lon="6.30251">
        <ele>1715.8</ele>
        <time>2024-02-25T10:27:22Z</time>
      </trkpt>
      <trkpt lat="44.32854" lon="6.30251">
        <ele>1715.8</ele>
        <time>2024-02-25T10:27:26Z</time>
      </trkpt>
      <trkpt lat="44.32852" lon="6.30248">
        <ele>1715.6</ele>
        <time>2024-02-25T10:27:29Z</time>
      </trkpt>
      <trkpt lat="44.32848" lon="6.30243">
        <ele>1716</ele>
        <time>2024-02-25T10:27:35Z</time>
      </trkpt>
      <trkpt lat="44.32848" lon="6.30242">
        <ele>1716</ele>
        <time>2024-02-25T10:27:36Z</time>
      </trkpt>
      <trkpt lat="44.32848" lon="6.30238">
        <ele>1716</ele>
        <time>2024-02-25T10:27:38Z</time>
      </trkpt>
      <trkpt lat="44.32847" lon="6.30234">
        <ele>1715.4</ele>
        <time>2024-02-25T10:27:41Z</time>
      </trkpt>
      <trkpt lat="44.32847" lon="6.30229">
        <ele>1715.6</ele>
        <time>2024-02-25T10:27:46Z</time>
      </trkpt>
      <trkpt lat="44.32847" lon="6.30227">
        <ele>1715.8</ele>
        <time>2024-02-25T10:27:48Z</time>
      </trkpt>
      <trkpt lat="44.32847" lon="6.30227">
        <ele>1716</ele>
        <time>2024-02-25T10:27:49Z</time>
      </trkpt>
      <trkpt lat="44.32847" lon="6.30226">
        <ele>1715.8</ele>
        <time>2024-02-25T10:27:52Z</time>
      </trkpt>
      <trkpt lat="44.32846" lon="6.30224">
        <ele>1715.6</ele>
        <time>2024-02-25T10:27:54Z</time>
      </trkpt>
      <trkpt lat="44.32845" lon="6.30222">
        <ele>1715.6</ele>
        <time>2024-02-25T10:27:56Z</time>
      </trkpt>
      <trkpt lat="44.32842" lon="6.30217">
        <ele>1715.4</ele>
        <time>2024-02-25T10:28:00Z</time>
      </trkpt>
      <trkpt lat="44.32838" lon="6.3021">
        <ele>1715.2</ele>
        <time>2024-02-25T10:28:05Z</time>
      </trkpt>
      <trkpt lat="44.32837" lon="6.30209">
        <ele>1715.2</ele>
        <time>2024-02-25T10:28:06Z</time>
      </trkpt>
      <trkpt lat="44.32835" lon="6.30205">
        <ele>1715</ele>
        <time>2024-02-25T10:28:09Z</time>
      </trkpt>
      <trkpt lat="44.32834" lon="6.30204">
        <ele>1715</ele>
        <time>2024-02-25T10:28:10Z</time>
      </trkpt>
      <trkpt lat="44.3283" lon="6.30197">
        <ele>1714.4</ele>
        <time>2024-02-25T10:28:16Z</time>
      </trkpt>
      <trkpt lat="44.3283" lon="6.30196">
        <ele>1714.2</ele>
        <time>2024-02-25T10:28:17Z</time>
      </trkpt>
      <trkpt lat="44.32829" lon="6.30194">
        <ele>1714.2</ele>
        <time>2024-02-25T10:28:19Z</time>
      </trkpt>
      <trkpt lat="44.32826" lon="6.30187">
        <ele>1713.8</ele>
        <time>2024-02-25T10:28:25Z</time>
      </trkpt>
      <trkpt lat="44.32825" lon="6.30186">
        <ele>1713.8</ele>
        <time>2024-02-25T10:28:26Z</time>
      </trkpt>
      <trkpt lat="44.32822" lon="6.3018">
        <ele>1713.8</ele>
        <time>2024-02-25T10:28:32Z</time>
      </trkpt>
      <trkpt lat="44.3282" lon="6.30176">
        <ele>1713.4</ele>
        <time>2024-02-25T10:28:35Z</time>
      </trkpt>
      <trkpt lat="44.32819" lon="6.30175">
        <ele>1713.4</ele>
        <time>2024-02-25T10:28:36Z</time>
      </trkpt>
      <trkpt lat="44.32814" lon="6.30164">
        <ele>1713.4</ele>
        <time>2024-02-25T10:28:43Z</time>
      </trkpt>
      <trkpt lat="44.32811" lon="6.3016">
        <ele>1713.2</ele>
        <time>2024-02-25T10:28:46Z</time>
      </trkpt>
      <trkpt lat="44.3281" lon="6.30151">
        <ele>1712.6</ele>
        <time>2024-02-25T10:28:51Z</time>
      </trkpt>
      <trkpt lat="44.3281" lon="6.30144">
        <ele>1711.8</ele>
        <time>2024-02-25T10:28:56Z</time>
      </trkpt>
      <trkpt lat="44.32812" lon="6.3013">
        <ele>1711.8</ele>
        <time>2024-02-25T10:29:06Z</time>
      </trkpt>
      <trkpt lat="44.32813" lon="6.30128">
        <ele>1711.6</ele>
        <time>2024-02-25T10:29:08Z</time>
      </trkpt>
      <trkpt lat="44.32814" lon="6.30115">
        <ele>1711.2</ele>
        <time>2024-02-25T10:29:16Z</time>
      </trkpt>
      <trkpt lat="44.32814" lon="6.30107">
        <ele>1710.4</ele>
        <time>2024-02-25T10:29:22Z</time>
      </trkpt>
      <trkpt lat="44.32812" lon="6.30102">
        <ele>1709.8</ele>
        <time>2024-02-25T10:29:26Z</time>
      </trkpt>
      <trkpt lat="44.32812" lon="6.30098">
        <ele>1709.4</ele>
        <time>2024-02-25T10:29:29Z</time>
      </trkpt>
      <trkpt lat="44.32812" lon="6.30089">
        <ele>1708.2</ele>
        <time>2024-02-25T10:29:36Z</time>
      </trkpt>
      <trkpt lat="44.32814" lon="6.3008">
        <ele>1707.4</ele>
        <time>2024-02-25T10:29:43Z</time>
      </trkpt>
      <trkpt lat="44.32816" lon="6.30078">
        <ele>1707.2</ele>
        <time>2024-02-25T10:29:45Z</time>
      </trkpt>
      <trkpt lat="44.32817" lon="6.30077">
        <ele>1707</ele>
        <time>2024-02-25T10:29:46Z</time>
      </trkpt>
      <trkpt lat="44.32822" lon="6.30072">
        <ele>1706.2</ele>
        <time>2024-02-25T10:29:52Z</time>
      </trkpt>
      <trkpt lat="44.32825" lon="6.30069">
        <ele>1705.6</ele>
        <time>2024-02-25T10:29:56Z</time>
      </trkpt>
      <trkpt lat="44.32827" lon="6.30064">
        <ele>1705.6</ele>
        <time>2024-02-25T10:30:00Z</time>
      </trkpt>
      <trkpt lat="44.32829" lon="6.30058">
        <ele>1705.4</ele>
        <time>2024-02-25T10:30:06Z</time>
      </trkpt>
      <trkpt lat="44.32829" lon="6.30056">
        <ele>1705</ele>
        <time>2024-02-25T10:30:08Z</time>
      </trkpt>
      <trkpt lat="44.32828" lon="6.30045">
        <ele>1704.6</ele>
        <time>2024-02-25T10:30:17Z</time>
      </trkpt>
      <trkpt lat="44.32827" lon="6.30042">
        <ele>1705</ele>
        <time>2024-02-25T10:30:20Z</time>
      </trkpt>
      <trkpt lat="44.32822" lon="6.30038">
        <ele>1706</ele>
        <time>2024-02-25T10:30:26Z</time>
      </trkpt>
      <trkpt lat="44.32821" lon="6.30037">
        <ele>1706.2</ele>
        <time>2024-02-25T10:30:27Z</time>
      </trkpt>
      <trkpt lat="44.3282" lon="6.30036">
        <ele>1706.2</ele>
        <time>2024-02-25T10:30:28Z</time>
      </trkpt>
      <trkpt lat="44.32819" lon="6.30035">
        <ele>1706.4</ele>
        <time>2024-02-25T10:30:30Z</time>
      </trkpt>
      <trkpt lat="44.32818" lon="6.30034">
        <ele>1706.4</ele>
        <time>2024-02-25T10:30:31Z</time>
      </trkpt>
      <trkpt lat="44.32817" lon="6.30033">
        <ele>1706.6</ele>
        <time>2024-02-25T10:30:32Z</time>
      </trkpt>
      <trkpt lat="44.32817" lon="6.30032">
        <ele>1706.6</ele>
        <time>2024-02-25T10:30:33Z</time>
      </trkpt>
      <trkpt lat="44.32816" lon="6.30031">
        <ele>1706.8</ele>
        <time>2024-02-25T10:30:34Z</time>
      </trkpt>
      <trkpt lat="44.32815" lon="6.3003">
        <ele>1707</ele>
        <time>2024-02-25T10:30:35Z</time>
      </trkpt>
      <trkpt lat="44.32815" lon="6.30029">
        <ele>1707</ele>
        <time>2024-02-25T10:30:36Z</time>
      </trkpt>
      <trkpt lat="44.32814" lon="6.30028">
        <ele>1707.2</ele>
        <time>2024-02-25T10:30:37Z</time>
      </trkpt>
      <trkpt lat="44.32814" lon="6.30027">
        <ele>1707.4</ele>
        <time>2024-02-25T10:30:38Z</time>
      </trkpt>
      <trkpt lat="44.32813" lon="6.30026">
        <ele>1707.4</ele>
        <time>2024-02-25T10:30:40Z</time>
      </trkpt>
      <trkpt lat="44.3281" lon="6.30021">
        <ele>1707.6</ele>
        <time>2024-02-25T10:30:45Z</time>
      </trkpt>
      <trkpt lat="44.32809" lon="6.3002">
        <ele>1708</ele>
        <time>2024-02-25T10:30:47Z</time>
      </trkpt>
      <trkpt lat="44.32808" lon="6.30019">
        <ele>1708.2</ele>
        <time>2024-02-25T10:30:48Z</time>
      </trkpt>
      <trkpt lat="44.32808" lon="6.30019">
        <ele>1708.2</ele>
        <time>2024-02-25T10:30:49Z</time>
      </trkpt>
      <trkpt lat="44.32804" lon="6.30018">
        <ele>1708.8</ele>
        <time>2024-02-25T10:30:54Z</time>
      </trkpt>
      <trkpt lat="44.32801" lon="6.30018">
        <ele>1709.4</ele>
        <time>2024-02-25T10:30:57Z</time>
      </trkpt>
      <trkpt lat="44.32796" lon="6.30018">
        <ele>1710.4</ele>
        <time>2024-02-25T10:31:03Z</time>
      </trkpt>
      <trkpt lat="44.32794" lon="6.30019">
        <ele>1710.4</ele>
        <time>2024-02-25T10:31:07Z</time>
      </trkpt>
      <trkpt lat="44.32792" lon="6.3002">
        <ele>1710.4</ele>
        <time>2024-02-25T10:31:09Z</time>
      </trkpt>
      <trkpt lat="44.3279" lon="6.3002">
        <ele>1710.8</ele>
        <time>2024-02-25T10:31:11Z</time>
      </trkpt>
      <trkpt lat="44.32786" lon="6.30023">
        <ele>1711</ele>
        <time>2024-02-25T10:31:17Z</time>
      </trkpt>
      <trkpt lat="44.32783" lon="6.30025">
        <ele>1711.2</ele>
        <time>2024-02-25T10:31:20Z</time>
      </trkpt>
      <trkpt lat="44.32777" lon="6.30027">
        <ele>1711.4</ele>
        <time>2024-02-25T10:31:27Z</time>
      </trkpt>
      <trkpt lat="44.32774" lon="6.30029">
        <ele>1711.4</ele>
        <time>2024-02-25T10:31:30Z</time>
      </trkpt>
      <trkpt lat="44.32772" lon="6.30034">
        <ele>1711.6</ele>
        <time>2024-02-25T10:31:34Z</time>
      </trkpt>
      <trkpt lat="44.32771" lon="6.30035">
        <ele>1711.6</ele>
        <time>2024-02-25T10:31:35Z</time>
      </trkpt>
      <trkpt lat="44.3277" lon="6.30037">
        <ele>1711.6</ele>
        <time>2024-02-25T10:31:37Z</time>
      </trkpt>
      <trkpt lat="44.3277" lon="6.30038">
        <ele>1711.6</ele>
        <time>2024-02-25T10:31:38Z</time>
      </trkpt>
      <trkpt lat="44.32768" lon="6.3004">
        <ele>1711.4</ele>
        <time>2024-02-25T10:31:40Z</time>
      </trkpt>
      <trkpt lat="44.32766" lon="6.30045">
        <ele>1711.4</ele>
        <time>2024-02-25T10:31:44Z</time>
      </trkpt>
      <trkpt lat="44.32763" lon="6.30047">
        <ele>1711.4</ele>
        <time>2024-02-25T10:31:47Z</time>
      </trkpt>
      <trkpt lat="44.32759" lon="6.30056">
        <ele>1711.2</ele>
        <time>2024-02-25T10:31:54Z</time>
      </trkpt>
      <trkpt lat="44.32757" lon="6.30058">
        <ele>1711.4</ele>
        <time>2024-02-25T10:31:57Z</time>
      </trkpt>
      <trkpt lat="44.32755" lon="6.30061">
        <ele>1711.4</ele>
        <time>2024-02-25T10:32:00Z</time>
      </trkpt>
      <trkpt lat="44.32755" lon="6.30062">
        <ele>1711.4</ele>
        <time>2024-02-25T10:32:01Z</time>
      </trkpt>
      <trkpt lat="44.32754" lon="6.30063">
        <ele>1711.4</ele>
        <time>2024-02-25T10:32:02Z</time>
      </trkpt>
      <trkpt lat="44.32754" lon="6.30065">
        <ele>1711.4</ele>
        <time>2024-02-25T10:32:03Z</time>
      </trkpt>
      <trkpt lat="44.32753" lon="6.30066">
        <ele>1711.4</ele>
        <time>2024-02-25T10:32:04Z</time>
      </trkpt>
      <trkpt lat="44.32751" lon="6.30067">
        <ele>1711.6</ele>
        <time>2024-02-25T10:32:07Z</time>
      </trkpt>
      <trkpt lat="44.32748" lon="6.30069">
        <ele>1711.8</ele>
        <time>2024-02-25T10:32:10Z</time>
      </trkpt>
      <trkpt lat="44.32745" lon="6.3007">
        <ele>1711.8</ele>
        <time>2024-02-25T10:32:13Z</time>
      </trkpt>
      <trkpt lat="44.32741" lon="6.3007">
        <ele>1712.2</ele>
        <time>2024-02-25T10:32:17Z</time>
      </trkpt>
      <trkpt lat="44.3274" lon="6.30069">
        <ele>1712.2</ele>
        <time>2024-02-25T10:32:18Z</time>
      </trkpt>
      <trkpt lat="44.32738" lon="6.30068">
        <ele>1712.6</ele>
        <time>2024-02-25T10:32:20Z</time>
      </trkpt>
      <trkpt lat="44.32734" lon="6.30065">
        <ele>1713.2</ele>
        <time>2024-02-25T10:32:25Z</time>
      </trkpt>
      <trkpt lat="44.32732" lon="6.30065">
        <ele>1713.4</ele>
        <time>2024-02-25T10:32:27Z</time>
      </trkpt>
      <trkpt lat="44.3273" lon="6.30065">
        <ele>1713.8</ele>
        <time>2024-02-25T10:32:29Z</time>
      </trkpt>
      <trkpt lat="44.32728" lon="6.30065">
        <ele>1714.2</ele>
        <time>2024-02-25T10:32:31Z</time>
      </trkpt>
      <trkpt lat="44.32727" lon="6.30064">
        <ele>1714.4</ele>
        <time>2024-02-25T10:32:33Z</time>
      </trkpt>
      <trkpt lat="44.32724" lon="6.30062">
        <ele>1714.8</ele>
        <time>2024-02-25T10:32:36Z</time>
      </trkpt>
      <trkpt lat="44.32724" lon="6.30062">
        <ele>1714.8</ele>
        <time>2024-02-25T10:32:37Z</time>
      </trkpt>
      <trkpt lat="44.32723" lon="6.30061">
        <ele>1715.2</ele>
        <time>2024-02-25T10:32:38Z</time>
      </trkpt>
      <trkpt lat="44.32721" lon="6.30059">
        <ele>1715.8</ele>
        <time>2024-02-25T10:32:40Z</time>
      </trkpt>
      <trkpt lat="44.32719" lon="6.30056">
        <ele>1716.6</ele>
        <time>2024-02-25T10:32:44Z</time>
      </trkpt>
      <trkpt lat="44.32717" lon="6.30054">
        <ele>1717</ele>
        <time>2024-02-25T10:32:46Z</time>
      </trkpt>
      <trkpt lat="44.32717" lon="6.30053">
        <ele>1717.2</ele>
        <time>2024-02-25T10:32:47Z</time>
      </trkpt>
      <trkpt lat="44.32715" lon="6.30052">
        <ele>1717.4</ele>
        <time>2024-02-25T10:32:49Z</time>
      </trkpt>
      <trkpt lat="44.32713" lon="6.30048">
        <ele>1718.2</ele>
        <time>2024-02-25T10:32:53Z</time>
      </trkpt>
      <trkpt lat="44.32712" lon="6.30044">
        <ele>1719</ele>
        <time>2024-02-25T10:32:57Z</time>
      </trkpt>
      <trkpt lat="44.32712" lon="6.30044">
        <ele>1719.2</ele>
        <time>2024-02-25T10:32:58Z</time>
      </trkpt>
      <trkpt lat="44.32712" lon="6.30044">
        <ele>1719.2</ele>
        <time>2024-02-25T10:32:59Z</time>
      </trkpt>
      <trkpt lat="44.32709" lon="6.30036">
        <ele>1720</ele>
        <time>2024-02-25T10:33:07Z</time>
      </trkpt>
      <trkpt lat="44.32707" lon="6.30033">
        <ele>1720.2</ele>
        <time>2024-02-25T10:33:10Z</time>
      </trkpt>
      <trkpt lat="44.32706" lon="6.30029">
        <ele>1720.6</ele>
        <time>2024-02-25T10:33:13Z</time>
      </trkpt>
      <trkpt lat="44.32704" lon="6.30024">
        <ele>1721</ele>
        <time>2024-02-25T10:33:17Z</time>
      </trkpt>
      <trkpt lat="44.32703" lon="6.30021">
        <ele>1721.2</ele>
        <time>2024-02-25T10:33:19Z</time>
      </trkpt>
      <trkpt lat="44.32702" lon="6.30018">
        <ele>1722</ele>
        <time>2024-02-25T10:33:22Z</time>
      </trkpt>
      <trkpt lat="44.327" lon="6.30015">
        <ele>1722.4</ele>
        <time>2024-02-25T10:33:25Z</time>
      </trkpt>
      <trkpt lat="44.32699" lon="6.30013">
        <ele>1722.8</ele>
        <time>2024-02-25T10:33:27Z</time>
      </trkpt>
      <trkpt lat="44.32697" lon="6.3001">
        <ele>1723.4</ele>
        <time>2024-02-25T10:33:31Z</time>
      </trkpt>
      <trkpt lat="44.32695" lon="6.30008">
        <ele>1723.8</ele>
        <time>2024-02-25T10:33:33Z</time>
      </trkpt>
      <trkpt lat="44.32693" lon="6.30004">
        <ele>1724.2</ele>
        <time>2024-02-25T10:33:37Z</time>
      </trkpt>
      <trkpt lat="44.32692" lon="6.30003">
        <ele>1724.4</ele>
        <time>2024-02-25T10:33:38Z</time>
      </trkpt>
      <trkpt lat="44.32691" lon="6.30002">
        <ele>1724.4</ele>
        <time>2024-02-25T10:33:39Z</time>
      </trkpt>
      <trkpt lat="44.32691" lon="6.30001">
        <ele>1724.6</ele>
        <time>2024-02-25T10:33:40Z</time>
      </trkpt>
      <trkpt lat="44.3269" lon="6.29998">
        <ele>1724.6</ele>
        <time>2024-02-25T10:33:42Z</time>
      </trkpt>
      <trkpt lat="44.32689" lon="6.29992">
        <ele>1724.4</ele>
        <time>2024-02-25T10:33:47Z</time>
      </trkpt>
      <trkpt lat="44.32687" lon="6.29978">
        <ele>1725.4</ele>
        <time>2024-02-25T10:33:57Z</time>
      </trkpt>
      <trkpt lat="44.32687" lon="6.29971">
        <ele>1725</ele>
        <time>2024-02-25T10:34:02Z</time>
      </trkpt>
      <trkpt lat="44.32688" lon="6.29963">
        <ele>1724.6</ele>
        <time>2024-02-25T10:34:07Z</time>
      </trkpt>
      <trkpt lat="44.3269" lon="6.29958">
        <ele>1724</ele>
        <time>2024-02-25T10:34:11Z</time>
      </trkpt>
      <trkpt lat="44.32692" lon="6.29956">
        <ele>1723.8</ele>
        <time>2024-02-25T10:34:13Z</time>
      </trkpt>
      <trkpt lat="44.32693" lon="6.29954">
        <ele>1723.6</ele>
        <time>2024-02-25T10:34:15Z</time>
      </trkpt>
      <trkpt lat="44.32694" lon="6.29951">
        <ele>1723.4</ele>
        <time>2024-02-25T10:34:17Z</time>
      </trkpt>
      <trkpt lat="44.32694" lon="6.2995">
        <ele>1723.2</ele>
        <time>2024-02-25T10:34:18Z</time>
      </trkpt>
      <trkpt lat="44.32697" lon="6.2994">
        <ele>1723.2</ele>
        <time>2024-02-25T10:34:24Z</time>
      </trkpt>
      <trkpt lat="44.32697" lon="6.29938">
        <ele>1723.2</ele>
        <time>2024-02-25T10:34:25Z</time>
      </trkpt>
      <trkpt lat="44.32696" lon="6.29932">
        <ele>1723.2</ele>
        <time>2024-02-25T10:34:28Z</time>
      </trkpt>
      <trkpt lat="44.32693" lon="6.29927">
        <ele>1723.6</ele>
        <time>2024-02-25T10:34:32Z</time>
      </trkpt>
      <trkpt lat="44.32688" lon="6.29926">
        <ele>1724</ele>
        <time>2024-02-25T10:34:38Z</time>
      </trkpt>
      <trkpt lat="44.32684" lon="6.29927">
        <ele>1724.4</ele>
        <time>2024-02-25T10:34:42Z</time>
      </trkpt>
      <trkpt lat="44.32679" lon="6.29927">
        <ele>1724.8</ele>
        <time>2024-02-25T10:34:48Z</time>
      </trkpt>
      <trkpt lat="44.32675" lon="6.29929">
        <ele>1725.4</ele>
        <time>2024-02-25T10:34:53Z</time>
      </trkpt>
      <trkpt lat="44.32671" lon="6.29932">
        <ele>1726</ele>
        <time>2024-02-25T10:34:58Z</time>
      </trkpt>
      <trkpt lat="44.32666" lon="6.29938">
        <ele>1726.4</ele>
        <time>2024-02-25T10:35:05Z</time>
      </trkpt>
      <trkpt lat="44.32664" lon="6.2994">
        <ele>1726.8</ele>
        <time>2024-02-25T10:35:08Z</time>
      </trkpt>
      <trkpt lat="44.32663" lon="6.29941">
        <ele>1727</ele>
        <time>2024-02-25T10:35:09Z</time>
      </trkpt>
      <trkpt lat="44.3266" lon="6.29943">
        <ele>1727.4</ele>
        <time>2024-02-25T10:35:12Z</time>
      </trkpt>
      <trkpt lat="44.32658" lon="6.29945">
        <ele>1727.6</ele>
        <time>2024-02-25T10:35:14Z</time>
      </trkpt>
      <trkpt lat="44.32656" lon="6.29946">
        <ele>1727.8</ele>
        <time>2024-02-25T10:35:17Z</time>
      </trkpt>
      <trkpt lat="44.32655" lon="6.29947">
        <ele>1727.8</ele>
        <time>2024-02-25T10:35:18Z</time>
      </trkpt>
      <trkpt lat="44.32654" lon="6.29948">
        <ele>1728</ele>
        <time>2024-02-25T10:35:19Z</time>
      </trkpt>
      <trkpt lat="44.32652" lon="6.29951">
        <ele>1728.6</ele>
        <time>2024-02-25T10:35:23Z</time>
      </trkpt>
      <trkpt lat="44.32648" lon="6.29953">
        <ele>1729.2</ele>
        <time>2024-02-25T10:35:28Z</time>
      </trkpt>
      <trkpt lat="44.32645" lon="6.29953">
        <ele>1729.8</ele>
        <time>2024-02-25T10:35:31Z</time>
      </trkpt>
      <trkpt lat="44.32643" lon="6.29955">
        <ele>1730.4</ele>
        <time>2024-02-25T10:35:35Z</time>
      </trkpt>
      <trkpt lat="44.32641" lon="6.29957">
        <ele>1730.8</ele>
        <time>2024-02-25T10:35:38Z</time>
      </trkpt>
      <trkpt lat="44.32641" lon="6.29957">
        <ele>1731</ele>
        <time>2024-02-25T10:35:39Z</time>
      </trkpt>
      <trkpt lat="44.3264" lon="6.29958">
        <ele>1731</ele>
        <time>2024-02-25T10:35:40Z</time>
      </trkpt>
      <trkpt lat="44.32636" lon="6.29962">
        <ele>1732</ele>
        <time>2024-02-25T10:35:47Z</time>
      </trkpt>
      <trkpt lat="44.32635" lon="6.29963">
        <ele>1732.2</ele>
        <time>2024-02-25T10:35:48Z</time>
      </trkpt>
      <trkpt lat="44.32634" lon="6.29966">
        <ele>1732.6</ele>
        <time>2024-02-25T10:35:50Z</time>
      </trkpt>
      <trkpt lat="44.32632" lon="6.29967">
        <ele>1733</ele>
        <time>2024-02-25T10:35:52Z</time>
      </trkpt>
      <trkpt lat="44.32631" lon="6.29969">
        <ele>1733.2</ele>
        <time>2024-02-25T10:35:54Z</time>
      </trkpt>
      <trkpt lat="44.32629" lon="6.29972">
        <ele>1733.8</ele>
        <time>2024-02-25T10:35:57Z</time>
      </trkpt>
      <trkpt lat="44.32629" lon="6.29974">
        <ele>1734</ele>
        <time>2024-02-25T10:35:58Z</time>
      </trkpt>
      <trkpt lat="44.32628" lon="6.29975">
        <ele>1734</ele>
        <time>2024-02-25T10:35:59Z</time>
      </trkpt>
      <trkpt lat="44.32627" lon="6.29977">
        <ele>1734.2</ele>
        <time>2024-02-25T10:36:01Z</time>
      </trkpt>
      <trkpt lat="44.32625" lon="6.29979">
        <ele>1734.6</ele>
        <time>2024-02-25T10:36:03Z</time>
      </trkpt>
      <trkpt lat="44.32624" lon="6.2998">
        <ele>1734.8</ele>
        <time>2024-02-25T10:36:05Z</time>
      </trkpt>
      <trkpt lat="44.32623" lon="6.29982">
        <ele>1735.2</ele>
        <time>2024-02-25T10:36:07Z</time>
      </trkpt>
      <trkpt lat="44.32622" lon="6.29984">
        <ele>1735.4</ele>
        <time>2024-02-25T10:36:08Z</time>
      </trkpt>
      <trkpt lat="44.32622" lon="6.29985">
        <ele>1735.6</ele>
        <time>2024-02-25T10:36:09Z</time>
      </trkpt>
      <trkpt lat="44.3262" lon="6.29986">
        <ele>1735.6</ele>
        <time>2024-02-25T10:36:11Z</time>
      </trkpt>
      <trkpt lat="44.32615" lon="6.29991">
        <ele>1736.4</ele>
        <time>2024-02-25T10:36:18Z</time>
      </trkpt>
      <trkpt lat="44.32615" lon="6.29991">
        <ele>1736.4</ele>
        <time>2024-02-25T10:36:19Z</time>
      </trkpt>
      <trkpt lat="44.32615" lon="6.29992">
        <ele>1736.6</ele>
        <time>2024-02-25T10:36:20Z</time>
      </trkpt>
      <trkpt lat="44.32612" lon="6.29994">
        <ele>1737</ele>
        <time>2024-02-25T10:36:24Z</time>
      </trkpt>
      <trkpt lat="44.32611" lon="6.29995">
        <ele>1737.2</ele>
        <time>2024-02-25T10:36:26Z</time>
      </trkpt>
      <trkpt lat="44.32609" lon="6.29995">
        <ele>1737.4</ele>
        <time>2024-02-25T10:36:28Z</time>
      </trkpt>
      <trkpt lat="44.32608" lon="6.29994">
        <ele>1737.4</ele>
        <time>2024-02-25T10:36:29Z</time>
      </trkpt>
      <trkpt lat="44.32607" lon="6.29994">
        <ele>1737.6</ele>
        <time>2024-02-25T10:36:30Z</time>
      </trkpt>
      <trkpt lat="44.32601" lon="6.29995">
        <ele>1738.4</ele>
        <time>2024-02-25T10:36:37Z</time>
      </trkpt>
      <trkpt lat="44.32601" lon="6.29996">
        <ele>1738.6</ele>
        <time>2024-02-25T10:36:38Z</time>
      </trkpt>
      <trkpt lat="44.32599" lon="6.29997">
        <ele>1738.6</ele>
        <time>2024-02-25T10:36:40Z</time>
      </trkpt>
      <trkpt lat="44.32593" lon="6.30001">
        <ele>1739.6</ele>
        <time>2024-02-25T10:36:48Z</time>
      </trkpt>
      <trkpt lat="44.32584" lon="6.30004">
        <ele>1740.4</ele>
        <time>2024-02-25T10:36:58Z</time>
      </trkpt>
      <trkpt lat="44.32584" lon="6.30005">
        <ele>1740.6</ele>
        <time>2024-02-25T10:36:59Z</time>
      </trkpt>
      <trkpt lat="44.32579" lon="6.30006">
        <ele>1741.8</ele>
        <time>2024-02-25T10:37:05Z</time>
      </trkpt>
      <trkpt lat="44.32577" lon="6.30007">
        <ele>1741.8</ele>
        <time>2024-02-25T10:37:08Z</time>
      </trkpt>
      <trkpt lat="44.32571" lon="6.3001">
        <ele>1742.8</ele>
        <time>2024-02-25T10:37:16Z</time>
      </trkpt>
      <trkpt lat="44.32569" lon="6.3001">
        <ele>1743</ele>
        <time>2024-02-25T10:37:18Z</time>
      </trkpt>
      <trkpt lat="44.32568" lon="6.30012">
        <ele>1743.4</ele>
        <time>2024-02-25T10:37:20Z</time>
      </trkpt>
      <trkpt lat="44.32566" lon="6.30013">
        <ele>1743.8</ele>
        <time>2024-02-25T10:37:23Z</time>
      </trkpt>
      <trkpt lat="44.32565" lon="6.30014">
        <ele>1743.8</ele>
        <time>2024-02-25T10:37:24Z</time>
      </trkpt>
      <trkpt lat="44.32563" lon="6.30015">
        <ele>1744.2</ele>
        <time>2024-02-25T10:37:27Z</time>
      </trkpt>
      <trkpt lat="44.32562" lon="6.30015">
        <ele>1744.2</ele>
        <time>2024-02-25T10:37:28Z</time>
      </trkpt>
      <trkpt lat="44.32558" lon="6.30019">
        <ele>1744.8</ele>
        <time>2024-02-25T10:37:33Z</time>
      </trkpt>
      <trkpt lat="44.32558" lon="6.3002">
        <ele>1745</ele>
        <time>2024-02-25T10:37:34Z</time>
      </trkpt>
      <trkpt lat="44.32557" lon="6.30022">
        <ele>1745.2</ele>
        <time>2024-02-25T10:37:36Z</time>
      </trkpt>
      <trkpt lat="44.32556" lon="6.30023">
        <ele>1745.6</ele>
        <time>2024-02-25T10:37:38Z</time>
      </trkpt>
      <trkpt lat="44.32554" lon="6.30024">
        <ele>1746</ele>
        <time>2024-02-25T10:37:40Z</time>
      </trkpt>
      <trkpt lat="44.32549" lon="6.30031">
        <ele>1746.6</ele>
        <time>2024-02-25T10:37:48Z</time>
      </trkpt>
      <trkpt lat="44.32547" lon="6.30032">
        <ele>1747</ele>
        <time>2024-02-25T10:37:50Z</time>
      </trkpt>
      <trkpt lat="44.32543" lon="6.30036">
        <ele>1747.8</ele>
        <time>2024-02-25T10:37:56Z</time>
      </trkpt>
      <trkpt lat="44.32541" lon="6.30038">
        <ele>1747.8</ele>
        <time>2024-02-25T10:37:58Z</time>
      </trkpt>
      <trkpt lat="44.3254" lon="6.3004">
        <ele>1748</ele>
        <time>2024-02-25T10:38:00Z</time>
      </trkpt>
      <trkpt lat="44.32535" lon="6.30045">
        <ele>1749</ele>
        <time>2024-02-25T10:38:07Z</time>
      </trkpt>
      <trkpt lat="44.32534" lon="6.30046">
        <ele>1749.2</ele>
        <time>2024-02-25T10:38:08Z</time>
      </trkpt>
      <trkpt lat="44.32532" lon="6.30048">
        <ele>1749.8</ele>
        <time>2024-02-25T10:38:11Z</time>
      </trkpt>
      <trkpt lat="44.32529" lon="6.3005">
        <ele>1750.2</ele>
        <time>2024-02-25T10:38:14Z</time>
      </trkpt>
      <trkpt lat="44.32527" lon="6.30053">
        <ele>1750.6</ele>
        <time>2024-02-25T10:38:17Z</time>
      </trkpt>
      <trkpt lat="44.32526" lon="6.30054">
        <ele>1751.2</ele>
        <time>2024-02-25T10:38:19Z</time>
      </trkpt>
      <trkpt lat="44.32525" lon="6.30055">
        <ele>1751.4</ele>
        <time>2024-02-25T10:38:20Z</time>
      </trkpt>
      <trkpt lat="44.32518" lon="6.30058">
        <ele>1752.4</ele>
        <time>2024-02-25T10:38:28Z</time>
      </trkpt>
      <trkpt lat="44.32517" lon="6.30059">
        <ele>1752.6</ele>
        <time>2024-02-25T10:38:29Z</time>
      </trkpt>
      <trkpt lat="44.32514" lon="6.30062">
        <ele>1753.6</ele>
        <time>2024-02-25T10:38:34Z</time>
      </trkpt>
      <trkpt lat="44.32512" lon="6.30064">
        <ele>1753.8</ele>
        <time>2024-02-25T10:38:36Z</time>
      </trkpt>
      <trkpt lat="44.32511" lon="6.30066">
        <ele>1754</ele>
        <time>2024-02-25T10:38:38Z</time>
      </trkpt>
      <trkpt lat="44.3251" lon="6.30067">
        <ele>1754.4</ele>
        <time>2024-02-25T10:38:40Z</time>
      </trkpt>
      <trkpt lat="44.32509" lon="6.30068">
        <ele>1754.8</ele>
        <time>2024-02-25T10:38:41Z</time>
      </trkpt>
      <trkpt lat="44.32508" lon="6.30069">
        <ele>1755</ele>
        <time>2024-02-25T10:38:42Z</time>
      </trkpt>
      <trkpt lat="44.32508" lon="6.3007">
        <ele>1755.2</ele>
        <time>2024-02-25T10:38:43Z</time>
      </trkpt>
      <trkpt lat="44.32506" lon="6.30072">
        <ele>1755.4</ele>
        <time>2024-02-25T10:38:46Z</time>
      </trkpt>
      <trkpt lat="44.32504" lon="6.30074">
        <ele>1755.6</ele>
        <time>2024-02-25T10:38:48Z</time>
      </trkpt>
      <trkpt lat="44.32503" lon="6.30075">
        <ele>1755.8</ele>
        <time>2024-02-25T10:38:50Z</time>
      </trkpt>
      <trkpt lat="44.32501" lon="6.30077">
        <ele>1756.2</ele>
        <time>2024-02-25T10:38:53Z</time>
      </trkpt>
      <trkpt lat="44.32499" lon="6.30079">
        <ele>1756.8</ele>
        <time>2024-02-25T10:38:57Z</time>
      </trkpt>
      <trkpt lat="44.32499" lon="6.3008">
        <ele>1757</ele>
        <time>2024-02-25T10:38:58Z</time>
      </trkpt>
      <trkpt lat="44.32498" lon="6.30082">
        <ele>1757.4</ele>
        <time>2024-02-25T10:39:00Z</time>
      </trkpt>
      <trkpt lat="44.32495" lon="6.30086">
        <ele>1758</ele>
        <time>2024-02-25T10:39:04Z</time>
      </trkpt>
      <trkpt lat="44.32493" lon="6.30088">
        <ele>1758.6</ele>
        <time>2024-02-25T10:39:08Z</time>
      </trkpt>
      <trkpt lat="44.32492" lon="6.3009">
        <ele>1759</ele>
        <time>2024-02-25T10:39:10Z</time>
      </trkpt>
      <trkpt lat="44.32488" lon="6.30092">
        <ele>1760</ele>
        <time>2024-02-25T10:39:15Z</time>
      </trkpt>
      <trkpt lat="44.32488" lon="6.30092">
        <ele>1760</ele>
        <time>2024-02-25T10:39:16Z</time>
      </trkpt>
      <trkpt lat="44.32486" lon="6.30094">
        <ele>1760.2</ele>
        <time>2024-02-25T10:39:18Z</time>
      </trkpt>
      <trkpt lat="44.32485" lon="6.30096">
        <ele>1760.6</ele>
        <time>2024-02-25T10:39:21Z</time>
      </trkpt>
      <trkpt lat="44.32483" lon="6.30098">
        <ele>1761</ele>
        <time>2024-02-25T10:39:24Z</time>
      </trkpt>
      <trkpt lat="44.3248" lon="6.30101">
        <ele>1761.8</ele>
        <time>2024-02-25T10:39:28Z</time>
      </trkpt>
      <trkpt lat="44.32479" lon="6.30103">
        <ele>1762.2</ele>
        <time>2024-02-25T10:39:30Z</time>
      </trkpt>
      <trkpt lat="44.32476" lon="6.30106">
        <ele>1763</ele>
        <time>2024-02-25T10:39:34Z</time>
      </trkpt>
      <trkpt lat="44.32475" lon="6.30106">
        <ele>1763.2</ele>
        <time>2024-02-25T10:39:35Z</time>
      </trkpt>
      <trkpt lat="44.32473" lon="6.30108">
        <ele>1763.6</ele>
        <time>2024-02-25T10:39:38Z</time>
      </trkpt>
      <trkpt lat="44.32472" lon="6.3011">
        <ele>1763.6</ele>
        <time>2024-02-25T10:39:40Z</time>
      </trkpt>
      <trkpt lat="44.32466" lon="6.30115">
        <ele>1764.4</ele>
        <time>2024-02-25T10:39:47Z</time>
      </trkpt>
      <trkpt lat="44.32466" lon="6.30116">
        <ele>1764.4</ele>
        <time>2024-02-25T10:39:48Z</time>
      </trkpt>
      <trkpt lat="44.32459" lon="6.30123">
        <ele>1765.4</ele>
        <time>2024-02-25T10:39:57Z</time>
      </trkpt>
      <trkpt lat="44.32459" lon="6.30123">
        <ele>1765.4</ele>
        <time>2024-02-25T10:39:58Z</time>
      </trkpt>
      <trkpt lat="44.32454" lon="6.30129">
        <ele>1766.2</ele>
        <time>2024-02-25T10:40:05Z</time>
      </trkpt>
      <trkpt lat="44.32453" lon="6.3013">
        <ele>1766.4</ele>
        <time>2024-02-25T10:40:06Z</time>
      </trkpt>
      <trkpt lat="44.32452" lon="6.30132">
        <ele>1766.8</ele>
        <time>2024-02-25T10:40:08Z</time>
      </trkpt>
      <trkpt lat="44.3245" lon="6.30134">
        <ele>1767.2</ele>
        <time>2024-02-25T10:40:11Z</time>
      </trkpt>
      <trkpt lat="44.32448" lon="6.30135">
        <ele>1767.2</ele>
        <time>2024-02-25T10:40:13Z</time>
      </trkpt>
      <trkpt lat="44.32448" lon="6.30138">
        <ele>1767.4</ele>
        <time>2024-02-25T10:40:15Z</time>
      </trkpt>
      <trkpt lat="44.32447" lon="6.3014">
        <ele>1767.6</ele>
        <time>2024-02-25T10:40:16Z</time>
      </trkpt>
      <trkpt lat="44.32446" lon="6.30141">
        <ele>1767.8</ele>
        <time>2024-02-25T10:40:18Z</time>
      </trkpt>
      <trkpt lat="44.32437" lon="6.30146">
        <ele>1768.4</ele>
        <time>2024-02-25T10:40:28Z</time>
      </trkpt>
      <trkpt lat="44.32434" lon="6.30147">
        <ele>1768.6</ele>
        <time>2024-02-25T10:40:31Z</time>
      </trkpt>
      <trkpt lat="44.32433" lon="6.30147">
        <ele>1768.8</ele>
        <time>2024-02-25T10:40:33Z</time>
      </trkpt>
      <trkpt lat="44.32431" lon="6.30147">
        <ele>1769</ele>
        <time>2024-02-25T10:40:35Z</time>
      </trkpt>
      <trkpt lat="44.32429" lon="6.30148">
        <ele>1769.2</ele>
        <time>2024-02-25T10:40:38Z</time>
      </trkpt>
      <trkpt lat="44.32426" lon="6.30148">
        <ele>1769</ele>
        <time>2024-02-25T10:40:41Z</time>
      </trkpt>
      <trkpt lat="44.32424" lon="6.30146">
        <ele>1768.2</ele>
        <time>2024-02-25T10:40:48Z</time>
      </trkpt>
      <trkpt lat="44.32422" lon="6.30148">
        <ele>1768</ele>
        <time>2024-02-25T10:40:58Z</time>
      </trkpt>
      <trkpt lat="44.32422" lon="6.30148">
        <ele>1768.4</ele>
        <time>2024-02-25T10:41:08Z</time>
      </trkpt>
      <trkpt lat="44.32421" lon="6.30142">
        <ele>1768.6</ele>
        <time>2024-02-25T10:41:16Z</time>
      </trkpt>
      <trkpt lat="44.32421" lon="6.30139">
        <ele>1769</ele>
        <time>2024-02-25T10:41:19Z</time>
      </trkpt>
      <trkpt lat="44.32421" lon="6.30133">
        <ele>1769.6</ele>
        <time>2024-02-25T10:41:26Z</time>
      </trkpt>
      <trkpt lat="44.32421" lon="6.30132">
        <ele>1769.6</ele>
        <time>2024-02-25T10:41:27Z</time>
      </trkpt>
      <trkpt lat="44.3242" lon="6.30131">
        <ele>1769.8</ele>
        <time>2024-02-25T10:41:28Z</time>
      </trkpt>
      <trkpt lat="44.3242" lon="6.3013">
        <ele>1769.6</ele>
        <time>2024-02-25T10:41:29Z</time>
      </trkpt>
      <trkpt lat="44.3242" lon="6.30129">
        <ele>1769.6</ele>
        <time>2024-02-25T10:41:30Z</time>
      </trkpt>
      <trkpt lat="44.3242" lon="6.30128">
        <ele>1769.4</ele>
        <time>2024-02-25T10:41:32Z</time>
      </trkpt>
      <trkpt lat="44.3242" lon="6.30127">
        <ele>1769.2</ele>
        <time>2024-02-25T10:41:33Z</time>
      </trkpt>
      <trkpt lat="44.32421" lon="6.30123">
        <ele>1769.2</ele>
        <time>2024-02-25T10:41:36Z</time>
      </trkpt>
      <trkpt lat="44.32421" lon="6.30121">
        <ele>1769.2</ele>
        <time>2024-02-25T10:41:38Z</time>
      </trkpt>
      <trkpt lat="44.32421" lon="6.30119">
        <ele>1769.2</ele>
        <time>2024-02-25T10:41:39Z</time>
      </trkpt>
      <trkpt lat="44.32423" lon="6.30114">
        <ele>1769.8</ele>
        <time>2024-02-25T10:41:49Z</time>
      </trkpt>
      <trkpt lat="44.32422" lon="6.30114">
        <ele>1768.6</ele>
        <time>2024-02-25T10:41:57Z</time>
      </trkpt>
      <trkpt lat="44.32422" lon="6.30114">
        <ele>1768.4</ele>
        <time>2024-02-25T10:41:59Z</time>
      </trkpt>
      <trkpt lat="44.32422" lon="6.30114">
        <ele>1767.6</ele>
        <time>2024-02-25T10:42:04Z</time>
      </trkpt>
      <trkpt lat="44.32422" lon="6.30114">
        <ele>1767</ele>
        <time>2024-02-25T10:42:09Z</time>
      </trkpt>
      <trkpt lat="44.32422" lon="6.30114">
        <ele>1766.8</ele>
        <time>2024-02-25T10:42:11Z</time>
      </trkpt>
      <trkpt lat="44.32422" lon="6.30114">
        <ele>1766.6</ele>
        <time>2024-02-25T10:42:12Z</time>
      </trkpt>
      <trkpt lat="44.32422" lon="6.30114">
        <ele>1766.6</ele>
        <time>2024-02-25T10:42:13Z</time>
      </trkpt>
      <trkpt lat="44.32422" lon="6.30114">
        <ele>1766.6</ele>
        <time>2024-02-25T10:42:14Z</time>
      </trkpt>
      <trkpt lat="44.32422" lon="6.30114">
        <ele>1766.6</ele>
        <time>2024-02-25T10:42:19Z</time>
      </trkpt>
      <trkpt lat="44.32423" lon="6.30115">
        <ele>1766.4</ele>
        <time>2024-02-25T10:42:24Z</time>
      </trkpt>
      <trkpt lat="44.32423" lon="6.30114">
        <ele>1765.2</ele>
        <time>2024-02-25T10:42:29Z</time>
      </trkpt>
      <trkpt lat="44.32423" lon="6.30114">
        <ele>1764.4</ele>
        <time>2024-02-25T10:42:39Z</time>
      </trkpt>
      <trkpt lat="44.32423" lon="6.30114">
        <ele>1764.2</ele>
        <time>2024-02-25T10:42:48Z</time>
      </trkpt>
      <trkpt lat="44.32423" lon="6.30114">
        <ele>1764</ele>
        <time>2024-02-25T10:42:49Z</time>
      </trkpt>
      <trkpt lat="44.32423" lon="6.30114">
        <ele>1763.6</ele>
        <time>2024-02-25T10:42:52Z</time>
      </trkpt>
      <trkpt lat="44.32423" lon="6.30114">
        <ele>1763.6</ele>
        <time>2024-02-25T10:42:53Z</time>
      </trkpt>
      <trkpt lat="44.32423" lon="6.30114">
        <ele>1763.4</ele>
        <time>2024-02-25T10:42:54Z</time>
      </trkpt>
      <trkpt lat="44.32423" lon="6.30114">
        <ele>1763.4</ele>
        <time>2024-02-25T10:42:56Z</time>
      </trkpt>
      <trkpt lat="44.32423" lon="6.30114">
        <ele>1763.4</ele>
        <time>2024-02-25T10:42:59Z</time>
      </trkpt>
      <trkpt lat="44.32423" lon="6.30114">
        <ele>1763</ele>
        <time>2024-02-25T10:43:01Z</time>
      </trkpt>
      <trkpt lat="44.32423" lon="6.30115">
        <ele>1762.6</ele>
        <time>2024-02-25T10:43:09Z</time>
      </trkpt>
      <trkpt lat="44.32423" lon="6.30115">
        <ele>1762.4</ele>
        <time>2024-02-25T10:43:18Z</time>
      </trkpt>
      <trkpt lat="44.32423" lon="6.30115">
        <ele>1762.4</ele>
        <time>2024-02-25T10:43:19Z</time>
      </trkpt>
      <trkpt lat="44.32423" lon="6.30114">
        <ele>1762</ele>
        <time>2024-02-25T10:43:24Z</time>
      </trkpt>
      <trkpt lat="44.32423" lon="6.30116">
        <ele>1761.4</ele>
        <time>2024-02-25T10:43:29Z</time>
      </trkpt>
      <trkpt lat="44.32423" lon="6.30119">
        <ele>1761</ele>
        <time>2024-02-25T10:43:33Z</time>
      </trkpt>
      <trkpt lat="44.32423" lon="6.30125">
        <ele>1760.4</ele>
        <time>2024-02-25T10:43:39Z</time>
      </trkpt>
      <trkpt lat="44.32423" lon="6.30128">
        <ele>1760</ele>
        <time>2024-02-25T10:43:42Z</time>
      </trkpt>
      <trkpt lat="44.32423" lon="6.30132">
        <ele>1759.8</ele>
        <time>2024-02-25T10:43:45Z</time>
      </trkpt>
      <trkpt lat="44.32423" lon="6.30136">
        <ele>1759.2</ele>
        <time>2024-02-25T10:43:49Z</time>
      </trkpt>
      <trkpt lat="44.32422" lon="6.30139">
        <ele>1758.8</ele>
        <time>2024-02-25T10:43:51Z</time>
      </trkpt>
      <trkpt lat="44.32423" lon="6.30143">
        <ele>1758.2</ele>
        <time>2024-02-25T10:43:55Z</time>
      </trkpt>
      <trkpt lat="44.32423" lon="6.30144">
        <ele>1758</ele>
        <time>2024-02-25T10:43:56Z</time>
      </trkpt>
      <trkpt lat="44.32423" lon="6.30145">
        <ele>1757.8</ele>
        <time>2024-02-25T10:43:57Z</time>
      </trkpt>
      <trkpt lat="44.32424" lon="6.30146">
        <ele>1757.6</ele>
        <time>2024-02-25T10:43:58Z</time>
      </trkpt>
      <trkpt lat="44.32424" lon="6.30147">
        <ele>1757.4</ele>
        <time>2024-02-25T10:43:59Z</time>
      </trkpt>
      <trkpt lat="44.32424" lon="6.30149">
        <ele>1757</ele>
        <time>2024-02-25T10:44:01Z</time>
      </trkpt>
      <trkpt lat="44.32424" lon="6.3015">
        <ele>1757</ele>
        <time>2024-02-25T10:44:09Z</time>
      </trkpt>
      <trkpt lat="44.32424" lon="6.3015">
        <ele>1756.6</ele>
        <time>2024-02-25T10:44:15Z</time>
      </trkpt>
      <trkpt lat="44.32424" lon="6.3015">
        <ele>1756.6</ele>
        <time>2024-02-25T10:44:17Z</time>
      </trkpt>
      <trkpt lat="44.32424" lon="6.3015">
        <ele>1756.6</ele>
        <time>2024-02-25T10:44:19Z</time>
      </trkpt>
      <trkpt lat="44.32424" lon="6.3015">
        <ele>1756.6</ele>
        <time>2024-02-25T10:44:21Z</time>
      </trkpt>
      <trkpt lat="44.32424" lon="6.3015">
        <ele>1756.6</ele>
        <time>2024-02-25T10:44:22Z</time>
      </trkpt>
      <trkpt lat="44.32424" lon="6.3015">
        <ele>1756.6</ele>
        <time>2024-02-25T10:44:23Z</time>
      </trkpt>
      <trkpt lat="44.32424" lon="6.3015">
        <ele>1756.6</ele>
        <time>2024-02-25T10:44:24Z</time>
      </trkpt>
      <trkpt lat="44.32424" lon="6.3015">
        <ele>1756.6</ele>
        <time>2024-02-25T10:44:25Z</time>
      </trkpt>
      <trkpt lat="44.32424" lon="6.3015">
        <ele>1756.4</ele>
        <time>2024-02-25T10:44:29Z</time>
      </trkpt>
      <trkpt lat="44.32424" lon="6.3015">
        <ele>1756.2</ele>
        <time>2024-02-25T10:44:34Z</time>
      </trkpt>
      <trkpt lat="44.32421" lon="6.30151">
        <ele>1756</ele>
        <time>2024-02-25T10:44:39Z</time>
      </trkpt>
      <trkpt lat="44.3242" lon="6.30152">
        <ele>1755.8</ele>
        <time>2024-02-25T10:44:49Z</time>
      </trkpt>
      <trkpt lat="44.32421" lon="6.30152">
        <ele>1755.4</ele>
        <time>2024-02-25T10:44:51Z</time>
      </trkpt>
      <trkpt lat="44.32426" lon="6.30152">
        <ele>1755.4</ele>
        <time>2024-02-25T10:44:57Z</time>
      </trkpt>
      <trkpt lat="44.32428" lon="6.30152">
        <ele>1755.6</ele>
        <time>2024-02-25T10:44:59Z</time>
      </trkpt>
      <trkpt lat="44.3243" lon="6.30151">
        <ele>1755.6</ele>
        <time>2024-02-25T10:45:02Z</time>
      </trkpt>
      <trkpt lat="44.32431" lon="6.3015">
        <ele>1755.8</ele>
        <time>2024-02-25T10:45:08Z</time>
      </trkpt>
      <trkpt lat="44.32431" lon="6.3015">
        <ele>1755.8</ele>
        <time>2024-02-25T10:45:09Z</time>
      </trkpt>
      <trkpt lat="44.32431" lon="6.3015">
        <ele>1756</ele>
        <time>2024-02-25T10:45:12Z</time>
      </trkpt>
      <trkpt lat="44.32431" lon="6.3015">
        <ele>1756</ele>
        <time>2024-02-25T10:45:13Z</time>
      </trkpt>
      <trkpt lat="44.32434" lon="6.30148">
        <ele>1756</ele>
        <time>2024-02-25T10:45:19Z</time>
      </trkpt>
      <trkpt lat="44.32439" lon="6.30148">
        <ele>1755.4</ele>
        <time>2024-02-25T10:45:25Z</time>
      </trkpt>
      <trkpt lat="44.32439" lon="6.30148">
        <ele>1755.4</ele>
        <time>2024-02-25T10:45:26Z</time>
      </trkpt>
      <trkpt lat="44.32439" lon="6.30148">
        <ele>1755.4</ele>
        <time>2024-02-25T10:45:27Z</time>
      </trkpt>
      <trkpt lat="44.32439" lon="6.30148">
        <ele>1755.4</ele>
        <time>2024-02-25T10:45:29Z</time>
      </trkpt>
      <trkpt lat="44.32439" lon="6.30148">
        <ele>1755.4</ele>
        <time>2024-02-25T10:45:36Z</time>
      </trkpt>
      <trkpt lat="44.32439" lon="6.30148">
        <ele>1755.4</ele>
        <time>2024-02-25T10:45:39Z</time>
      </trkpt>
      <trkpt lat="44.3244" lon="6.30146">
        <ele>1755.4</ele>
        <time>2024-02-25T10:45:42Z</time>
      </trkpt>
      <trkpt lat="44.32442" lon="6.30144">
        <ele>1755.6</ele>
        <time>2024-02-25T10:45:45Z</time>
      </trkpt>
      <trkpt lat="44.32445" lon="6.30141">
        <ele>1755.4</ele>
        <time>2024-02-25T10:45:49Z</time>
      </trkpt>
      <trkpt lat="44.32447" lon="6.30139">
        <ele>1755</ele>
        <time>2024-02-25T10:45:51Z</time>
      </trkpt>
      <trkpt lat="44.32452" lon="6.30133">
        <ele>1754.4</ele>
        <time>2024-02-25T10:45:57Z</time>
      </trkpt>
      <trkpt lat="44.32453" lon="6.30132">
        <ele>1754.4</ele>
        <time>2024-02-25T10:45:59Z</time>
      </trkpt>
      <trkpt lat="44.32459" lon="6.30126">
        <ele>1754.2</ele>
        <time>2024-02-25T10:46:06Z</time>
      </trkpt>
      <trkpt lat="44.32461" lon="6.30124">
        <ele>1753.8</ele>
        <time>2024-02-25T10:46:09Z</time>
      </trkpt>
      <trkpt lat="44.32463" lon="6.30123">
        <ele>1753.6</ele>
        <time>2024-02-25T10:46:11Z</time>
      </trkpt>
      <trkpt lat="44.32464" lon="6.30121">
        <ele>1753.2</ele>
        <time>2024-02-25T10:46:13Z</time>
      </trkpt>
      <trkpt lat="44.32469" lon="6.30115">
        <ele>1752.8</ele>
        <time>2024-02-25T10:46:20Z</time>
      </trkpt>
      <trkpt lat="44.32477" lon="6.30108">
        <ele>1752.6</ele>
        <time>2024-02-25T10:46:30Z</time>
      </trkpt>
      <trkpt lat="44.3248" lon="6.30105">
        <ele>1752.2</ele>
        <time>2024-02-25T10:46:34Z</time>
      </trkpt>
      <trkpt lat="44.32481" lon="6.30103">
        <ele>1752</ele>
        <time>2024-02-25T10:46:37Z</time>
      </trkpt>
      <trkpt lat="44.32481" lon="6.30103">
        <ele>1751.8</ele>
        <time>2024-02-25T10:46:40Z</time>
      </trkpt>
      <trkpt lat="44.32481" lon="6.30102">
        <ele>1751.2</ele>
        <time>2024-02-25T10:46:48Z</time>
      </trkpt>
      <trkpt lat="44.32481" lon="6.30102">
        <ele>1751.4</ele>
        <time>2024-02-25T10:46:50Z</time>
      </trkpt>
      <trkpt lat="44.32484" lon="6.30098">
        <ele>1751.6</ele>
        <time>2024-02-25T10:47:00Z</time>
      </trkpt>
      <trkpt lat="44.32485" lon="6.30097">
        <ele>1751</ele>
        <time>2024-02-25T10:47:10Z</time>
      </trkpt>
      <trkpt lat="44.32485" lon="6.30097">
        <ele>1751</ele>
        <time>2024-02-25T10:47:14Z</time>
      </trkpt>
      <trkpt lat="44.32488" lon="6.30095">
        <ele>1751</ele>
        <time>2024-02-25T10:47:18Z</time>
      </trkpt>
      <trkpt lat="44.32489" lon="6.30094">
        <ele>1750.8</ele>
        <time>2024-02-25T10:47:20Z</time>
      </trkpt>
      <trkpt lat="44.32491" lon="6.30093">
        <ele>1750.4</ele>
        <time>2024-02-25T10:47:22Z</time>
      </trkpt>
      <trkpt lat="44.32492" lon="6.30091">
        <ele>1750</ele>
        <time>2024-02-25T10:47:24Z</time>
      </trkpt>
      <trkpt lat="44.32494" lon="6.30088">
        <ele>1749.4</ele>
        <time>2024-02-25T10:47:27Z</time>
      </trkpt>
      <trkpt lat="44.32496" lon="6.30086">
        <ele>1749</ele>
        <time>2024-02-25T10:47:30Z</time>
      </trkpt>
      <trkpt lat="44.32497" lon="6.30085">
        <ele>1749</ele>
        <time>2024-02-25T10:47:31Z</time>
      </trkpt>
      <trkpt lat="44.32498" lon="6.30084">
        <ele>1748.8</ele>
        <time>2024-02-25T10:47:32Z</time>
      </trkpt>
      <trkpt lat="44.32502" lon="6.30079">
        <ele>1747.8</ele>
        <time>2024-02-25T10:47:38Z</time>
      </trkpt>
      <trkpt lat="44.32502" lon="6.30078">
        <ele>1747.6</ele>
        <time>2024-02-25T10:47:39Z</time>
      </trkpt>
      <trkpt lat="44.32503" lon="6.30078">
        <ele>1747.4</ele>
        <time>2024-02-25T10:47:40Z</time>
      </trkpt>
      <trkpt lat="44.32504" lon="6.30077">
        <ele>1747.4</ele>
        <time>2024-02-25T10:47:41Z</time>
      </trkpt>
      <trkpt lat="44.32509" lon="6.3007">
        <ele>1746.6</ele>
        <time>2024-02-25T10:47:48Z</time>
      </trkpt>
      <trkpt lat="44.3251" lon="6.30068">
        <ele>1746.2</ele>
        <time>2024-02-25T10:47:50Z</time>
      </trkpt>
      <trkpt lat="44.32512" lon="6.30066">
        <ele>1746</ele>
        <time>2024-02-25T10:47:52Z</time>
      </trkpt>
      <trkpt lat="44.32517" lon="6.30061">
        <ele>1745.6</ele>
        <time>2024-02-25T10:47:58Z</time>
      </trkpt>
      <trkpt lat="44.3252" lon="6.30061">
        <ele>1745.4</ele>
        <time>2024-02-25T10:48:00Z</time>
      </trkpt>
      <trkpt lat="44.32521" lon="6.3006">
        <ele>1744.8</ele>
        <time>2024-02-25T10:48:02Z</time>
      </trkpt>
      <trkpt lat="44.32523" lon="6.30059">
        <ele>1744.4</ele>
        <time>2024-02-25T10:48:04Z</time>
      </trkpt>
      <trkpt lat="44.32529" lon="6.30055">
        <ele>1743.8</ele>
        <time>2024-02-25T10:48:10Z</time>
      </trkpt>
      <trkpt lat="44.3253" lon="6.30054">
        <ele>1743.4</ele>
        <time>2024-02-25T10:48:12Z</time>
      </trkpt>
      <trkpt lat="44.32534" lon="6.3005">
        <ele>1743</ele>
        <time>2024-02-25T10:48:16Z</time>
      </trkpt>
      <trkpt lat="44.32538" lon="6.30046">
        <ele>1742.4</ele>
        <time>2024-02-25T10:48:20Z</time>
      </trkpt>
      <trkpt lat="44.32538" lon="6.30046">
        <ele>1742.4</ele>
        <time>2024-02-25T10:48:21Z</time>
      </trkpt>
      <trkpt lat="44.32544" lon="6.3004">
        <ele>1741.2</ele>
        <time>2024-02-25T10:48:28Z</time>
      </trkpt>
      <trkpt lat="44.32545" lon="6.30038">
        <ele>1741</ele>
        <time>2024-02-25T10:48:30Z</time>
      </trkpt>
      <trkpt lat="44.32553" lon="6.3003">
        <ele>1740</ele>
        <time>2024-02-25T10:48:39Z</time>
      </trkpt>
      <trkpt lat="44.32553" lon="6.30029">
        <ele>1740</ele>
        <time>2024-02-25T10:48:40Z</time>
      </trkpt>
      <trkpt lat="44.32564" lon="6.30021">
        <ele>1739</ele>
        <time>2024-02-25T10:48:50Z</time>
      </trkpt>
      <trkpt lat="44.3257" lon="6.30016">
        <ele>1738.2</ele>
        <time>2024-02-25T10:48:57Z</time>
      </trkpt>
      <trkpt lat="44.32573" lon="6.30014">
        <ele>1738</ele>
        <time>2024-02-25T10:49:00Z</time>
      </trkpt>
      <trkpt lat="44.32574" lon="6.30013">
        <ele>1737.8</ele>
        <time>2024-02-25T10:49:01Z</time>
      </trkpt>
      <trkpt lat="44.32581" lon="6.30009">
        <ele>1736.8</ele>
        <time>2024-02-25T10:49:08Z</time>
      </trkpt>
      <trkpt lat="44.32585" lon="6.30007">
        <ele>1736.6</ele>
        <time>2024-02-25T10:49:11Z</time>
      </trkpt>
      <trkpt lat="44.32588" lon="6.30006">
        <ele>1735.8</ele>
        <time>2024-02-25T10:49:15Z</time>
      </trkpt>
      <trkpt lat="44.32593" lon="6.30005">
        <ele>1735</ele>
        <time>2024-02-25T10:49:21Z</time>
      </trkpt>
      <trkpt lat="44.32594" lon="6.30004">
        <ele>1734.8</ele>
        <time>2024-02-25T10:49:23Z</time>
      </trkpt>
      <trkpt lat="44.32601" lon="6.29998">
        <ele>1733.8</ele>
        <time>2024-02-25T10:49:31Z</time>
      </trkpt>
      <trkpt lat="44.32605" lon="6.29997">
        <ele>1733.2</ele>
        <time>2024-02-25T10:49:35Z</time>
      </trkpt>
      <trkpt lat="44.3261" lon="6.29995">
        <ele>1732.6</ele>
        <time>2024-02-25T10:49:40Z</time>
      </trkpt>
      <trkpt lat="44.32611" lon="6.29994">
        <ele>1732.4</ele>
        <time>2024-02-25T10:49:41Z</time>
      </trkpt>
      <trkpt lat="44.32614" lon="6.29992">
        <ele>1732</ele>
        <time>2024-02-25T10:49:44Z</time>
      </trkpt>
      <trkpt lat="44.32616" lon="6.29989">
        <ele>1731.6</ele>
        <time>2024-02-25T10:49:47Z</time>
      </trkpt>
      <trkpt lat="44.32617" lon="6.29988">
        <ele>1731.6</ele>
        <time>2024-02-25T10:49:48Z</time>
      </trkpt>
      <trkpt lat="44.32619" lon="6.29984">
        <ele>1731.2</ele>
        <time>2024-02-25T10:49:51Z</time>
      </trkpt>
      <trkpt lat="44.32624" lon="6.29976">
        <ele>1730.4</ele>
        <time>2024-02-25T10:49:58Z</time>
      </trkpt>
      <trkpt lat="44.32626" lon="6.29972">
        <ele>1730.2</ele>
        <time>2024-02-25T10:50:01Z</time>
      </trkpt>
      <trkpt lat="44.32631" lon="6.29965">
        <ele>1729.4</ele>
        <time>2024-02-25T10:50:07Z</time>
      </trkpt>
      <trkpt lat="44.32635" lon="6.29962">
        <ele>1729</ele>
        <time>2024-02-25T10:50:11Z</time>
      </trkpt>
      <trkpt lat="44.32638" lon="6.29959">
        <ele>1728.4</ele>
        <time>2024-02-25T10:50:15Z</time>
      </trkpt>
      <trkpt lat="44.32643" lon="6.29955">
        <ele>1727.4</ele>
        <time>2024-02-25T10:50:21Z</time>
      </trkpt>
      <trkpt lat="44.32648" lon="6.29951">
        <ele>1726.4</ele>
        <time>2024-02-25T10:50:27Z</time>
      </trkpt>
      <trkpt lat="44.32652" lon="6.29948">
        <ele>1725.8</ele>
        <time>2024-02-25T10:50:31Z</time>
      </trkpt>
      <trkpt lat="44.32653" lon="6.29947">
        <ele>1725.4</ele>
        <time>2024-02-25T10:50:33Z</time>
      </trkpt>
      <trkpt lat="44.32659" lon="6.29943">
        <ele>1724.2</ele>
        <time>2024-02-25T10:50:39Z</time>
      </trkpt>
      <trkpt lat="44.3266" lon="6.29942">
        <ele>1724</ele>
        <time>2024-02-25T10:50:41Z</time>
      </trkpt>
      <trkpt lat="44.32665" lon="6.29938">
        <ele>1723.2</ele>
        <time>2024-02-25T10:50:47Z</time>
      </trkpt>
      <trkpt lat="44.32668" lon="6.29935">
        <ele>1722.6</ele>
        <time>2024-02-25T10:50:51Z</time>
      </trkpt>
      <trkpt lat="44.32673" lon="6.29934">
        <ele>1722</ele>
        <time>2024-02-25T10:50:55Z</time>
      </trkpt>
      <trkpt lat="44.32675" lon="6.29933">
        <ele>1721.8</ele>
        <time>2024-02-25T10:50:57Z</time>
      </trkpt>
      <trkpt lat="44.32677" lon="6.29931">
        <ele>1721.4</ele>
        <time>2024-02-25T10:51:00Z</time>
      </trkpt>
      <trkpt lat="44.32678" lon="6.29931">
        <ele>1721.4</ele>
        <time>2024-02-25T10:51:01Z</time>
      </trkpt>
      <trkpt lat="44.32681" lon="6.2993">
        <ele>1721</ele>
        <time>2024-02-25T10:51:04Z</time>
      </trkpt>
      <trkpt lat="44.32684" lon="6.29929">
        <ele>1720.4</ele>
        <time>2024-02-25T10:51:08Z</time>
      </trkpt>
      <trkpt lat="44.32685" lon="6.29928">
        <ele>1720.2</ele>
        <time>2024-02-25T10:51:11Z</time>
      </trkpt>
      <trkpt lat="44.32688" lon="6.29928">
        <ele>1720</ele>
        <time>2024-02-25T10:51:14Z</time>
      </trkpt>
      <trkpt lat="44.32696" lon="6.29929">
        <ele>1719.6</ele>
        <time>2024-02-25T10:51:21Z</time>
      </trkpt>
      <trkpt lat="44.32699" lon="6.29933">
        <ele>1719.4</ele>
        <time>2024-02-25T10:51:25Z</time>
      </trkpt>
      <trkpt lat="44.327" lon="6.29938">
        <ele>1719.2</ele>
        <time>2024-02-25T10:51:28Z</time>
      </trkpt>
      <trkpt lat="44.32701" lon="6.29941">
        <ele>1719</ele>
        <time>2024-02-25T10:51:30Z</time>
      </trkpt>
      <trkpt lat="44.327" lon="6.29943">
        <ele>1719</ele>
        <time>2024-02-25T10:51:31Z</time>
      </trkpt>
      <trkpt lat="44.327" lon="6.29944">
        <ele>1719.2</ele>
        <time>2024-02-25T10:51:32Z</time>
      </trkpt>
      <trkpt lat="44.32697" lon="6.29953">
        <ele>1719.2</ele>
        <time>2024-02-25T10:51:38Z</time>
      </trkpt>
      <trkpt lat="44.32695" lon="6.29957">
        <ele>1719</ele>
        <time>2024-02-25T10:51:41Z</time>
      </trkpt>
      <trkpt lat="44.32691" lon="6.29967">
        <ele>1719.6</ele>
        <time>2024-02-25T10:51:50Z</time>
      </trkpt>
      <trkpt lat="44.32691" lon="6.29969">
        <ele>1719.8</ele>
        <time>2024-02-25T10:51:51Z</time>
      </trkpt>
      <trkpt lat="44.32691" lon="6.29971">
        <ele>1719.8</ele>
        <time>2024-02-25T10:51:52Z</time>
      </trkpt>
      <trkpt lat="44.32691" lon="6.29976">
        <ele>1720.4</ele>
        <time>2024-02-25T10:51:56Z</time>
      </trkpt>
      <trkpt lat="44.32692" lon="6.29983">
        <ele>1720.8</ele>
        <time>2024-02-25T10:52:01Z</time>
      </trkpt>
      <trkpt lat="44.32693" lon="6.29987">
        <ele>1721</ele>
        <time>2024-02-25T10:52:04Z</time>
      </trkpt>
      <trkpt lat="44.32696" lon="6.29994">
        <ele>1721.2</ele>
        <time>2024-02-25T10:52:11Z</time>
      </trkpt>
      <trkpt lat="44.32696" lon="6.29994">
        <ele>1721.2</ele>
        <time>2024-02-25T10:52:12Z</time>
      </trkpt>
      <trkpt lat="44.32698" lon="6.29998">
        <ele>1720.8</ele>
        <time>2024-02-25T10:52:19Z</time>
      </trkpt>
      <trkpt lat="44.32699" lon="6.3">
        <ele>1720.8</ele>
        <time>2024-02-25T10:52:21Z</time>
      </trkpt>
      <trkpt lat="44.32706" lon="6.30009">
        <ele>1720.4</ele>
        <time>2024-02-25T10:52:31Z</time>
      </trkpt>
      <trkpt lat="44.32709" lon="6.30015">
        <ele>1720</ele>
        <time>2024-02-25T10:52:36Z</time>
      </trkpt>
      <trkpt lat="44.32712" lon="6.30021">
        <ele>1719.2</ele>
        <time>2024-02-25T10:52:41Z</time>
      </trkpt>
      <trkpt lat="44.32713" lon="6.30025">
        <ele>1719</ele>
        <time>2024-02-25T10:52:44Z</time>
      </trkpt>
      <trkpt lat="44.32714" lon="6.30035">
        <ele>1718.2</ele>
        <time>2024-02-25T10:52:51Z</time>
      </trkpt>
      <trkpt lat="44.32717" lon="6.30042">
        <ele>1718</ele>
        <time>2024-02-25T10:52:56Z</time>
      </trkpt>
      <trkpt lat="44.32719" lon="6.30048">
        <ele>1717.2</ele>
        <time>2024-02-25T10:53:01Z</time>
      </trkpt>
      <trkpt lat="44.3272" lon="6.3005">
        <ele>1716.8</ele>
        <time>2024-02-25T10:53:03Z</time>
      </trkpt>
      <trkpt lat="44.32721" lon="6.30055">
        <ele>1715.8</ele>
        <time>2024-02-25T10:53:08Z</time>
      </trkpt>
      <trkpt lat="44.32722" lon="6.30056">
        <ele>1715.6</ele>
        <time>2024-02-25T10:53:09Z</time>
      </trkpt>
      <trkpt lat="44.32723" lon="6.30057">
        <ele>1715.2</ele>
        <time>2024-02-25T10:53:11Z</time>
      </trkpt>
      <trkpt lat="44.32726" lon="6.30061">
        <ele>1714.6</ele>
        <time>2024-02-25T10:53:16Z</time>
      </trkpt>
      <trkpt lat="44.32728" lon="6.30063">
        <ele>1714</ele>
        <time>2024-02-25T10:53:19Z</time>
      </trkpt>
      <trkpt lat="44.32729" lon="6.30065">
        <ele>1713.6</ele>
        <time>2024-02-25T10:53:21Z</time>
      </trkpt>
      <trkpt lat="44.3273" lon="6.30066">
        <ele>1713.4</ele>
        <time>2024-02-25T10:53:22Z</time>
      </trkpt>
      <trkpt lat="44.32734" lon="6.30069">
        <ele>1712.6</ele>
        <time>2024-02-25T10:53:27Z</time>
      </trkpt>
      <trkpt lat="44.32735" lon="6.3007">
        <ele>1712.4</ele>
        <time>2024-02-25T10:53:28Z</time>
      </trkpt>
      <trkpt lat="44.32736" lon="6.3007">
        <ele>1712</ele>
        <time>2024-02-25T10:53:29Z</time>
      </trkpt>
      <trkpt lat="44.32738" lon="6.30071">
        <ele>1711.6</ele>
        <time>2024-02-25T10:53:31Z</time>
      </trkpt>
      <trkpt lat="44.3274" lon="6.30072">
        <ele>1711.2</ele>
        <time>2024-02-25T10:53:33Z</time>
      </trkpt>
      <trkpt lat="44.32749" lon="6.30071">
        <ele>1710.2</ele>
        <time>2024-02-25T10:53:41Z</time>
      </trkpt>
      <trkpt lat="44.32758" lon="6.30062">
        <ele>1709.6</ele>
        <time>2024-02-25T10:53:51Z</time>
      </trkpt>
      <trkpt lat="44.32759" lon="6.30061">
        <ele>1709.6</ele>
        <time>2024-02-25T10:53:52Z</time>
      </trkpt>
      <trkpt lat="44.32766" lon="6.3005">
        <ele>1709.6</ele>
        <time>2024-02-25T10:54:01Z</time>
      </trkpt>
      <trkpt lat="44.32771" lon="6.30039">
        <ele>1709.6</ele>
        <time>2024-02-25T10:54:11Z</time>
      </trkpt>
      <trkpt lat="44.32773" lon="6.30037">
        <ele>1709.8</ele>
        <time>2024-02-25T10:54:13Z</time>
      </trkpt>
      <trkpt lat="44.32773" lon="6.30036">
        <ele>1709.8</ele>
        <time>2024-02-25T10:54:14Z</time>
      </trkpt>
      <trkpt lat="44.32774" lon="6.30035">
        <ele>1709.8</ele>
        <time>2024-02-25T10:54:15Z</time>
      </trkpt>
      <trkpt lat="44.32775" lon="6.30035">
        <ele>1709.8</ele>
        <time>2024-02-25T10:54:16Z</time>
      </trkpt>
      <trkpt lat="44.32777" lon="6.30033">
        <ele>1709.8</ele>
        <time>2024-02-25T10:54:18Z</time>
      </trkpt>
      <trkpt lat="44.3278" lon="6.30032">
        <ele>1709.8</ele>
        <time>2024-02-25T10:54:21Z</time>
      </trkpt>
      <trkpt lat="44.32781" lon="6.30031">
        <ele>1709.8</ele>
        <time>2024-02-25T10:54:22Z</time>
      </trkpt>
      <trkpt lat="44.32782" lon="6.30031">
        <ele>1709.8</ele>
        <time>2024-02-25T10:54:23Z</time>
      </trkpt>
      <trkpt lat="44.32783" lon="6.3003">
        <ele>1709.8</ele>
        <time>2024-02-25T10:54:24Z</time>
      </trkpt>
      <trkpt lat="44.32786" lon="6.30027">
        <ele>1709.8</ele>
        <time>2024-02-25T10:54:28Z</time>
      </trkpt>
      <trkpt lat="44.32789" lon="6.30025">
        <ele>1709.6</ele>
        <time>2024-02-25T10:54:31Z</time>
      </trkpt>
      <trkpt lat="44.32793" lon="6.30023">
        <ele>1709.4</ele>
        <time>2024-02-25T10:54:35Z</time>
      </trkpt>
      <trkpt lat="44.32795" lon="6.30021">
        <ele>1709.2</ele>
        <time>2024-02-25T10:54:38Z</time>
      </trkpt>
      <trkpt lat="44.32799" lon="6.3002">
        <ele>1709</ele>
        <time>2024-02-25T10:54:41Z</time>
      </trkpt>
      <trkpt lat="44.32802" lon="6.30019">
        <ele>1708.8</ele>
        <time>2024-02-25T10:54:45Z</time>
      </trkpt>
      <trkpt lat="44.32805" lon="6.30019">
        <ele>1708.8</ele>
        <time>2024-02-25T10:54:48Z</time>
      </trkpt>
      <trkpt lat="44.32808" lon="6.30019">
        <ele>1708.4</ele>
        <time>2024-02-25T10:54:51Z</time>
      </trkpt>
      <trkpt lat="44.32811" lon="6.3002">
        <ele>1708.2</ele>
        <time>2024-02-25T10:54:54Z</time>
      </trkpt>
      <trkpt lat="44.32812" lon="6.3002">
        <ele>1708</ele>
        <time>2024-02-25T10:54:55Z</time>
      </trkpt>
      <trkpt lat="44.32816" lon="6.30024">
        <ele>1707</ele>
        <time>2024-02-25T10:55:00Z</time>
      </trkpt>
      <trkpt lat="44.32816" lon="6.30025">
        <ele>1707</ele>
        <time>2024-02-25T10:55:01Z</time>
      </trkpt>
      <trkpt lat="44.32818" lon="6.30027">
        <ele>1706.8</ele>
        <time>2024-02-25T10:55:03Z</time>
      </trkpt>
      <trkpt lat="44.32821" lon="6.30032">
        <ele>1706.2</ele>
        <time>2024-02-25T10:55:08Z</time>
      </trkpt>
      <trkpt lat="44.32822" lon="6.30034">
        <ele>1706</ele>
        <time>2024-02-25T10:55:10Z</time>
      </trkpt>
      <trkpt lat="44.32823" lon="6.30035">
        <ele>1705.8</ele>
        <time>2024-02-25T10:55:11Z</time>
      </trkpt>
      <trkpt lat="44.32824" lon="6.30036">
        <ele>1705.6</ele>
        <time>2024-02-25T10:55:12Z</time>
      </trkpt>
      <trkpt lat="44.32826" lon="6.30038">
        <ele>1705.2</ele>
        <time>2024-02-25T10:55:15Z</time>
      </trkpt>
      <trkpt lat="44.3283" lon="6.30043">
        <ele>1705</ele>
        <time>2024-02-25T10:55:21Z</time>
      </trkpt>
      <trkpt lat="44.32831" lon="6.30044">
        <ele>1704.8</ele>
        <time>2024-02-25T10:55:22Z</time>
      </trkpt>
      <trkpt lat="44.32831" lon="6.30045">
        <ele>1704.6</ele>
        <time>2024-02-25T10:55:23Z</time>
      </trkpt>
      <trkpt lat="44.32833" lon="6.30046">
        <ele>1704.4</ele>
        <time>2024-02-25T10:55:25Z</time>
      </trkpt>
      <trkpt lat="44.32834" lon="6.30048">
        <ele>1704.2</ele>
        <time>2024-02-25T10:55:27Z</time>
      </trkpt>
      <trkpt lat="44.32834" lon="6.30052">
        <ele>1703.8</ele>
        <time>2024-02-25T10:55:31Z</time>
      </trkpt>
      <trkpt lat="44.32834" lon="6.30054">
        <ele>1703.8</ele>
        <time>2024-02-25T10:55:32Z</time>
      </trkpt>
      <trkpt lat="44.32834" lon="6.30055">
        <ele>1703.8</ele>
        <time>2024-02-25T10:55:33Z</time>
      </trkpt>
      <trkpt lat="44.32833" lon="6.30059">
        <ele>1703.6</ele>
        <time>2024-02-25T10:55:37Z</time>
      </trkpt>
      <trkpt lat="44.32831" lon="6.30061">
        <ele>1703.4</ele>
        <time>2024-02-25T10:55:39Z</time>
      </trkpt>
      <trkpt lat="44.3283" lon="6.30064">
        <ele>1703.4</ele>
        <time>2024-02-25T10:55:41Z</time>
      </trkpt>
      <trkpt lat="44.32821" lon="6.30075">
        <ele>1704.6</ele>
        <time>2024-02-25T10:55:51Z</time>
      </trkpt>
      <trkpt lat="44.32821" lon="6.30076">
        <ele>1704.8</ele>
        <time>2024-02-25T10:55:52Z</time>
      </trkpt>
      <trkpt lat="44.32814" lon="6.30085">
        <ele>1705.8</ele>
        <time>2024-02-25T10:56:01Z</time>
      </trkpt>
      <trkpt lat="44.32814" lon="6.30086">
        <ele>1706</ele>
        <time>2024-02-25T10:56:02Z</time>
      </trkpt>
      <trkpt lat="44.32811" lon="6.3009">
        <ele>1706.2</ele>
        <time>2024-02-25T10:56:06Z</time>
      </trkpt>
      <trkpt lat="44.32811" lon="6.30094">
        <ele>1706.4</ele>
        <time>2024-02-25T10:56:09Z</time>
      </trkpt>
      <trkpt lat="44.32811" lon="6.30095">
        <ele>1706.6</ele>
        <time>2024-02-25T10:56:10Z</time>
      </trkpt>
      <trkpt lat="44.32811" lon="6.30098">
        <ele>1707</ele>
        <time>2024-02-25T10:56:14Z</time>
      </trkpt>
      <trkpt lat="44.3281" lon="6.301">
        <ele>1707.2</ele>
        <time>2024-02-25T10:56:16Z</time>
      </trkpt>
      <trkpt lat="44.3281" lon="6.30104">
        <ele>1708.2</ele>
        <time>2024-02-25T10:56:21Z</time>
      </trkpt>
      <trkpt lat="44.32811" lon="6.30111">
        <ele>1709.2</ele>
        <time>2024-02-25T10:56:28Z</time>
      </trkpt>
      <trkpt lat="44.3281" lon="6.30114">
        <ele>1709.8</ele>
        <time>2024-02-25T10:56:31Z</time>
      </trkpt>
      <trkpt lat="44.3281" lon="6.30123">
        <ele>1710.2</ele>
        <time>2024-02-25T10:56:38Z</time>
      </trkpt>
      <trkpt lat="44.3281" lon="6.30126">
        <ele>1710.4</ele>
        <time>2024-02-25T10:56:41Z</time>
      </trkpt>
      <trkpt lat="44.3281" lon="6.30128">
        <ele>1710.6</ele>
        <time>2024-02-25T10:56:42Z</time>
      </trkpt>
      <trkpt lat="44.32809" lon="6.30132">
        <ele>1710.8</ele>
        <time>2024-02-25T10:56:46Z</time>
      </trkpt>
      <trkpt lat="44.3281" lon="6.30138">
        <ele>1711</ele>
        <time>2024-02-25T10:56:51Z</time>
      </trkpt>
      <trkpt lat="44.3281" lon="6.30142">
        <ele>1711.4</ele>
        <time>2024-02-25T10:56:54Z</time>
      </trkpt>
      <trkpt lat="44.3281" lon="6.30145">
        <ele>1711.6</ele>
        <time>2024-02-25T10:56:57Z</time>
      </trkpt>
      <trkpt lat="44.3281" lon="6.30147">
        <ele>1712</ele>
        <time>2024-02-25T10:56:59Z</time>
      </trkpt>
      <trkpt lat="44.3281" lon="6.3015">
        <ele>1712.2</ele>
        <time>2024-02-25T10:57:01Z</time>
      </trkpt>
      <trkpt lat="44.3281" lon="6.30151">
        <ele>1712.4</ele>
        <time>2024-02-25T10:57:02Z</time>
      </trkpt>
      <trkpt lat="44.32811" lon="6.3016">
        <ele>1712.8</ele>
        <time>2024-02-25T10:57:10Z</time>
      </trkpt>
      <trkpt lat="44.32811" lon="6.30162">
        <ele>1712.8</ele>
        <time>2024-02-25T10:57:11Z</time>
      </trkpt>
      <trkpt lat="44.32812" lon="6.30164">
        <ele>1712.8</ele>
        <time>2024-02-25T10:57:13Z</time>
      </trkpt>
      <trkpt lat="44.32814" lon="6.30172">
        <ele>1713.4</ele>
        <time>2024-02-25T10:57:19Z</time>
      </trkpt>
      <trkpt lat="44.32815" lon="6.30173">
        <ele>1713.4</ele>
        <time>2024-02-25T10:57:20Z</time>
      </trkpt>
      <trkpt lat="44.32816" lon="6.30174">
        <ele>1713.6</ele>
        <time>2024-02-25T10:57:21Z</time>
      </trkpt>
      <trkpt lat="44.32818" lon="6.30181">
        <ele>1714</ele>
        <time>2024-02-25T10:57:27Z</time>
      </trkpt>
      <trkpt lat="44.32819" lon="6.30185">
        <ele>1714.2</ele>
        <time>2024-02-25T10:57:31Z</time>
      </trkpt>
      <trkpt lat="44.3282" lon="6.3019">
        <ele>1714.2</ele>
        <time>2024-02-25T10:57:35Z</time>
      </trkpt>
      <trkpt lat="44.3282" lon="6.30195">
        <ele>1714.4</ele>
        <time>2024-02-25T10:57:39Z</time>
      </trkpt>
      <trkpt lat="44.32821" lon="6.30197">
        <ele>1714.4</ele>
        <time>2024-02-25T10:57:41Z</time>
      </trkpt>
      <trkpt lat="44.32821" lon="6.30199">
        <ele>1714.6</ele>
        <time>2024-02-25T10:57:43Z</time>
      </trkpt>
      <trkpt lat="44.32823" lon="6.30208">
        <ele>1714.6</ele>
        <time>2024-02-25T10:57:49Z</time>
      </trkpt>
      <trkpt lat="44.32824" lon="6.3021">
        <ele>1714.6</ele>
        <time>2024-02-25T10:57:51Z</time>
      </trkpt>
      <trkpt lat="44.32831" lon="6.30223">
        <ele>1714.6</ele>
        <time>2024-02-25T10:58:01Z</time>
      </trkpt>
      <trkpt lat="44.32834" lon="6.30231">
        <ele>1714.8</ele>
        <time>2024-02-25T10:58:07Z</time>
      </trkpt>
      <trkpt lat="44.32836" lon="6.30235">
        <ele>1714.8</ele>
        <time>2024-02-25T10:58:11Z</time>
      </trkpt>
      <trkpt lat="44.32837" lon="6.30236">
        <ele>1715</ele>
        <time>2024-02-25T10:58:13Z</time>
      </trkpt>
      <trkpt lat="44.32838" lon="6.30241">
        <ele>1715.2</ele>
        <time>2024-02-25T10:58:17Z</time>
      </trkpt>
      <trkpt lat="44.3284" lon="6.30245">
        <ele>1715.4</ele>
        <time>2024-02-25T10:58:21Z</time>
      </trkpt>
      <trkpt lat="44.32842" lon="6.30248">
        <ele>1715.6</ele>
        <time>2024-02-25T10:58:24Z</time>
      </trkpt>
      <trkpt lat="44.32847" lon="6.30255">
        <ele>1715.8</ele>
        <time>2024-02-25T10:58:31Z</time>
      </trkpt>
      <trkpt lat="44.32854" lon="6.30261">
        <ele>1716</ele>
        <time>2024-02-25T10:58:41Z</time>
      </trkpt>
      <trkpt lat="44.32855" lon="6.30262">
        <ele>1716.2</ele>
        <time>2024-02-25T10:58:43Z</time>
      </trkpt>
      <trkpt lat="44.32854" lon="6.30262">
        <ele>1716.2</ele>
        <time>2024-02-25T10:58:49Z</time>
      </trkpt>
      <trkpt lat="44.32853" lon="6.3026">
        <ele>1717.8</ele>
        <time>2024-02-25T11:19:53Z</time>
      </trkpt>
      <trkpt lat="44.32852" lon="6.30262">
        <ele>1718.2</ele>
        <time>2024-02-25T11:19:55Z</time>
      </trkpt>
      <trkpt lat="44.3285" lon="6.30266">
        <ele>1718.4</ele>
        <time>2024-02-25T11:20:00Z</time>
      </trkpt>
      <trkpt lat="44.32848" lon="6.30269">
        <ele>1718.4</ele>
        <time>2024-02-25T11:20:03Z</time>
      </trkpt>
      <trkpt lat="44.32846" lon="6.30272">
        <ele>1718.2</ele>
        <time>2024-02-25T11:20:06Z</time>
      </trkpt>
      <trkpt lat="44.32845" lon="6.30273">
        <ele>1718.2</ele>
        <time>2024-02-25T11:20:07Z</time>
      </trkpt>
      <trkpt lat="44.32845" lon="6.30273">
        <ele>1718.2</ele>
        <time>2024-02-25T11:20:08Z</time>
      </trkpt>
      <trkpt lat="44.32844" lon="6.30274">
        <ele>1718.2</ele>
        <time>2024-02-25T11:20:09Z</time>
      </trkpt>
      <trkpt lat="44.32843" lon="6.30274">
        <ele>1718.2</ele>
        <time>2024-02-25T11:20:10Z</time>
      </trkpt>
      <trkpt lat="44.32843" lon="6.30274">
        <ele>1718.2</ele>
        <time>2024-02-25T11:20:11Z</time>
      </trkpt>
      <trkpt lat="44.32842" lon="6.30275">
        <ele>1718.2</ele>
        <time>2024-02-25T11:20:12Z</time>
      </trkpt>
      <trkpt lat="44.32841" lon="6.30276">
        <ele>1718.2</ele>
        <time>2024-02-25T11:20:13Z</time>
      </trkpt>
      <trkpt lat="44.3284" lon="6.30276">
        <ele>1718.2</ele>
        <time>2024-02-25T11:20:14Z</time>
      </trkpt>
      <trkpt lat="44.3284" lon="6.30277">
        <ele>1718.2</ele>
        <time>2024-02-25T11:20:15Z</time>
      </trkpt>
      <trkpt lat="44.32839" lon="6.30277">
        <ele>1718.2</ele>
        <time>2024-02-25T11:20:16Z</time>
      </trkpt>
      <trkpt lat="44.32837" lon="6.30278">
        <ele>1718</ele>
        <time>2024-02-25T11:20:18Z</time>
      </trkpt>
      <trkpt lat="44.32836" lon="6.30278">
        <ele>1717.8</ele>
        <time>2024-02-25T11:20:19Z</time>
      </trkpt>
      <trkpt lat="44.32835" lon="6.30278">
        <ele>1717.6</ele>
        <time>2024-02-25T11:20:20Z</time>
      </trkpt>
      <trkpt lat="44.32834" lon="6.30279">
        <ele>1717.4</ele>
        <time>2024-02-25T11:20:21Z</time>
      </trkpt>
      <trkpt lat="44.32833" lon="6.30279">
        <ele>1717.4</ele>
        <time>2024-02-25T11:20:22Z</time>
      </trkpt>
      <trkpt lat="44.3283" lon="6.3028">
        <ele>1717.2</ele>
        <time>2024-02-25T11:20:25Z</time>
      </trkpt>
      <trkpt lat="44.32829" lon="6.3028">
        <ele>1717.2</ele>
        <time>2024-02-25T11:20:26Z</time>
      </trkpt>
      <trkpt lat="44.32826" lon="6.30281">
        <ele>1717</ele>
        <time>2024-02-25T11:20:29Z</time>
      </trkpt>
      <trkpt lat="44.32825" lon="6.30281">
        <ele>1716.8</ele>
        <time>2024-02-25T11:20:30Z</time>
      </trkpt>
      <trkpt lat="44.32824" lon="6.30281">
        <ele>1716.8</ele>
        <time>2024-02-25T11:20:31Z</time>
      </trkpt>
      <trkpt lat="44.32819" lon="6.30285">
        <ele>1716.4</ele>
        <time>2024-02-25T11:20:37Z</time>
      </trkpt>
      <trkpt lat="44.32816" lon="6.30287">
        <ele>1716.4</ele>
        <time>2024-02-25T11:20:40Z</time>
      </trkpt>
      <trkpt lat="44.32815" lon="6.30287">
        <ele>1716.2</ele>
        <time>2024-02-25T11:20:42Z</time>
      </trkpt>
      <trkpt lat="44.32811" lon="6.3029">
        <ele>1716</ele>
        <time>2024-02-25T11:20:47Z</time>
      </trkpt>
      <trkpt lat="44.3281" lon="6.30291">
        <ele>1716.2</ele>
        <time>2024-02-25T11:20:48Z</time>
      </trkpt>
      <trkpt lat="44.32808" lon="6.30293">
        <ele>1716.6</ele>
        <time>2024-02-25T11:20:50Z</time>
      </trkpt>
      <trkpt lat="44.32804" lon="6.30297">
        <ele>1717</ele>
        <time>2024-02-25T11:20:54Z</time>
      </trkpt>
      <trkpt lat="44.32801" lon="6.303">
        <ele>1717</ele>
        <time>2024-02-25T11:20:57Z</time>
      </trkpt>
      <trkpt lat="44.32799" lon="6.30301">
        <ele>1716.8</ele>
        <time>2024-02-25T11:21:00Z</time>
      </trkpt>
      <trkpt lat="44.32791" lon="6.30307">
        <ele>1717</ele>
        <time>2024-02-25T11:21:07Z</time>
      </trkpt>
      <trkpt lat="44.32789" lon="6.30308">
        <ele>1717</ele>
        <time>2024-02-25T11:21:10Z</time>
      </trkpt>
      <trkpt lat="44.32783" lon="6.30311">
        <ele>1717</ele>
        <time>2024-02-25T11:21:17Z</time>
      </trkpt>
      <trkpt lat="44.3278" lon="6.30312">
        <ele>1717</ele>
        <time>2024-02-25T11:21:20Z</time>
      </trkpt>
      <trkpt lat="44.32777" lon="6.30315">
        <ele>1717.2</ele>
        <time>2024-02-25T11:21:24Z</time>
      </trkpt>
      <trkpt lat="44.32771" lon="6.30318">
        <ele>1717.6</ele>
        <time>2024-02-25T11:21:30Z</time>
      </trkpt>
      <trkpt lat="44.32763" lon="6.30324">
        <ele>1717.6</ele>
        <time>2024-02-25T11:21:40Z</time>
      </trkpt>
      <trkpt lat="44.32758" lon="6.30329">
        <ele>1717.8</ele>
        <time>2024-02-25T11:21:46Z</time>
      </trkpt>
      <trkpt lat="44.32754" lon="6.30331">
        <ele>1717.8</ele>
        <time>2024-02-25T11:21:50Z</time>
      </trkpt>
      <trkpt lat="44.32744" lon="6.30335">
        <ele>1716.6</ele>
        <time>2024-02-25T11:22:00Z</time>
      </trkpt>
      <trkpt lat="44.32736" lon="6.30341">
        <ele>1716</ele>
        <time>2024-02-25T11:22:10Z</time>
      </trkpt>
      <trkpt lat="44.32734" lon="6.30342">
        <ele>1715.6</ele>
        <time>2024-02-25T11:22:13Z</time>
      </trkpt>
      <trkpt lat="44.32734" lon="6.30343">
        <ele>1715.4</ele>
        <time>2024-02-25T11:22:20Z</time>
      </trkpt>
      <trkpt lat="44.3273" lon="6.30348">
        <ele>1714.8</ele>
        <time>2024-02-25T11:22:27Z</time>
      </trkpt>
      <trkpt lat="44.3273" lon="6.30349">
        <ele>1714.6</ele>
        <time>2024-02-25T11:22:28Z</time>
      </trkpt>
      <trkpt lat="44.32728" lon="6.30349">
        <ele>1714.2</ele>
        <time>2024-02-25T11:22:30Z</time>
      </trkpt>
      <trkpt lat="44.32725" lon="6.3035">
        <ele>1713.6</ele>
        <time>2024-02-25T11:22:34Z</time>
      </trkpt>
      <trkpt lat="44.32723" lon="6.30351">
        <ele>1713.4</ele>
        <time>2024-02-25T11:22:36Z</time>
      </trkpt>
      <trkpt lat="44.32721" lon="6.30353">
        <ele>1713.2</ele>
        <time>2024-02-25T11:22:38Z</time>
      </trkpt>
      <trkpt lat="44.3272" lon="6.30355">
        <ele>1713</ele>
        <time>2024-02-25T11:22:40Z</time>
      </trkpt>
      <trkpt lat="44.32717" lon="6.30358">
        <ele>1712.2</ele>
        <time>2024-02-25T11:22:44Z</time>
      </trkpt>
      <trkpt lat="44.32714" lon="6.30363">
        <ele>1711.2</ele>
        <time>2024-02-25T11:22:49Z</time>
      </trkpt>
      <trkpt lat="44.32713" lon="6.30364">
        <ele>1711</ele>
        <time>2024-02-25T11:22:50Z</time>
      </trkpt>
      <trkpt lat="44.3271" lon="6.30367">
        <ele>1710</ele>
        <time>2024-02-25T11:22:55Z</time>
      </trkpt>
      <trkpt lat="44.32707" lon="6.30371">
        <ele>1709</ele>
        <time>2024-02-25T11:23:00Z</time>
      </trkpt>
      <trkpt lat="44.32707" lon="6.30372">
        <ele>1708.8</ele>
        <time>2024-02-25T11:23:01Z</time>
      </trkpt>
      <trkpt lat="44.32706" lon="6.30377">
        <ele>1708</ele>
        <time>2024-02-25T11:23:05Z</time>
      </trkpt>
      <trkpt lat="44.32705" lon="6.30379">
        <ele>1707.6</ele>
        <time>2024-02-25T11:23:07Z</time>
      </trkpt>
      <trkpt lat="44.32704" lon="6.30381">
        <ele>1707</ele>
        <time>2024-02-25T11:23:10Z</time>
      </trkpt>
      <trkpt lat="44.32703" lon="6.30383">
        <ele>1706.6</ele>
        <time>2024-02-25T11:23:12Z</time>
      </trkpt>
      <trkpt lat="44.32703" lon="6.30384">
        <ele>1706.4</ele>
        <time>2024-02-25T11:23:13Z</time>
      </trkpt>
      <trkpt lat="44.32699" lon="6.30386">
        <ele>1705.6</ele>
        <time>2024-02-25T11:23:18Z</time>
      </trkpt>
      <trkpt lat="44.32697" lon="6.30387">
        <ele>1705.2</ele>
        <time>2024-02-25T11:23:20Z</time>
      </trkpt>
      <trkpt lat="44.32696" lon="6.30389">
        <ele>1704.6</ele>
        <time>2024-02-25T11:23:22Z</time>
      </trkpt>
      <trkpt lat="44.32696" lon="6.3039">
        <ele>1704.4</ele>
        <time>2024-02-25T11:23:23Z</time>
      </trkpt>
      <trkpt lat="44.32693" lon="6.30393">
        <ele>1703.4</ele>
        <time>2024-02-25T11:23:27Z</time>
      </trkpt>
      <trkpt lat="44.32692" lon="6.30394">
        <ele>1703.4</ele>
        <time>2024-02-25T11:23:28Z</time>
      </trkpt>
      <trkpt lat="44.3269" lon="6.30394">
        <ele>1703</ele>
        <time>2024-02-25T11:23:30Z</time>
      </trkpt>
      <trkpt lat="44.32684" lon="6.30398">
        <ele>1702.2</ele>
        <time>2024-02-25T11:23:37Z</time>
      </trkpt>
      <trkpt lat="44.32681" lon="6.30399">
        <ele>1702</ele>
        <time>2024-02-25T11:23:40Z</time>
      </trkpt>
      <trkpt lat="44.32679" lon="6.30401">
        <ele>1701.2</ele>
        <time>2024-02-25T11:23:43Z</time>
      </trkpt>
      <trkpt lat="44.32678" lon="6.30401">
        <ele>1701</ele>
        <time>2024-02-25T11:23:44Z</time>
      </trkpt>
      <trkpt lat="44.32676" lon="6.30402">
        <ele>1700</ele>
        <time>2024-02-25T11:23:47Z</time>
      </trkpt>
      <trkpt lat="44.32674" lon="6.30404">
        <ele>1699.4</ele>
        <time>2024-02-25T11:23:50Z</time>
      </trkpt>
      <trkpt lat="44.32673" lon="6.30405">
        <ele>1699</ele>
        <time>2024-02-25T11:23:52Z</time>
      </trkpt>
      <trkpt lat="44.32672" lon="6.30406">
        <ele>1698.6</ele>
        <time>2024-02-25T11:23:53Z</time>
      </trkpt>
      <trkpt lat="44.32671" lon="6.30409">
        <ele>1697.8</ele>
        <time>2024-02-25T11:23:56Z</time>
      </trkpt>
      <trkpt lat="44.32669" lon="6.30412">
        <ele>1697</ele>
        <time>2024-02-25T11:24:00Z</time>
      </trkpt>
      <trkpt lat="44.32668" lon="6.30413">
        <ele>1696.8</ele>
        <time>2024-02-25T11:24:01Z</time>
      </trkpt>
      <trkpt lat="44.32667" lon="6.30416">
        <ele>1695.8</ele>
        <time>2024-02-25T11:24:05Z</time>
      </trkpt>
      <trkpt lat="44.32666" lon="6.3042">
        <ele>1694.6</ele>
        <time>2024-02-25T11:24:10Z</time>
      </trkpt>
      <trkpt lat="44.32666" lon="6.30424">
        <ele>1693.4</ele>
        <time>2024-02-25T11:24:14Z</time>
      </trkpt>
      <trkpt lat="44.32664" lon="6.30429">
        <ele>1692.2</ele>
        <time>2024-02-25T11:24:20Z</time>
      </trkpt>
      <trkpt lat="44.32662" lon="6.30433">
        <ele>1691.2</ele>
        <time>2024-02-25T11:24:26Z</time>
      </trkpt>
      <trkpt lat="44.3266" lon="6.30435">
        <ele>1690.6</ele>
        <time>2024-02-25T11:24:30Z</time>
      </trkpt>
      <trkpt lat="44.3266" lon="6.30436">
        <ele>1690</ele>
        <time>2024-02-25T11:24:32Z</time>
      </trkpt>
      <trkpt lat="44.32659" lon="6.30439">
        <ele>1688.8</ele>
        <time>2024-02-25T11:24:35Z</time>
      </trkpt>
      <trkpt lat="44.32657" lon="6.30443">
        <ele>1687.8</ele>
        <time>2024-02-25T11:24:40Z</time>
      </trkpt>
      <trkpt lat="44.32657" lon="6.30447">
        <ele>1686.6</ele>
        <time>2024-02-25T11:24:45Z</time>
      </trkpt>
      <trkpt lat="44.32656" lon="6.30449">
        <ele>1685.6</ele>
        <time>2024-02-25T11:24:50Z</time>
      </trkpt>
      <trkpt lat="44.3265" lon="6.30449">
        <ele>1684.4</ele>
        <time>2024-02-25T11:24:57Z</time>
      </trkpt>
      <trkpt lat="44.32648" lon="6.30448">
        <ele>1683.6</ele>
        <time>2024-02-25T11:25:00Z</time>
      </trkpt>
      <trkpt lat="44.32647" lon="6.30447">
        <ele>1683.2</ele>
        <time>2024-02-25T11:25:02Z</time>
      </trkpt>
      <trkpt lat="44.32644" lon="6.30447">
        <ele>1682</ele>
        <time>2024-02-25T11:25:08Z</time>
      </trkpt>
      <trkpt lat="44.32643" lon="6.30448">
        <ele>1681.6</ele>
        <time>2024-02-25T11:25:10Z</time>
      </trkpt>
      <trkpt lat="44.32643" lon="6.3045">
        <ele>1681</ele>
        <time>2024-02-25T11:25:12Z</time>
      </trkpt>
      <trkpt lat="44.32641" lon="6.30452">
        <ele>1679.8</ele>
        <time>2024-02-25T11:25:16Z</time>
      </trkpt>
      <trkpt lat="44.3264" lon="6.30455">
        <ele>1679</ele>
        <time>2024-02-25T11:25:19Z</time>
      </trkpt>
      <trkpt lat="44.3264" lon="6.30456">
        <ele>1678.6</ele>
        <time>2024-02-25T11:25:20Z</time>
      </trkpt>
      <trkpt lat="44.3264" lon="6.30456">
        <ele>1678.4</ele>
        <time>2024-02-25T11:25:21Z</time>
      </trkpt>
      <trkpt lat="44.32639" lon="6.30458">
        <ele>1677.8</ele>
        <time>2024-02-25T11:25:23Z</time>
      </trkpt>
      <trkpt lat="44.32639" lon="6.30459">
        <ele>1677.6</ele>
        <time>2024-02-25T11:25:24Z</time>
      </trkpt>
      <trkpt lat="44.32639" lon="6.30463">
        <ele>1677</ele>
        <time>2024-02-25T11:25:28Z</time>
      </trkpt>
      <trkpt lat="44.32639" lon="6.30465">
        <ele>1676.8</ele>
        <time>2024-02-25T11:25:30Z</time>
      </trkpt>
      <trkpt lat="44.32639" lon="6.30467">
        <ele>1676.4</ele>
        <time>2024-02-25T11:25:32Z</time>
      </trkpt>
      <trkpt lat="44.32636" lon="6.30469">
        <ele>1675.2</ele>
        <time>2024-02-25T11:25:37Z</time>
      </trkpt>
      <trkpt lat="44.32635" lon="6.30469">
        <ele>1674.6</ele>
        <time>2024-02-25T11:25:40Z</time>
      </trkpt>
      <trkpt lat="44.32633" lon="6.3047">
        <ele>1674</ele>
        <time>2024-02-25T11:25:47Z</time>
      </trkpt>
      <trkpt lat="44.32631" lon="6.30471">
        <ele>1673.6</ele>
        <time>2024-02-25T11:25:50Z</time>
      </trkpt>
      <trkpt lat="44.32629" lon="6.30473">
        <ele>1673</ele>
        <time>2024-02-25T11:25:54Z</time>
      </trkpt>
      <trkpt lat="44.32629" lon="6.30473">
        <ele>1672</ele>
        <time>2024-02-25T11:26:00Z</time>
      </trkpt>
      <trkpt lat="44.32633" lon="6.30473">
        <ele>1672</ele>
        <time>2024-02-25T11:26:10Z</time>
      </trkpt>
      <trkpt lat="44.32627" lon="6.30473">
        <ele>1672</ele>
        <time>2024-02-25T11:26:20Z</time>
      </trkpt>
      <trkpt lat="44.32626" lon="6.30473">
        <ele>1671.8</ele>
        <time>2024-02-25T11:26:21Z</time>
      </trkpt>
      <trkpt lat="44.32624" lon="6.30475">
        <ele>1671.8</ele>
        <time>2024-02-25T11:26:23Z</time>
      </trkpt>
      <trkpt lat="44.32621" lon="6.30478">
        <ele>1670.8</ele>
        <time>2024-02-25T11:26:27Z</time>
      </trkpt>
      <trkpt lat="44.32619" lon="6.30481">
        <ele>1670.4</ele>
        <time>2024-02-25T11:26:30Z</time>
      </trkpt>
      <trkpt lat="44.32618" lon="6.30483">
        <ele>1670.2</ele>
        <time>2024-02-25T11:26:32Z</time>
      </trkpt>
      <trkpt lat="44.32616" lon="6.30487">
        <ele>1669.8</ele>
        <time>2024-02-25T11:26:37Z</time>
      </trkpt>
      <trkpt lat="44.32615" lon="6.30487">
        <ele>1669.2</ele>
        <time>2024-02-25T11:26:40Z</time>
      </trkpt>
      <trkpt lat="44.32613" lon="6.30488">
        <ele>1668.8</ele>
        <time>2024-02-25T11:26:42Z</time>
      </trkpt>
      <trkpt lat="44.32611" lon="6.30489">
        <ele>1667.8</ele>
        <time>2024-02-25T11:26:49Z</time>
      </trkpt>
      <trkpt lat="44.32611" lon="6.3049">
        <ele>1667.6</ele>
        <time>2024-02-25T11:26:50Z</time>
      </trkpt>
      <trkpt lat="44.32609" lon="6.30491">
        <ele>1667.2</ele>
        <time>2024-02-25T11:26:56Z</time>
      </trkpt>
      <trkpt lat="44.3261" lon="6.30496">
        <ele>1667</ele>
        <time>2024-02-25T11:27:00Z</time>
      </trkpt>
      <trkpt lat="44.32612" lon="6.30507">
        <ele>1667.4</ele>
        <time>2024-02-25T11:27:10Z</time>
      </trkpt>
      <trkpt lat="44.32612" lon="6.30511">
        <ele>1667.2</ele>
        <time>2024-02-25T11:27:13Z</time>
      </trkpt>
      <trkpt lat="44.32609" lon="6.30519">
        <ele>1667</ele>
        <time>2024-02-25T11:27:20Z</time>
      </trkpt>
      <trkpt lat="44.32607" lon="6.30523">
        <ele>1667.2</ele>
        <time>2024-02-25T11:27:24Z</time>
      </trkpt>
      <trkpt lat="44.32605" lon="6.30528">
        <ele>1667.2</ele>
        <time>2024-02-25T11:27:28Z</time>
      </trkpt>
      <trkpt lat="44.32604" lon="6.3053">
        <ele>1667.2</ele>
        <time>2024-02-25T11:27:30Z</time>
      </trkpt>
      <trkpt lat="44.32604" lon="6.30532">
        <ele>1667.2</ele>
        <time>2024-02-25T11:27:32Z</time>
      </trkpt>
      <trkpt lat="44.32603" lon="6.30536">
        <ele>1667</ele>
        <time>2024-02-25T11:27:35Z</time>
      </trkpt>
      <trkpt lat="44.32602" lon="6.30538">
        <ele>1667</ele>
        <time>2024-02-25T11:27:37Z</time>
      </trkpt>
      <trkpt lat="44.32601" lon="6.30542">
        <ele>1667</ele>
        <time>2024-02-25T11:27:40Z</time>
      </trkpt>
      <trkpt lat="44.326" lon="6.30545">
        <ele>1667.2</ele>
        <time>2024-02-25T11:27:42Z</time>
      </trkpt>
      <trkpt lat="44.32598" lon="6.3055">
        <ele>1667.6</ele>
        <time>2024-02-25T11:27:49Z</time>
      </trkpt>
      <trkpt lat="44.32597" lon="6.30551">
        <ele>1667.8</ele>
        <time>2024-02-25T11:27:50Z</time>
      </trkpt>
      <trkpt lat="44.32597" lon="6.30552">
        <ele>1667.8</ele>
        <time>2024-02-25T11:27:51Z</time>
      </trkpt>
      <trkpt lat="44.32593" lon="6.3056">
        <ele>1667.8</ele>
        <time>2024-02-25T11:27:59Z</time>
      </trkpt>
      <trkpt lat="44.32593" lon="6.30561">
        <ele>1668</ele>
        <time>2024-02-25T11:28:00Z</time>
      </trkpt>
      <trkpt lat="44.32592" lon="6.30562">
        <ele>1668</ele>
        <time>2024-02-25T11:28:02Z</time>
      </trkpt>
      <trkpt lat="44.32589" lon="6.3057">
        <ele>1668.6</ele>
        <time>2024-02-25T11:28:10Z</time>
      </trkpt>
      <trkpt lat="44.32588" lon="6.30572">
        <ele>1668.6</ele>
        <time>2024-02-25T11:28:12Z</time>
      </trkpt>
      <trkpt lat="44.32587" lon="6.30573">
        <ele>1668.6</ele>
        <time>2024-02-25T11:28:13Z</time>
      </trkpt>
      <trkpt lat="44.32587" lon="6.30574">
        <ele>1668.6</ele>
        <time>2024-02-25T11:28:14Z</time>
      </trkpt>
      <trkpt lat="44.32587" lon="6.30575">
        <ele>1668.6</ele>
        <time>2024-02-25T11:28:15Z</time>
      </trkpt>
      <trkpt lat="44.32586" lon="6.30576">
        <ele>1668.6</ele>
        <time>2024-02-25T11:28:16Z</time>
      </trkpt>
      <trkpt lat="44.32585" lon="6.30579">
        <ele>1668.6</ele>
        <time>2024-02-25T11:28:20Z</time>
      </trkpt>
      <trkpt lat="44.32582" lon="6.30584">
        <ele>1668.8</ele>
        <time>2024-02-25T11:28:24Z</time>
      </trkpt>
      <trkpt lat="44.32581" lon="6.30585">
        <ele>1668.8</ele>
        <time>2024-02-25T11:28:26Z</time>
      </trkpt>
      <trkpt lat="44.3258" lon="6.30586">
        <ele>1669</ele>
        <time>2024-02-25T11:28:27Z</time>
      </trkpt>
      <trkpt lat="44.3258" lon="6.30587">
        <ele>1669</ele>
        <time>2024-02-25T11:28:28Z</time>
      </trkpt>
      <trkpt lat="44.32578" lon="6.30588">
        <ele>1669.2</ele>
        <time>2024-02-25T11:28:30Z</time>
      </trkpt>
      <trkpt lat="44.3257" lon="6.30594">
        <ele>1669</ele>
        <time>2024-02-25T11:28:40Z</time>
      </trkpt>
      <trkpt lat="44.32567" lon="6.30595">
        <ele>1669</ele>
        <time>2024-02-25T11:28:43Z</time>
      </trkpt>
      <trkpt lat="44.32565" lon="6.30598">
        <ele>1668.8</ele>
        <time>2024-02-25T11:28:46Z</time>
      </trkpt>
      <trkpt lat="44.32563" lon="6.306">
        <ele>1668.6</ele>
        <time>2024-02-25T11:28:49Z</time>
      </trkpt>
      <trkpt lat="44.32562" lon="6.30601">
        <ele>1668.6</ele>
        <time>2024-02-25T11:28:50Z</time>
      </trkpt>
      <trkpt lat="44.32562" lon="6.30601">
        <ele>1668.8</ele>
        <time>2024-02-25T11:28:51Z</time>
      </trkpt>
      <trkpt lat="44.32558" lon="6.30599">
        <ele>1667.8</ele>
        <time>2024-02-25T11:28:58Z</time>
      </trkpt>
      <trkpt lat="44.32556" lon="6.30599">
        <ele>1667.4</ele>
        <time>2024-02-25T11:29:00Z</time>
      </trkpt>
      <trkpt lat="44.32552" lon="6.30599">
        <ele>1666.6</ele>
        <time>2024-02-25T11:29:06Z</time>
      </trkpt>
      <trkpt lat="44.32549" lon="6.30599">
        <ele>1665.4</ele>
        <time>2024-02-25T11:29:10Z</time>
      </trkpt>
      <trkpt lat="44.32548" lon="6.30598">
        <ele>1664.4</ele>
        <time>2024-02-25T11:29:14Z</time>
      </trkpt>
      <trkpt lat="44.32547" lon="6.30599">
        <ele>1663.4</ele>
        <time>2024-02-25T11:29:19Z</time>
      </trkpt>
      <trkpt lat="44.32546" lon="6.30599">
        <ele>1663.2</ele>
        <time>2024-02-25T11:29:20Z</time>
      </trkpt>
      <trkpt lat="44.32543" lon="6.306">
        <ele>1662.4</ele>
        <time>2024-02-25T11:29:25Z</time>
      </trkpt>
      <trkpt lat="44.32538" lon="6.30599">
        <ele>1662.4</ele>
        <time>2024-02-25T11:29:30Z</time>
      </trkpt>
      <trkpt lat="44.32532" lon="6.30601">
        <ele>1662.8</ele>
        <time>2024-02-25T11:29:37Z</time>
      </trkpt>
      <trkpt lat="44.32529" lon="6.30604">
        <ele>1663</ele>
        <time>2024-02-25T11:29:40Z</time>
      </trkpt>
      <trkpt lat="44.32526" lon="6.30606">
        <ele>1663.4</ele>
        <time>2024-02-25T11:29:43Z</time>
      </trkpt>
      <trkpt lat="44.32523" lon="6.30612">
        <ele>1663.8</ele>
        <time>2024-02-25T11:29:50Z</time>
      </trkpt>
      <trkpt lat="44.32522" lon="6.30616">
        <ele>1664.2</ele>
        <time>2024-02-25T11:29:53Z</time>
      </trkpt>
      <trkpt lat="44.3252" lon="6.30618">
        <ele>1664.6</ele>
        <time>2024-02-25T11:29:55Z</time>
      </trkpt>
      <trkpt lat="44.3252" lon="6.30618">
        <ele>1664.6</ele>
        <time>2024-02-25T11:29:56Z</time>
      </trkpt>
      <trkpt lat="44.32518" lon="6.3062">
        <ele>1665.2</ele>
        <time>2024-02-25T11:29:59Z</time>
      </trkpt>
      <trkpt lat="44.32517" lon="6.30621">
        <ele>1665.4</ele>
        <time>2024-02-25T11:30:00Z</time>
      </trkpt>
      <trkpt lat="44.32516" lon="6.30621">
        <ele>1665.6</ele>
        <time>2024-02-25T11:30:01Z</time>
      </trkpt>
      <trkpt lat="44.32511" lon="6.30629">
        <ele>1666.6</ele>
        <time>2024-02-25T11:30:10Z</time>
      </trkpt>
      <trkpt lat="44.32509" lon="6.30633">
        <ele>1667.4</ele>
        <time>2024-02-25T11:30:14Z</time>
      </trkpt>
      <trkpt lat="44.32507" lon="6.30635">
        <ele>1667.8</ele>
        <time>2024-02-25T11:30:17Z</time>
      </trkpt>
      <trkpt lat="44.32504" lon="6.30636">
        <ele>1667.8</ele>
        <time>2024-02-25T11:30:20Z</time>
      </trkpt>
      <trkpt lat="44.32504" lon="6.30637">
        <ele>1668</ele>
        <time>2024-02-25T11:30:21Z</time>
      </trkpt>
      <trkpt lat="44.32501" lon="6.30639">
        <ele>1668.6</ele>
        <time>2024-02-25T11:30:25Z</time>
      </trkpt>
      <trkpt lat="44.325" lon="6.30639">
        <ele>1668.8</ele>
        <time>2024-02-25T11:30:27Z</time>
      </trkpt>
      <trkpt lat="44.32498" lon="6.30641">
        <ele>1669</ele>
        <time>2024-02-25T11:30:30Z</time>
      </trkpt>
      <trkpt lat="44.32494" lon="6.30644">
        <ele>1669.4</ele>
        <time>2024-02-25T11:30:35Z</time>
      </trkpt>
      <trkpt lat="44.32492" lon="6.30646">
        <ele>1669.8</ele>
        <time>2024-02-25T11:30:38Z</time>
      </trkpt>
      <trkpt lat="44.32491" lon="6.30647">
        <ele>1670.2</ele>
        <time>2024-02-25T11:30:40Z</time>
      </trkpt>
      <trkpt lat="44.32486" lon="6.3065">
        <ele>1670.8</ele>
        <time>2024-02-25T11:30:48Z</time>
      </trkpt>
      <trkpt lat="44.32485" lon="6.30651">
        <ele>1671.2</ele>
        <time>2024-02-25T11:30:50Z</time>
      </trkpt>
      <trkpt lat="44.3248" lon="6.30654">
        <ele>1672</ele>
        <time>2024-02-25T11:30:56Z</time>
      </trkpt>
      <trkpt lat="44.32479" lon="6.30655">
        <ele>1672</ele>
        <time>2024-02-25T11:30:58Z</time>
      </trkpt>
      <trkpt lat="44.32477" lon="6.30656">
        <ele>1672</ele>
        <time>2024-02-25T11:31:00Z</time>
      </trkpt>
      <trkpt lat="44.32473" lon="6.3066">
        <ele>1673</ele>
        <time>2024-02-25T11:31:07Z</time>
      </trkpt>
      <trkpt lat="44.3247" lon="6.30662">
        <ele>1673.2</ele>
        <time>2024-02-25T11:31:10Z</time>
      </trkpt>
      <trkpt lat="44.32468" lon="6.30664">
        <ele>1673.4</ele>
        <time>2024-02-25T11:31:14Z</time>
      </trkpt>
      <trkpt lat="44.32464" lon="6.30668">
        <ele>1673.8</ele>
        <time>2024-02-25T11:31:20Z</time>
      </trkpt>
      <trkpt lat="44.32462" lon="6.30671">
        <ele>1674</ele>
        <time>2024-02-25T11:31:24Z</time>
      </trkpt>
      <trkpt lat="44.32461" lon="6.30671">
        <ele>1674</ele>
        <time>2024-02-25T11:31:25Z</time>
      </trkpt>
      <trkpt lat="44.32458" lon="6.30674">
        <ele>1674.6</ele>
        <time>2024-02-25T11:31:29Z</time>
      </trkpt>
      <trkpt lat="44.32457" lon="6.30674">
        <ele>1674.8</ele>
        <time>2024-02-25T11:31:30Z</time>
      </trkpt>
      <trkpt lat="44.32457" lon="6.30675">
        <ele>1675</ele>
        <time>2024-02-25T11:31:31Z</time>
      </trkpt>
      <trkpt lat="44.32456" lon="6.30676">
        <ele>1675.2</ele>
        <time>2024-02-25T11:31:32Z</time>
      </trkpt>
      <trkpt lat="44.32452" lon="6.30682">
        <ele>1676</ele>
        <time>2024-02-25T11:31:40Z</time>
      </trkpt>
      <trkpt lat="44.32452" lon="6.30683">
        <ele>1676.2</ele>
        <time>2024-02-25T11:31:41Z</time>
      </trkpt>
      <trkpt lat="44.3245" lon="6.30689">
        <ele>1677.2</ele>
        <time>2024-02-25T11:31:47Z</time>
      </trkpt>
      <trkpt lat="44.3245" lon="6.30691">
        <ele>1677.8</ele>
        <time>2024-02-25T11:31:50Z</time>
      </trkpt>
      <trkpt lat="44.32448" lon="6.30695">
        <ele>1678.2</ele>
        <time>2024-02-25T11:31:54Z</time>
      </trkpt>
      <trkpt lat="44.32447" lon="6.30701">
        <ele>1678.8</ele>
        <time>2024-02-25T11:32:00Z</time>
      </trkpt>
      <trkpt lat="44.32446" lon="6.30704">
        <ele>1679.4</ele>
        <time>2024-02-25T11:32:03Z</time>
      </trkpt>
      <trkpt lat="44.32444" lon="6.30711">
        <ele>1680.4</ele>
        <time>2024-02-25T11:32:10Z</time>
      </trkpt>
      <trkpt lat="44.32441" lon="6.3072">
        <ele>1681.6</ele>
        <time>2024-02-25T11:32:18Z</time>
      </trkpt>
      <trkpt lat="44.3244" lon="6.30722">
        <ele>1682.2</ele>
        <time>2024-02-25T11:32:20Z</time>
      </trkpt>
      <trkpt lat="44.32439" lon="6.30725">
        <ele>1682.6</ele>
        <time>2024-02-25T11:32:23Z</time>
      </trkpt>
      <trkpt lat="44.32438" lon="6.30732">
        <ele>1682.4</ele>
        <time>2024-02-25T11:32:30Z</time>
      </trkpt>
      <trkpt lat="44.32438" lon="6.3074">
        <ele>1683.2</ele>
        <time>2024-02-25T11:32:37Z</time>
      </trkpt>
      <trkpt lat="44.32437" lon="6.30743">
        <ele>1683.8</ele>
        <time>2024-02-25T11:32:39Z</time>
      </trkpt>
      <trkpt lat="44.32437" lon="6.30744">
        <ele>1684</ele>
        <time>2024-02-25T11:32:40Z</time>
      </trkpt>
      <trkpt lat="44.32438" lon="6.30751">
        <ele>1684.8</ele>
        <time>2024-02-25T11:32:47Z</time>
      </trkpt>
      <trkpt lat="44.32438" lon="6.30754">
        <ele>1685.2</ele>
        <time>2024-02-25T11:32:50Z</time>
      </trkpt>
      <trkpt lat="44.32437" lon="6.30756">
        <ele>1685.6</ele>
        <time>2024-02-25T11:32:52Z</time>
      </trkpt>
      <trkpt lat="44.32436" lon="6.30759">
        <ele>1685.8</ele>
        <time>2024-02-25T11:32:55Z</time>
      </trkpt>
      <trkpt lat="44.32436" lon="6.30763">
        <ele>1686.4</ele>
        <time>2024-02-25T11:33:00Z</time>
      </trkpt>
      <trkpt lat="44.32428" lon="6.30766">
        <ele>1685.8</ele>
        <time>2024-02-25T11:33:10Z</time>
      </trkpt>
      <trkpt lat="44.32425" lon="6.30776">
        <ele>1685</ele>
        <time>2024-02-25T11:33:20Z</time>
      </trkpt>
      <trkpt lat="44.32425" lon="6.30777">
        <ele>1684.6</ele>
        <time>2024-02-25T11:33:21Z</time>
      </trkpt>
      <trkpt lat="44.32422" lon="6.30783">
        <ele>1683.4</ele>
        <time>2024-02-25T11:33:26Z</time>
      </trkpt>
      <trkpt lat="44.32419" lon="6.30785">
        <ele>1682.2</ele>
        <time>2024-02-25T11:33:30Z</time>
      </trkpt>
      <trkpt lat="44.32412" lon="6.30791">
        <ele>1681.2</ele>
        <time>2024-02-25T11:33:38Z</time>
      </trkpt>
      <trkpt lat="44.32411" lon="6.30793">
        <ele>1680.4</ele>
        <time>2024-02-25T11:33:40Z</time>
      </trkpt>
      <trkpt lat="44.3241" lon="6.30795">
        <ele>1680</ele>
        <time>2024-02-25T11:33:42Z</time>
      </trkpt>
      <trkpt lat="44.32406" lon="6.30799">
        <ele>1679.6</ele>
        <time>2024-02-25T11:33:47Z</time>
      </trkpt>
      <trkpt lat="44.32404" lon="6.30803">
        <ele>1679.6</ele>
        <time>2024-02-25T11:33:50Z</time>
      </trkpt>
      <trkpt lat="44.324" lon="6.30812">
        <ele>1679.4</ele>
        <time>2024-02-25T11:33:58Z</time>
      </trkpt>
      <trkpt lat="44.32399" lon="6.30814">
        <ele>1679.6</ele>
        <time>2024-02-25T11:34:00Z</time>
      </trkpt>
      <trkpt lat="44.32396" lon="6.30819">
        <ele>1680.2</ele>
        <time>2024-02-25T11:34:04Z</time>
      </trkpt>
      <trkpt lat="44.32397" lon="6.3082">
        <ele>1680.4</ele>
        <time>2024-02-25T11:34:05Z</time>
      </trkpt>
      <trkpt lat="44.32397" lon="6.30821">
        <ele>1680.4</ele>
        <time>2024-02-25T11:34:06Z</time>
      </trkpt>
      <trkpt lat="44.32397" lon="6.30822">
        <ele>1680.6</ele>
        <time>2024-02-25T11:34:07Z</time>
      </trkpt>
      <trkpt lat="44.32396" lon="6.30825">
        <ele>1680.6</ele>
        <time>2024-02-25T11:34:09Z</time>
      </trkpt>
      <trkpt lat="44.32396" lon="6.30826">
        <ele>1680.8</ele>
        <time>2024-02-25T11:34:10Z</time>
      </trkpt>
      <trkpt lat="44.32396" lon="6.30828">
        <ele>1680.8</ele>
        <time>2024-02-25T11:34:11Z</time>
      </trkpt>
      <trkpt lat="44.32396" lon="6.30829">
        <ele>1680.8</ele>
        <time>2024-02-25T11:34:12Z</time>
      </trkpt>
      <trkpt lat="44.32396" lon="6.3083">
        <ele>1681</ele>
        <time>2024-02-25T11:34:13Z</time>
      </trkpt>
      <trkpt lat="44.32395" lon="6.30836">
        <ele>1681.2</ele>
        <time>2024-02-25T11:34:17Z</time>
      </trkpt>
      <trkpt lat="44.32393" lon="6.3084">
        <ele>1681.2</ele>
        <time>2024-02-25T11:34:20Z</time>
      </trkpt>
      <trkpt lat="44.3239" lon="6.30847">
        <ele>1682</ele>
        <time>2024-02-25T11:34:27Z</time>
      </trkpt>
      <trkpt lat="44.3239" lon="6.30848">
        <ele>1682</ele>
        <time>2024-02-25T11:34:29Z</time>
      </trkpt>
      <trkpt lat="44.3239" lon="6.30849">
        <ele>1682</ele>
        <time>2024-02-25T11:34:30Z</time>
      </trkpt>
      <trkpt lat="44.32392" lon="6.30851">
        <ele>1682.2</ele>
        <time>2024-02-25T11:34:33Z</time>
      </trkpt>
      <trkpt lat="44.32393" lon="6.30852">
        <ele>1682.4</ele>
        <time>2024-02-25T11:34:35Z</time>
      </trkpt>
      <trkpt lat="44.32393" lon="6.30852">
        <ele>1682.8</ele>
        <time>2024-02-25T11:34:37Z</time>
      </trkpt>
      <trkpt lat="44.32394" lon="6.30852">
        <ele>1683.2</ele>
        <time>2024-02-25T11:34:39Z</time>
      </trkpt>
      <trkpt lat="44.32395" lon="6.30853">
        <ele>1683.4</ele>
        <time>2024-02-25T11:34:40Z</time>
      </trkpt>
      <trkpt lat="44.32396" lon="6.30855">
        <ele>1683.6</ele>
        <time>2024-02-25T11:34:43Z</time>
      </trkpt>
      <trkpt lat="44.32397" lon="6.30857">
        <ele>1684.2</ele>
        <time>2024-02-25T11:34:49Z</time>
      </trkpt>
      <trkpt lat="44.32397" lon="6.30858">
        <ele>1684.2</ele>
        <time>2024-02-25T11:34:50Z</time>
      </trkpt>
      <trkpt lat="44.32397" lon="6.30857">
        <ele>1684.6</ele>
        <time>2024-02-25T11:35:00Z</time>
      </trkpt>
      <trkpt lat="44.32397" lon="6.30857">
        <ele>1684.4</ele>
        <time>2024-02-25T11:35:09Z</time>
      </trkpt>
      <trkpt lat="44.32396" lon="6.30856">
        <ele>1684.2</ele>
        <time>2024-02-25T11:35:10Z</time>
      </trkpt>
      <trkpt lat="44.32392" lon="6.30852">
        <ele>1683.4</ele>
        <time>2024-02-25T11:35:20Z</time>
      </trkpt>
      <trkpt lat="44.32391" lon="6.30852">
        <ele>1683</ele>
        <time>2024-02-25T11:35:23Z</time>
      </trkpt>
      <trkpt lat="44.3239" lon="6.30853">
        <ele>1682.6</ele>
        <time>2024-02-25T11:35:30Z</time>
      </trkpt>
      <trkpt lat="44.32388" lon="6.30858">
        <ele>1682.6</ele>
        <time>2024-02-25T11:35:38Z</time>
      </trkpt>
      <trkpt lat="44.32388" lon="6.3086">
        <ele>1682.6</ele>
        <time>2024-02-25T11:35:39Z</time>
      </trkpt>
      <trkpt lat="44.32388" lon="6.30861">
        <ele>1682.8</ele>
        <time>2024-02-25T11:35:40Z</time>
      </trkpt>
      <trkpt lat="44.32388" lon="6.30864">
        <ele>1682.8</ele>
        <time>2024-02-25T11:35:42Z</time>
      </trkpt>
      <trkpt lat="44.32387" lon="6.30867">
        <ele>1683.2</ele>
        <time>2024-02-25T11:35:44Z</time>
      </trkpt>
      <trkpt lat="44.32386" lon="6.3087">
        <ele>1683.2</ele>
        <time>2024-02-25T11:35:46Z</time>
      </trkpt>
      <trkpt lat="44.32386" lon="6.30872">
        <ele>1683.2</ele>
        <time>2024-02-25T11:35:47Z</time>
      </trkpt>
      <trkpt lat="44.32385" lon="6.30874">
        <ele>1683.6</ele>
        <time>2024-02-25T11:35:49Z</time>
      </trkpt>
      <trkpt lat="44.32385" lon="6.30876">
        <ele>1683.8</ele>
        <time>2024-02-25T11:35:50Z</time>
      </trkpt>
      <trkpt lat="44.32383" lon="6.30878">
        <ele>1684.2</ele>
        <time>2024-02-25T11:35:52Z</time>
      </trkpt>
      <trkpt lat="44.32383" lon="6.30881">
        <ele>1684.6</ele>
        <time>2024-02-25T11:35:54Z</time>
      </trkpt>
      <trkpt lat="44.32382" lon="6.30884">
        <ele>1684.8</ele>
        <time>2024-02-25T11:35:56Z</time>
      </trkpt>
      <trkpt lat="44.32381" lon="6.30887">
        <ele>1684.8</ele>
        <time>2024-02-25T11:35:58Z</time>
      </trkpt>
      <trkpt lat="44.3238" lon="6.30889">
        <ele>1684.8</ele>
        <time>2024-02-25T11:36:00Z</time>
      </trkpt>
      <trkpt lat="44.32378" lon="6.30897">
        <ele>1684.6</ele>
        <time>2024-02-25T11:36:05Z</time>
      </trkpt>
      <trkpt lat="44.32378" lon="6.30899">
        <ele>1684.8</ele>
        <time>2024-02-25T11:36:07Z</time>
      </trkpt>
      <trkpt lat="44.32377" lon="6.30904">
        <ele>1684.8</ele>
        <time>2024-02-25T11:36:10Z</time>
      </trkpt>
      <trkpt lat="44.32374" lon="6.30917">
        <ele>1684.4</ele>
        <time>2024-02-25T11:36:20Z</time>
      </trkpt>
      <trkpt lat="44.32371" lon="6.30921">
        <ele>1684.4</ele>
        <time>2024-02-25T11:36:24Z</time>
      </trkpt>
      <trkpt lat="44.32368" lon="6.30922">
        <ele>1683.2</ele>
        <time>2024-02-25T11:36:27Z</time>
      </trkpt>
      <trkpt lat="44.32367" lon="6.30923">
        <ele>1682.6</ele>
        <time>2024-02-25T11:36:28Z</time>
      </trkpt>
      <trkpt lat="44.32367" lon="6.30924">
        <ele>1682.4</ele>
        <time>2024-02-25T11:36:29Z</time>
      </trkpt>
      <trkpt lat="44.32366" lon="6.30925">
        <ele>1682.2</ele>
        <time>2024-02-25T11:36:30Z</time>
      </trkpt>
      <trkpt lat="44.32366" lon="6.30926">
        <ele>1682.4</ele>
        <time>2024-02-25T11:36:31Z</time>
      </trkpt>
      <trkpt lat="44.32365" lon="6.30929">
        <ele>1682.8</ele>
        <time>2024-02-25T11:36:33Z</time>
      </trkpt>
      <trkpt lat="44.32368" lon="6.30939">
        <ele>1681.6</ele>
        <time>2024-02-25T11:36:40Z</time>
      </trkpt>
      <trkpt lat="44.32368" lon="6.3094">
        <ele>1681.6</ele>
        <time>2024-02-25T11:36:41Z</time>
      </trkpt>
      <trkpt lat="44.32369" lon="6.30943">
        <ele>1681</ele>
        <time>2024-02-25T11:36:44Z</time>
      </trkpt>
      <trkpt lat="44.3237" lon="6.30945">
        <ele>1680.6</ele>
        <time>2024-02-25T11:36:46Z</time>
      </trkpt>
      <trkpt lat="44.32371" lon="6.30946">
        <ele>1680.2</ele>
        <time>2024-02-25T11:36:47Z</time>
      </trkpt>
      <trkpt lat="44.32372" lon="6.3095">
        <ele>1679.4</ele>
        <time>2024-02-25T11:36:50Z</time>
      </trkpt>
      <trkpt lat="44.32372" lon="6.30952">
        <ele>1679.2</ele>
        <time>2024-02-25T11:36:51Z</time>
      </trkpt>
      <trkpt lat="44.32373" lon="6.30953">
        <ele>1679.2</ele>
        <time>2024-02-25T11:36:52Z</time>
      </trkpt>
      <trkpt lat="44.32374" lon="6.30954">
        <ele>1679</ele>
        <time>2024-02-25T11:36:53Z</time>
      </trkpt>
      <trkpt lat="44.32375" lon="6.30958">
        <ele>1678.8</ele>
        <time>2024-02-25T11:36:55Z</time>
      </trkpt>
      <trkpt lat="44.32377" lon="6.30965">
        <ele>1678.2</ele>
        <time>2024-02-25T11:37:00Z</time>
      </trkpt>
      <trkpt lat="44.32384" lon="6.3098">
        <ele>1678.6</ele>
        <time>2024-02-25T11:37:10Z</time>
      </trkpt>
      <trkpt lat="44.32386" lon="6.30986">
        <ele>1679</ele>
        <time>2024-02-25T11:37:14Z</time>
      </trkpt>
      <trkpt lat="44.32388" lon="6.30988">
        <ele>1678.8</ele>
        <time>2024-02-25T11:37:16Z</time>
      </trkpt>
      <trkpt lat="44.3239" lon="6.30995">
        <ele>1679</ele>
        <time>2024-02-25T11:37:20Z</time>
      </trkpt>
      <trkpt lat="44.32391" lon="6.30999">
        <ele>1679</ele>
        <time>2024-02-25T11:37:23Z</time>
      </trkpt>
      <trkpt lat="44.32391" lon="6.31002">
        <ele>1679</ele>
        <time>2024-02-25T11:37:25Z</time>
      </trkpt>
      <trkpt lat="44.32391" lon="6.31011">
        <ele>1679</ele>
        <time>2024-02-25T11:37:30Z</time>
      </trkpt>
      <trkpt lat="44.3239" lon="6.31027">
        <ele>1678.8</ele>
        <time>2024-02-25T11:37:40Z</time>
      </trkpt>
      <trkpt lat="44.32387" lon="6.31044">
        <ele>1679.4</ele>
        <time>2024-02-25T11:37:50Z</time>
      </trkpt>
      <trkpt lat="44.3238" lon="6.31055">
        <ele>1680</ele>
        <time>2024-02-25T11:38:00Z</time>
      </trkpt>
      <trkpt lat="44.32377" lon="6.31059">
        <ele>1680.2</ele>
        <time>2024-02-25T11:38:03Z</time>
      </trkpt>
      <trkpt lat="44.3237" lon="6.31066">
        <ele>1679.8</ele>
        <time>2024-02-25T11:38:10Z</time>
      </trkpt>
      <trkpt lat="44.32363" lon="6.31072">
        <ele>1681.4</ele>
        <time>2024-02-25T11:38:18Z</time>
      </trkpt>
      <trkpt lat="44.32362" lon="6.31073">
        <ele>1681.6</ele>
        <time>2024-02-25T11:38:20Z</time>
      </trkpt>
      <trkpt lat="44.3236" lon="6.31077">
        <ele>1682</ele>
        <time>2024-02-25T11:38:24Z</time>
      </trkpt>
      <trkpt lat="44.32359" lon="6.31081">
        <ele>1682.4</ele>
        <time>2024-02-25T11:38:27Z</time>
      </trkpt>
      <trkpt lat="44.32357" lon="6.31085">
        <ele>1682.8</ele>
        <time>2024-02-25T11:38:30Z</time>
      </trkpt>
      <trkpt lat="44.32351" lon="6.31096">
        <ele>1682</ele>
        <time>2024-02-25T11:38:40Z</time>
      </trkpt>
      <trkpt lat="44.32351" lon="6.31099">
        <ele>1681.2</ele>
        <time>2024-02-25T11:38:43Z</time>
      </trkpt>
      <trkpt lat="44.3235" lon="6.31106">
        <ele>1680</ele>
        <time>2024-02-25T11:38:48Z</time>
      </trkpt>
      <trkpt lat="44.32349" lon="6.31108">
        <ele>1679.8</ele>
        <time>2024-02-25T11:38:50Z</time>
      </trkpt>
      <trkpt lat="44.32349" lon="6.31114">
        <ele>1678.8</ele>
        <time>2024-02-25T11:38:54Z</time>
      </trkpt>
      <trkpt lat="44.3235" lon="6.31122">
        <ele>1677.6</ele>
        <time>2024-02-25T11:38:59Z</time>
      </trkpt>
      <trkpt lat="44.32349" lon="6.31124">
        <ele>1677.4</ele>
        <time>2024-02-25T11:39:00Z</time>
      </trkpt>
      <trkpt lat="44.32349" lon="6.31134">
        <ele>1676.4</ele>
        <time>2024-02-25T11:39:06Z</time>
      </trkpt>
      <trkpt lat="44.3235" lon="6.3114">
        <ele>1676</ele>
        <time>2024-02-25T11:39:10Z</time>
      </trkpt>
      <trkpt lat="44.3235" lon="6.31149">
        <ele>1675.2</ele>
        <time>2024-02-25T11:39:15Z</time>
      </trkpt>
      <trkpt lat="44.32349" lon="6.31158">
        <ele>1674.6</ele>
        <time>2024-02-25T11:39:20Z</time>
      </trkpt>
      <trkpt lat="44.32348" lon="6.31168">
        <ele>1674</ele>
        <time>2024-02-25T11:39:26Z</time>
      </trkpt>
      <trkpt lat="44.32348" lon="6.31175">
        <ele>1673.4</ele>
        <time>2024-02-25T11:39:30Z</time>
      </trkpt>
      <trkpt lat="44.32348" lon="6.31181">
        <ele>1673.2</ele>
        <time>2024-02-25T11:39:33Z</time>
      </trkpt>
      <trkpt lat="44.32348" lon="6.31189">
        <ele>1672.8</ele>
        <time>2024-02-25T11:39:38Z</time>
      </trkpt>
      <trkpt lat="44.32347" lon="6.31192">
        <ele>1672.4</ele>
        <time>2024-02-25T11:39:40Z</time>
      </trkpt>
      <trkpt lat="44.32346" lon="6.31202">
        <ele>1671.6</ele>
        <time>2024-02-25T11:39:45Z</time>
      </trkpt>
      <trkpt lat="44.32345" lon="6.31203">
        <ele>1671.4</ele>
        <time>2024-02-25T11:39:46Z</time>
      </trkpt>
      <trkpt lat="44.32343" lon="6.31209">
        <ele>1671.2</ele>
        <time>2024-02-25T11:39:50Z</time>
      </trkpt>
      <trkpt lat="44.32338" lon="6.31227">
        <ele>1670.8</ele>
        <time>2024-02-25T11:40:00Z</time>
      </trkpt>
      <trkpt lat="44.32331" lon="6.31241">
        <ele>1670.8</ele>
        <time>2024-02-25T11:40:10Z</time>
      </trkpt>
      <trkpt lat="44.32325" lon="6.31258">
        <ele>1671.2</ele>
        <time>2024-02-25T11:40:20Z</time>
      </trkpt>
      <trkpt lat="44.32325" lon="6.31259">
        <ele>1671.2</ele>
        <time>2024-02-25T11:40:21Z</time>
      </trkpt>
      <trkpt lat="44.32324" lon="6.31267">
        <ele>1671.4</ele>
        <time>2024-02-25T11:40:26Z</time>
      </trkpt>
      <trkpt lat="44.32324" lon="6.31273">
        <ele>1671.6</ele>
        <time>2024-02-25T11:40:30Z</time>
      </trkpt>
      <trkpt lat="44.32324" lon="6.31273">
        <ele>1671.6</ele>
        <time>2024-02-25T11:40:31Z</time>
      </trkpt>
      <trkpt lat="44.32324" lon="6.31273">
        <ele>1671.4</ele>
        <time>2024-02-25T11:40:34Z</time>
      </trkpt>
      <trkpt lat="44.32324" lon="6.31281">
        <ele>1671.6</ele>
        <time>2024-02-25T11:40:40Z</time>
      </trkpt>
      <trkpt lat="44.32324" lon="6.31296">
        <ele>1671.8</ele>
        <time>2024-02-25T11:40:50Z</time>
      </trkpt>
      <trkpt lat="44.32326" lon="6.31308">
        <ele>1670.8</ele>
        <time>2024-02-25T11:40:58Z</time>
      </trkpt>
      <trkpt lat="44.32326" lon="6.31311">
        <ele>1670.6</ele>
        <time>2024-02-25T11:41:00Z</time>
      </trkpt>
      <trkpt lat="44.32327" lon="6.31312">
        <ele>1670.4</ele>
        <time>2024-02-25T11:41:01Z</time>
      </trkpt>
      <trkpt lat="44.32329" lon="6.31318">
        <ele>1669.8</ele>
        <time>2024-02-25T11:41:06Z</time>
      </trkpt>
      <trkpt lat="44.3233" lon="6.31318">
        <ele>1669.4</ele>
        <time>2024-02-25T11:41:10Z</time>
      </trkpt>
      <trkpt lat="44.32329" lon="6.31318">
        <ele>1669.4</ele>
        <time>2024-02-25T11:41:20Z</time>
      </trkpt>
      <trkpt lat="44.32329" lon="6.31317">
        <ele>1669.6</ele>
        <time>2024-02-25T11:41:30Z</time>
      </trkpt>
      <trkpt lat="44.3233" lon="6.31317">
        <ele>1669.6</ele>
        <time>2024-02-25T11:41:40Z</time>
      </trkpt>
      <trkpt lat="44.32332" lon="6.31321">
        <ele>1668.8</ele>
        <time>2024-02-25T11:41:50Z</time>
      </trkpt>
      <trkpt lat="44.32334" lon="6.31322">
        <ele>1668.8</ele>
        <time>2024-02-25T11:41:52Z</time>
      </trkpt>
      <trkpt lat="44.32336" lon="6.31326">
        <ele>1668.6</ele>
        <time>2024-02-25T11:41:56Z</time>
      </trkpt>
      <trkpt lat="44.32337" lon="6.31327">
        <ele>1668.4</ele>
        <time>2024-02-25T11:41:57Z</time>
      </trkpt>
      <trkpt lat="44.32337" lon="6.31328">
        <ele>1668.2</ele>
        <time>2024-02-25T11:41:58Z</time>
      </trkpt>
      <trkpt lat="44.32339" lon="6.31329">
        <ele>1667.8</ele>
        <time>2024-02-25T11:42:00Z</time>
      </trkpt>
      <trkpt lat="44.32342" lon="6.31332">
        <ele>1667</ele>
        <time>2024-02-25T11:42:04Z</time>
      </trkpt>
      <trkpt lat="44.32346" lon="6.31335">
        <ele>1666</ele>
        <time>2024-02-25T11:42:09Z</time>
      </trkpt>
      <trkpt lat="44.32347" lon="6.31335">
        <ele>1665.8</ele>
        <time>2024-02-25T11:42:10Z</time>
      </trkpt>
      <trkpt lat="44.32349" lon="6.31337">
        <ele>1665</ele>
        <time>2024-02-25T11:42:13Z</time>
      </trkpt>
      <trkpt lat="44.3235" lon="6.31337">
        <ele>1664.8</ele>
        <time>2024-02-25T11:42:14Z</time>
      </trkpt>
      <trkpt lat="44.32356" lon="6.31339">
        <ele>1664</ele>
        <time>2024-02-25T11:42:20Z</time>
      </trkpt>
      <trkpt lat="44.32358" lon="6.3134">
        <ele>1663.8</ele>
        <time>2024-02-25T11:42:21Z</time>
      </trkpt>
      <trkpt lat="44.3236" lon="6.31341">
        <ele>1663.4</ele>
        <time>2024-02-25T11:42:23Z</time>
      </trkpt>
      <trkpt lat="44.32364" lon="6.31344">
        <ele>1663.2</ele>
        <time>2024-02-25T11:42:26Z</time>
      </trkpt>
      <trkpt lat="44.32368" lon="6.31346">
        <ele>1662.8</ele>
        <time>2024-02-25T11:42:30Z</time>
      </trkpt>
      <trkpt lat="44.32379" lon="6.31356">
        <ele>1662</ele>
        <time>2024-02-25T11:42:40Z</time>
      </trkpt>
      <trkpt lat="44.3239" lon="6.31367">
        <ele>1661.8</ele>
        <time>2024-02-25T11:42:50Z</time>
      </trkpt>
      <trkpt lat="44.32391" lon="6.31368">
        <ele>1661.8</ele>
        <time>2024-02-25T11:42:51Z</time>
      </trkpt>
      <trkpt lat="44.324" lon="6.3138">
        <ele>1661</ele>
        <time>2024-02-25T11:43:00Z</time>
      </trkpt>
      <trkpt lat="44.32406" lon="6.31395">
        <ele>1661.2</ele>
        <time>2024-02-25T11:43:10Z</time>
      </trkpt>
      <trkpt lat="44.32404" lon="6.3141">
        <ele>1661.6</ele>
        <time>2024-02-25T11:43:20Z</time>
      </trkpt>
      <trkpt lat="44.32402" lon="6.31419">
        <ele>1662.4</ele>
        <time>2024-02-25T11:43:26Z</time>
      </trkpt>
      <trkpt lat="44.32402" lon="6.31425">
        <ele>1662.8</ele>
        <time>2024-02-25T11:43:30Z</time>
      </trkpt>
      <trkpt lat="44.32401" lon="6.31434">
        <ele>1663.8</ele>
        <time>2024-02-25T11:43:37Z</time>
      </trkpt>
      <trkpt lat="44.32402" lon="6.31438">
        <ele>1664.2</ele>
        <time>2024-02-25T11:43:40Z</time>
      </trkpt>
      <trkpt lat="44.32404" lon="6.3145">
        <ele>1664.6</ele>
        <time>2024-02-25T11:43:49Z</time>
      </trkpt>
      <trkpt lat="44.32405" lon="6.31451">
        <ele>1664.6</ele>
        <time>2024-02-25T11:43:50Z</time>
      </trkpt>
      <trkpt lat="44.32407" lon="6.31457">
        <ele>1665</ele>
        <time>2024-02-25T11:43:55Z</time>
      </trkpt>
      <trkpt lat="44.32409" lon="6.31463">
        <ele>1665.6</ele>
        <time>2024-02-25T11:44:00Z</time>
      </trkpt>
      <trkpt lat="44.3241" lon="6.31471">
        <ele>1665.8</ele>
        <time>2024-02-25T11:44:06Z</time>
      </trkpt>
      <trkpt lat="44.3241" lon="6.31473">
        <ele>1666</ele>
        <time>2024-02-25T11:44:07Z</time>
      </trkpt>
      <trkpt lat="44.32411" lon="6.31477">
        <ele>1666.2</ele>
        <time>2024-02-25T11:44:10Z</time>
      </trkpt>
      <trkpt lat="44.32412" lon="6.31487">
        <ele>1666.8</ele>
        <time>2024-02-25T11:44:17Z</time>
      </trkpt>
      <trkpt lat="44.32412" lon="6.31491">
        <ele>1666.8</ele>
        <time>2024-02-25T11:44:20Z</time>
      </trkpt>
      <trkpt lat="44.32412" lon="6.31502">
        <ele>1666</ele>
        <time>2024-02-25T11:44:27Z</time>
      </trkpt>
      <trkpt lat="44.32414" lon="6.31506">
        <ele>1665.8</ele>
        <time>2024-02-25T11:44:30Z</time>
      </trkpt>
      <trkpt lat="44.32415" lon="6.3151">
        <ele>1664.8</ele>
        <time>2024-02-25T11:44:34Z</time>
      </trkpt>
      <trkpt lat="44.32416" lon="6.31517">
        <ele>1664.2</ele>
        <time>2024-02-25T11:44:39Z</time>
      </trkpt>
      <trkpt lat="44.32417" lon="6.31519">
        <ele>1664</ele>
        <time>2024-02-25T11:44:40Z</time>
      </trkpt>
      <trkpt lat="44.32417" lon="6.31522">
        <ele>1663.8</ele>
        <time>2024-02-25T11:44:42Z</time>
      </trkpt>
      <trkpt lat="44.32418" lon="6.31526">
        <ele>1663.4</ele>
        <time>2024-02-25T11:44:45Z</time>
      </trkpt>
      <trkpt lat="44.32419" lon="6.31533">
        <ele>1662.6</ele>
        <time>2024-02-25T11:44:50Z</time>
      </trkpt>
      <trkpt lat="44.32423" lon="6.31541">
        <ele>1661.6</ele>
        <time>2024-02-25T11:44:56Z</time>
      </trkpt>
      <trkpt lat="44.32424" lon="6.31548">
        <ele>1661.4</ele>
        <time>2024-02-25T11:45:00Z</time>
      </trkpt>
      <trkpt lat="44.32424" lon="6.31567">
        <ele>1661</ele>
        <time>2024-02-25T11:45:10Z</time>
      </trkpt>
      <trkpt lat="44.32422" lon="6.31583">
        <ele>1660.8</ele>
        <time>2024-02-25T11:45:20Z</time>
      </trkpt>
      <trkpt lat="44.32421" lon="6.31587">
        <ele>1660.4</ele>
        <time>2024-02-25T11:45:23Z</time>
      </trkpt>
      <trkpt lat="44.32423" lon="6.31593">
        <ele>1659.6</ele>
        <time>2024-02-25T11:45:29Z</time>
      </trkpt>
      <trkpt lat="44.32424" lon="6.31594">
        <ele>1659.6</ele>
        <time>2024-02-25T11:45:30Z</time>
      </trkpt>
      <trkpt lat="44.32425" lon="6.31597">
        <ele>1659.4</ele>
        <time>2024-02-25T11:45:32Z</time>
      </trkpt>
      <trkpt lat="44.32427" lon="6.31606">
        <ele>1658.4</ele>
        <time>2024-02-25T11:45:39Z</time>
      </trkpt>
      <trkpt lat="44.32428" lon="6.31607">
        <ele>1658.2</ele>
        <time>2024-02-25T11:45:40Z</time>
      </trkpt>
      <trkpt lat="44.3243" lon="6.31614">
        <ele>1657.2</ele>
        <time>2024-02-25T11:45:46Z</time>
      </trkpt>
      <trkpt lat="44.32433" lon="6.31619">
        <ele>1656.6</ele>
        <time>2024-02-25T11:45:50Z</time>
      </trkpt>
      <trkpt lat="44.32437" lon="6.31624">
        <ele>1656.2</ele>
        <time>2024-02-25T11:45:55Z</time>
      </trkpt>
      <trkpt lat="44.32441" lon="6.31631">
        <ele>1655</ele>
        <time>2024-02-25T11:46:00Z</time>
      </trkpt>
      <trkpt lat="44.32448" lon="6.31642">
        <ele>1653.8</ele>
        <time>2024-02-25T11:46:08Z</time>
      </trkpt>
      <trkpt lat="44.32449" lon="6.31644">
        <ele>1653.8</ele>
        <time>2024-02-25T11:46:10Z</time>
      </trkpt>
      <trkpt lat="44.32451" lon="6.31654">
        <ele>1652.6</ele>
        <time>2024-02-25T11:46:16Z</time>
      </trkpt>
      <trkpt lat="44.32452" lon="6.3166">
        <ele>1652</ele>
        <time>2024-02-25T11:46:20Z</time>
      </trkpt>
      <trkpt lat="44.32452" lon="6.31664">
        <ele>1651.6</ele>
        <time>2024-02-25T11:46:22Z</time>
      </trkpt>
      <trkpt lat="44.32453" lon="6.31676">
        <ele>1650.8</ele>
        <time>2024-02-25T11:46:30Z</time>
      </trkpt>
      <trkpt lat="44.32453" lon="6.31679">
        <ele>1650.4</ele>
        <time>2024-02-25T11:46:32Z</time>
      </trkpt>
      <trkpt lat="44.3245" lon="6.31688">
        <ele>1649.4</ele>
        <time>2024-02-25T11:46:38Z</time>
      </trkpt>
      <trkpt lat="44.32449" lon="6.31691">
        <ele>1649</ele>
        <time>2024-02-25T11:46:40Z</time>
      </trkpt>
      <trkpt lat="44.32448" lon="6.31696">
        <ele>1648.2</ele>
        <time>2024-02-25T11:46:44Z</time>
      </trkpt>
      <trkpt lat="44.32447" lon="6.31704">
        <ele>1647.2</ele>
        <time>2024-02-25T11:46:49Z</time>
      </trkpt>
      <trkpt lat="44.32447" lon="6.31705">
        <ele>1647.2</ele>
        <time>2024-02-25T11:46:50Z</time>
      </trkpt>
      <trkpt lat="44.32444" lon="6.31714">
        <ele>1646</ele>
        <time>2024-02-25T11:46:56Z</time>
      </trkpt>
      <trkpt lat="44.32442" lon="6.31719">
        <ele>1645.4</ele>
        <time>2024-02-25T11:47:00Z</time>
      </trkpt>
      <trkpt lat="44.3244" lon="6.31723">
        <ele>1645</ele>
        <time>2024-02-25T11:47:03Z</time>
      </trkpt>
      <trkpt lat="44.32437" lon="6.31731">
        <ele>1643.8</ele>
        <time>2024-02-25T11:47:08Z</time>
      </trkpt>
      <trkpt lat="44.32436" lon="6.31734">
        <ele>1643.2</ele>
        <time>2024-02-25T11:47:10Z</time>
      </trkpt>
      <trkpt lat="44.32435" lon="6.31739">
        <ele>1642.8</ele>
        <time>2024-02-25T11:47:13Z</time>
      </trkpt>
      <trkpt lat="44.32431" lon="6.31749">
        <ele>1641.8</ele>
        <time>2024-02-25T11:47:20Z</time>
      </trkpt>
      <trkpt lat="44.32431" lon="6.31751">
        <ele>1641.6</ele>
        <time>2024-02-25T11:47:21Z</time>
      </trkpt>
      <trkpt lat="44.32427" lon="6.31762">
        <ele>1640.4</ele>
        <time>2024-02-25T11:47:29Z</time>
      </trkpt>
      <trkpt lat="44.32427" lon="6.31763">
        <ele>1640.2</ele>
        <time>2024-02-25T11:47:30Z</time>
      </trkpt>
      <trkpt lat="44.32425" lon="6.31771">
        <ele>1639.4</ele>
        <time>2024-02-25T11:47:35Z</time>
      </trkpt>
      <trkpt lat="44.32421" lon="6.31779">
        <ele>1638.6</ele>
        <time>2024-02-25T11:47:40Z</time>
      </trkpt>
      <trkpt lat="44.32419" lon="6.31783">
        <ele>1638.4</ele>
        <time>2024-02-25T11:47:43Z</time>
      </trkpt>
      <trkpt lat="44.32418" lon="6.31786">
        <ele>1638.2</ele>
        <time>2024-02-25T11:47:46Z</time>
      </trkpt>
      <trkpt lat="44.32417" lon="6.31791">
        <ele>1637.6</ele>
        <time>2024-02-25T11:47:50Z</time>
      </trkpt>
      <trkpt lat="44.32416" lon="6.31794">
        <ele>1637.4</ele>
        <time>2024-02-25T11:47:52Z</time>
      </trkpt>
      <trkpt lat="44.32414" lon="6.31806">
        <ele>1636.4</ele>
        <time>2024-02-25T11:48:00Z</time>
      </trkpt>
      <trkpt lat="44.32413" lon="6.31807">
        <ele>1636</ele>
        <time>2024-02-25T11:48:01Z</time>
      </trkpt>
      <trkpt lat="44.32413" lon="6.31816">
        <ele>1635</ele>
        <time>2024-02-25T11:48:07Z</time>
      </trkpt>
      <trkpt lat="44.32413" lon="6.3182">
        <ele>1634</ele>
        <time>2024-02-25T11:48:10Z</time>
      </trkpt>
      <trkpt lat="44.32414" lon="6.31822">
        <ele>1633.8</ele>
        <time>2024-02-25T11:48:11Z</time>
      </trkpt>
      <trkpt lat="44.32418" lon="6.31825">
        <ele>1633.2</ele>
        <time>2024-02-25T11:48:15Z</time>
      </trkpt>
      <trkpt lat="44.3242" lon="6.31826">
        <ele>1633</ele>
        <time>2024-02-25T11:48:17Z</time>
      </trkpt>
      <trkpt lat="44.32422" lon="6.31827">
        <ele>1632.6</ele>
        <time>2024-02-25T11:48:19Z</time>
      </trkpt>
      <trkpt lat="44.32423" lon="6.31827">
        <ele>1632.6</ele>
        <time>2024-02-25T11:48:20Z</time>
      </trkpt>
      <trkpt lat="44.32432" lon="6.31831">
        <ele>1631.6</ele>
        <time>2024-02-25T11:48:29Z</time>
      </trkpt>
      <trkpt lat="44.32433" lon="6.31831">
        <ele>1631.4</ele>
        <time>2024-02-25T11:48:30Z</time>
      </trkpt>
      <trkpt lat="44.32435" lon="6.31833">
        <ele>1630.8</ele>
        <time>2024-02-25T11:48:33Z</time>
      </trkpt>
      <trkpt lat="44.32437" lon="6.31833">
        <ele>1630.4</ele>
        <time>2024-02-25T11:48:35Z</time>
      </trkpt>
      <trkpt lat="44.32443" lon="6.31832">
        <ele>1629.4</ele>
        <time>2024-02-25T11:48:40Z</time>
      </trkpt>
      <trkpt lat="44.32444" lon="6.31832">
        <ele>1629.2</ele>
        <time>2024-02-25T11:48:41Z</time>
      </trkpt>
      <trkpt lat="44.32454" lon="6.31828">
        <ele>1628.2</ele>
        <time>2024-02-25T11:48:50Z</time>
      </trkpt>
      <trkpt lat="44.32455" lon="6.31827">
        <ele>1628.2</ele>
        <time>2024-02-25T11:48:51Z</time>
      </trkpt>
      <trkpt lat="44.32465" lon="6.31823">
        <ele>1627</ele>
        <time>2024-02-25T11:48:58Z</time>
      </trkpt>
      <trkpt lat="44.32468" lon="6.31822">
        <ele>1626.6</ele>
        <time>2024-02-25T11:49:00Z</time>
      </trkpt>
      <trkpt lat="44.32471" lon="6.31821">
        <ele>1626</ele>
        <time>2024-02-25T11:49:03Z</time>
      </trkpt>
      <trkpt lat="44.32478" lon="6.31818">
        <ele>1625.4</ele>
        <time>2024-02-25T11:49:10Z</time>
      </trkpt>
      <trkpt lat="44.32482" lon="6.31816">
        <ele>1624.8</ele>
        <time>2024-02-25T11:49:14Z</time>
      </trkpt>
      <trkpt lat="44.32488" lon="6.31814">
        <ele>1623.6</ele>
        <time>2024-02-25T11:49:20Z</time>
      </trkpt>
      <trkpt lat="44.32495" lon="6.31812">
        <ele>1622.6</ele>
        <time>2024-02-25T11:49:25Z</time>
      </trkpt>
      <trkpt lat="44.32501" lon="6.31809">
        <ele>1622</ele>
        <time>2024-02-25T11:49:30Z</time>
      </trkpt>
      <trkpt lat="44.32507" lon="6.31807">
        <ele>1621.4</ele>
        <time>2024-02-25T11:49:35Z</time>
      </trkpt>
      <trkpt lat="44.32509" lon="6.31808">
        <ele>1621.2</ele>
        <time>2024-02-25T11:49:37Z</time>
      </trkpt>
      <trkpt lat="44.32512" lon="6.3181">
        <ele>1621</ele>
        <time>2024-02-25T11:49:40Z</time>
      </trkpt>
      <trkpt lat="44.3252" lon="6.31812">
        <ele>1621</ele>
        <time>2024-02-25T11:49:47Z</time>
      </trkpt>
      <trkpt lat="44.32524" lon="6.31812">
        <ele>1621.4</ele>
        <time>2024-02-25T11:49:50Z</time>
      </trkpt>
      <trkpt lat="44.32535" lon="6.31813">
        <ele>1621</ele>
        <time>2024-02-25T11:50:00Z</time>
      </trkpt>
      <trkpt lat="44.32537" lon="6.31814">
        <ele>1621</ele>
        <time>2024-02-25T11:50:01Z</time>
      </trkpt>
      <trkpt lat="44.32546" lon="6.31813">
        <ele>1620.4</ele>
        <time>2024-02-25T11:50:09Z</time>
      </trkpt>
      <trkpt lat="44.32547" lon="6.31814">
        <ele>1620.4</ele>
        <time>2024-02-25T11:50:10Z</time>
      </trkpt>
      <trkpt lat="44.3255" lon="6.31815">
        <ele>1620.4</ele>
        <time>2024-02-25T11:50:13Z</time>
      </trkpt>
      <trkpt lat="44.32558" lon="6.31819">
        <ele>1619.8</ele>
        <time>2024-02-25T11:50:20Z</time>
      </trkpt>
      <trkpt lat="44.32564" lon="6.31822">
        <ele>1619.4</ele>
        <time>2024-02-25T11:50:25Z</time>
      </trkpt>
      <trkpt lat="44.32566" lon="6.31822">
        <ele>1619.4</ele>
        <time>2024-02-25T11:50:26Z</time>
      </trkpt>
      <trkpt lat="44.32572" lon="6.31823">
        <ele>1619.2</ele>
        <time>2024-02-25T11:50:30Z</time>
      </trkpt>
      <trkpt lat="44.3258" lon="6.31822">
        <ele>1618.2</ele>
        <time>2024-02-25T11:50:37Z</time>
      </trkpt>
      <trkpt lat="44.32583" lon="6.31824">
        <ele>1618</ele>
        <time>2024-02-25T11:50:40Z</time>
      </trkpt>
      <trkpt lat="44.32594" lon="6.3182">
        <ele>1617.6</ele>
        <time>2024-02-25T11:50:50Z</time>
      </trkpt>
      <trkpt lat="44.32603" lon="6.31817">
        <ele>1617.2</ele>
        <time>2024-02-25T11:50:58Z</time>
      </trkpt>
      <trkpt lat="44.32604" lon="6.31817">
        <ele>1617.2</ele>
        <time>2024-02-25T11:50:59Z</time>
      </trkpt>
      <trkpt lat="44.32605" lon="6.31817">
        <ele>1617</ele>
        <time>2024-02-25T11:51:00Z</time>
      </trkpt>
      <trkpt lat="44.32613" lon="6.31814">
        <ele>1616.2</ele>
        <time>2024-02-25T11:51:06Z</time>
      </trkpt>
      <trkpt lat="44.32616" lon="6.31811">
        <ele>1616</ele>
        <time>2024-02-25T11:51:10Z</time>
      </trkpt>
      <trkpt lat="44.32621" lon="6.31808">
        <ele>1615.2</ele>
        <time>2024-02-25T11:51:15Z</time>
      </trkpt>
      <trkpt lat="44.32626" lon="6.31804">
        <ele>1614.6</ele>
        <time>2024-02-25T11:51:20Z</time>
      </trkpt>
      <trkpt lat="44.32632" lon="6.31799">
        <ele>1614</ele>
        <time>2024-02-25T11:51:26Z</time>
      </trkpt>
      <trkpt lat="44.32635" lon="6.31795">
        <ele>1613.4</ele>
        <time>2024-02-25T11:51:30Z</time>
      </trkpt>
      <trkpt lat="44.3264" lon="6.31792">
        <ele>1613.2</ele>
        <time>2024-02-25T11:51:35Z</time>
      </trkpt>
      <trkpt lat="44.32646" lon="6.31789">
        <ele>1613</ele>
        <time>2024-02-25T11:51:40Z</time>
      </trkpt>
      <trkpt lat="44.32658" lon="6.31788">
        <ele>1612.4</ele>
        <time>2024-02-25T11:51:50Z</time>
      </trkpt>
      <trkpt lat="44.32664" lon="6.31787">
        <ele>1611.8</ele>
        <time>2024-02-25T11:51:55Z</time>
      </trkpt>
      <trkpt lat="44.32668" lon="6.31785">
        <ele>1611.6</ele>
        <time>2024-02-25T11:51:58Z</time>
      </trkpt>
      <trkpt lat="44.3267" lon="6.31785">
        <ele>1611.4</ele>
        <time>2024-02-25T11:52:00Z</time>
      </trkpt>
      <trkpt lat="44.32674" lon="6.31784">
        <ele>1611.2</ele>
        <time>2024-02-25T11:52:03Z</time>
      </trkpt>
      <trkpt lat="44.32677" lon="6.31783">
        <ele>1611</ele>
        <time>2024-02-25T11:52:06Z</time>
      </trkpt>
      <trkpt lat="44.32679" lon="6.31782">
        <ele>1610.8</ele>
        <time>2024-02-25T11:52:08Z</time>
      </trkpt>
      <trkpt lat="44.32681" lon="6.31781">
        <ele>1610.6</ele>
        <time>2024-02-25T11:52:10Z</time>
      </trkpt>
      <trkpt lat="44.32688" lon="6.31778">
        <ele>1609.8</ele>
        <time>2024-02-25T11:52:17Z</time>
      </trkpt>
      <trkpt lat="44.3269" lon="6.31778">
        <ele>1609.8</ele>
        <time>2024-02-25T11:52:19Z</time>
      </trkpt>
      <trkpt lat="44.3269" lon="6.31777">
        <ele>1609.6</ele>
        <time>2024-02-25T11:52:20Z</time>
      </trkpt>
      <trkpt lat="44.32697" lon="6.31772">
        <ele>1609.2</ele>
        <time>2024-02-25T11:52:27Z</time>
      </trkpt>
      <trkpt lat="44.327" lon="6.31771">
        <ele>1609</ele>
        <time>2024-02-25T11:52:30Z</time>
      </trkpt>
      <trkpt lat="44.32706" lon="6.31767">
        <ele>1608.6</ele>
        <time>2024-02-25T11:52:36Z</time>
      </trkpt>
      <trkpt lat="44.3271" lon="6.31765">
        <ele>1608.4</ele>
        <time>2024-02-25T11:52:40Z</time>
      </trkpt>
      <trkpt lat="44.32713" lon="6.31762">
        <ele>1608</ele>
        <time>2024-02-25T11:52:43Z</time>
      </trkpt>
      <trkpt lat="44.32719" lon="6.31759">
        <ele>1607.8</ele>
        <time>2024-02-25T11:52:47Z</time>
      </trkpt>
      <trkpt lat="44.32722" lon="6.31757">
        <ele>1607.6</ele>
        <time>2024-02-25T11:52:50Z</time>
      </trkpt>
      <trkpt lat="44.32723" lon="6.31756">
        <ele>1607.6</ele>
        <time>2024-02-25T11:52:51Z</time>
      </trkpt>
      <trkpt lat="44.32729" lon="6.3175">
        <ele>1606.8</ele>
        <time>2024-02-25T11:53:00Z</time>
      </trkpt>
      <trkpt lat="44.3273" lon="6.31749">
        <ele>1606.6</ele>
        <time>2024-02-25T11:53:01Z</time>
      </trkpt>
      <trkpt lat="44.32735" lon="6.31747">
        <ele>1606.2</ele>
        <time>2024-02-25T11:53:05Z</time>
      </trkpt>
      <trkpt lat="44.32741" lon="6.31744">
        <ele>1605.8</ele>
        <time>2024-02-25T11:53:10Z</time>
      </trkpt>
      <trkpt lat="44.32743" lon="6.31744">
        <ele>1605.6</ele>
        <time>2024-02-25T11:53:12Z</time>
      </trkpt>
      <trkpt lat="44.32743" lon="6.31743">
        <ele>1605.6</ele>
        <time>2024-02-25T11:53:13Z</time>
      </trkpt>
      <trkpt lat="44.3275" lon="6.31739">
        <ele>1605</ele>
        <time>2024-02-25T11:53:19Z</time>
      </trkpt>
      <trkpt lat="44.32751" lon="6.31738">
        <ele>1604.8</ele>
        <time>2024-02-25T11:53:20Z</time>
      </trkpt>
      <trkpt lat="44.32753" lon="6.31737">
        <ele>1604.8</ele>
        <time>2024-02-25T11:53:21Z</time>
      </trkpt>
      <trkpt lat="44.32754" lon="6.31736">
        <ele>1604.8</ele>
        <time>2024-02-25T11:53:22Z</time>
      </trkpt>
      <trkpt lat="44.32755" lon="6.31734">
        <ele>1604.6</ele>
        <time>2024-02-25T11:53:25Z</time>
      </trkpt>
      <trkpt lat="44.32758" lon="6.31729">
        <ele>1604</ele>
        <time>2024-02-25T11:53:30Z</time>
      </trkpt>
      <trkpt lat="44.3276" lon="6.31728">
        <ele>1603.6</ele>
        <time>2024-02-25T11:53:32Z</time>
      </trkpt>
      <trkpt lat="44.32761" lon="6.31727">
        <ele>1603.4</ele>
        <time>2024-02-25T11:53:34Z</time>
      </trkpt>
      <trkpt lat="44.32765" lon="6.31723">
        <ele>1603.2</ele>
        <time>2024-02-25T11:53:39Z</time>
      </trkpt>
      <trkpt lat="44.32766" lon="6.31723">
        <ele>1603</ele>
        <time>2024-02-25T11:53:40Z</time>
      </trkpt>
      <trkpt lat="44.32769" lon="6.31721">
        <ele>1602.8</ele>
        <time>2024-02-25T11:53:42Z</time>
      </trkpt>
      <trkpt lat="44.32774" lon="6.31716">
        <ele>1602.4</ele>
        <time>2024-02-25T11:53:48Z</time>
      </trkpt>
      <trkpt lat="44.32777" lon="6.31714">
        <ele>1602.2</ele>
        <time>2024-02-25T11:53:50Z</time>
      </trkpt>
      <trkpt lat="44.32785" lon="6.31703">
        <ele>1601.4</ele>
        <time>2024-02-25T11:54:00Z</time>
      </trkpt>
      <trkpt lat="44.32786" lon="6.31702">
        <ele>1601.4</ele>
        <time>2024-02-25T11:54:01Z</time>
      </trkpt>
      <trkpt lat="44.32786" lon="6.317">
        <ele>1601.4</ele>
        <time>2024-02-25T11:54:02Z</time>
      </trkpt>
      <trkpt lat="44.3279" lon="6.31691">
        <ele>1601.2</ele>
        <time>2024-02-25T11:54:09Z</time>
      </trkpt>
      <trkpt lat="44.3279" lon="6.31689">
        <ele>1601.2</ele>
        <time>2024-02-25T11:54:10Z</time>
      </trkpt>
      <trkpt lat="44.32794" lon="6.31682">
        <ele>1600.6</ele>
        <time>2024-02-25T11:54:15Z</time>
      </trkpt>
      <trkpt lat="44.32797" lon="6.3168">
        <ele>1600.6</ele>
        <time>2024-02-25T11:54:19Z</time>
      </trkpt>
      <trkpt lat="44.32798" lon="6.31679">
        <ele>1600.6</ele>
        <time>2024-02-25T11:54:20Z</time>
      </trkpt>
      <trkpt lat="44.32801" lon="6.31674">
        <ele>1600.4</ele>
        <time>2024-02-25T11:54:23Z</time>
      </trkpt>
      <trkpt lat="44.32806" lon="6.31665">
        <ele>1599.6</ele>
        <time>2024-02-25T11:54:30Z</time>
      </trkpt>
      <trkpt lat="44.32806" lon="6.31662">
        <ele>1599.4</ele>
        <time>2024-02-25T11:54:32Z</time>
      </trkpt>
      <trkpt lat="44.32807" lon="6.3166">
        <ele>1599.2</ele>
        <time>2024-02-25T11:54:33Z</time>
      </trkpt>
      <trkpt lat="44.32807" lon="6.31657">
        <ele>1598.8</ele>
        <time>2024-02-25T11:54:35Z</time>
      </trkpt>
      <trkpt lat="44.32808" lon="6.31654">
        <ele>1598.4</ele>
        <time>2024-02-25T11:54:37Z</time>
      </trkpt>
      <trkpt lat="44.32809" lon="6.3165">
        <ele>1598.4</ele>
        <time>2024-02-25T11:54:39Z</time>
      </trkpt>
      <trkpt lat="44.32809" lon="6.31649">
        <ele>1598.4</ele>
        <time>2024-02-25T11:54:40Z</time>
      </trkpt>
      <trkpt lat="44.32809" lon="6.31645">
        <ele>1598</ele>
        <time>2024-02-25T11:54:43Z</time>
      </trkpt>
      <trkpt lat="44.3281" lon="6.31642">
        <ele>1597.8</ele>
        <time>2024-02-25T11:54:45Z</time>
      </trkpt>
      <trkpt lat="44.32813" lon="6.31637">
        <ele>1597.2</ele>
        <time>2024-02-25T11:54:48Z</time>
      </trkpt>
      <trkpt lat="44.32814" lon="6.31635">
        <ele>1597</ele>
        <time>2024-02-25T11:54:49Z</time>
      </trkpt>
      <trkpt lat="44.32815" lon="6.31634">
        <ele>1596.8</ele>
        <time>2024-02-25T11:54:50Z</time>
      </trkpt>
      <trkpt lat="44.32819" lon="6.31632">
        <ele>1596.6</ele>
        <time>2024-02-25T11:54:54Z</time>
      </trkpt>
      <trkpt lat="44.32823" lon="6.31637">
        <ele>1596</ele>
        <time>2024-02-25T11:54:58Z</time>
      </trkpt>
      <trkpt lat="44.32824" lon="6.31639">
        <ele>1595.6</ele>
        <time>2024-02-25T11:55:00Z</time>
      </trkpt>
      <trkpt lat="44.32824" lon="6.31647">
        <ele>1595</ele>
        <time>2024-02-25T11:55:05Z</time>
      </trkpt>
      <trkpt lat="44.32823" lon="6.31654">
        <ele>1594</ele>
        <time>2024-02-25T11:55:10Z</time>
      </trkpt>
      <trkpt lat="44.32823" lon="6.31655">
        <ele>1593.8</ele>
        <time>2024-02-25T11:55:11Z</time>
      </trkpt>
      <trkpt lat="44.32823" lon="6.31658">
        <ele>1593.2</ele>
        <time>2024-02-25T11:55:13Z</time>
      </trkpt>
      <trkpt lat="44.32822" lon="6.31662">
        <ele>1592.8</ele>
        <time>2024-02-25T11:55:16Z</time>
      </trkpt>
      <trkpt lat="44.32821" lon="6.31667">
        <ele>1592.2</ele>
        <time>2024-02-25T11:55:20Z</time>
      </trkpt>
      <trkpt lat="44.32821" lon="6.31673">
        <ele>1591.8</ele>
        <time>2024-02-25T11:55:24Z</time>
      </trkpt>
      <trkpt lat="44.32821" lon="6.31678">
        <ele>1591.2</ele>
        <time>2024-02-25T11:55:27Z</time>
      </trkpt>
      <trkpt lat="44.32822" lon="6.31681">
        <ele>1590.6</ele>
        <time>2024-02-25T11:55:29Z</time>
      </trkpt>
      <trkpt lat="44.32822" lon="6.31682">
        <ele>1590.4</ele>
        <time>2024-02-25T11:55:30Z</time>
      </trkpt>
      <trkpt lat="44.32823" lon="6.31685">
        <ele>1590</ele>
        <time>2024-02-25T11:55:32Z</time>
      </trkpt>
      <trkpt lat="44.32823" lon="6.3169">
        <ele>1589.4</ele>
        <time>2024-02-25T11:55:35Z</time>
      </trkpt>
      <trkpt lat="44.32823" lon="6.31697">
        <ele>1588.4</ele>
        <time>2024-02-25T11:55:40Z</time>
      </trkpt>
      <trkpt lat="44.32823" lon="6.31698">
        <ele>1588.2</ele>
        <time>2024-02-25T11:55:41Z</time>
      </trkpt>
      <trkpt lat="44.32823" lon="6.31701">
        <ele>1588</ele>
        <time>2024-02-25T11:55:44Z</time>
      </trkpt>
      <trkpt lat="44.32824" lon="6.31703">
        <ele>1587.6</ele>
        <time>2024-02-25T11:55:46Z</time>
      </trkpt>
      <trkpt lat="44.32824" lon="6.31705">
        <ele>1587.4</ele>
        <time>2024-02-25T11:55:47Z</time>
      </trkpt>
      <trkpt lat="44.32825" lon="6.31709">
        <ele>1587</ele>
        <time>2024-02-25T11:55:50Z</time>
      </trkpt>
      <trkpt lat="44.32826" lon="6.31713">
        <ele>1586.6</ele>
        <time>2024-02-25T11:55:52Z</time>
      </trkpt>
      <trkpt lat="44.32827" lon="6.31714">
        <ele>1586.2</ele>
        <time>2024-02-25T11:55:53Z</time>
      </trkpt>
      <trkpt lat="44.32827" lon="6.31716">
        <ele>1586</ele>
        <time>2024-02-25T11:55:54Z</time>
      </trkpt>
      <trkpt lat="44.32826" lon="6.3172">
        <ele>1585.8</ele>
        <time>2024-02-25T11:55:56Z</time>
      </trkpt>
      <trkpt lat="44.32826" lon="6.31725">
        <ele>1585.2</ele>
        <time>2024-02-25T11:56:00Z</time>
      </trkpt>
      <trkpt lat="44.32826" lon="6.31727">
        <ele>1585</ele>
        <time>2024-02-25T11:56:01Z</time>
      </trkpt>
      <trkpt lat="44.32825" lon="6.31728">
        <ele>1584.8</ele>
        <time>2024-02-25T11:56:02Z</time>
      </trkpt>
      <trkpt lat="44.32825" lon="6.31732">
        <ele>1584.6</ele>
        <time>2024-02-25T11:56:04Z</time>
      </trkpt>
      <trkpt lat="44.32824" lon="6.31738">
        <ele>1584</ele>
        <time>2024-02-25T11:56:08Z</time>
      </trkpt>
      <trkpt lat="44.32824" lon="6.3174">
        <ele>1583.8</ele>
        <time>2024-02-25T11:56:09Z</time>
      </trkpt>
      <trkpt lat="44.32823" lon="6.31741">
        <ele>1583.8</ele>
        <time>2024-02-25T11:56:10Z</time>
      </trkpt>
      <trkpt lat="44.32821" lon="6.31746">
        <ele>1583.6</ele>
        <time>2024-02-25T11:56:13Z</time>
      </trkpt>
      <trkpt lat="44.32821" lon="6.31751">
        <ele>1583</ele>
        <time>2024-02-25T11:56:16Z</time>
      </trkpt>
      <trkpt lat="44.32824" lon="6.31757">
        <ele>1582.4</ele>
        <time>2024-02-25T11:56:20Z</time>
      </trkpt>
      <trkpt lat="44.32826" lon="6.31761">
        <ele>1582.2</ele>
        <time>2024-02-25T11:56:22Z</time>
      </trkpt>
      <trkpt lat="44.32827" lon="6.31763">
        <ele>1582</ele>
        <time>2024-02-25T11:56:23Z</time>
      </trkpt>
      <trkpt lat="44.3283" lon="6.31767">
        <ele>1581.8</ele>
        <time>2024-02-25T11:56:25Z</time>
      </trkpt>
      <trkpt lat="44.32832" lon="6.31777">
        <ele>1581.4</ele>
        <time>2024-02-25T11:56:30Z</time>
      </trkpt>
      <trkpt lat="44.32831" lon="6.31782">
        <ele>1580.8</ele>
        <time>2024-02-25T11:56:33Z</time>
      </trkpt>
      <trkpt lat="44.32829" lon="6.31792">
        <ele>1580.2</ele>
        <time>2024-02-25T11:56:40Z</time>
      </trkpt>
      <trkpt lat="44.32828" lon="6.31804">
        <ele>1579.8</ele>
        <time>2024-02-25T11:56:47Z</time>
      </trkpt>
      <trkpt lat="44.32827" lon="6.31806">
        <ele>1579.4</ele>
        <time>2024-02-25T11:56:48Z</time>
      </trkpt>
      <trkpt lat="44.32826" lon="6.31809">
        <ele>1579</ele>
        <time>2024-02-25T11:56:50Z</time>
      </trkpt>
      <trkpt lat="44.32823" lon="6.31818">
        <ele>1579.2</ele>
        <time>2024-02-25T11:56:57Z</time>
      </trkpt>
      <trkpt lat="44.32824" lon="6.3182">
        <ele>1578.6</ele>
        <time>2024-02-25T11:56:59Z</time>
      </trkpt>
      <trkpt lat="44.32823" lon="6.31821">
        <ele>1578.2</ele>
        <time>2024-02-25T11:57:00Z</time>
      </trkpt>
      <trkpt lat="44.32823" lon="6.31824">
        <ele>1577.4</ele>
        <time>2024-02-25T11:57:02Z</time>
      </trkpt>
      <trkpt lat="44.32821" lon="6.31829">
        <ele>1577.4</ele>
        <time>2024-02-25T11:57:06Z</time>
      </trkpt>
      <trkpt lat="44.32821" lon="6.31836">
        <ele>1577.6</ele>
        <time>2024-02-25T11:57:10Z</time>
      </trkpt>
      <trkpt lat="44.3282" lon="6.31845">
        <ele>1576.2</ele>
        <time>2024-02-25T11:57:15Z</time>
      </trkpt>
      <trkpt lat="44.32818" lon="6.31849">
        <ele>1576.2</ele>
        <time>2024-02-25T11:57:19Z</time>
      </trkpt>
      <trkpt lat="44.32818" lon="6.3185">
        <ele>1576.4</ele>
        <time>2024-02-25T11:57:20Z</time>
      </trkpt>
      <trkpt lat="44.32817" lon="6.31852">
        <ele>1576.4</ele>
        <time>2024-02-25T11:57:22Z</time>
      </trkpt>
      <trkpt lat="44.32815" lon="6.31854">
        <ele>1576.2</ele>
        <time>2024-02-25T11:57:24Z</time>
      </trkpt>
      <trkpt lat="44.32809" lon="6.3186">
        <ele>1575.6</ele>
        <time>2024-02-25T11:57:30Z</time>
      </trkpt>
      <trkpt lat="44.32803" lon="6.31865">
        <ele>1575.2</ele>
        <time>2024-02-25T11:57:36Z</time>
      </trkpt>
      <trkpt lat="44.32799" lon="6.31871">
        <ele>1574.4</ele>
        <time>2024-02-25T11:57:40Z</time>
      </trkpt>
      <trkpt lat="44.32791" lon="6.31879">
        <ele>1574.4</ele>
        <time>2024-02-25T11:57:48Z</time>
      </trkpt>
      <trkpt lat="44.32791" lon="6.31881">
        <ele>1574</ele>
        <time>2024-02-25T11:57:49Z</time>
      </trkpt>
      <trkpt lat="44.32789" lon="6.31882">
        <ele>1573.8</ele>
        <time>2024-02-25T11:57:50Z</time>
      </trkpt>
      <trkpt lat="44.32777" lon="6.31894">
        <ele>1573.2</ele>
        <time>2024-02-25T11:58:00Z</time>
      </trkpt>
      <trkpt lat="44.32776" lon="6.31895">
        <ele>1573</ele>
        <time>2024-02-25T11:58:01Z</time>
      </trkpt>
      <trkpt lat="44.32766" lon="6.31904">
        <ele>1572</ele>
        <time>2024-02-25T11:58:10Z</time>
      </trkpt>
      <trkpt lat="44.32764" lon="6.31905">
        <ele>1571.8</ele>
        <time>2024-02-25T11:58:11Z</time>
      </trkpt>
      <trkpt lat="44.32756" lon="6.3191">
        <ele>1570.8</ele>
        <time>2024-02-25T11:58:17Z</time>
      </trkpt>
      <trkpt lat="44.32753" lon="6.31914">
        <ele>1570.8</ele>
        <time>2024-02-25T11:58:20Z</time>
      </trkpt>
      <trkpt lat="44.32751" lon="6.31918">
        <ele>1570.4</ele>
        <time>2024-02-25T11:58:23Z</time>
      </trkpt>
      <trkpt lat="44.32746" lon="6.31922">
        <ele>1569.8</ele>
        <time>2024-02-25T11:58:27Z</time>
      </trkpt>
      <trkpt lat="44.32743" lon="6.31925">
        <ele>1569.2</ele>
        <time>2024-02-25T11:58:30Z</time>
      </trkpt>
      <trkpt lat="44.32737" lon="6.31928">
        <ele>1568.8</ele>
        <time>2024-02-25T11:58:38Z</time>
      </trkpt>
      <trkpt lat="44.32736" lon="6.31928">
        <ele>1568.4</ele>
        <time>2024-02-25T11:58:39Z</time>
      </trkpt>
      <trkpt lat="44.32735" lon="6.31929">
        <ele>1568.2</ele>
        <time>2024-02-25T11:58:40Z</time>
      </trkpt>
      <trkpt lat="44.32733" lon="6.31931">
        <ele>1568</ele>
        <time>2024-02-25T11:58:42Z</time>
      </trkpt>
      <trkpt lat="44.32728" lon="6.3194">
        <ele>1567.6</ele>
        <time>2024-02-25T11:58:50Z</time>
      </trkpt>
      <trkpt lat="44.32727" lon="6.31942">
        <ele>1567.2</ele>
        <time>2024-02-25T11:58:51Z</time>
      </trkpt>
      <trkpt lat="44.32724" lon="6.31948">
        <ele>1566.2</ele>
        <time>2024-02-25T11:58:56Z</time>
      </trkpt>
      <trkpt lat="44.32723" lon="6.31953">
        <ele>1566</ele>
        <time>2024-02-25T11:59:00Z</time>
      </trkpt>
      <trkpt lat="44.32723" lon="6.31955">
        <ele>1566</ele>
        <time>2024-02-25T11:59:01Z</time>
      </trkpt>
      <trkpt lat="44.32724" lon="6.31963">
        <ele>1565.2</ele>
        <time>2024-02-25T11:59:06Z</time>
      </trkpt>
      <trkpt lat="44.32728" lon="6.3197">
        <ele>1564.6</ele>
        <time>2024-02-25T11:59:10Z</time>
      </trkpt>
      <trkpt lat="44.32734" lon="6.31977">
        <ele>1564.2</ele>
        <time>2024-02-25T11:59:18Z</time>
      </trkpt>
      <trkpt lat="44.32736" lon="6.31979">
        <ele>1564.2</ele>
        <time>2024-02-25T11:59:20Z</time>
      </trkpt>
      <trkpt lat="44.32737" lon="6.3198">
        <ele>1564.2</ele>
        <time>2024-02-25T11:59:21Z</time>
      </trkpt>
      <trkpt lat="44.32737" lon="6.31981">
        <ele>1564.2</ele>
        <time>2024-02-25T11:59:23Z</time>
      </trkpt>
      <trkpt lat="44.3274" lon="6.31981">
        <ele>1564.4</ele>
        <time>2024-02-25T11:59:27Z</time>
      </trkpt>
      <trkpt lat="44.32742" lon="6.31981">
        <ele>1564.6</ele>
        <time>2024-02-25T11:59:30Z</time>
      </trkpt>
      <trkpt lat="44.32754" lon="6.31979">
        <ele>1564.6</ele>
        <time>2024-02-25T11:59:40Z</time>
      </trkpt>
      <trkpt lat="44.32756" lon="6.31978">
        <ele>1564.6</ele>
        <time>2024-02-25T11:59:42Z</time>
      </trkpt>
      <trkpt lat="44.32757" lon="6.31978">
        <ele>1564.6</ele>
        <time>2024-02-25T11:59:43Z</time>
      </trkpt>
      <trkpt lat="44.32764" lon="6.31979">
        <ele>1564.6</ele>
        <time>2024-02-25T11:59:49Z</time>
      </trkpt>
      <trkpt lat="44.32765" lon="6.31979">
        <ele>1564.6</ele>
        <time>2024-02-25T11:59:50Z</time>
      </trkpt>
      <trkpt lat="44.32774" lon="6.31979">
        <ele>1564.4</ele>
        <time>2024-02-25T11:59:57Z</time>
      </trkpt>
      <trkpt lat="44.32777" lon="6.3198">
        <ele>1564.4</ele>
        <time>2024-02-25T12:00:00Z</time>
      </trkpt>
      <trkpt lat="44.32788" lon="6.31984">
        <ele>1564.2</ele>
        <time>2024-02-25T12:00:09Z</time>
      </trkpt>
      <trkpt lat="44.32788" lon="6.31985">
        <ele>1564.2</ele>
        <time>2024-02-25T12:00:10Z</time>
      </trkpt>
      <trkpt lat="44.32793" lon="6.31987">
        <ele>1564</ele>
        <time>2024-02-25T12:00:15Z</time>
      </trkpt>
      <trkpt lat="44.32796" lon="6.31989">
        <ele>1564</ele>
        <time>2024-02-25T12:00:17Z</time>
      </trkpt>
      <trkpt lat="44.32799" lon="6.31991">
        <ele>1564</ele>
        <time>2024-02-25T12:00:20Z</time>
      </trkpt>
      <trkpt lat="44.32804" lon="6.31996">
        <ele>1563.8</ele>
        <time>2024-02-25T12:00:25Z</time>
      </trkpt>
      <trkpt lat="44.32805" lon="6.31999">
        <ele>1563.8</ele>
        <time>2024-02-25T12:00:27Z</time>
      </trkpt>
      <trkpt lat="44.32806" lon="6.32002">
        <ele>1563.8</ele>
        <time>2024-02-25T12:00:29Z</time>
      </trkpt>
      <trkpt lat="44.32806" lon="6.32003">
        <ele>1563.8</ele>
        <time>2024-02-25T12:00:30Z</time>
      </trkpt>
      <trkpt lat="44.32807" lon="6.32013">
        <ele>1564</ele>
        <time>2024-02-25T12:00:35Z</time>
      </trkpt>
      <trkpt lat="44.32806" lon="6.3202">
        <ele>1563.8</ele>
        <time>2024-02-25T12:00:40Z</time>
      </trkpt>
      <trkpt lat="44.32803" lon="6.32024">
        <ele>1563.6</ele>
        <time>2024-02-25T12:00:43Z</time>
      </trkpt>
      <trkpt lat="44.32798" lon="6.32033">
        <ele>1563.6</ele>
        <time>2024-02-25T12:00:47Z</time>
      </trkpt>
      <trkpt lat="44.32795" lon="6.32038">
        <ele>1563.6</ele>
        <time>2024-02-25T12:00:50Z</time>
      </trkpt>
      <trkpt lat="44.32793" lon="6.32044">
        <ele>1563.8</ele>
        <time>2024-02-25T12:00:54Z</time>
      </trkpt>
      <trkpt lat="44.32791" lon="6.32053">
        <ele>1563.2</ele>
        <time>2024-02-25T12:01:00Z</time>
      </trkpt>
      <trkpt lat="44.32791" lon="6.32054">
        <ele>1563.2</ele>
        <time>2024-02-25T12:01:01Z</time>
      </trkpt>
      <trkpt lat="44.3279" lon="6.32058">
        <ele>1563</ele>
        <time>2024-02-25T12:01:04Z</time>
      </trkpt>
      <trkpt lat="44.32789" lon="6.32059">
        <ele>1563</ele>
        <time>2024-02-25T12:01:05Z</time>
      </trkpt>
      <trkpt lat="44.32787" lon="6.32063">
        <ele>1562.6</ele>
        <time>2024-02-25T12:01:08Z</time>
      </trkpt>
      <trkpt lat="44.32786" lon="6.32066">
        <ele>1562.4</ele>
        <time>2024-02-25T12:01:10Z</time>
      </trkpt>
      <trkpt lat="44.32785" lon="6.32069">
        <ele>1562.6</ele>
        <time>2024-02-25T12:01:14Z</time>
      </trkpt>
      <trkpt lat="44.32784" lon="6.32071">
        <ele>1562.4</ele>
        <time>2024-02-25T12:01:17Z</time>
      </trkpt>
      <trkpt lat="44.32781" lon="6.32075">
        <ele>1562.2</ele>
        <time>2024-02-25T12:01:20Z</time>
      </trkpt>
      <trkpt lat="44.32779" lon="6.32077">
        <ele>1562.2</ele>
        <time>2024-02-25T12:01:23Z</time>
      </trkpt>
      <trkpt lat="44.32777" lon="6.32079">
        <ele>1562.4</ele>
        <time>2024-02-25T12:01:27Z</time>
      </trkpt>
      <trkpt lat="44.32773" lon="6.32081">
        <ele>1562.4</ele>
        <time>2024-02-25T12:01:30Z</time>
      </trkpt>
      <trkpt lat="44.32766" lon="6.32087">
        <ele>1562.2</ele>
        <time>2024-02-25T12:01:35Z</time>
      </trkpt>
      <trkpt lat="44.32761" lon="6.32093">
        <ele>1562.2</ele>
        <time>2024-02-25T12:01:40Z</time>
      </trkpt>
      <trkpt lat="44.32757" lon="6.32099">
        <ele>1562</ele>
        <time>2024-02-25T12:01:45Z</time>
      </trkpt>
      <trkpt lat="44.32756" lon="6.321">
        <ele>1562</ele>
        <time>2024-02-25T12:01:46Z</time>
      </trkpt>
      <trkpt lat="44.32753" lon="6.32105">
        <ele>1561.4</ele>
        <time>2024-02-25T12:01:50Z</time>
      </trkpt>
      <trkpt lat="44.32744" lon="6.32113">
        <ele>1561</ele>
        <time>2024-02-25T12:01:59Z</time>
      </trkpt>
      <trkpt lat="44.32743" lon="6.32114">
        <ele>1561</ele>
        <time>2024-02-25T12:02:00Z</time>
      </trkpt>
      <trkpt lat="44.32734" lon="6.32125">
        <ele>1560.6</ele>
        <time>2024-02-25T12:02:10Z</time>
      </trkpt>
      <trkpt lat="44.32726" lon="6.32133">
        <ele>1560</ele>
        <time>2024-02-25T12:02:18Z</time>
      </trkpt>
      <trkpt lat="44.32724" lon="6.32135">
        <ele>1559.8</ele>
        <time>2024-02-25T12:02:20Z</time>
      </trkpt>
      <trkpt lat="44.32714" lon="6.32146">
        <ele>1559.6</ele>
        <time>2024-02-25T12:02:30Z</time>
      </trkpt>
      <trkpt lat="44.3271" lon="6.32151">
        <ele>1559</ele>
        <time>2024-02-25T12:02:34Z</time>
      </trkpt>
      <trkpt lat="44.32703" lon="6.32156">
        <ele>1558.6</ele>
        <time>2024-02-25T12:02:40Z</time>
      </trkpt>
      <trkpt lat="44.32697" lon="6.32163">
        <ele>1558</ele>
        <time>2024-02-25T12:02:49Z</time>
      </trkpt>
      <trkpt lat="44.32697" lon="6.32165">
        <ele>1558</ele>
        <time>2024-02-25T12:02:50Z</time>
      </trkpt>
      <trkpt lat="44.32693" lon="6.3217">
        <ele>1557.8</ele>
        <time>2024-02-25T12:02:56Z</time>
      </trkpt>
      <trkpt lat="44.3269" lon="6.32173">
        <ele>1557.8</ele>
        <time>2024-02-25T12:03:00Z</time>
      </trkpt>
      <trkpt lat="44.32689" lon="6.32175">
        <ele>1557.8</ele>
        <time>2024-02-25T12:03:02Z</time>
      </trkpt>
      <trkpt lat="44.32683" lon="6.32183">
        <ele>1557.4</ele>
        <time>2024-02-25T12:03:10Z</time>
      </trkpt>
      <trkpt lat="44.32677" lon="6.32192">
        <ele>1558</ele>
        <time>2024-02-25T12:03:18Z</time>
      </trkpt>
      <trkpt lat="44.32675" lon="6.32194">
        <ele>1558</ele>
        <time>2024-02-25T12:03:20Z</time>
      </trkpt>
      <trkpt lat="44.32667" lon="6.32209">
        <ele>1557.6</ele>
        <time>2024-02-25T12:03:30Z</time>
      </trkpt>
      <trkpt lat="44.32664" lon="6.32214">
        <ele>1557.4</ele>
        <time>2024-02-25T12:03:34Z</time>
      </trkpt>
      <trkpt lat="44.32662" lon="6.32218">
        <ele>1556.8</ele>
        <time>2024-02-25T12:03:37Z</time>
      </trkpt>
      <trkpt lat="44.3266" lon="6.32221">
        <ele>1556.6</ele>
        <time>2024-02-25T12:03:40Z</time>
      </trkpt>
      <trkpt lat="44.32651" lon="6.32232">
        <ele>1555.8</ele>
        <time>2024-02-25T12:03:50Z</time>
      </trkpt>
      <trkpt lat="44.3265" lon="6.32233">
        <ele>1555.8</ele>
        <time>2024-02-25T12:03:51Z</time>
      </trkpt>
      <trkpt lat="44.32644" lon="6.32245">
        <ele>1555.4</ele>
        <time>2024-02-25T12:04:00Z</time>
      </trkpt>
      <trkpt lat="44.32642" lon="6.32248">
        <ele>1555.4</ele>
        <time>2024-02-25T12:04:03Z</time>
      </trkpt>
      <trkpt lat="44.32639" lon="6.32258">
        <ele>1555</ele>
        <time>2024-02-25T12:04:10Z</time>
      </trkpt>
      <trkpt lat="44.32635" lon="6.32262">
        <ele>1554.8</ele>
        <time>2024-02-25T12:04:14Z</time>
      </trkpt>
      <trkpt lat="44.32632" lon="6.32266">
        <ele>1554.4</ele>
        <time>2024-02-25T12:04:18Z</time>
      </trkpt>
      <trkpt lat="44.3263" lon="6.32269">
        <ele>1554.4</ele>
        <time>2024-02-25T12:04:20Z</time>
      </trkpt>
      <trkpt lat="44.32626" lon="6.32285">
        <ele>1554.4</ele>
        <time>2024-02-25T12:04:30Z</time>
      </trkpt>
      <trkpt lat="44.32624" lon="6.32298">
        <ele>1554.4</ele>
        <time>2024-02-25T12:04:38Z</time>
      </trkpt>
      <trkpt lat="44.32624" lon="6.323">
        <ele>1554.4</ele>
        <time>2024-02-25T12:04:40Z</time>
      </trkpt>
      <trkpt lat="44.32624" lon="6.32306">
        <ele>1554</ele>
        <time>2024-02-25T12:04:44Z</time>
      </trkpt>
      <trkpt lat="44.32625" lon="6.32315">
        <ele>1553.8</ele>
        <time>2024-02-25T12:04:50Z</time>
      </trkpt>
      <trkpt lat="44.32625" lon="6.32316">
        <ele>1553.6</ele>
        <time>2024-02-25T12:04:51Z</time>
      </trkpt>
      <trkpt lat="44.32624" lon="6.32326">
        <ele>1553.6</ele>
        <time>2024-02-25T12:04:56Z</time>
      </trkpt>
      <trkpt lat="44.32623" lon="6.3233">
        <ele>1553.6</ele>
        <time>2024-02-25T12:05:00Z</time>
      </trkpt>
      <trkpt lat="44.32621" lon="6.32345">
        <ele>1552.8</ele>
        <time>2024-02-25T12:05:10Z</time>
      </trkpt>
      <trkpt lat="44.3262" lon="6.3235">
        <ele>1552.6</ele>
        <time>2024-02-25T12:05:13Z</time>
      </trkpt>
      <trkpt lat="44.32618" lon="6.32361">
        <ele>1552.2</ele>
        <time>2024-02-25T12:05:20Z</time>
      </trkpt>
      <trkpt lat="44.32616" lon="6.32371">
        <ele>1551.4</ele>
        <time>2024-02-25T12:05:27Z</time>
      </trkpt>
      <trkpt lat="44.32616" lon="6.32374">
        <ele>1551.2</ele>
        <time>2024-02-25T12:05:29Z</time>
      </trkpt>
      <trkpt lat="44.32616" lon="6.32375">
        <ele>1551.2</ele>
        <time>2024-02-25T12:05:30Z</time>
      </trkpt>
      <trkpt lat="44.3261" lon="6.3239">
        <ele>1550.8</ele>
        <time>2024-02-25T12:05:40Z</time>
      </trkpt>
      <trkpt lat="44.32609" lon="6.32394">
        <ele>1550.4</ele>
        <time>2024-02-25T12:05:44Z</time>
      </trkpt>
      <trkpt lat="44.32609" lon="6.32396">
        <ele>1550.4</ele>
        <time>2024-02-25T12:05:45Z</time>
      </trkpt>
      <trkpt lat="44.32609" lon="6.32397">
        <ele>1550.4</ele>
        <time>2024-02-25T12:05:46Z</time>
      </trkpt>
      <trkpt lat="44.32607" lon="6.32403">
        <ele>1550.4</ele>
        <time>2024-02-25T12:05:49Z</time>
      </trkpt>
      <trkpt lat="44.32606" lon="6.32404">
        <ele>1550.2</ele>
        <time>2024-02-25T12:05:50Z</time>
      </trkpt>
      <trkpt lat="44.32605" lon="6.32405">
        <ele>1550.2</ele>
        <time>2024-02-25T12:05:52Z</time>
      </trkpt>
      <trkpt lat="44.32601" lon="6.32411">
        <ele>1550</ele>
        <time>2024-02-25T12:05:57Z</time>
      </trkpt>
      <trkpt lat="44.326" lon="6.32415">
        <ele>1549.6</ele>
        <time>2024-02-25T12:06:00Z</time>
      </trkpt>
      <trkpt lat="44.32598" lon="6.32419">
        <ele>1549.4</ele>
        <time>2024-02-25T12:06:03Z</time>
      </trkpt>
      <trkpt lat="44.32594" lon="6.32427">
        <ele>1548.2</ele>
        <time>2024-02-25T12:06:09Z</time>
      </trkpt>
      <trkpt lat="44.32593" lon="6.32428">
        <ele>1548</ele>
        <time>2024-02-25T12:06:10Z</time>
      </trkpt>
      <trkpt lat="44.32588" lon="6.32437">
        <ele>1547</ele>
        <time>2024-02-25T12:06:17Z</time>
      </trkpt>
      <trkpt lat="44.32586" lon="6.3244">
        <ele>1546.6</ele>
        <time>2024-02-25T12:06:20Z</time>
      </trkpt>
      <trkpt lat="44.32583" lon="6.32447">
        <ele>1546</ele>
        <time>2024-02-25T12:06:26Z</time>
      </trkpt>
      <trkpt lat="44.32581" lon="6.32454">
        <ele>1545.6</ele>
        <time>2024-02-25T12:06:30Z</time>
      </trkpt>
      <trkpt lat="44.32579" lon="6.32461">
        <ele>1545</ele>
        <time>2024-02-25T12:06:34Z</time>
      </trkpt>
      <trkpt lat="44.32575" lon="6.3247">
        <ele>1545.2</ele>
        <time>2024-02-25T12:06:40Z</time>
      </trkpt>
      <trkpt lat="44.32574" lon="6.32473">
        <ele>1544.6</ele>
        <time>2024-02-25T12:06:43Z</time>
      </trkpt>
      <trkpt lat="44.32574" lon="6.32473">
        <ele>1544</ele>
        <time>2024-02-25T12:06:50Z</time>
      </trkpt>
      <trkpt lat="44.32574" lon="6.32472">
        <ele>1543.8</ele>
        <time>2024-02-25T12:06:54Z</time>
      </trkpt>
      <trkpt lat="44.32575" lon="6.32472">
        <ele>1544</ele>
        <time>2024-02-25T12:07:00Z</time>
      </trkpt>
      <trkpt lat="44.32575" lon="6.32471">
        <ele>1544</ele>
        <time>2024-02-25T12:07:08Z</time>
      </trkpt>
      <trkpt lat="44.32575" lon="6.32471">
        <ele>1543.8</ele>
        <time>2024-02-25T12:07:10Z</time>
      </trkpt>
      <trkpt lat="44.32575" lon="6.32471">
        <ele>1544</ele>
        <time>2024-02-25T12:07:14Z</time>
      </trkpt>
      <trkpt lat="44.32574" lon="6.32471">
        <ele>1544</ele>
        <time>2024-02-25T12:07:20Z</time>
      </trkpt>
      <trkpt lat="44.32573" lon="6.32475">
        <ele>1543.8</ele>
        <time>2024-02-25T12:07:30Z</time>
      </trkpt>
      <trkpt lat="44.32571" lon="6.32477">
        <ele>1543.8</ele>
        <time>2024-02-25T12:07:32Z</time>
      </trkpt>
      <trkpt lat="44.32565" lon="6.32486">
        <ele>1543.8</ele>
        <time>2024-02-25T12:07:40Z</time>
      </trkpt>
      <trkpt lat="44.32564" lon="6.32487">
        <ele>1543.8</ele>
        <time>2024-02-25T12:07:41Z</time>
      </trkpt>
      <trkpt lat="44.32562" lon="6.32491">
        <ele>1543.6</ele>
        <time>2024-02-25T12:07:44Z</time>
      </trkpt>
      <trkpt lat="44.32558" lon="6.32497">
        <ele>1542.8</ele>
        <time>2024-02-25T12:07:49Z</time>
      </trkpt>
      <trkpt lat="44.32557" lon="6.32498">
        <ele>1542.6</ele>
        <time>2024-02-25T12:07:50Z</time>
      </trkpt>
      <trkpt lat="44.32553" lon="6.32504">
        <ele>1542</ele>
        <time>2024-02-25T12:07:56Z</time>
      </trkpt>
      <trkpt lat="44.32553" lon="6.32507">
        <ele>1541.8</ele>
        <time>2024-02-25T12:07:58Z</time>
      </trkpt>
      <trkpt lat="44.32553" lon="6.32508">
        <ele>1541.6</ele>
        <time>2024-02-25T12:07:59Z</time>
      </trkpt>
      <trkpt lat="44.32552" lon="6.32509">
        <ele>1541.4</ele>
        <time>2024-02-25T12:08:00Z</time>
      </trkpt>
      <trkpt lat="44.32552" lon="6.3251">
        <ele>1541.4</ele>
        <time>2024-02-25T12:08:01Z</time>
      </trkpt>
      <trkpt lat="44.3255" lon="6.32514">
        <ele>1541</ele>
        <time>2024-02-25T12:08:04Z</time>
      </trkpt>
      <trkpt lat="44.32549" lon="6.32517">
        <ele>1540.6</ele>
        <time>2024-02-25T12:08:06Z</time>
      </trkpt>
      <trkpt lat="44.32549" lon="6.32519">
        <ele>1540.2</ele>
        <time>2024-02-25T12:08:08Z</time>
      </trkpt>
      <trkpt lat="44.32549" lon="6.32522">
        <ele>1540</ele>
        <time>2024-02-25T12:08:10Z</time>
      </trkpt>
      <trkpt lat="44.32549" lon="6.32525">
        <ele>1539.4</ele>
        <time>2024-02-25T12:08:13Z</time>
      </trkpt>
      <trkpt lat="44.32549" lon="6.32528">
        <ele>1539.2</ele>
        <time>2024-02-25T12:08:15Z</time>
      </trkpt>
      <trkpt lat="44.3255" lon="6.32534">
        <ele>1538.8</ele>
        <time>2024-02-25T12:08:18Z</time>
      </trkpt>
      <trkpt lat="44.3255" lon="6.32535">
        <ele>1538.6</ele>
        <time>2024-02-25T12:08:19Z</time>
      </trkpt>
      <trkpt lat="44.3255" lon="6.32537">
        <ele>1538.4</ele>
        <time>2024-02-25T12:08:20Z</time>
      </trkpt>
      <trkpt lat="44.32551" lon="6.32539">
        <ele>1538.4</ele>
        <time>2024-02-25T12:08:21Z</time>
      </trkpt>
      <trkpt lat="44.32553" lon="6.32555">
        <ele>1537.8</ele>
        <time>2024-02-25T12:08:30Z</time>
      </trkpt>
      <trkpt lat="44.32553" lon="6.32561">
        <ele>1537.2</ele>
        <time>2024-02-25T12:08:34Z</time>
      </trkpt>
      <trkpt lat="44.32554" lon="6.32572">
        <ele>1536.6</ele>
        <time>2024-02-25T12:08:40Z</time>
      </trkpt>
      <trkpt lat="44.32554" lon="6.32576">
        <ele>1536.2</ele>
        <time>2024-02-25T12:08:43Z</time>
      </trkpt>
      <trkpt lat="44.32552" lon="6.3258">
        <ele>1536</ele>
        <time>2024-02-25T12:08:46Z</time>
      </trkpt>
      <trkpt lat="44.32551" lon="6.32587">
        <ele>1535.6</ele>
        <time>2024-02-25T12:08:50Z</time>
      </trkpt>
      <trkpt lat="44.3255" lon="6.32593">
        <ele>1535</ele>
        <time>2024-02-25T12:08:54Z</time>
      </trkpt>
      <trkpt lat="44.32547" lon="6.32602">
        <ele>1534.6</ele>
        <time>2024-02-25T12:09:00Z</time>
      </trkpt>
      <trkpt lat="44.32546" lon="6.32606">
        <ele>1534</ele>
        <time>2024-02-25T12:09:03Z</time>
      </trkpt>
      <trkpt lat="44.32542" lon="6.32614">
        <ele>1533.6</ele>
        <time>2024-02-25T12:09:10Z</time>
      </trkpt>
      <trkpt lat="44.32538" lon="6.32627">
        <ele>1533</ele>
        <time>2024-02-25T12:09:18Z</time>
      </trkpt>
      <trkpt lat="44.32537" lon="6.3263">
        <ele>1532.6</ele>
        <time>2024-02-25T12:09:20Z</time>
      </trkpt>
      <trkpt lat="44.32536" lon="6.32634">
        <ele>1531.8</ele>
        <time>2024-02-25T12:09:23Z</time>
      </trkpt>
      <trkpt lat="44.32536" lon="6.32641">
        <ele>1530.8</ele>
        <time>2024-02-25T12:09:27Z</time>
      </trkpt>
      <trkpt lat="44.32537" lon="6.32645">
        <ele>1530.4</ele>
        <time>2024-02-25T12:09:30Z</time>
      </trkpt>
      <trkpt lat="44.32537" lon="6.3265">
        <ele>1529.6</ele>
        <time>2024-02-25T12:09:33Z</time>
      </trkpt>
      <trkpt lat="44.32538" lon="6.32657">
        <ele>1528.6</ele>
        <time>2024-02-25T12:09:38Z</time>
      </trkpt>
      <trkpt lat="44.32539" lon="6.32659">
        <ele>1528.4</ele>
        <time>2024-02-25T12:09:40Z</time>
      </trkpt>
      <trkpt lat="44.32543" lon="6.32663">
        <ele>1527.8</ele>
        <time>2024-02-25T12:09:45Z</time>
      </trkpt>
      <trkpt lat="44.32543" lon="6.32663">
        <ele>1527.6</ele>
        <time>2024-02-25T12:09:46Z</time>
      </trkpt>
      <trkpt lat="44.32546" lon="6.32663">
        <ele>1526.8</ele>
        <time>2024-02-25T12:09:50Z</time>
      </trkpt>
      <trkpt lat="44.32547" lon="6.32663">
        <ele>1526.6</ele>
        <time>2024-02-25T12:09:51Z</time>
      </trkpt>
      <trkpt lat="44.32551" lon="6.32663">
        <ele>1526</ele>
        <time>2024-02-25T12:09:54Z</time>
      </trkpt>
      <trkpt lat="44.32554" lon="6.32665">
        <ele>1525.6</ele>
        <time>2024-02-25T12:09:57Z</time>
      </trkpt>
      <trkpt lat="44.32556" lon="6.32667">
        <ele>1525</ele>
        <time>2024-02-25T12:10:00Z</time>
      </trkpt>
      <trkpt lat="44.32559" lon="6.32671">
        <ele>1524.8</ele>
        <time>2024-02-25T12:10:05Z</time>
      </trkpt>
      <trkpt lat="44.32563" lon="6.32676">
        <ele>1524.4</ele>
        <time>2024-02-25T12:10:10Z</time>
      </trkpt>
      <trkpt lat="44.32574" lon="6.3268">
        <ele>1523.4</ele>
        <time>2024-02-25T12:10:19Z</time>
      </trkpt>
      <trkpt lat="44.32575" lon="6.3268">
        <ele>1523.2</ele>
        <time>2024-02-25T12:10:20Z</time>
      </trkpt>
      <trkpt lat="44.32581" lon="6.32678">
        <ele>1522.2</ele>
        <time>2024-02-25T12:10:25Z</time>
      </trkpt>
      <trkpt lat="44.32588" lon="6.32681">
        <ele>1521.8</ele>
        <time>2024-02-25T12:10:30Z</time>
      </trkpt>
      <trkpt lat="44.32592" lon="6.3268">
        <ele>1521.2</ele>
        <time>2024-02-25T12:10:34Z</time>
      </trkpt>
      <trkpt lat="44.326" lon="6.32681">
        <ele>1520.4</ele>
        <time>2024-02-25T12:10:40Z</time>
      </trkpt>
      <trkpt lat="44.32602" lon="6.32681">
        <ele>1520</ele>
        <time>2024-02-25T12:10:43Z</time>
      </trkpt>
      <trkpt lat="44.3261" lon="6.32682">
        <ele>1519.4</ele>
        <time>2024-02-25T12:10:50Z</time>
      </trkpt>
      <trkpt lat="44.32613" lon="6.32682">
        <ele>1519</ele>
        <time>2024-02-25T12:10:53Z</time>
      </trkpt>
      <trkpt lat="44.3262" lon="6.32682">
        <ele>1518.2</ele>
        <time>2024-02-25T12:10:59Z</time>
      </trkpt>
      <trkpt lat="44.32621" lon="6.32681">
        <ele>1518</ele>
        <time>2024-02-25T12:11:00Z</time>
      </trkpt>
      <trkpt lat="44.32622" lon="6.32681">
        <ele>1518</ele>
        <time>2024-02-25T12:11:01Z</time>
      </trkpt>
      <trkpt lat="44.32631" lon="6.32683">
        <ele>1516.6</ele>
        <time>2024-02-25T12:11:10Z</time>
      </trkpt>
      <trkpt lat="44.32639" lon="6.32685">
        <ele>1515.6</ele>
        <time>2024-02-25T12:11:15Z</time>
      </trkpt>
      <trkpt lat="44.32644" lon="6.32686">
        <ele>1514.8</ele>
        <time>2024-02-25T12:11:20Z</time>
      </trkpt>
      <trkpt lat="44.32646" lon="6.32686">
        <ele>1514.6</ele>
        <time>2024-02-25T12:11:22Z</time>
      </trkpt>
      <trkpt lat="44.32654" lon="6.32688">
        <ele>1513.6</ele>
        <time>2024-02-25T12:11:30Z</time>
      </trkpt>
      <trkpt lat="44.32656" lon="6.32689">
        <ele>1513.4</ele>
        <time>2024-02-25T12:11:32Z</time>
      </trkpt>
      <trkpt lat="44.32665" lon="6.32691">
        <ele>1512.4</ele>
        <time>2024-02-25T12:11:40Z</time>
      </trkpt>
      <trkpt lat="44.32668" lon="6.32691">
        <ele>1512.4</ele>
        <time>2024-02-25T12:11:42Z</time>
      </trkpt>
      <trkpt lat="44.32676" lon="6.32694">
        <ele>1512.2</ele>
        <time>2024-02-25T12:11:50Z</time>
      </trkpt>
      <trkpt lat="44.3268" lon="6.32698">
        <ele>1511.4</ele>
        <time>2024-02-25T12:11:55Z</time>
      </trkpt>
      <trkpt lat="44.32681" lon="6.32699">
        <ele>1511.2</ele>
        <time>2024-02-25T12:11:57Z</time>
      </trkpt>
      <trkpt lat="44.32684" lon="6.327">
        <ele>1511</ele>
        <time>2024-02-25T12:12:00Z</time>
      </trkpt>
      <trkpt lat="44.32686" lon="6.32701">
        <ele>1510.8</ele>
        <time>2024-02-25T12:12:02Z</time>
      </trkpt>
      <trkpt lat="44.32687" lon="6.32701">
        <ele>1510.6</ele>
        <time>2024-02-25T12:12:04Z</time>
      </trkpt>
      <trkpt lat="44.32691" lon="6.32702">
        <ele>1510.4</ele>
        <time>2024-02-25T12:12:07Z</time>
      </trkpt>
      <trkpt lat="44.32692" lon="6.32703">
        <ele>1510.2</ele>
        <time>2024-02-25T12:12:08Z</time>
      </trkpt>
      <trkpt lat="44.32693" lon="6.32703">
        <ele>1510.2</ele>
        <time>2024-02-25T12:12:09Z</time>
      </trkpt>
      <trkpt lat="44.32694" lon="6.32703">
        <ele>1510</ele>
        <time>2024-02-25T12:12:10Z</time>
      </trkpt>
      <trkpt lat="44.32695" lon="6.32703">
        <ele>1510</ele>
        <time>2024-02-25T12:12:11Z</time>
      </trkpt>
      <trkpt lat="44.327" lon="6.32703">
        <ele>1509.4</ele>
        <time>2024-02-25T12:12:15Z</time>
      </trkpt>
      <trkpt lat="44.32704" lon="6.32704">
        <ele>1509.2</ele>
        <time>2024-02-25T12:12:19Z</time>
      </trkpt>
      <trkpt lat="44.32706" lon="6.32703">
        <ele>1509.2</ele>
        <time>2024-02-25T12:12:20Z</time>
      </trkpt>
      <trkpt lat="44.32706" lon="6.32704">
        <ele>1509</ele>
        <time>2024-02-25T12:12:21Z</time>
      </trkpt>
      <trkpt lat="44.32705" lon="6.32704">
        <ele>1508.8</ele>
        <time>2024-02-25T12:12:24Z</time>
      </trkpt>
      <trkpt lat="44.32711" lon="6.32704">
        <ele>1508.6</ele>
        <time>2024-02-25T12:12:30Z</time>
      </trkpt>
      <trkpt lat="44.32714" lon="6.32703">
        <ele>1508.2</ele>
        <time>2024-02-25T12:12:34Z</time>
      </trkpt>
      <trkpt lat="44.32717" lon="6.32707">
        <ele>1508</ele>
        <time>2024-02-25T12:12:37Z</time>
      </trkpt>
      <trkpt lat="44.3272" lon="6.32707">
        <ele>1507.4</ele>
        <time>2024-02-25T12:12:40Z</time>
      </trkpt>
      <trkpt lat="44.32722" lon="6.32706">
        <ele>1507.2</ele>
        <time>2024-02-25T12:12:42Z</time>
      </trkpt>
      <trkpt lat="44.32727" lon="6.32705">
        <ele>1506</ele>
        <time>2024-02-25T12:12:47Z</time>
      </trkpt>
      <trkpt lat="44.32729" lon="6.32705">
        <ele>1505.8</ele>
        <time>2024-02-25T12:12:50Z</time>
      </trkpt>
      <trkpt lat="44.32732" lon="6.32708">
        <ele>1504.8</ele>
        <time>2024-02-25T12:12:54Z</time>
      </trkpt>
      <trkpt lat="44.32733" lon="6.32709">
        <ele>1504.2</ele>
        <time>2024-02-25T12:12:56Z</time>
      </trkpt>
      <trkpt lat="44.32735" lon="6.32711">
        <ele>1503.6</ele>
        <time>2024-02-25T12:13:00Z</time>
      </trkpt>
      <trkpt lat="44.32737" lon="6.32711">
        <ele>1503.4</ele>
        <time>2024-02-25T12:13:01Z</time>
      </trkpt>
      <trkpt lat="44.32738" lon="6.32712">
        <ele>1503</ele>
        <time>2024-02-25T12:13:03Z</time>
      </trkpt>
      <trkpt lat="44.3274" lon="6.32714">
        <ele>1502.6</ele>
        <time>2024-02-25T12:13:05Z</time>
      </trkpt>
      <trkpt lat="44.32741" lon="6.3272">
        <ele>1501.4</ele>
        <time>2024-02-25T12:13:09Z</time>
      </trkpt>
      <trkpt lat="44.32742" lon="6.32721">
        <ele>1501.4</ele>
        <time>2024-02-25T12:13:10Z</time>
      </trkpt>
      <trkpt lat="44.32742" lon="6.32722">
        <ele>1501.4</ele>
        <time>2024-02-25T12:13:11Z</time>
      </trkpt>
      <trkpt lat="44.32741" lon="6.32725">
        <ele>1501.4</ele>
        <time>2024-02-25T12:13:13Z</time>
      </trkpt>
      <trkpt lat="44.3274" lon="6.32737">
        <ele>1501.8</ele>
        <time>2024-02-25T12:13:20Z</time>
      </trkpt>
      <trkpt lat="44.32739" lon="6.32743">
        <ele>1502</ele>
        <time>2024-02-25T12:13:24Z</time>
      </trkpt>
      <trkpt lat="44.32742" lon="6.32753">
        <ele>1502.4</ele>
        <time>2024-02-25T12:13:30Z</time>
      </trkpt>
      <trkpt lat="44.32744" lon="6.32755">
        <ele>1502.6</ele>
        <time>2024-02-25T12:13:32Z</time>
      </trkpt>
      <trkpt lat="44.32747" lon="6.32757">
        <ele>1502.6</ele>
        <time>2024-02-25T12:13:35Z</time>
      </trkpt>
      <trkpt lat="44.32751" lon="6.32759">
        <ele>1502.6</ele>
        <time>2024-02-25T12:13:38Z</time>
      </trkpt>
      <trkpt lat="44.32752" lon="6.32759">
        <ele>1502.4</ele>
        <time>2024-02-25T12:13:40Z</time>
      </trkpt>
      <trkpt lat="44.32758" lon="6.32751">
        <ele>1502.2</ele>
        <time>2024-02-25T12:13:50Z</time>
      </trkpt>
      <trkpt lat="44.32759" lon="6.32748">
        <ele>1501.8</ele>
        <time>2024-02-25T12:13:53Z</time>
      </trkpt>
      <trkpt lat="44.32761" lon="6.32747">
        <ele>1501.8</ele>
        <time>2024-02-25T12:13:55Z</time>
      </trkpt>
    </trkseg>
  </trk>
</gpx>